<?xml version="1.0" encoding="UTF-8" standalone="no" ?>
<gpx xmlns="http://www.topografix.com/GPX/1/1" xmlns:xsi="http://www.w3.org/2001/XMLSchema-instance" xsi:schemaLocation="http://www.topografix.com/GPX/1/1 http://www.topografix.com/GPX/1/1/gpx.xsd" version="1.1" creator="VisuGPX - https://www.visugpx.com">
  <metadata>
    <name>EVG Etche J1</name>
    <desc><![CDATA[De Samuran à Castillon-en-Couserans]]></desc>
  </metadata>
  <trk>
    <name><![CDATA[EVG J1]]></name>
    <trkseg>
      <trkpt lat="42.98771" lon="0.59478">
        <ele>604.33</ele>
        <time>2017-08-05T06:05:32Z</time>
      </trkpt>
      <trkpt lat="42.98764" lon="0.59478">
        <ele>604.33</ele>
        <time>2017-08-05T06:05:33Z</time>
      </trkpt>
      <trkpt lat="42.98764" lon="0.59479">
        <ele>611.06</ele>
        <time>2017-08-05T06:05:42Z</time>
      </trkpt>
      <trkpt lat="42.98765" lon="0.5948">
        <ele>611.06</ele>
        <time>2017-08-05T06:05:43Z</time>
      </trkpt>
      <trkpt lat="42.98764" lon="0.5948">
        <ele>614.42</ele>
        <time>2017-08-05T06:05:48Z</time>
      </trkpt>
      <trkpt lat="42.98765" lon="0.59481">
        <ele>617.78</ele>
        <time>2017-08-05T06:05:54Z</time>
      </trkpt>
      <trkpt lat="42.98764" lon="0.59481">
        <ele>621.15</ele>
        <time>2017-08-05T06:06:02Z</time>
      </trkpt>
      <trkpt lat="42.98763" lon="0.5948">
        <ele>624.03</ele>
        <time>2017-08-05T06:06:10Z</time>
      </trkpt>
      <trkpt lat="42.98764" lon="0.5948">
        <ele>624.99</ele>
        <time>2017-08-05T06:06:12Z</time>
      </trkpt>
      <trkpt lat="42.98767" lon="0.59477">
        <ele>620.19</ele>
        <time>2017-08-05T07:05:47Z</time>
      </trkpt>
      <trkpt lat="42.98767" lon="0.59476">
        <ele>620.67</ele>
        <time>2017-08-05T07:06:13Z</time>
      </trkpt>
      <trkpt lat="42.98767" lon="0.59476">
        <ele>620.67</ele>
        <time>2017-08-05T07:06:41Z</time>
      </trkpt>
      <trkpt lat="42.98766" lon="0.59479">
        <ele>620.67</ele>
        <time>2017-08-05T07:07:05Z</time>
      </trkpt>
      <trkpt lat="42.98769" lon="0.5948">
        <ele>620.67</ele>
        <time>2017-08-05T07:07:26Z</time>
      </trkpt>
      <trkpt lat="42.98772" lon="0.59486">
        <ele>620.67</ele>
        <time>2017-08-05T07:07:37Z</time>
      </trkpt>
      <trkpt lat="42.98761" lon="0.59492">
        <ele>622.11</ele>
        <time>2017-08-05T07:07:46Z</time>
      </trkpt>
      <trkpt lat="42.98752" lon="0.59497">
        <ele>623.55</ele>
        <time>2017-08-05T07:07:56Z</time>
      </trkpt>
      <trkpt lat="42.98759" lon="0.59494">
        <ele>622.59</ele>
        <time>2017-08-05T07:08:07Z</time>
      </trkpt>
      <trkpt lat="42.98769" lon="0.59489">
        <ele>621.63</ele>
        <time>2017-08-05T07:08:21Z</time>
      </trkpt>
      <trkpt lat="42.98776" lon="0.59484">
        <ele>620.19</ele>
        <time>2017-08-05T07:08:24Z</time>
      </trkpt>
      <trkpt lat="42.98797" lon="0.59472">
        <ele>616.34</ele>
        <time>2017-08-05T07:08:29Z</time>
      </trkpt>
      <trkpt lat="42.98809" lon="0.59454">
        <ele>613.46</ele>
        <time>2017-08-05T07:08:33Z</time>
      </trkpt>
      <trkpt lat="42.98806" lon="0.59439">
        <ele>612.02</ele>
        <time>2017-08-05T07:08:35Z</time>
      </trkpt>
      <trkpt lat="42.9878" lon="0.59395">
        <ele>609.13</ele>
        <time>2017-08-05T07:08:41Z</time>
      </trkpt>
      <trkpt lat="42.98772" lon="0.59354">
        <ele>606.25</ele>
        <time>2017-08-05T07:08:46Z</time>
      </trkpt>
      <trkpt lat="42.98761" lon="0.59315">
        <ele>602.88</ele>
        <time>2017-08-05T07:08:52Z</time>
      </trkpt>
      <trkpt lat="42.98737" lon="0.59287">
        <ele>602.88</ele>
        <time>2017-08-05T07:08:58Z</time>
      </trkpt>
      <trkpt lat="42.98729" lon="0.59273">
        <ele>602.88</ele>
        <time>2017-08-05T07:09:01Z</time>
      </trkpt>
      <trkpt lat="42.98713" lon="0.59251">
        <ele>604.81</ele>
        <time>2017-08-05T07:09:06Z</time>
      </trkpt>
      <trkpt lat="42.98667" lon="0.59216">
        <ele>608.17</ele>
        <time>2017-08-05T07:09:19Z</time>
      </trkpt>
      <trkpt lat="42.98648" lon="0.5922">
        <ele>610.09</ele>
        <time>2017-08-05T07:09:27Z</time>
      </trkpt>
      <trkpt lat="42.98648" lon="0.5922">
        <ele>610.09</ele>
        <time>2017-08-05T07:09:43Z</time>
      </trkpt>
      <trkpt lat="42.98646" lon="0.59223">
        <ele>610.09</ele>
        <time>2017-08-05T07:09:54Z</time>
      </trkpt>
      <trkpt lat="42.98621" lon="0.59243">
        <ele>610.57</ele>
        <time>2017-08-05T07:10:08Z</time>
      </trkpt>
      <trkpt lat="42.98576" lon="0.59242">
        <ele>612.98</ele>
        <time>2017-08-05T07:10:21Z</time>
      </trkpt>
      <trkpt lat="42.98526" lon="0.59227">
        <ele>615.86</ele>
        <time>2017-08-05T07:10:36Z</time>
      </trkpt>
      <trkpt lat="42.98492" lon="0.59194">
        <ele>617.78</ele>
        <time>2017-08-05T07:10:48Z</time>
      </trkpt>
      <trkpt lat="42.98488" lon="0.5919">
        <ele>617.78</ele>
        <time>2017-08-05T07:10:49Z</time>
      </trkpt>
      <trkpt lat="42.98477" lon="0.59176">
        <ele>616.34</ele>
        <time>2017-08-05T07:10:52Z</time>
      </trkpt>
      <trkpt lat="42.98455" lon="0.59166">
        <ele>614.42</ele>
        <time>2017-08-05T07:10:56Z</time>
      </trkpt>
      <trkpt lat="42.98434" lon="0.59154">
        <ele>613.46</ele>
        <time>2017-08-05T07:10:59Z</time>
      </trkpt>
      <trkpt lat="42.98421" lon="0.59128">
        <ele>611.54</ele>
        <time>2017-08-05T07:11:02Z</time>
      </trkpt>
      <trkpt lat="42.98402" lon="0.59072">
        <ele>607.69</ele>
        <time>2017-08-05T07:11:07Z</time>
      </trkpt>
      <trkpt lat="42.98388" lon="0.59007">
        <ele>604.33</ele>
        <time>2017-08-05T07:11:12Z</time>
      </trkpt>
      <trkpt lat="42.98383" lon="0.5897">
        <ele>604.33</ele>
        <time>2017-08-05T07:11:15Z</time>
      </trkpt>
      <trkpt lat="42.98342" lon="0.58915">
        <ele>600.96</ele>
        <time>2017-08-05T07:11:22Z</time>
      </trkpt>
      <trkpt lat="42.98288" lon="0.58888">
        <ele>596.64</ele>
        <time>2017-08-05T07:11:28Z</time>
      </trkpt>
      <trkpt lat="42.98246" lon="0.58849">
        <ele>592.31</ele>
        <time>2017-08-05T07:11:33Z</time>
      </trkpt>
      <trkpt lat="42.98229" lon="0.58825">
        <ele>589.91</ele>
        <time>2017-08-05T07:11:36Z</time>
      </trkpt>
      <trkpt lat="42.98223" lon="0.58792">
        <ele>588.46</ele>
        <time>2017-08-05T07:11:39Z</time>
      </trkpt>
      <trkpt lat="42.98221" lon="0.58747">
        <ele>586.06</ele>
        <time>2017-08-05T07:11:43Z</time>
      </trkpt>
      <trkpt lat="42.98213" lon="0.58728">
        <ele>585.58</ele>
        <time>2017-08-05T07:11:45Z</time>
      </trkpt>
      <trkpt lat="42.9818" lon="0.58693">
        <ele>582.7</ele>
        <time>2017-08-05T07:11:50Z</time>
      </trkpt>
      <trkpt lat="42.98134" lon="0.58663">
        <ele>582.22</ele>
        <time>2017-08-05T07:11:59Z</time>
      </trkpt>
      <trkpt lat="42.98131" lon="0.58662">
        <ele>582.22</ele>
        <time>2017-08-05T07:12:14Z</time>
      </trkpt>
      <trkpt lat="42.98129" lon="0.58661">
        <ele>582.22</ele>
        <time>2017-08-05T07:12:31Z</time>
      </trkpt>
      <trkpt lat="42.98134" lon="0.58663">
        <ele>582.22</ele>
        <time>2017-08-05T07:12:44Z</time>
      </trkpt>
      <trkpt lat="42.98141" lon="0.5867">
        <ele>582.22</ele>
        <time>2017-08-05T07:12:49Z</time>
      </trkpt>
      <trkpt lat="42.98143" lon="0.58678">
        <ele>583.66</ele>
        <time>2017-08-05T07:12:52Z</time>
      </trkpt>
      <trkpt lat="42.98141" lon="0.58685">
        <ele>584.14</ele>
        <time>2017-08-05T07:12:55Z</time>
      </trkpt>
      <trkpt lat="42.98123" lon="0.58699">
        <ele>587.98</ele>
        <time>2017-08-05T07:13:06Z</time>
      </trkpt>
      <trkpt lat="42.98105" lon="0.58703">
        <ele>591.35</ele>
        <time>2017-08-05T07:13:17Z</time>
      </trkpt>
      <trkpt lat="42.9808" lon="0.58696">
        <ele>594.23</ele>
        <time>2017-08-05T07:13:29Z</time>
      </trkpt>
      <trkpt lat="42.98055" lon="0.58688">
        <ele>597.6</ele>
        <time>2017-08-05T07:13:42Z</time>
      </trkpt>
      <trkpt lat="42.98029" lon="0.5868">
        <ele>600.96</ele>
        <time>2017-08-05T07:13:56Z</time>
      </trkpt>
      <trkpt lat="42.98009" lon="0.58661">
        <ele>604.33</ele>
        <time>2017-08-05T07:14:09Z</time>
      </trkpt>
      <trkpt lat="42.9799" lon="0.58634">
        <ele>607.21</ele>
        <time>2017-08-05T07:14:23Z</time>
      </trkpt>
      <trkpt lat="42.9797" lon="0.58612">
        <ele>611.06</ele>
        <time>2017-08-05T07:14:37Z</time>
      </trkpt>
      <trkpt lat="42.97968" lon="0.5861">
        <ele>611.06</ele>
        <time>2017-08-05T07:14:38Z</time>
      </trkpt>
      <trkpt lat="42.97964" lon="0.58602">
        <ele>612.02</ele>
        <time>2017-08-05T07:14:42Z</time>
      </trkpt>
      <trkpt lat="42.97943" lon="0.58578">
        <ele>615.86</ele>
        <time>2017-08-05T07:14:57Z</time>
      </trkpt>
      <trkpt lat="42.97922" lon="0.58569">
        <ele>619.23</ele>
        <time>2017-08-05T07:15:10Z</time>
      </trkpt>
      <trkpt lat="42.97899" lon="0.58569">
        <ele>622.59</ele>
        <time>2017-08-05T07:15:24Z</time>
      </trkpt>
      <trkpt lat="42.97879" lon="0.5858">
        <ele>625.96</ele>
        <time>2017-08-05T07:15:38Z</time>
      </trkpt>
      <trkpt lat="42.97855" lon="0.58585">
        <ele>628.84</ele>
        <time>2017-08-05T07:15:51Z</time>
      </trkpt>
      <trkpt lat="42.97854" lon="0.58586">
        <ele>628.84</ele>
        <time>2017-08-05T07:15:52Z</time>
      </trkpt>
      <trkpt lat="42.97834" lon="0.58581">
        <ele>632.2</ele>
        <time>2017-08-05T07:16:05Z</time>
      </trkpt>
      <trkpt lat="42.97828" lon="0.58579">
        <ele>633.17</ele>
        <time>2017-08-05T07:16:09Z</time>
      </trkpt>
      <trkpt lat="42.97807" lon="0.58578">
        <ele>636.05</ele>
        <time>2017-08-05T07:16:22Z</time>
      </trkpt>
      <trkpt lat="42.97781" lon="0.58581">
        <ele>639.41</ele>
        <time>2017-08-05T07:16:37Z</time>
      </trkpt>
      <trkpt lat="42.97773" lon="0.58579">
        <ele>640.86</ele>
        <time>2017-08-05T07:16:42Z</time>
      </trkpt>
      <trkpt lat="42.9775" lon="0.58573">
        <ele>644.22</ele>
        <time>2017-08-05T07:16:57Z</time>
      </trkpt>
      <trkpt lat="42.97729" lon="0.58567">
        <ele>647.59</ele>
        <time>2017-08-05T07:17:11Z</time>
      </trkpt>
      <trkpt lat="42.97715" lon="0.58565">
        <ele>649.51</ele>
        <time>2017-08-05T07:17:20Z</time>
      </trkpt>
      <trkpt lat="42.97695" lon="0.58566">
        <ele>652.39</ele>
        <time>2017-08-05T07:17:33Z</time>
      </trkpt>
      <trkpt lat="42.97694" lon="0.58566">
        <ele>652.39</ele>
        <time>2017-08-05T07:17:34Z</time>
      </trkpt>
      <trkpt lat="42.9767" lon="0.58563">
        <ele>656.24</ele>
        <time>2017-08-05T07:17:49Z</time>
      </trkpt>
      <trkpt lat="42.97646" lon="0.58554">
        <ele>659.6</ele>
        <time>2017-08-05T07:18:05Z</time>
      </trkpt>
      <trkpt lat="42.97621" lon="0.58553">
        <ele>663.45</ele>
        <time>2017-08-05T07:18:21Z</time>
      </trkpt>
      <trkpt lat="42.97601" lon="0.58549">
        <ele>666.81</ele>
        <time>2017-08-05T07:18:35Z</time>
      </trkpt>
      <trkpt lat="42.97582" lon="0.58533">
        <ele>669.7</ele>
        <time>2017-08-05T07:18:50Z</time>
      </trkpt>
      <trkpt lat="42.97566" lon="0.58498">
        <ele>672.1</ele>
        <time>2017-08-05T07:19:04Z</time>
      </trkpt>
      <trkpt lat="42.97533" lon="0.58452">
        <ele>673.54</ele>
        <time>2017-08-05T07:19:21Z</time>
      </trkpt>
      <trkpt lat="42.97495" lon="0.58464">
        <ele>674.5</ele>
        <time>2017-08-05T07:19:34Z</time>
      </trkpt>
      <trkpt lat="42.97451" lon="0.58488">
        <ele>676.42</ele>
        <time>2017-08-05T07:19:50Z</time>
      </trkpt>
      <trkpt lat="42.97419" lon="0.58528">
        <ele>678.35</ele>
        <time>2017-08-05T07:20:04Z</time>
      </trkpt>
      <trkpt lat="42.97391" lon="0.58556">
        <ele>681.71</ele>
        <time>2017-08-05T07:20:17Z</time>
      </trkpt>
      <trkpt lat="42.97351" lon="0.58573">
        <ele>684.6</ele>
        <time>2017-08-05T07:20:32Z</time>
      </trkpt>
      <trkpt lat="42.97315" lon="0.58618">
        <ele>685.08</ele>
        <time>2017-08-05T07:20:46Z</time>
      </trkpt>
      <trkpt lat="42.97291" lon="0.58658">
        <ele>685.08</ele>
        <time>2017-08-05T07:20:54Z</time>
      </trkpt>
      <trkpt lat="42.97267" lon="0.58689">
        <ele>684.12</ele>
        <time>2017-08-05T07:21:01Z</time>
      </trkpt>
      <trkpt lat="42.97261" lon="0.587">
        <ele>684.12</ele>
        <time>2017-08-05T07:21:03Z</time>
      </trkpt>
      <trkpt lat="42.97254" lon="0.58717">
        <ele>684.12</ele>
        <time>2017-08-05T07:21:06Z</time>
      </trkpt>
      <trkpt lat="42.97219" lon="0.58767">
        <ele>686.52</ele>
        <time>2017-08-05T07:21:19Z</time>
      </trkpt>
      <trkpt lat="42.97184" lon="0.58806">
        <ele>687</ele>
        <time>2017-08-05T07:21:31Z</time>
      </trkpt>
      <trkpt lat="42.97172" lon="0.58817">
        <ele>687</ele>
        <time>2017-08-05T07:21:34Z</time>
      </trkpt>
      <trkpt lat="42.97154" lon="0.58827">
        <ele>687</ele>
        <time>2017-08-05T07:21:38Z</time>
      </trkpt>
      <trkpt lat="42.97142" lon="0.58829">
        <ele>687</ele>
        <time>2017-08-05T07:21:41Z</time>
      </trkpt>
      <trkpt lat="42.97127" lon="0.58839">
        <ele>687</ele>
        <time>2017-08-05T07:21:45Z</time>
      </trkpt>
      <trkpt lat="42.9712" lon="0.58845">
        <ele>687</ele>
        <time>2017-08-05T07:21:50Z</time>
      </trkpt>
      <trkpt lat="42.97131" lon="0.58837">
        <ele>687.48</ele>
        <time>2017-08-05T07:22:00Z</time>
      </trkpt>
      <trkpt lat="42.9713" lon="0.58834">
        <ele>687.48</ele>
        <time>2017-08-05T07:22:12Z</time>
      </trkpt>
      <trkpt lat="42.97128" lon="0.58831">
        <ele>687.48</ele>
        <time>2017-08-05T07:22:36Z</time>
      </trkpt>
      <trkpt lat="42.9713" lon="0.5883">
        <ele>686.52</ele>
        <time>2017-08-05T07:22:49Z</time>
      </trkpt>
      <trkpt lat="42.97156" lon="0.58829">
        <ele>686.04</ele>
        <time>2017-08-05T07:23:00Z</time>
      </trkpt>
      <trkpt lat="42.97182" lon="0.58811">
        <ele>686.04</ele>
        <time>2017-08-05T07:23:12Z</time>
      </trkpt>
      <trkpt lat="42.97206" lon="0.58791">
        <ele>686.04</ele>
        <time>2017-08-05T07:23:24Z</time>
      </trkpt>
      <trkpt lat="42.97215" lon="0.58779">
        <ele>686.04</ele>
        <time>2017-08-05T07:23:30Z</time>
      </trkpt>
      <trkpt lat="42.97212" lon="0.58778">
        <ele>686.04</ele>
        <time>2017-08-05T07:23:35Z</time>
      </trkpt>
      <trkpt lat="42.97178" lon="0.58804">
        <ele>686.04</ele>
        <time>2017-08-05T07:23:50Z</time>
      </trkpt>
      <trkpt lat="42.97144" lon="0.58824">
        <ele>686.04</ele>
        <time>2017-08-05T07:24:02Z</time>
      </trkpt>
      <trkpt lat="42.97131" lon="0.58833">
        <ele>686.04</ele>
        <time>2017-08-05T07:24:08Z</time>
      </trkpt>
      <trkpt lat="42.97124" lon="0.58829">
        <ele>686.04</ele>
        <time>2017-08-05T07:24:13Z</time>
      </trkpt>
      <trkpt lat="42.9712" lon="0.58825">
        <ele>685.56</ele>
        <time>2017-08-05T07:24:25Z</time>
      </trkpt>
      <trkpt lat="42.9711" lon="0.58818">
        <ele>682.67</ele>
        <time>2017-08-05T07:24:35Z</time>
      </trkpt>
      <trkpt lat="42.97106" lon="0.58807">
        <ele>679.79</ele>
        <time>2017-08-05T07:24:39Z</time>
      </trkpt>
      <trkpt lat="42.9711" lon="0.58788">
        <ele>675.46</ele>
        <time>2017-08-05T07:24:45Z</time>
      </trkpt>
      <trkpt lat="42.97111" lon="0.58785">
        <ele>675.46</ele>
        <time>2017-08-05T07:24:46Z</time>
      </trkpt>
      <trkpt lat="42.9713" lon="0.58761">
        <ele>674.02</ele>
        <time>2017-08-05T07:24:56Z</time>
      </trkpt>
      <trkpt lat="42.97131" lon="0.58756">
        <ele>673.54</ele>
        <time>2017-08-05T07:25:04Z</time>
      </trkpt>
      <trkpt lat="42.9714" lon="0.58745">
        <ele>671.14</ele>
        <time>2017-08-05T07:25:10Z</time>
      </trkpt>
      <trkpt lat="42.97127" lon="0.58742">
        <ele>667.77</ele>
        <time>2017-08-05T07:25:18Z</time>
      </trkpt>
      <trkpt lat="42.97119" lon="0.58745">
        <ele>666.81</ele>
        <time>2017-08-05T07:25:21Z</time>
      </trkpt>
      <trkpt lat="42.97093" lon="0.58758">
        <ele>662.97</ele>
        <time>2017-08-05T07:25:28Z</time>
      </trkpt>
      <trkpt lat="42.9708" lon="0.58766">
        <ele>662.01</ele>
        <time>2017-08-05T07:25:31Z</time>
      </trkpt>
      <trkpt lat="42.97065" lon="0.58773">
        <ele>661.04</ele>
        <time>2017-08-05T07:25:34Z</time>
      </trkpt>
      <trkpt lat="42.97034" lon="0.58788">
        <ele>657.2</ele>
        <time>2017-08-05T07:25:42Z</time>
      </trkpt>
      <trkpt lat="42.97028" lon="0.58793">
        <ele>656.24</ele>
        <time>2017-08-05T07:25:44Z</time>
      </trkpt>
      <trkpt lat="42.9701" lon="0.58804">
        <ele>653.83</ele>
        <time>2017-08-05T07:25:49Z</time>
      </trkpt>
      <trkpt lat="42.96995" lon="0.5881">
        <ele>649.99</ele>
        <time>2017-08-05T07:25:55Z</time>
      </trkpt>
      <trkpt lat="42.9699" lon="0.58796">
        <ele>646.14</ele>
        <time>2017-08-05T07:26:00Z</time>
      </trkpt>
      <trkpt lat="42.9699" lon="0.58783">
        <ele>643.74</ele>
        <time>2017-08-05T07:26:03Z</time>
      </trkpt>
      <trkpt lat="42.96979" lon="0.58772">
        <ele>639.41</ele>
        <time>2017-08-05T07:26:08Z</time>
      </trkpt>
      <trkpt lat="42.96964" lon="0.58771">
        <ele>636.05</ele>
        <time>2017-08-05T07:26:13Z</time>
      </trkpt>
      <trkpt lat="42.96955" lon="0.58774">
        <ele>635.09</ele>
        <time>2017-08-05T07:26:16Z</time>
      </trkpt>
      <trkpt lat="42.96936" lon="0.58792">
        <ele>631.24</ele>
        <time>2017-08-05T07:26:24Z</time>
      </trkpt>
      <trkpt lat="42.96933" lon="0.58796">
        <ele>629.8</ele>
        <time>2017-08-05T07:26:26Z</time>
      </trkpt>
      <trkpt lat="42.96924" lon="0.58811">
        <ele>626.44</ele>
        <time>2017-08-05T07:26:33Z</time>
      </trkpt>
      <trkpt lat="42.96915" lon="0.58835">
        <ele>624.03</ele>
        <time>2017-08-05T07:26:37Z</time>
      </trkpt>
      <trkpt lat="42.96907" lon="0.58848">
        <ele>623.07</ele>
        <time>2017-08-05T07:26:40Z</time>
      </trkpt>
      <trkpt lat="42.9689" lon="0.58847">
        <ele>619.71</ele>
        <time>2017-08-05T07:26:44Z</time>
      </trkpt>
      <trkpt lat="42.96873" lon="0.5885">
        <ele>616.34</ele>
        <time>2017-08-05T07:26:47Z</time>
      </trkpt>
      <trkpt lat="42.96846" lon="0.58857">
        <ele>613.46</ele>
        <time>2017-08-05T07:26:51Z</time>
      </trkpt>
      <trkpt lat="42.96833" lon="0.58859">
        <ele>612.5</ele>
        <time>2017-08-05T07:26:57Z</time>
      </trkpt>
      <trkpt lat="42.96836" lon="0.58858">
        <ele>612.02</ele>
        <time>2017-08-05T07:27:13Z</time>
      </trkpt>
      <trkpt lat="42.96836" lon="0.58854">
        <ele>612.5</ele>
        <time>2017-08-05T07:27:31Z</time>
      </trkpt>
      <trkpt lat="42.9682" lon="0.58861">
        <ele>612.5</ele>
        <time>2017-08-05T07:27:40Z</time>
      </trkpt>
      <trkpt lat="42.9677" lon="0.58868">
        <ele>613.46</ele>
        <time>2017-08-05T07:27:52Z</time>
      </trkpt>
      <trkpt lat="42.96751" lon="0.58876">
        <ele>613.46</ele>
        <time>2017-08-05T07:27:56Z</time>
      </trkpt>
      <trkpt lat="42.9668" lon="0.58921">
        <ele>614.42</ele>
        <time>2017-08-05T07:28:11Z</time>
      </trkpt>
      <trkpt lat="42.96618" lon="0.5895">
        <ele>612.5</ele>
        <time>2017-08-05T07:28:23Z</time>
      </trkpt>
      <trkpt lat="42.96612" lon="0.58951">
        <ele>612.02</ele>
        <time>2017-08-05T07:28:24Z</time>
      </trkpt>
      <trkpt lat="42.96601" lon="0.58951">
        <ele>611.06</ele>
        <time>2017-08-05T07:28:26Z</time>
      </trkpt>
      <trkpt lat="42.9658" lon="0.58946">
        <ele>608.65</ele>
        <time>2017-08-05T07:28:30Z</time>
      </trkpt>
      <trkpt lat="42.96569" lon="0.58944">
        <ele>607.21</ele>
        <time>2017-08-05T07:28:32Z</time>
      </trkpt>
      <trkpt lat="42.96544" lon="0.5895">
        <ele>604.33</ele>
        <time>2017-08-05T07:28:36Z</time>
      </trkpt>
      <trkpt lat="42.96519" lon="0.58959">
        <ele>601.92</ele>
        <time>2017-08-05T07:28:40Z</time>
      </trkpt>
      <trkpt lat="42.96483" lon="0.58981">
        <ele>600.96</ele>
        <time>2017-08-05T07:28:45Z</time>
      </trkpt>
      <trkpt lat="42.96447" lon="0.58986">
        <ele>599.52</ele>
        <time>2017-08-05T07:28:50Z</time>
      </trkpt>
      <trkpt lat="42.96412" lon="0.58972">
        <ele>599.52</ele>
        <time>2017-08-05T07:28:57Z</time>
      </trkpt>
      <trkpt lat="42.96411" lon="0.58975">
        <ele>599.52</ele>
        <time>2017-08-05T07:29:05Z</time>
      </trkpt>
      <trkpt lat="42.96435" lon="0.58983">
        <ele>599.52</ele>
        <time>2017-08-05T07:29:15Z</time>
      </trkpt>
      <trkpt lat="42.96451" lon="0.58989">
        <ele>599.52</ele>
        <time>2017-08-05T07:29:23Z</time>
      </trkpt>
      <trkpt lat="42.96451" lon="0.59003">
        <ele>599.04</ele>
        <time>2017-08-05T07:29:27Z</time>
      </trkpt>
      <trkpt lat="42.9645" lon="0.59039">
        <ele>594.71</ele>
        <time>2017-08-05T07:29:33Z</time>
      </trkpt>
      <trkpt lat="42.96459" lon="0.59065">
        <ele>591.35</ele>
        <time>2017-08-05T07:29:37Z</time>
      </trkpt>
      <trkpt lat="42.96479" lon="0.59088">
        <ele>590.39</ele>
        <time>2017-08-05T07:29:41Z</time>
      </trkpt>
      <trkpt lat="42.96498" lon="0.59136">
        <ele>589.43</ele>
        <time>2017-08-05T07:29:47Z</time>
      </trkpt>
      <trkpt lat="42.96504" lon="0.59266">
        <ele>587.98</ele>
        <time>2017-08-05T07:30:02Z</time>
      </trkpt>
      <trkpt lat="42.9651" lon="0.59293">
        <ele>587.02</ele>
        <time>2017-08-05T07:30:05Z</time>
      </trkpt>
      <trkpt lat="42.9652" lon="0.59345">
        <ele>584.14</ele>
        <time>2017-08-05T07:30:10Z</time>
      </trkpt>
      <trkpt lat="42.96529" lon="0.59437">
        <ele>583.18</ele>
        <time>2017-08-05T07:30:20Z</time>
      </trkpt>
      <trkpt lat="42.96525" lon="0.59458">
        <ele>582.22</ele>
        <time>2017-08-05T07:30:24Z</time>
      </trkpt>
      <trkpt lat="42.96516" lon="0.59471">
        <ele>580.77</ele>
        <time>2017-08-05T07:30:27Z</time>
      </trkpt>
      <trkpt lat="42.96511" lon="0.59498">
        <ele>579.81</ele>
        <time>2017-08-05T07:30:31Z</time>
      </trkpt>
      <trkpt lat="42.96521" lon="0.59547">
        <ele>581.73</ele>
        <time>2017-08-05T07:30:40Z</time>
      </trkpt>
      <trkpt lat="42.9653" lon="0.59576">
        <ele>584.14</ele>
        <time>2017-08-05T07:30:52Z</time>
      </trkpt>
      <trkpt lat="42.96537" lon="0.59601">
        <ele>587.5</ele>
        <time>2017-08-05T07:31:04Z</time>
      </trkpt>
      <trkpt lat="42.96548" lon="0.59621">
        <ele>590.39</ele>
        <time>2017-08-05T07:31:15Z</time>
      </trkpt>
      <trkpt lat="42.96559" lon="0.59639">
        <ele>593.75</ele>
        <time>2017-08-05T07:31:28Z</time>
      </trkpt>
      <trkpt lat="42.9656" lon="0.5964">
        <ele>593.75</ele>
        <time>2017-08-05T07:31:29Z</time>
      </trkpt>
      <trkpt lat="42.96581" lon="0.59648">
        <ele>597.12</ele>
        <time>2017-08-05T07:31:44Z</time>
      </trkpt>
      <trkpt lat="42.96592" lon="0.59657">
        <ele>600</ele>
        <time>2017-08-05T07:31:56Z</time>
      </trkpt>
      <trkpt lat="42.96595" lon="0.59664">
        <ele>600.96</ele>
        <time>2017-08-05T07:32:00Z</time>
      </trkpt>
      <trkpt lat="42.96596" lon="0.59671">
        <ele>600.48</ele>
        <time>2017-08-05T07:32:03Z</time>
      </trkpt>
      <trkpt lat="42.96599" lon="0.59686">
        <ele>601.92</ele>
        <time>2017-08-05T07:32:10Z</time>
      </trkpt>
      <trkpt lat="42.96614" lon="0.59717">
        <ele>604.33</ele>
        <time>2017-08-05T07:32:25Z</time>
      </trkpt>
      <trkpt lat="42.96626" lon="0.59724">
        <ele>607.21</ele>
        <time>2017-08-05T07:32:40Z</time>
      </trkpt>
      <trkpt lat="42.96628" lon="0.59725">
        <ele>607.69</ele>
        <time>2017-08-05T07:32:41Z</time>
      </trkpt>
      <trkpt lat="42.96634" lon="0.59735">
        <ele>609.13</ele>
        <time>2017-08-05T07:32:49Z</time>
      </trkpt>
      <trkpt lat="42.9664" lon="0.59749">
        <ele>610.09</ele>
        <time>2017-08-05T07:33:02Z</time>
      </trkpt>
      <trkpt lat="42.96642" lon="0.59753">
        <ele>610.09</ele>
        <time>2017-08-05T07:33:04Z</time>
      </trkpt>
      <trkpt lat="42.96644" lon="0.59765">
        <ele>611.06</ele>
        <time>2017-08-05T07:33:10Z</time>
      </trkpt>
      <trkpt lat="42.96652" lon="0.59794">
        <ele>613.94</ele>
        <time>2017-08-05T07:33:24Z</time>
      </trkpt>
      <trkpt lat="42.96658" lon="0.59819">
        <ele>616.34</ele>
        <time>2017-08-05T07:33:35Z</time>
      </trkpt>
      <trkpt lat="42.96663" lon="0.59839">
        <ele>618.26</ele>
        <time>2017-08-05T07:33:44Z</time>
      </trkpt>
      <trkpt lat="42.96665" lon="0.59854">
        <ele>619.71</ele>
        <time>2017-08-05T07:33:51Z</time>
      </trkpt>
      <trkpt lat="42.96667" lon="0.59882">
        <ele>622.11</ele>
        <time>2017-08-05T07:34:04Z</time>
      </trkpt>
      <trkpt lat="42.96667" lon="0.59884">
        <ele>622.59</ele>
        <time>2017-08-05T07:34:05Z</time>
      </trkpt>
      <trkpt lat="42.96669" lon="0.59911">
        <ele>624.99</ele>
        <time>2017-08-05T07:34:17Z</time>
      </trkpt>
      <trkpt lat="42.96673" lon="0.59924">
        <ele>626.44</ele>
        <time>2017-08-05T07:34:21Z</time>
      </trkpt>
      <trkpt lat="42.96678" lon="0.59942">
        <ele>626.92</ele>
        <time>2017-08-05T07:34:28Z</time>
      </trkpt>
      <trkpt lat="42.96684" lon="0.59962">
        <ele>628.84</ele>
        <time>2017-08-05T07:34:36Z</time>
      </trkpt>
      <trkpt lat="42.96688" lon="0.59976">
        <ele>630.76</ele>
        <time>2017-08-05T07:34:44Z</time>
      </trkpt>
      <trkpt lat="42.96698" lon="0.59992">
        <ele>633.65</ele>
        <time>2017-08-05T07:34:56Z</time>
      </trkpt>
      <trkpt lat="42.96699" lon="0.59999">
        <ele>635.09</ele>
        <time>2017-08-05T07:35:10Z</time>
      </trkpt>
      <trkpt lat="42.96711" lon="0.60008">
        <ele>637.97</ele>
        <time>2017-08-05T07:35:26Z</time>
      </trkpt>
      <trkpt lat="42.96722" lon="0.60019">
        <ele>641.82</ele>
        <time>2017-08-05T07:35:40Z</time>
      </trkpt>
      <trkpt lat="42.96727" lon="0.60029">
        <ele>642.78</ele>
        <time>2017-08-05T07:35:53Z</time>
      </trkpt>
      <trkpt lat="42.96741" lon="0.60057">
        <ele>644.22</ele>
        <time>2017-08-05T07:36:08Z</time>
      </trkpt>
      <trkpt lat="42.96753" lon="0.60082">
        <ele>646.62</ele>
        <time>2017-08-05T07:36:20Z</time>
      </trkpt>
      <trkpt lat="42.9676" lon="0.60108">
        <ele>649.51</ele>
        <time>2017-08-05T07:36:34Z</time>
      </trkpt>
      <trkpt lat="42.96758" lon="0.60115">
        <ele>649.51</ele>
        <time>2017-08-05T07:36:59Z</time>
      </trkpt>
      <trkpt lat="42.96759" lon="0.60116">
        <ele>649.51</ele>
        <time>2017-08-05T07:37:06Z</time>
      </trkpt>
      <trkpt lat="42.96772" lon="0.60128">
        <ele>652.87</ele>
        <time>2017-08-05T07:37:17Z</time>
      </trkpt>
      <trkpt lat="42.9678" lon="0.60137">
        <ele>654.8</ele>
        <time>2017-08-05T07:37:24Z</time>
      </trkpt>
      <trkpt lat="42.96792" lon="0.60146">
        <ele>658.64</ele>
        <time>2017-08-05T07:37:34Z</time>
      </trkpt>
      <trkpt lat="42.96794" lon="0.60155">
        <ele>660.56</ele>
        <time>2017-08-05T07:37:46Z</time>
      </trkpt>
      <trkpt lat="42.96796" lon="0.60174">
        <ele>663.93</ele>
        <time>2017-08-05T07:38:02Z</time>
      </trkpt>
      <trkpt lat="42.96797" lon="0.60182">
        <ele>665.37</ele>
        <time>2017-08-05T07:38:08Z</time>
      </trkpt>
      <trkpt lat="42.96802" lon="0.60201">
        <ele>667.29</ele>
        <time>2017-08-05T07:38:24Z</time>
      </trkpt>
      <trkpt lat="42.96809" lon="0.60222">
        <ele>668.25</ele>
        <time>2017-08-05T07:38:37Z</time>
      </trkpt>
      <trkpt lat="42.96822" lon="0.60247">
        <ele>670.66</ele>
        <time>2017-08-05T07:38:51Z</time>
      </trkpt>
      <trkpt lat="42.96831" lon="0.60265">
        <ele>674.02</ele>
        <time>2017-08-05T07:39:03Z</time>
      </trkpt>
      <trkpt lat="42.96841" lon="0.60279">
        <ele>676.42</ele>
        <time>2017-08-05T07:39:16Z</time>
      </trkpt>
      <trkpt lat="42.96849" lon="0.60292">
        <ele>679.31</ele>
        <time>2017-08-05T07:39:29Z</time>
      </trkpt>
      <trkpt lat="42.96854" lon="0.60304">
        <ele>680.75</ele>
        <time>2017-08-05T07:39:44Z</time>
      </trkpt>
      <trkpt lat="42.96871" lon="0.60329">
        <ele>683.63</ele>
        <time>2017-08-05T07:40:00Z</time>
      </trkpt>
      <trkpt lat="42.96888" lon="0.6035">
        <ele>686.52</ele>
        <time>2017-08-05T07:40:16Z</time>
      </trkpt>
      <trkpt lat="42.96888" lon="0.60351">
        <ele>686.52</ele>
        <time>2017-08-05T07:40:30Z</time>
      </trkpt>
      <trkpt lat="42.96888" lon="0.60353">
        <ele>686.52</ele>
        <time>2017-08-05T07:40:58Z</time>
      </trkpt>
      <trkpt lat="42.96888" lon="0.60353">
        <ele>686.52</ele>
        <time>2017-08-05T07:41:20Z</time>
      </trkpt>
      <trkpt lat="42.96896" lon="0.60354">
        <ele>687</ele>
        <time>2017-08-05T07:41:48Z</time>
      </trkpt>
      <trkpt lat="42.96896" lon="0.60354">
        <ele>687</ele>
        <time>2017-08-05T07:42:16Z</time>
      </trkpt>
      <trkpt lat="42.96897" lon="0.60352">
        <ele>687</ele>
        <time>2017-08-05T07:42:42Z</time>
      </trkpt>
      <trkpt lat="42.96891" lon="0.60347">
        <ele>687</ele>
        <time>2017-08-05T07:42:55Z</time>
      </trkpt>
      <trkpt lat="42.96888" lon="0.60348">
        <ele>687</ele>
        <time>2017-08-05T07:43:08Z</time>
      </trkpt>
      <trkpt lat="42.96887" lon="0.60347">
        <ele>687</ele>
        <time>2017-08-05T07:43:10Z</time>
      </trkpt>
      <trkpt lat="42.96869" lon="0.60325">
        <ele>683.63</ele>
        <time>2017-08-05T07:43:20Z</time>
      </trkpt>
      <trkpt lat="42.96852" lon="0.60294">
        <ele>680.27</ele>
        <time>2017-08-05T07:43:30Z</time>
      </trkpt>
      <trkpt lat="42.96844" lon="0.60281">
        <ele>676.91</ele>
        <time>2017-08-05T07:43:34Z</time>
      </trkpt>
      <trkpt lat="42.96831" lon="0.60262">
        <ele>673.54</ele>
        <time>2017-08-05T07:43:38Z</time>
      </trkpt>
      <trkpt lat="42.96823" lon="0.60251">
        <ele>672.1</ele>
        <time>2017-08-05T07:43:40Z</time>
      </trkpt>
      <trkpt lat="42.96816" lon="0.60239">
        <ele>671.14</ele>
        <time>2017-08-05T07:43:42Z</time>
      </trkpt>
      <trkpt lat="42.9681" lon="0.60226">
        <ele>670.18</ele>
        <time>2017-08-05T07:43:44Z</time>
      </trkpt>
      <trkpt lat="42.96797" lon="0.60188">
        <ele>666.33</ele>
        <time>2017-08-05T07:43:51Z</time>
      </trkpt>
      <trkpt lat="42.96793" lon="0.6017">
        <ele>663.45</ele>
        <time>2017-08-05T07:43:55Z</time>
      </trkpt>
      <trkpt lat="42.96787" lon="0.60153">
        <ele>661.04</ele>
        <time>2017-08-05T07:44:00Z</time>
      </trkpt>
      <trkpt lat="42.96783" lon="0.60146">
        <ele>658.16</ele>
        <time>2017-08-05T07:44:03Z</time>
      </trkpt>
      <trkpt lat="42.96781" lon="0.60143">
        <ele>657.2</ele>
        <time>2017-08-05T07:44:04Z</time>
      </trkpt>
      <trkpt lat="42.9677" lon="0.60124">
        <ele>653.35</ele>
        <time>2017-08-05T07:44:08Z</time>
      </trkpt>
      <trkpt lat="42.96766" lon="0.60115">
        <ele>651.43</ele>
        <time>2017-08-05T07:44:10Z</time>
      </trkpt>
      <trkpt lat="42.96752" lon="0.6008">
        <ele>648.07</ele>
        <time>2017-08-05T07:44:16Z</time>
      </trkpt>
      <trkpt lat="42.96731" lon="0.60043">
        <ele>646.62</ele>
        <time>2017-08-05T07:44:22Z</time>
      </trkpt>
      <trkpt lat="42.96728" lon="0.60037">
        <ele>645.66</ele>
        <time>2017-08-05T07:44:23Z</time>
      </trkpt>
      <trkpt lat="42.96713" lon="0.60016">
        <ele>640.86</ele>
        <time>2017-08-05T07:44:28Z</time>
      </trkpt>
      <trkpt lat="42.96701" lon="0.60007">
        <ele>637.49</ele>
        <time>2017-08-05T07:44:32Z</time>
      </trkpt>
      <trkpt lat="42.96698" lon="0.60002">
        <ele>636.53</ele>
        <time>2017-08-05T07:44:34Z</time>
      </trkpt>
      <trkpt lat="42.96689" lon="0.59982">
        <ele>632.68</ele>
        <time>2017-08-05T07:44:39Z</time>
      </trkpt>
      <trkpt lat="42.96669" lon="0.5994">
        <ele>629.8</ele>
        <time>2017-08-05T07:44:47Z</time>
      </trkpt>
      <trkpt lat="42.96664" lon="0.59892">
        <ele>626.44</ele>
        <time>2017-08-05T07:44:54Z</time>
      </trkpt>
      <trkpt lat="42.96662" lon="0.59867">
        <ele>624.51</ele>
        <time>2017-08-05T07:44:57Z</time>
      </trkpt>
      <trkpt lat="42.96662" lon="0.59852">
        <ele>623.07</ele>
        <time>2017-08-05T07:44:59Z</time>
      </trkpt>
      <trkpt lat="42.96661" lon="0.59838">
        <ele>621.63</ele>
        <time>2017-08-05T07:45:01Z</time>
      </trkpt>
      <trkpt lat="42.96656" lon="0.59809">
        <ele>619.71</ele>
        <time>2017-08-05T07:45:05Z</time>
      </trkpt>
      <trkpt lat="42.96654" lon="0.59803">
        <ele>618.75</ele>
        <time>2017-08-05T07:45:06Z</time>
      </trkpt>
      <trkpt lat="42.96644" lon="0.59765">
        <ele>616.34</ele>
        <time>2017-08-05T07:45:11Z</time>
      </trkpt>
      <trkpt lat="42.9663" lon="0.59738">
        <ele>613.94</ele>
        <time>2017-08-05T07:45:16Z</time>
      </trkpt>
      <trkpt lat="42.96622" lon="0.59733">
        <ele>612.5</ele>
        <time>2017-08-05T07:45:18Z</time>
      </trkpt>
      <trkpt lat="42.96614" lon="0.59725">
        <ele>611.06</ele>
        <time>2017-08-05T07:45:20Z</time>
      </trkpt>
      <trkpt lat="42.96602" lon="0.59703">
        <ele>609.13</ele>
        <time>2017-08-05T07:45:24Z</time>
      </trkpt>
      <trkpt lat="42.96597" lon="0.59685">
        <ele>607.69</ele>
        <time>2017-08-05T07:45:27Z</time>
      </trkpt>
      <trkpt lat="42.96583" lon="0.59656">
        <ele>604.33</ele>
        <time>2017-08-05T07:45:33Z</time>
      </trkpt>
      <trkpt lat="42.96567" lon="0.59647">
        <ele>601.44</ele>
        <time>2017-08-05T07:45:38Z</time>
      </trkpt>
      <trkpt lat="42.96561" lon="0.59638">
        <ele>599.04</ele>
        <time>2017-08-05T07:45:41Z</time>
      </trkpt>
      <trkpt lat="42.96551" lon="0.59624">
        <ele>596.64</ele>
        <time>2017-08-05T07:45:44Z</time>
      </trkpt>
      <trkpt lat="42.96539" lon="0.59605">
        <ele>594.23</ele>
        <time>2017-08-05T07:45:48Z</time>
      </trkpt>
      <trkpt lat="42.96532" lon="0.59579">
        <ele>591.83</ele>
        <time>2017-08-05T07:45:52Z</time>
      </trkpt>
      <trkpt lat="42.96527" lon="0.59558">
        <ele>589.91</ele>
        <time>2017-08-05T07:45:55Z</time>
      </trkpt>
      <trkpt lat="42.96518" lon="0.59533">
        <ele>587.98</ele>
        <time>2017-08-05T07:45:58Z</time>
      </trkpt>
      <trkpt lat="42.96513" lon="0.59479">
        <ele>587.98</ele>
        <time>2017-08-05T07:46:06Z</time>
      </trkpt>
      <trkpt lat="42.96515" lon="0.59465">
        <ele>587.98</ele>
        <time>2017-08-05T07:46:11Z</time>
      </trkpt>
      <trkpt lat="42.96523" lon="0.59459">
        <ele>589.91</ele>
        <time>2017-08-05T07:46:18Z</time>
      </trkpt>
      <trkpt lat="42.96527" lon="0.5945">
        <ele>590.39</ele>
        <time>2017-08-05T07:46:23Z</time>
      </trkpt>
      <trkpt lat="42.96525" lon="0.59438">
        <ele>590.87</ele>
        <time>2017-08-05T07:46:28Z</time>
      </trkpt>
      <trkpt lat="42.96526" lon="0.59412">
        <ele>591.35</ele>
        <time>2017-08-05T07:46:41Z</time>
      </trkpt>
      <trkpt lat="42.96526" lon="0.59409">
        <ele>591.35</ele>
        <time>2017-08-05T07:47:06Z</time>
      </trkpt>
      <trkpt lat="42.96527" lon="0.59446">
        <ele>591.35</ele>
        <time>2017-08-05T07:47:17Z</time>
      </trkpt>
      <trkpt lat="42.96526" lon="0.59453">
        <ele>591.35</ele>
        <time>2017-08-05T07:47:19Z</time>
      </trkpt>
      <trkpt lat="42.96515" lon="0.59467">
        <ele>588.95</ele>
        <time>2017-08-05T07:47:25Z</time>
      </trkpt>
      <trkpt lat="42.9651" lon="0.5951">
        <ele>587.5</ele>
        <time>2017-08-05T07:47:36Z</time>
      </trkpt>
      <trkpt lat="42.9651" lon="0.59509">
        <ele>587.98</ele>
        <time>2017-08-05T07:47:57Z</time>
      </trkpt>
      <trkpt lat="42.9651" lon="0.59508">
        <ele>587.98</ele>
        <time>2017-08-05T07:47:59Z</time>
      </trkpt>
      <trkpt lat="42.9651" lon="0.59485">
        <ele>587.98</ele>
        <time>2017-08-05T07:48:07Z</time>
      </trkpt>
      <trkpt lat="42.96521" lon="0.5946">
        <ele>589.43</ele>
        <time>2017-08-05T07:48:15Z</time>
      </trkpt>
      <trkpt lat="42.96527" lon="0.59417">
        <ele>591.35</ele>
        <time>2017-08-05T07:48:26Z</time>
      </trkpt>
      <trkpt lat="42.9652" lon="0.59346">
        <ele>591.83</ele>
        <time>2017-08-05T07:48:39Z</time>
      </trkpt>
      <trkpt lat="42.96514" lon="0.59317">
        <ele>592.79</ele>
        <time>2017-08-05T07:48:50Z</time>
      </trkpt>
      <trkpt lat="42.96511" lon="0.59318">
        <ele>592.79</ele>
        <time>2017-08-05T07:49:05Z</time>
      </trkpt>
      <trkpt lat="42.96506" lon="0.59344">
        <ele>589.43</ele>
        <time>2017-08-05T07:49:14Z</time>
      </trkpt>
      <trkpt lat="42.96503" lon="0.59347">
        <ele>588.95</ele>
        <time>2017-08-05T07:49:15Z</time>
      </trkpt>
      <trkpt lat="42.96496" lon="0.59352">
        <ele>587.98</ele>
        <time>2017-08-05T07:49:17Z</time>
      </trkpt>
      <trkpt lat="42.96482" lon="0.59363">
        <ele>584.14</ele>
        <time>2017-08-05T07:49:21Z</time>
      </trkpt>
      <trkpt lat="42.96471" lon="0.59352">
        <ele>583.18</ele>
        <time>2017-08-05T07:49:25Z</time>
      </trkpt>
      <trkpt lat="42.96465" lon="0.59336">
        <ele>582.22</ele>
        <time>2017-08-05T07:49:29Z</time>
      </trkpt>
      <trkpt lat="42.9646" lon="0.59332">
        <ele>581.73</ele>
        <time>2017-08-05T07:49:40Z</time>
      </trkpt>
      <trkpt lat="42.96458" lon="0.59331">
        <ele>580.77</ele>
        <time>2017-08-05T07:49:47Z</time>
      </trkpt>
      <trkpt lat="42.96446" lon="0.59313">
        <ele>577.89</ele>
        <time>2017-08-05T07:49:54Z</time>
      </trkpt>
      <trkpt lat="42.96445" lon="0.59327">
        <ele>576.93</ele>
        <time>2017-08-05T07:50:00Z</time>
      </trkpt>
      <trkpt lat="42.96435" lon="0.59375">
        <ele>575.97</ele>
        <time>2017-08-05T07:50:08Z</time>
      </trkpt>
      <trkpt lat="42.96443" lon="0.59421">
        <ele>575.01</ele>
        <time>2017-08-05T07:50:14Z</time>
      </trkpt>
      <trkpt lat="42.96462" lon="0.59454">
        <ele>573.56</ele>
        <time>2017-08-05T07:50:19Z</time>
      </trkpt>
      <trkpt lat="42.96469" lon="0.59483">
        <ele>572.6</ele>
        <time>2017-08-05T07:50:23Z</time>
      </trkpt>
      <trkpt lat="42.9647" lon="0.59551">
        <ele>569.72</ele>
        <time>2017-08-05T07:50:32Z</time>
      </trkpt>
      <trkpt lat="42.9649" lon="0.59613">
        <ele>567.32</ele>
        <time>2017-08-05T07:50:40Z</time>
      </trkpt>
      <trkpt lat="42.96501" lon="0.59668">
        <ele>565.87</ele>
        <time>2017-08-05T07:50:46Z</time>
      </trkpt>
      <trkpt lat="42.96518" lon="0.59782">
        <ele>562.51</ele>
        <time>2017-08-05T07:50:57Z</time>
      </trkpt>
      <trkpt lat="42.96529" lon="0.599">
        <ele>558.66</ele>
        <time>2017-08-05T07:51:08Z</time>
      </trkpt>
      <trkpt lat="42.96546" lon="0.59979">
        <ele>555.3</ele>
        <time>2017-08-05T07:51:15Z</time>
      </trkpt>
      <trkpt lat="42.96548" lon="0.59991">
        <ele>555.3</ele>
        <time>2017-08-05T07:51:16Z</time>
      </trkpt>
      <trkpt lat="42.96548" lon="0.60028">
        <ele>553.86</ele>
        <time>2017-08-05T07:51:19Z</time>
      </trkpt>
      <trkpt lat="42.96548" lon="0.60041">
        <ele>553.38</ele>
        <time>2017-08-05T07:51:20Z</time>
      </trkpt>
      <trkpt lat="42.96556" lon="0.60091">
        <ele>551.45</ele>
        <time>2017-08-05T07:51:24Z</time>
      </trkpt>
      <trkpt lat="42.96568" lon="0.60142">
        <ele>549.05</ele>
        <time>2017-08-05T07:51:28Z</time>
      </trkpt>
      <trkpt lat="42.96586" lon="0.60208">
        <ele>545.69</ele>
        <time>2017-08-05T07:51:33Z</time>
      </trkpt>
      <trkpt lat="42.96608" lon="0.60288">
        <ele>541.84</ele>
        <time>2017-08-05T07:51:39Z</time>
      </trkpt>
      <trkpt lat="42.9662" lon="0.60311">
        <ele>541.36</ele>
        <time>2017-08-05T07:51:41Z</time>
      </trkpt>
      <trkpt lat="42.96649" lon="0.60356">
        <ele>537.99</ele>
        <time>2017-08-05T07:51:45Z</time>
      </trkpt>
      <trkpt lat="42.96656" lon="0.60367">
        <ele>537.03</ele>
        <time>2017-08-05T07:51:46Z</time>
      </trkpt>
      <trkpt lat="42.96666" lon="0.60392">
        <ele>536.07</ele>
        <time>2017-08-05T07:51:48Z</time>
      </trkpt>
      <trkpt lat="42.9667" lon="0.60405">
        <ele>535.11</ele>
        <time>2017-08-05T07:51:49Z</time>
      </trkpt>
      <trkpt lat="42.96678" lon="0.60491">
        <ele>531.27</ele>
        <time>2017-08-05T07:51:55Z</time>
      </trkpt>
      <trkpt lat="42.96682" lon="0.60548">
        <ele>528.86</ele>
        <time>2017-08-05T07:51:59Z</time>
      </trkpt>
      <trkpt lat="42.96694" lon="0.60603">
        <ele>525.98</ele>
        <time>2017-08-05T07:52:03Z</time>
      </trkpt>
      <trkpt lat="42.96702" lon="0.60645">
        <ele>524.06</ele>
        <time>2017-08-05T07:52:06Z</time>
      </trkpt>
      <trkpt lat="42.96708" lon="0.60658">
        <ele>523.09</ele>
        <time>2017-08-05T07:52:07Z</time>
      </trkpt>
      <trkpt lat="42.96736" lon="0.60705">
        <ele>520.21</ele>
        <time>2017-08-05T07:52:11Z</time>
      </trkpt>
      <trkpt lat="42.9676" lon="0.60774">
        <ele>516.37</ele>
        <time>2017-08-05T07:52:16Z</time>
      </trkpt>
      <trkpt lat="42.96785" lon="0.6084">
        <ele>513</ele>
        <time>2017-08-05T07:52:21Z</time>
      </trkpt>
      <trkpt lat="42.96812" lon="0.60906">
        <ele>509.64</ele>
        <time>2017-08-05T07:52:26Z</time>
      </trkpt>
      <trkpt lat="42.9683" lon="0.60974">
        <ele>505.79</ele>
        <time>2017-08-05T07:52:31Z</time>
      </trkpt>
      <trkpt lat="42.9683" lon="0.61029">
        <ele>503.39</ele>
        <time>2017-08-05T07:52:35Z</time>
      </trkpt>
      <trkpt lat="42.96829" lon="0.61097">
        <ele>500.98</ele>
        <time>2017-08-05T07:52:40Z</time>
      </trkpt>
      <trkpt lat="42.96856" lon="0.61243">
        <ele>497.14</ele>
        <time>2017-08-05T07:52:52Z</time>
      </trkpt>
      <trkpt lat="42.96867" lon="0.61291">
        <ele>496.18</ele>
        <time>2017-08-05T07:52:57Z</time>
      </trkpt>
      <trkpt lat="42.96878" lon="0.61317">
        <ele>495.7</ele>
        <time>2017-08-05T07:53:04Z</time>
      </trkpt>
      <trkpt lat="42.96879" lon="0.61312">
        <ele>495.7</ele>
        <time>2017-08-05T07:53:08Z</time>
      </trkpt>
      <trkpt lat="42.96875" lon="0.61305">
        <ele>495.7</ele>
        <time>2017-08-05T07:53:11Z</time>
      </trkpt>
      <trkpt lat="42.96866" lon="0.61305">
        <ele>495.7</ele>
        <time>2017-08-05T07:53:20Z</time>
      </trkpt>
      <trkpt lat="42.96866" lon="0.61305">
        <ele>495.7</ele>
        <time>2017-08-05T07:53:22Z</time>
      </trkpt>
      <trkpt lat="42.96848" lon="0.61329">
        <ele>495.22</ele>
        <time>2017-08-05T07:53:33Z</time>
      </trkpt>
      <trkpt lat="42.96835" lon="0.61355">
        <ele>498.58</ele>
        <time>2017-08-05T07:53:41Z</time>
      </trkpt>
      <trkpt lat="42.96823" lon="0.6138">
        <ele>501.46</ele>
        <time>2017-08-05T07:53:52Z</time>
      </trkpt>
      <trkpt lat="42.96811" lon="0.61403">
        <ele>504.35</ele>
        <time>2017-08-05T07:54:02Z</time>
      </trkpt>
      <trkpt lat="42.96801" lon="0.61438">
        <ele>507.71</ele>
        <time>2017-08-05T07:54:15Z</time>
      </trkpt>
      <trkpt lat="42.96799" lon="0.61446">
        <ele>508.19</ele>
        <time>2017-08-05T07:54:18Z</time>
      </trkpt>
      <trkpt lat="42.96799" lon="0.61454">
        <ele>508.67</ele>
        <time>2017-08-05T07:54:22Z</time>
      </trkpt>
      <trkpt lat="42.96797" lon="0.61463">
        <ele>509.16</ele>
        <time>2017-08-05T07:54:26Z</time>
      </trkpt>
      <trkpt lat="42.96775" lon="0.6151">
        <ele>512.04</ele>
        <time>2017-08-05T07:54:40Z</time>
      </trkpt>
      <trkpt lat="42.96765" lon="0.61541">
        <ele>514.44</ele>
        <time>2017-08-05T07:54:52Z</time>
      </trkpt>
      <trkpt lat="42.96755" lon="0.61553">
        <ele>516.37</ele>
        <time>2017-08-05T07:54:59Z</time>
      </trkpt>
      <trkpt lat="42.96742" lon="0.61567">
        <ele>517.81</ele>
        <time>2017-08-05T07:55:07Z</time>
      </trkpt>
      <trkpt lat="42.96716" lon="0.61571">
        <ele>521.65</ele>
        <time>2017-08-05T07:55:21Z</time>
      </trkpt>
      <trkpt lat="42.96698" lon="0.61599">
        <ele>522.61</ele>
        <time>2017-08-05T07:55:34Z</time>
      </trkpt>
      <trkpt lat="42.96684" lon="0.61633">
        <ele>523.58</ele>
        <time>2017-08-05T07:55:50Z</time>
      </trkpt>
      <trkpt lat="42.96682" lon="0.61644">
        <ele>523.58</ele>
        <time>2017-08-05T07:56:02Z</time>
      </trkpt>
      <trkpt lat="42.9668" lon="0.61665">
        <ele>521.17</ele>
        <time>2017-08-05T07:56:06Z</time>
      </trkpt>
      <trkpt lat="42.96667" lon="0.6171">
        <ele>517.33</ele>
        <time>2017-08-05T07:56:12Z</time>
      </trkpt>
      <trkpt lat="42.96665" lon="0.61717">
        <ele>517.33</ele>
        <time>2017-08-05T07:56:13Z</time>
      </trkpt>
      <trkpt lat="42.96657" lon="0.61758">
        <ele>513.96</ele>
        <time>2017-08-05T07:56:18Z</time>
      </trkpt>
      <trkpt lat="42.96652" lon="0.61789">
        <ele>510.6</ele>
        <time>2017-08-05T07:56:21Z</time>
      </trkpt>
      <trkpt lat="42.96647" lon="0.61824">
        <ele>506.75</ele>
        <time>2017-08-05T07:56:24Z</time>
      </trkpt>
      <trkpt lat="42.96643" lon="0.6185">
        <ele>504.35</ele>
        <time>2017-08-05T07:56:26Z</time>
      </trkpt>
      <trkpt lat="42.96643" lon="0.61907">
        <ele>500.98</ele>
        <time>2017-08-05T07:56:30Z</time>
      </trkpt>
      <trkpt lat="42.96645" lon="0.61933">
        <ele>500.02</ele>
        <time>2017-08-05T07:56:32Z</time>
      </trkpt>
      <trkpt lat="42.96649" lon="0.61965">
        <ele>498.1</ele>
        <time>2017-08-05T07:56:35Z</time>
      </trkpt>
      <trkpt lat="42.96651" lon="0.61983">
        <ele>496.66</ele>
        <time>2017-08-05T07:56:37Z</time>
      </trkpt>
      <trkpt lat="42.96646" lon="0.62041">
        <ele>493.77</ele>
        <time>2017-08-05T07:56:44Z</time>
      </trkpt>
      <trkpt lat="42.96651" lon="0.6211">
        <ele>490.41</ele>
        <time>2017-08-05T07:56:52Z</time>
      </trkpt>
      <trkpt lat="42.9665" lon="0.62148">
        <ele>488.97</ele>
        <time>2017-08-05T07:56:57Z</time>
      </trkpt>
      <trkpt lat="42.96647" lon="0.62175">
        <ele>487.53</ele>
        <time>2017-08-05T07:57:00Z</time>
      </trkpt>
      <trkpt lat="42.96646" lon="0.62184">
        <ele>487.05</ele>
        <time>2017-08-05T07:57:01Z</time>
      </trkpt>
      <trkpt lat="42.96641" lon="0.62202">
        <ele>486.08</ele>
        <time>2017-08-05T07:57:03Z</time>
      </trkpt>
      <trkpt lat="42.96649" lon="0.62245">
        <ele>483.2</ele>
        <time>2017-08-05T07:57:09Z</time>
      </trkpt>
      <trkpt lat="42.96699" lon="0.62268">
        <ele>479.84</ele>
        <time>2017-08-05T07:57:19Z</time>
      </trkpt>
      <trkpt lat="42.96707" lon="0.62271">
        <ele>479.35</ele>
        <time>2017-08-05T07:57:29Z</time>
      </trkpt>
      <trkpt lat="42.96728" lon="0.62285">
        <ele>477.91</ele>
        <time>2017-08-05T07:57:38Z</time>
      </trkpt>
      <trkpt lat="42.96722" lon="0.62314">
        <ele>475.51</ele>
        <time>2017-08-05T07:57:43Z</time>
      </trkpt>
      <trkpt lat="42.96664" lon="0.62367">
        <ele>473.59</ele>
        <time>2017-08-05T07:57:54Z</time>
      </trkpt>
      <trkpt lat="42.96647" lon="0.62408">
        <ele>473.11</ele>
        <time>2017-08-05T07:57:59Z</time>
      </trkpt>
      <trkpt lat="42.96642" lon="0.62434">
        <ele>472.63</ele>
        <time>2017-08-05T07:58:02Z</time>
      </trkpt>
      <trkpt lat="42.96606" lon="0.62459">
        <ele>472.14</ele>
        <time>2017-08-05T07:58:09Z</time>
      </trkpt>
      <trkpt lat="42.96524" lon="0.6249">
        <ele>473.59</ele>
        <time>2017-08-05T07:58:24Z</time>
      </trkpt>
      <trkpt lat="42.9644" lon="0.62493">
        <ele>473.59</ele>
        <time>2017-08-05T07:58:39Z</time>
      </trkpt>
      <trkpt lat="42.96364" lon="0.62487">
        <ele>473.59</ele>
        <time>2017-08-05T07:58:52Z</time>
      </trkpt>
      <trkpt lat="42.96343" lon="0.62498">
        <ele>473.59</ele>
        <time>2017-08-05T07:58:56Z</time>
      </trkpt>
      <trkpt lat="42.9628" lon="0.6255">
        <ele>475.03</ele>
        <time>2017-08-05T07:59:10Z</time>
      </trkpt>
      <trkpt lat="42.96276" lon="0.62553">
        <ele>475.03</ele>
        <time>2017-08-05T07:59:11Z</time>
      </trkpt>
      <trkpt lat="42.96242" lon="0.62599">
        <ele>475.03</ele>
        <time>2017-08-05T07:59:20Z</time>
      </trkpt>
      <trkpt lat="42.96226" lon="0.62629">
        <ele>475.03</ele>
        <time>2017-08-05T07:59:25Z</time>
      </trkpt>
      <trkpt lat="42.96211" lon="0.62652">
        <ele>474.07</ele>
        <time>2017-08-05T07:59:29Z</time>
      </trkpt>
      <trkpt lat="42.96164" lon="0.62751">
        <ele>473.11</ele>
        <time>2017-08-05T07:59:43Z</time>
      </trkpt>
      <trkpt lat="42.96159" lon="0.62765">
        <ele>473.11</ele>
        <time>2017-08-05T07:59:45Z</time>
      </trkpt>
      <trkpt lat="42.96146" lon="0.62798">
        <ele>473.11</ele>
        <time>2017-08-05T07:59:50Z</time>
      </trkpt>
      <trkpt lat="42.96131" lon="0.62817">
        <ele>473.11</ele>
        <time>2017-08-05T07:59:54Z</time>
      </trkpt>
      <trkpt lat="42.96086" lon="0.62853">
        <ele>473.11</ele>
        <time>2017-08-05T08:00:04Z</time>
      </trkpt>
      <trkpt lat="42.96077" lon="0.62861">
        <ele>473.11</ele>
        <time>2017-08-05T08:00:06Z</time>
      </trkpt>
      <trkpt lat="42.96059" lon="0.62892">
        <ele>473.11</ele>
        <time>2017-08-05T08:00:11Z</time>
      </trkpt>
      <trkpt lat="42.96044" lon="0.62915">
        <ele>473.59</ele>
        <time>2017-08-05T08:00:15Z</time>
      </trkpt>
      <trkpt lat="42.96036" lon="0.62925">
        <ele>473.59</ele>
        <time>2017-08-05T08:00:17Z</time>
      </trkpt>
      <trkpt lat="42.95977" lon="0.62978">
        <ele>473.59</ele>
        <time>2017-08-05T08:00:28Z</time>
      </trkpt>
      <trkpt lat="42.95798" lon="0.63116">
        <ele>460.13</ele>
        <time>2017-08-05T08:02:05Z</time>
      </trkpt>
      <trkpt lat="42.95744" lon="0.63122">
        <ele>459.65</ele>
        <time>2017-08-05T08:02:20Z</time>
      </trkpt>
      <trkpt lat="42.95737" lon="0.63123">
        <ele>461.09</ele>
        <time>2017-08-05T08:02:25Z</time>
      </trkpt>
      <trkpt lat="42.95738" lon="0.63122">
        <ele>461.09</ele>
        <time>2017-08-05T08:02:53Z</time>
      </trkpt>
      <trkpt lat="42.95738" lon="0.63122">
        <ele>461.09</ele>
        <time>2017-08-05T08:03:09Z</time>
      </trkpt>
      <trkpt lat="42.95736" lon="0.63125">
        <ele>461.09</ele>
        <time>2017-08-05T08:03:12Z</time>
      </trkpt>
      <trkpt lat="42.95737" lon="0.63135">
        <ele>461.09</ele>
        <time>2017-08-05T08:03:16Z</time>
      </trkpt>
      <trkpt lat="42.95761" lon="0.63229">
        <ele>461.57</ele>
        <time>2017-08-05T08:03:31Z</time>
      </trkpt>
      <trkpt lat="42.95789" lon="0.63325">
        <ele>461.57</ele>
        <time>2017-08-05T08:03:47Z</time>
      </trkpt>
      <trkpt lat="42.95793" lon="0.63345">
        <ele>461.57</ele>
        <time>2017-08-05T08:03:51Z</time>
      </trkpt>
      <trkpt lat="42.95786" lon="0.63357">
        <ele>461.57</ele>
        <time>2017-08-05T08:03:55Z</time>
      </trkpt>
      <trkpt lat="42.95721" lon="0.634">
        <ele>462.05</ele>
        <time>2017-08-05T08:04:11Z</time>
      </trkpt>
      <trkpt lat="42.9566" lon="0.63437">
        <ele>463.01</ele>
        <time>2017-08-05T08:04:23Z</time>
      </trkpt>
      <trkpt lat="42.95592" lon="0.63481">
        <ele>463.01</ele>
        <time>2017-08-05T08:04:37Z</time>
      </trkpt>
      <trkpt lat="42.95526" lon="0.63523">
        <ele>463.01</ele>
        <time>2017-08-05T08:04:50Z</time>
      </trkpt>
      <trkpt lat="42.95457" lon="0.63569">
        <ele>463.01</ele>
        <time>2017-08-05T08:05:04Z</time>
      </trkpt>
      <trkpt lat="42.95405" lon="0.63602">
        <ele>463.49</ele>
        <time>2017-08-05T08:05:15Z</time>
      </trkpt>
      <trkpt lat="42.95331" lon="0.63651">
        <ele>463.49</ele>
        <time>2017-08-05T08:05:30Z</time>
      </trkpt>
      <trkpt lat="42.95254" lon="0.63702">
        <ele>464.45</ele>
        <time>2017-08-05T08:05:45Z</time>
      </trkpt>
      <trkpt lat="42.95187" lon="0.63746">
        <ele>465.42</ele>
        <time>2017-08-05T08:05:58Z</time>
      </trkpt>
      <trkpt lat="42.95157" lon="0.63769">
        <ele>465.42</ele>
        <time>2017-08-05T08:06:04Z</time>
      </trkpt>
      <trkpt lat="42.95149" lon="0.63759">
        <ele>465.42</ele>
        <time>2017-08-05T08:06:11Z</time>
      </trkpt>
      <trkpt lat="42.95098" lon="0.6376">
        <ele>465.9</ele>
        <time>2017-08-05T08:06:25Z</time>
      </trkpt>
      <trkpt lat="42.95094" lon="0.63761">
        <ele>465.9</ele>
        <time>2017-08-05T08:06:26Z</time>
      </trkpt>
      <trkpt lat="42.9503" lon="0.63777">
        <ele>466.38</ele>
        <time>2017-08-05T08:06:39Z</time>
      </trkpt>
      <trkpt lat="42.94965" lon="0.63808">
        <ele>466.38</ele>
        <time>2017-08-05T08:06:52Z</time>
      </trkpt>
      <trkpt lat="42.9493" lon="0.63822">
        <ele>466.38</ele>
        <time>2017-08-05T08:06:59Z</time>
      </trkpt>
      <trkpt lat="42.94839" lon="0.63869">
        <ele>466.38</ele>
        <time>2017-08-05T08:07:16Z</time>
      </trkpt>
      <trkpt lat="42.94802" lon="0.63895">
        <ele>466.38</ele>
        <time>2017-08-05T08:07:24Z</time>
      </trkpt>
      <trkpt lat="42.9478" lon="0.6391">
        <ele>466.86</ele>
        <time>2017-08-05T08:07:29Z</time>
      </trkpt>
      <trkpt lat="42.94742" lon="0.63927">
        <ele>466.86</ele>
        <time>2017-08-05T08:07:38Z</time>
      </trkpt>
      <trkpt lat="42.94732" lon="0.63915">
        <ele>467.34</ele>
        <time>2017-08-05T08:07:42Z</time>
      </trkpt>
      <trkpt lat="42.94725" lon="0.639">
        <ele>467.34</ele>
        <time>2017-08-05T08:07:45Z</time>
      </trkpt>
      <trkpt lat="42.94699" lon="0.63813">
        <ele>467.34</ele>
        <time>2017-08-05T08:07:59Z</time>
      </trkpt>
      <trkpt lat="42.94685" lon="0.63773">
        <ele>467.82</ele>
        <time>2017-08-05T08:08:08Z</time>
      </trkpt>
      <trkpt lat="42.94681" lon="0.63767">
        <ele>468.78</ele>
        <time>2017-08-05T08:08:11Z</time>
      </trkpt>
      <trkpt lat="42.94673" lon="0.63758">
        <ele>470.7</ele>
        <time>2017-08-05T08:08:19Z</time>
      </trkpt>
      <trkpt lat="42.94667" lon="0.6376">
        <ele>472.14</ele>
        <time>2017-08-05T08:08:25Z</time>
      </trkpt>
      <trkpt lat="42.94655" lon="0.63771">
        <ele>474.07</ele>
        <time>2017-08-05T08:08:37Z</time>
      </trkpt>
      <trkpt lat="42.94652" lon="0.63773">
        <ele>475.03</ele>
        <time>2017-08-05T08:08:50Z</time>
      </trkpt>
      <trkpt lat="42.94649" lon="0.63774">
        <ele>475.99</ele>
        <time>2017-08-05T08:09:04Z</time>
      </trkpt>
      <trkpt lat="42.94653" lon="0.63772">
        <ele>476.47</ele>
        <time>2017-08-05T08:09:30Z</time>
      </trkpt>
      <trkpt lat="42.94654" lon="0.63772">
        <ele>476.47</ele>
        <time>2017-08-05T08:09:54Z</time>
      </trkpt>
      <trkpt lat="42.9464" lon="0.63775">
        <ele>476.95</ele>
        <time>2017-08-05T08:10:12Z</time>
      </trkpt>
      <trkpt lat="42.94638" lon="0.63784">
        <ele>476.95</ele>
        <time>2017-08-05T08:10:25Z</time>
      </trkpt>
      <trkpt lat="42.94636" lon="0.63785">
        <ele>476.95</ele>
        <time>2017-08-05T08:10:27Z</time>
      </trkpt>
      <trkpt lat="42.94632" lon="0.63792">
        <ele>477.43</ele>
        <time>2017-08-05T08:10:39Z</time>
      </trkpt>
      <trkpt lat="42.94631" lon="0.63792">
        <ele>477.43</ele>
        <time>2017-08-05T08:10:53Z</time>
      </trkpt>
      <trkpt lat="42.94627" lon="0.63792">
        <ele>477.91</ele>
        <time>2017-08-05T08:11:03Z</time>
      </trkpt>
      <trkpt lat="42.94628" lon="0.63796">
        <ele>478.39</ele>
        <time>2017-08-05T08:11:17Z</time>
      </trkpt>
      <trkpt lat="42.94627" lon="0.63798">
        <ele>477.43</ele>
        <time>2017-08-05T08:11:39Z</time>
      </trkpt>
      <trkpt lat="42.94623" lon="0.63802">
        <ele>476.47</ele>
        <time>2017-08-05T08:11:52Z</time>
      </trkpt>
      <trkpt lat="42.94622" lon="0.63803">
        <ele>476.47</ele>
        <time>2017-08-05T08:12:02Z</time>
      </trkpt>
      <trkpt lat="42.94621" lon="0.63804">
        <ele>475.99</ele>
        <time>2017-08-05T08:12:05Z</time>
      </trkpt>
      <trkpt lat="42.9462" lon="0.63808">
        <ele>475.51</ele>
        <time>2017-08-05T08:12:08Z</time>
      </trkpt>
      <trkpt lat="42.94615" lon="0.63823">
        <ele>472.63</ele>
        <time>2017-08-05T08:12:15Z</time>
      </trkpt>
      <trkpt lat="42.94613" lon="0.63826">
        <ele>472.63</ele>
        <time>2017-08-05T08:12:17Z</time>
      </trkpt>
      <trkpt lat="42.94609" lon="0.63836">
        <ele>472.14</ele>
        <time>2017-08-05T08:12:29Z</time>
      </trkpt>
      <trkpt lat="42.94609" lon="0.63837">
        <ele>472.14</ele>
        <time>2017-08-05T08:12:30Z</time>
      </trkpt>
      <trkpt lat="42.94607" lon="0.63839">
        <ele>472.14</ele>
        <time>2017-08-05T08:12:33Z</time>
      </trkpt>
      <trkpt lat="42.94604" lon="0.6384">
        <ele>472.14</ele>
        <time>2017-08-05T08:12:37Z</time>
      </trkpt>
      <trkpt lat="42.94599" lon="0.63843">
        <ele>473.59</ele>
        <time>2017-08-05T08:12:42Z</time>
      </trkpt>
      <trkpt lat="42.94587" lon="0.63858">
        <ele>475.03</ele>
        <time>2017-08-05T08:12:51Z</time>
      </trkpt>
      <trkpt lat="42.9458" lon="0.63869">
        <ele>475.99</ele>
        <time>2017-08-05T08:13:02Z</time>
      </trkpt>
      <trkpt lat="42.94574" lon="0.63871">
        <ele>475.99</ele>
        <time>2017-08-05T08:13:17Z</time>
      </trkpt>
      <trkpt lat="42.94568" lon="0.63879">
        <ele>476.95</ele>
        <time>2017-08-05T08:13:29Z</time>
      </trkpt>
      <trkpt lat="42.94562" lon="0.63884">
        <ele>479.84</ele>
        <time>2017-08-05T08:13:39Z</time>
      </trkpt>
      <trkpt lat="42.94557" lon="0.63895">
        <ele>481.28</ele>
        <time>2017-08-05T08:13:51Z</time>
      </trkpt>
      <trkpt lat="42.94552" lon="0.63902">
        <ele>481.76</ele>
        <time>2017-08-05T08:13:59Z</time>
      </trkpt>
      <trkpt lat="42.94545" lon="0.6391">
        <ele>482.72</ele>
        <time>2017-08-05T08:14:11Z</time>
      </trkpt>
      <trkpt lat="42.94543" lon="0.63916">
        <ele>482.72</ele>
        <time>2017-08-05T08:14:24Z</time>
      </trkpt>
      <trkpt lat="42.94537" lon="0.63923">
        <ele>482.72</ele>
        <time>2017-08-05T08:14:36Z</time>
      </trkpt>
      <trkpt lat="42.94534" lon="0.63924">
        <ele>482.72</ele>
        <time>2017-08-05T08:14:41Z</time>
      </trkpt>
      <trkpt lat="42.9453" lon="0.63935">
        <ele>483.2</ele>
        <time>2017-08-05T08:14:51Z</time>
      </trkpt>
      <trkpt lat="42.94528" lon="0.63939">
        <ele>483.2</ele>
        <time>2017-08-05T08:14:55Z</time>
      </trkpt>
      <trkpt lat="42.94527" lon="0.63947">
        <ele>483.2</ele>
        <time>2017-08-05T08:15:01Z</time>
      </trkpt>
      <trkpt lat="42.94525" lon="0.63955">
        <ele>481.76</ele>
        <time>2017-08-05T08:15:11Z</time>
      </trkpt>
      <trkpt lat="42.94526" lon="0.63966">
        <ele>478.39</ele>
        <time>2017-08-05T08:15:14Z</time>
      </trkpt>
      <trkpt lat="42.94526" lon="0.63968">
        <ele>478.39</ele>
        <time>2017-08-05T08:15:15Z</time>
      </trkpt>
      <trkpt lat="42.94526" lon="0.63975">
        <ele>476.95</ele>
        <time>2017-08-05T08:15:16Z</time>
      </trkpt>
      <trkpt lat="42.94525" lon="0.63977">
        <ele>475.99</ele>
        <time>2017-08-05T08:15:17Z</time>
      </trkpt>
      <trkpt lat="42.94525" lon="0.6398">
        <ele>475.51</ele>
        <time>2017-08-05T08:15:18Z</time>
      </trkpt>
      <trkpt lat="42.94516" lon="0.64004">
        <ele>473.59</ele>
        <time>2017-08-05T08:15:30Z</time>
      </trkpt>
      <trkpt lat="42.94515" lon="0.64005">
        <ele>474.55</ele>
        <time>2017-08-05T08:15:31Z</time>
      </trkpt>
      <trkpt lat="42.94514" lon="0.64007">
        <ele>474.55</ele>
        <time>2017-08-05T08:15:33Z</time>
      </trkpt>
      <trkpt lat="42.94514" lon="0.64012">
        <ele>473.59</ele>
        <time>2017-08-05T08:15:36Z</time>
      </trkpt>
      <trkpt lat="42.94511" lon="0.64019">
        <ele>473.11</ele>
        <time>2017-08-05T08:15:46Z</time>
      </trkpt>
      <trkpt lat="42.94511" lon="0.64019">
        <ele>471.18</ele>
        <time>2017-08-05T08:15:49Z</time>
      </trkpt>
      <trkpt lat="42.94508" lon="0.64022">
        <ele>473.59</ele>
        <time>2017-08-05T08:15:50Z</time>
      </trkpt>
      <trkpt lat="42.94499" lon="0.64026">
        <ele>474.07</ele>
        <time>2017-08-05T08:16:04Z</time>
      </trkpt>
      <trkpt lat="42.94493" lon="0.64024">
        <ele>474.55</ele>
        <time>2017-08-05T08:16:13Z</time>
      </trkpt>
      <trkpt lat="42.94483" lon="0.64025">
        <ele>475.03</ele>
        <time>2017-08-05T08:16:24Z</time>
      </trkpt>
      <trkpt lat="42.9447" lon="0.64027">
        <ele>475.51</ele>
        <time>2017-08-05T08:16:33Z</time>
      </trkpt>
      <trkpt lat="42.9445" lon="0.64037">
        <ele>474.55</ele>
        <time>2017-08-05T08:16:43Z</time>
      </trkpt>
      <trkpt lat="42.94426" lon="0.64053">
        <ele>473.59</ele>
        <time>2017-08-05T08:16:54Z</time>
      </trkpt>
      <trkpt lat="42.94426" lon="0.64054">
        <ele>473.59</ele>
        <time>2017-08-05T08:16:56Z</time>
      </trkpt>
      <trkpt lat="42.94421" lon="0.6406">
        <ele>473.59</ele>
        <time>2017-08-05T08:16:59Z</time>
      </trkpt>
      <trkpt lat="42.94416" lon="0.64068">
        <ele>473.59</ele>
        <time>2017-08-05T08:17:03Z</time>
      </trkpt>
      <trkpt lat="42.9441" lon="0.64076">
        <ele>473.59</ele>
        <time>2017-08-05T08:17:10Z</time>
      </trkpt>
      <trkpt lat="42.94397" lon="0.64091">
        <ele>473.59</ele>
        <time>2017-08-05T08:17:21Z</time>
      </trkpt>
      <trkpt lat="42.9439" lon="0.64107">
        <ele>473.59</ele>
        <time>2017-08-05T08:17:36Z</time>
      </trkpt>
      <trkpt lat="42.94378" lon="0.64112">
        <ele>475.03</ele>
        <time>2017-08-05T08:17:49Z</time>
      </trkpt>
      <trkpt lat="42.94374" lon="0.64114">
        <ele>475.03</ele>
        <time>2017-08-05T08:18:04Z</time>
      </trkpt>
      <trkpt lat="42.94369" lon="0.64112">
        <ele>475.03</ele>
        <time>2017-08-05T08:18:17Z</time>
      </trkpt>
      <trkpt lat="42.94365" lon="0.64113">
        <ele>475.03</ele>
        <time>2017-08-05T08:18:35Z</time>
      </trkpt>
      <trkpt lat="42.94353" lon="0.64113">
        <ele>475.51</ele>
        <time>2017-08-05T08:18:48Z</time>
      </trkpt>
      <trkpt lat="42.94348" lon="0.64119">
        <ele>477.91</ele>
        <time>2017-08-05T08:19:02Z</time>
      </trkpt>
      <trkpt lat="42.94338" lon="0.64126">
        <ele>480.32</ele>
        <time>2017-08-05T08:19:15Z</time>
      </trkpt>
      <trkpt lat="42.94335" lon="0.64129">
        <ele>480.8</ele>
        <time>2017-08-05T08:19:28Z</time>
      </trkpt>
      <trkpt lat="42.94333" lon="0.64132">
        <ele>482.24</ele>
        <time>2017-08-05T08:19:39Z</time>
      </trkpt>
      <trkpt lat="42.94328" lon="0.6414">
        <ele>484.16</ele>
        <time>2017-08-05T08:19:52Z</time>
      </trkpt>
      <trkpt lat="42.94324" lon="0.64146">
        <ele>487.05</ele>
        <time>2017-08-05T08:20:04Z</time>
      </trkpt>
      <trkpt lat="42.94327" lon="0.64154">
        <ele>487.53</ele>
        <time>2017-08-05T08:20:18Z</time>
      </trkpt>
      <trkpt lat="42.94326" lon="0.64155">
        <ele>487.53</ele>
        <time>2017-08-05T08:20:19Z</time>
      </trkpt>
      <trkpt lat="42.94327" lon="0.64161">
        <ele>486.08</ele>
        <time>2017-08-05T08:20:22Z</time>
      </trkpt>
      <trkpt lat="42.94324" lon="0.64162">
        <ele>486.08</ele>
        <time>2017-08-05T08:20:24Z</time>
      </trkpt>
      <trkpt lat="42.94322" lon="0.64168">
        <ele>486.08</ele>
        <time>2017-08-05T08:20:27Z</time>
      </trkpt>
      <trkpt lat="42.94323" lon="0.64169">
        <ele>486.08</ele>
        <time>2017-08-05T08:20:28Z</time>
      </trkpt>
      <trkpt lat="42.94322" lon="0.64171">
        <ele>485.6</ele>
        <time>2017-08-05T08:20:29Z</time>
      </trkpt>
      <trkpt lat="42.9432" lon="0.64175">
        <ele>485.6</ele>
        <time>2017-08-05T08:20:31Z</time>
      </trkpt>
      <trkpt lat="42.94314" lon="0.64176">
        <ele>485.12</ele>
        <time>2017-08-05T08:20:34Z</time>
      </trkpt>
      <trkpt lat="42.94307" lon="0.64178">
        <ele>485.12</ele>
        <time>2017-08-05T08:20:40Z</time>
      </trkpt>
      <trkpt lat="42.94302" lon="0.64178">
        <ele>485.12</ele>
        <time>2017-08-05T08:20:47Z</time>
      </trkpt>
      <trkpt lat="42.94298" lon="0.64175">
        <ele>485.12</ele>
        <time>2017-08-05T08:20:52Z</time>
      </trkpt>
      <trkpt lat="42.9428" lon="0.64179">
        <ele>484.16</ele>
        <time>2017-08-05T08:20:59Z</time>
      </trkpt>
      <trkpt lat="42.9428" lon="0.6418">
        <ele>484.16</ele>
        <time>2017-08-05T08:21:00Z</time>
      </trkpt>
      <trkpt lat="42.94278" lon="0.64203">
        <ele>482.24</ele>
        <time>2017-08-05T08:21:05Z</time>
      </trkpt>
      <trkpt lat="42.94276" lon="0.64217">
        <ele>482.72</ele>
        <time>2017-08-05T08:21:13Z</time>
      </trkpt>
      <trkpt lat="42.94269" lon="0.64228">
        <ele>482.72</ele>
        <time>2017-08-05T08:21:24Z</time>
      </trkpt>
      <trkpt lat="42.94264" lon="0.64237">
        <ele>483.68</ele>
        <time>2017-08-05T08:21:34Z</time>
      </trkpt>
      <trkpt lat="42.94263" lon="0.64241">
        <ele>483.68</ele>
        <time>2017-08-05T08:21:36Z</time>
      </trkpt>
      <trkpt lat="42.94264" lon="0.64244">
        <ele>483.68</ele>
        <time>2017-08-05T08:21:38Z</time>
      </trkpt>
      <trkpt lat="42.94263" lon="0.6425">
        <ele>485.12</ele>
        <time>2017-08-05T08:21:42Z</time>
      </trkpt>
      <trkpt lat="42.94263" lon="0.64252">
        <ele>485.6</ele>
        <time>2017-08-05T08:21:44Z</time>
      </trkpt>
      <trkpt lat="42.94262" lon="0.64262">
        <ele>485.6</ele>
        <time>2017-08-05T08:21:49Z</time>
      </trkpt>
      <trkpt lat="42.94264" lon="0.6427">
        <ele>485.6</ele>
        <time>2017-08-05T08:21:55Z</time>
      </trkpt>
      <trkpt lat="42.94268" lon="0.64288">
        <ele>484.16</ele>
        <time>2017-08-05T08:22:01Z</time>
      </trkpt>
      <trkpt lat="42.94267" lon="0.64294">
        <ele>484.16</ele>
        <time>2017-08-05T08:22:07Z</time>
      </trkpt>
      <trkpt lat="42.94266" lon="0.64298">
        <ele>484.16</ele>
        <time>2017-08-05T08:22:09Z</time>
      </trkpt>
      <trkpt lat="42.94265" lon="0.64305">
        <ele>484.16</ele>
        <time>2017-08-05T08:22:12Z</time>
      </trkpt>
      <trkpt lat="42.94265" lon="0.64312">
        <ele>485.6</ele>
        <time>2017-08-05T08:22:17Z</time>
      </trkpt>
      <trkpt lat="42.94266" lon="0.64318">
        <ele>486.56</ele>
        <time>2017-08-05T08:22:29Z</time>
      </trkpt>
      <trkpt lat="42.94265" lon="0.64326">
        <ele>485.6</ele>
        <time>2017-08-05T08:22:33Z</time>
      </trkpt>
      <trkpt lat="42.94264" lon="0.6433">
        <ele>485.12</ele>
        <time>2017-08-05T08:22:35Z</time>
      </trkpt>
      <trkpt lat="42.94268" lon="0.6434">
        <ele>483.2</ele>
        <time>2017-08-05T08:22:49Z</time>
      </trkpt>
      <trkpt lat="42.94265" lon="0.64347">
        <ele>482.72</ele>
        <time>2017-08-05T08:22:59Z</time>
      </trkpt>
      <trkpt lat="42.94263" lon="0.64353">
        <ele>481.28</ele>
        <time>2017-08-05T08:23:05Z</time>
      </trkpt>
      <trkpt lat="42.94253" lon="0.64366">
        <ele>479.35</ele>
        <time>2017-08-05T08:23:19Z</time>
      </trkpt>
      <trkpt lat="42.94252" lon="0.64367">
        <ele>479.35</ele>
        <time>2017-08-05T08:23:29Z</time>
      </trkpt>
      <trkpt lat="42.94255" lon="0.64367">
        <ele>477.43</ele>
        <time>2017-08-05T08:23:41Z</time>
      </trkpt>
      <trkpt lat="42.94257" lon="0.64365">
        <ele>477.91</ele>
        <time>2017-08-05T08:24:05Z</time>
      </trkpt>
      <trkpt lat="42.94259" lon="0.64373">
        <ele>477.91</ele>
        <time>2017-08-05T08:24:18Z</time>
      </trkpt>
      <trkpt lat="42.94253" lon="0.64382">
        <ele>476.47</ele>
        <time>2017-08-05T08:24:24Z</time>
      </trkpt>
      <trkpt lat="42.94251" lon="0.64385">
        <ele>475.99</ele>
        <time>2017-08-05T08:24:27Z</time>
      </trkpt>
      <trkpt lat="42.94251" lon="0.64394">
        <ele>475.99</ele>
        <time>2017-08-05T08:24:33Z</time>
      </trkpt>
      <trkpt lat="42.9425" lon="0.64414">
        <ele>475.51</ele>
        <time>2017-08-05T08:24:47Z</time>
      </trkpt>
      <trkpt lat="42.94265" lon="0.64408">
        <ele>475.51</ele>
        <time>2017-08-05T08:25:03Z</time>
      </trkpt>
      <trkpt lat="42.94267" lon="0.64406">
        <ele>475.51</ele>
        <time>2017-08-05T08:25:06Z</time>
      </trkpt>
      <trkpt lat="42.94274" lon="0.644">
        <ele>475.03</ele>
        <time>2017-08-05T08:25:12Z</time>
      </trkpt>
      <trkpt lat="42.94277" lon="0.644">
        <ele>476.47</ele>
        <time>2017-08-05T08:25:25Z</time>
      </trkpt>
      <trkpt lat="42.94276" lon="0.64398">
        <ele>475.51</ele>
        <time>2017-08-05T08:25:38Z</time>
      </trkpt>
      <trkpt lat="42.94273" lon="0.64399">
        <ele>475.51</ele>
        <time>2017-08-05T08:25:56Z</time>
      </trkpt>
      <trkpt lat="42.94273" lon="0.64405">
        <ele>475.51</ele>
        <time>2017-08-05T08:26:11Z</time>
      </trkpt>
      <trkpt lat="42.94269" lon="0.64409">
        <ele>475.51</ele>
        <time>2017-08-05T08:26:15Z</time>
      </trkpt>
      <trkpt lat="42.94227" lon="0.64432">
        <ele>475.51</ele>
        <time>2017-08-05T08:26:29Z</time>
      </trkpt>
      <trkpt lat="42.94161" lon="0.64449">
        <ele>475.51</ele>
        <time>2017-08-05T08:26:44Z</time>
      </trkpt>
      <trkpt lat="42.94144" lon="0.64453">
        <ele>475.51</ele>
        <time>2017-08-05T08:26:49Z</time>
      </trkpt>
      <trkpt lat="42.94142" lon="0.64448">
        <ele>475.51</ele>
        <time>2017-08-05T08:27:06Z</time>
      </trkpt>
      <trkpt lat="42.94142" lon="0.64448">
        <ele>475.51</ele>
        <time>2017-08-05T08:27:36Z</time>
      </trkpt>
      <trkpt lat="42.94144" lon="0.64446">
        <ele>475.51</ele>
        <time>2017-08-05T08:28:13Z</time>
      </trkpt>
      <trkpt lat="42.94142" lon="0.64451">
        <ele>475.51</ele>
        <time>2017-08-05T08:28:41Z</time>
      </trkpt>
      <trkpt lat="42.94141" lon="0.64452">
        <ele>475.51</ele>
        <time>2017-08-05T08:28:47Z</time>
      </trkpt>
      <trkpt lat="42.94112" lon="0.6446">
        <ele>475.51</ele>
        <time>2017-08-05T08:28:59Z</time>
      </trkpt>
      <trkpt lat="42.94103" lon="0.64462">
        <ele>475.51</ele>
        <time>2017-08-05T08:29:01Z</time>
      </trkpt>
      <trkpt lat="42.94032" lon="0.6448">
        <ele>475.51</ele>
        <time>2017-08-05T08:29:15Z</time>
      </trkpt>
      <trkpt lat="42.93961" lon="0.64496">
        <ele>475.51</ele>
        <time>2017-08-05T08:29:28Z</time>
      </trkpt>
      <trkpt lat="42.93926" lon="0.64502">
        <ele>476.95</ele>
        <time>2017-08-05T08:29:34Z</time>
      </trkpt>
      <trkpt lat="42.93852" lon="0.64516">
        <ele>476.95</ele>
        <time>2017-08-05T08:29:48Z</time>
      </trkpt>
      <trkpt lat="42.93821" lon="0.64523">
        <ele>477.43</ele>
        <time>2017-08-05T08:29:57Z</time>
      </trkpt>
      <trkpt lat="42.93819" lon="0.64524">
        <ele>477.43</ele>
        <time>2017-08-05T08:30:12Z</time>
      </trkpt>
      <trkpt lat="42.93818" lon="0.64525">
        <ele>477.43</ele>
        <time>2017-08-05T08:30:26Z</time>
      </trkpt>
      <trkpt lat="42.93834" lon="0.64561">
        <ele>477.91</ele>
        <time>2017-08-05T08:30:34Z</time>
      </trkpt>
      <trkpt lat="42.93838" lon="0.64586">
        <ele>477.91</ele>
        <time>2017-08-05T08:30:37Z</time>
      </trkpt>
      <trkpt lat="42.93841" lon="0.64602">
        <ele>477.91</ele>
        <time>2017-08-05T08:30:39Z</time>
      </trkpt>
      <trkpt lat="42.93848" lon="0.64652">
        <ele>477.91</ele>
        <time>2017-08-05T08:30:45Z</time>
      </trkpt>
      <trkpt lat="42.93849" lon="0.64668">
        <ele>477.91</ele>
        <time>2017-08-05T08:30:47Z</time>
      </trkpt>
      <trkpt lat="42.93869" lon="0.64783">
        <ele>478.39</ele>
        <time>2017-08-05T08:31:02Z</time>
      </trkpt>
      <trkpt lat="42.93874" lon="0.64818">
        <ele>478.39</ele>
        <time>2017-08-05T08:31:07Z</time>
      </trkpt>
      <trkpt lat="42.93858" lon="0.6485">
        <ele>478.39</ele>
        <time>2017-08-05T08:31:15Z</time>
      </trkpt>
      <trkpt lat="42.93827" lon="0.64868">
        <ele>478.39</ele>
        <time>2017-08-05T08:31:26Z</time>
      </trkpt>
      <trkpt lat="42.93778" lon="0.64884">
        <ele>478.39</ele>
        <time>2017-08-05T08:31:37Z</time>
      </trkpt>
      <trkpt lat="42.93684" lon="0.64916">
        <ele>477.43</ele>
        <time>2017-08-05T08:31:53Z</time>
      </trkpt>
      <trkpt lat="42.93602" lon="0.64953">
        <ele>477.43</ele>
        <time>2017-08-05T08:32:07Z</time>
      </trkpt>
      <trkpt lat="42.93505" lon="0.65004">
        <ele>478.39</ele>
        <time>2017-08-05T08:32:23Z</time>
      </trkpt>
      <trkpt lat="42.93398" lon="0.65062">
        <ele>479.35</ele>
        <time>2017-08-05T08:32:40Z</time>
      </trkpt>
      <trkpt lat="42.93308" lon="0.65109">
        <ele>479.84</ele>
        <time>2017-08-05T08:32:54Z</time>
      </trkpt>
      <trkpt lat="42.9322" lon="0.65157">
        <ele>480.8</ele>
        <time>2017-08-05T08:33:08Z</time>
      </trkpt>
      <trkpt lat="42.93133" lon="0.65203">
        <ele>481.28</ele>
        <time>2017-08-05T08:33:23Z</time>
      </trkpt>
      <trkpt lat="42.93082" lon="0.65229">
        <ele>481.76</ele>
        <time>2017-08-05T08:33:32Z</time>
      </trkpt>
      <trkpt lat="42.92966" lon="0.65288">
        <ele>483.2</ele>
        <time>2017-08-05T08:33:52Z</time>
      </trkpt>
      <trkpt lat="42.92893" lon="0.65329">
        <ele>486.56</ele>
        <time>2017-08-05T08:34:05Z</time>
      </trkpt>
      <trkpt lat="42.92817" lon="0.65404">
        <ele>488.97</ele>
        <time>2017-08-05T08:34:20Z</time>
      </trkpt>
      <trkpt lat="42.92762" lon="0.65514">
        <ele>489.45</ele>
        <time>2017-08-05T08:34:35Z</time>
      </trkpt>
      <trkpt lat="42.92741" lon="0.6565">
        <ele>488.01</ele>
        <time>2017-08-05T08:34:49Z</time>
      </trkpt>
      <trkpt lat="42.92754" lon="0.65791">
        <ele>484.64</ele>
        <time>2017-08-05T08:35:01Z</time>
      </trkpt>
      <trkpt lat="42.9278" lon="0.65953">
        <ele>484.16</ele>
        <time>2017-08-05T08:35:16Z</time>
      </trkpt>
      <trkpt lat="42.92808" lon="0.66129">
        <ele>485.6</ele>
        <time>2017-08-05T08:35:33Z</time>
      </trkpt>
      <trkpt lat="42.92835" lon="0.66303">
        <ele>486.08</ele>
        <time>2017-08-05T08:35:50Z</time>
      </trkpt>
      <trkpt lat="42.92835" lon="0.66445">
        <ele>486.56</ele>
        <time>2017-08-05T08:36:04Z</time>
      </trkpt>
      <trkpt lat="42.92805" lon="0.66625">
        <ele>486.56</ele>
        <time>2017-08-05T08:36:22Z</time>
      </trkpt>
      <trkpt lat="42.92774" lon="0.6681">
        <ele>487.05</ele>
        <time>2017-08-05T08:36:41Z</time>
      </trkpt>
      <trkpt lat="42.9275" lon="0.66961">
        <ele>487.53</ele>
        <time>2017-08-05T08:36:57Z</time>
      </trkpt>
      <trkpt lat="42.9272" lon="0.67142">
        <ele>488.49</ele>
        <time>2017-08-05T08:37:16Z</time>
      </trkpt>
      <trkpt lat="42.92697" lon="0.67285">
        <ele>489.93</ele>
        <time>2017-08-05T08:37:31Z</time>
      </trkpt>
      <trkpt lat="42.92668" lon="0.67461">
        <ele>490.89</ele>
        <time>2017-08-05T08:37:50Z</time>
      </trkpt>
      <trkpt lat="42.92642" lon="0.67619">
        <ele>491.37</ele>
        <time>2017-08-05T08:38:07Z</time>
      </trkpt>
      <trkpt lat="42.9261" lon="0.67766">
        <ele>492.81</ele>
        <time>2017-08-05T08:38:23Z</time>
      </trkpt>
      <trkpt lat="42.92557" lon="0.67886">
        <ele>494.26</ele>
        <time>2017-08-05T08:38:38Z</time>
      </trkpt>
      <trkpt lat="42.92497" lon="0.67996">
        <ele>496.66</ele>
        <time>2017-08-05T08:38:54Z</time>
      </trkpt>
      <trkpt lat="42.92454" lon="0.68076">
        <ele>499.06</ele>
        <time>2017-08-05T08:39:05Z</time>
      </trkpt>
      <trkpt lat="42.92407" lon="0.68161">
        <ele>500.98</ele>
        <time>2017-08-05T08:39:17Z</time>
      </trkpt>
      <trkpt lat="42.92389" lon="0.68195">
        <ele>501.46</ele>
        <time>2017-08-05T08:39:22Z</time>
      </trkpt>
      <trkpt lat="42.92372" lon="0.68222">
        <ele>502.43</ele>
        <time>2017-08-05T08:39:26Z</time>
      </trkpt>
      <trkpt lat="42.92323" lon="0.68323">
        <ele>503.87</ele>
        <time>2017-08-05T08:39:41Z</time>
      </trkpt>
      <trkpt lat="42.9232" lon="0.6833">
        <ele>504.35</ele>
        <time>2017-08-05T08:39:42Z</time>
      </trkpt>
      <trkpt lat="42.9229" lon="0.68353">
        <ele>504.83</ele>
        <time>2017-08-05T08:39:48Z</time>
      </trkpt>
      <trkpt lat="42.92246" lon="0.68374">
        <ele>504.83</ele>
        <time>2017-08-05T08:39:56Z</time>
      </trkpt>
      <trkpt lat="42.91725" lon="0.69049">
        <ele>492.33</ele>
        <time>2017-08-05T08:41:48Z</time>
      </trkpt>
      <trkpt lat="42.91717" lon="0.6905">
        <ele>492.33</ele>
        <time>2017-08-05T08:41:49Z</time>
      </trkpt>
      <trkpt lat="42.91705" lon="0.69054">
        <ele>492.33</ele>
        <time>2017-08-05T08:41:51Z</time>
      </trkpt>
      <trkpt lat="42.91699" lon="0.69058">
        <ele>492.33</ele>
        <time>2017-08-05T08:41:52Z</time>
      </trkpt>
      <trkpt lat="42.91662" lon="0.69094">
        <ele>492.33</ele>
        <time>2017-08-05T08:41:59Z</time>
      </trkpt>
      <trkpt lat="42.91657" lon="0.691">
        <ele>492.33</ele>
        <time>2017-08-05T08:42:00Z</time>
      </trkpt>
      <trkpt lat="42.91651" lon="0.69104">
        <ele>492.33</ele>
        <time>2017-08-05T08:42:01Z</time>
      </trkpt>
      <trkpt lat="42.91644" lon="0.69108">
        <ele>492.33</ele>
        <time>2017-08-05T08:42:02Z</time>
      </trkpt>
      <trkpt lat="42.91639" lon="0.69112">
        <ele>492.33</ele>
        <time>2017-08-05T08:42:03Z</time>
      </trkpt>
      <trkpt lat="42.91628" lon="0.69123">
        <ele>492.33</ele>
        <time>2017-08-05T08:42:05Z</time>
      </trkpt>
      <trkpt lat="42.91623" lon="0.6913">
        <ele>492.33</ele>
        <time>2017-08-05T08:42:06Z</time>
      </trkpt>
      <trkpt lat="42.91581" lon="0.69193">
        <ele>492.81</ele>
        <time>2017-08-05T08:42:17Z</time>
      </trkpt>
      <trkpt lat="42.91578" lon="0.69198">
        <ele>493.29</ele>
        <time>2017-08-05T08:42:19Z</time>
      </trkpt>
      <trkpt lat="42.91576" lon="0.692">
        <ele>493.29</ele>
        <time>2017-08-05T08:42:20Z</time>
      </trkpt>
      <trkpt lat="42.91546" lon="0.69193">
        <ele>493.77</ele>
        <time>2017-08-05T08:42:29Z</time>
      </trkpt>
      <trkpt lat="42.9154" lon="0.69195">
        <ele>493.77</ele>
        <time>2017-08-05T08:42:31Z</time>
      </trkpt>
      <trkpt lat="42.91537" lon="0.69199">
        <ele>493.77</ele>
        <time>2017-08-05T08:42:32Z</time>
      </trkpt>
      <trkpt lat="42.91515" lon="0.69246">
        <ele>492.33</ele>
        <time>2017-08-05T08:42:39Z</time>
      </trkpt>
      <trkpt lat="42.91508" lon="0.69257">
        <ele>491.37</ele>
        <time>2017-08-05T08:42:41Z</time>
      </trkpt>
      <trkpt lat="42.91481" lon="0.69286">
        <ele>491.37</ele>
        <time>2017-08-05T08:42:47Z</time>
      </trkpt>
      <trkpt lat="42.91457" lon="0.69304">
        <ele>491.37</ele>
        <time>2017-08-05T08:42:53Z</time>
      </trkpt>
      <trkpt lat="42.91443" lon="0.69308">
        <ele>491.37</ele>
        <time>2017-08-05T08:42:56Z</time>
      </trkpt>
      <trkpt lat="42.91437" lon="0.69309">
        <ele>491.37</ele>
        <time>2017-08-05T08:43:04Z</time>
      </trkpt>
      <trkpt lat="42.91448" lon="0.69305">
        <ele>491.37</ele>
        <time>2017-08-05T08:43:23Z</time>
      </trkpt>
      <trkpt lat="42.91471" lon="0.693">
        <ele>491.37</ele>
        <time>2017-08-05T08:43:44Z</time>
      </trkpt>
      <trkpt lat="42.91474" lon="0.69298">
        <ele>491.37</ele>
        <time>2017-08-05T08:44:02Z</time>
      </trkpt>
      <trkpt lat="42.91473" lon="0.69299">
        <ele>494.74</ele>
        <time>2017-08-05T08:44:19Z</time>
      </trkpt>
      <trkpt lat="42.91473" lon="0.69299">
        <ele>498.58</ele>
        <time>2017-08-05T08:44:22Z</time>
      </trkpt>
      <trkpt lat="42.91472" lon="0.69298">
        <ele>501.95</ele>
        <time>2017-08-05T08:44:24Z</time>
      </trkpt>
      <trkpt lat="42.91472" lon="0.69298">
        <ele>501.95</ele>
        <time>2017-08-05T08:44:25Z</time>
      </trkpt>
      <trkpt lat="42.91471" lon="0.69298">
        <ele>504.83</ele>
        <time>2017-08-05T08:44:28Z</time>
      </trkpt>
      <trkpt lat="42.9147" lon="0.69298">
        <ele>508.67</ele>
        <time>2017-08-05T08:44:32Z</time>
      </trkpt>
      <trkpt lat="42.91467" lon="0.69298">
        <ele>511.56</ele>
        <time>2017-08-05T08:44:36Z</time>
      </trkpt>
      <trkpt lat="42.91465" lon="0.69299">
        <ele>514.92</ele>
        <time>2017-08-05T08:44:41Z</time>
      </trkpt>
      <trkpt lat="42.91464" lon="0.69299">
        <ele>518.29</ele>
        <time>2017-08-05T08:44:48Z</time>
      </trkpt>
      <trkpt lat="42.91464" lon="0.69299">
        <ele>518.29</ele>
        <time>2017-08-05T08:44:49Z</time>
      </trkpt>
      <trkpt lat="42.91445" lon="0.69303">
        <ele>521.65</ele>
        <time>2017-08-05T08:44:55Z</time>
      </trkpt>
      <trkpt lat="42.91433" lon="0.69306">
        <ele>521.65</ele>
        <time>2017-08-05T08:44:56Z</time>
      </trkpt>
      <trkpt lat="42.91432" lon="0.6931">
        <ele>521.65</ele>
        <time>2017-08-05T08:45:20Z</time>
      </trkpt>
      <trkpt lat="42.91432" lon="0.6931">
        <ele>521.65</ele>
        <time>2017-08-05T08:45:46Z</time>
      </trkpt>
      <trkpt lat="42.91433" lon="0.6931">
        <ele>521.17</ele>
        <time>2017-08-05T08:46:06Z</time>
      </trkpt>
      <trkpt lat="42.91432" lon="0.6931">
        <ele>521.17</ele>
        <time>2017-08-05T08:46:28Z</time>
      </trkpt>
      <trkpt lat="42.91434" lon="0.69309">
        <ele>521.17</ele>
        <time>2017-08-05T08:46:58Z</time>
      </trkpt>
      <trkpt lat="42.91435" lon="0.69308">
        <ele>520.21</ele>
        <time>2017-08-05T08:47:26Z</time>
      </trkpt>
      <trkpt lat="42.91433" lon="0.69305">
        <ele>520.21</ele>
        <time>2017-08-05T08:47:50Z</time>
      </trkpt>
      <trkpt lat="42.91433" lon="0.69302">
        <ele>520.21</ele>
        <time>2017-08-05T08:48:20Z</time>
      </trkpt>
      <trkpt lat="42.91432" lon="0.69301">
        <ele>519.73</ele>
        <time>2017-08-05T08:48:45Z</time>
      </trkpt>
      <trkpt lat="42.91431" lon="0.69306">
        <ele>519.73</ele>
        <time>2017-08-05T08:49:08Z</time>
      </trkpt>
      <trkpt lat="42.91433" lon="0.69307">
        <ele>519.73</ele>
        <time>2017-08-05T08:49:32Z</time>
      </trkpt>
      <trkpt lat="42.91433" lon="0.69305">
        <ele>519.73</ele>
        <time>2017-08-05T08:49:58Z</time>
      </trkpt>
      <trkpt lat="42.91432" lon="0.69302">
        <ele>519.73</ele>
        <time>2017-08-05T08:50:20Z</time>
      </trkpt>
      <trkpt lat="42.91428" lon="0.69298">
        <ele>519.25</ele>
        <time>2017-08-05T08:50:38Z</time>
      </trkpt>
      <trkpt lat="42.91428" lon="0.69304">
        <ele>519.25</ele>
        <time>2017-08-05T08:50:46Z</time>
      </trkpt>
      <trkpt lat="42.91419" lon="0.69306">
        <ele>519.25</ele>
        <time>2017-08-05T08:50:51Z</time>
      </trkpt>
      <trkpt lat="42.91409" lon="0.69305">
        <ele>519.25</ele>
        <time>2017-08-05T08:50:59Z</time>
      </trkpt>
      <trkpt lat="42.91406" lon="0.69302">
        <ele>519.25</ele>
        <time>2017-08-05T08:51:15Z</time>
      </trkpt>
      <trkpt lat="42.91404" lon="0.69297">
        <ele>519.25</ele>
        <time>2017-08-05T08:51:18Z</time>
      </trkpt>
      <trkpt lat="42.91375" lon="0.69293">
        <ele>519.25</ele>
        <time>2017-08-05T08:51:28Z</time>
      </trkpt>
      <trkpt lat="42.91335" lon="0.69273">
        <ele>519.25</ele>
        <time>2017-08-05T08:51:36Z</time>
      </trkpt>
      <trkpt lat="42.91328" lon="0.69267">
        <ele>520.69</ele>
        <time>2017-08-05T08:51:38Z</time>
      </trkpt>
      <trkpt lat="42.91322" lon="0.69261">
        <ele>520.69</ele>
        <time>2017-08-05T08:51:39Z</time>
      </trkpt>
      <trkpt lat="42.91303" lon="0.69239">
        <ele>520.69</ele>
        <time>2017-08-05T08:51:44Z</time>
      </trkpt>
      <trkpt lat="42.91269" lon="0.69203">
        <ele>521.17</ele>
        <time>2017-08-05T08:51:53Z</time>
      </trkpt>
      <trkpt lat="42.91248" lon="0.69188">
        <ele>522.13</ele>
        <time>2017-08-05T08:52:00Z</time>
      </trkpt>
      <trkpt lat="42.91226" lon="0.69253">
        <ele>522.13</ele>
        <time>2017-08-05T08:52:11Z</time>
      </trkpt>
      <trkpt lat="42.91191" lon="0.69364">
        <ele>522.13</ele>
        <time>2017-08-05T08:52:27Z</time>
      </trkpt>
      <trkpt lat="42.91156" lon="0.69481">
        <ele>523.58</ele>
        <time>2017-08-05T08:52:44Z</time>
      </trkpt>
      <trkpt lat="42.91144" lon="0.69519">
        <ele>524.06</ele>
        <time>2017-08-05T08:52:50Z</time>
      </trkpt>
      <trkpt lat="42.91129" lon="0.6958">
        <ele>527.9</ele>
        <time>2017-08-05T08:53:03Z</time>
      </trkpt>
      <trkpt lat="42.91124" lon="0.69598">
        <ele>528.86</ele>
        <time>2017-08-05T08:53:11Z</time>
      </trkpt>
      <trkpt lat="42.9112" lon="0.69606">
        <ele>528.86</ele>
        <time>2017-08-05T08:53:25Z</time>
      </trkpt>
      <trkpt lat="42.91115" lon="0.69607">
        <ele>528.86</ele>
        <time>2017-08-05T08:53:37Z</time>
      </trkpt>
      <trkpt lat="42.91126" lon="0.69615">
        <ele>529.82</ele>
        <time>2017-08-05T08:53:47Z</time>
      </trkpt>
      <trkpt lat="42.9114" lon="0.6963">
        <ele>530.79</ele>
        <time>2017-08-05T08:53:57Z</time>
      </trkpt>
      <trkpt lat="42.9114" lon="0.69633">
        <ele>530.79</ele>
        <time>2017-08-05T08:53:58Z</time>
      </trkpt>
      <trkpt lat="42.91149" lon="0.69674">
        <ele>534.63</ele>
        <time>2017-08-05T08:54:12Z</time>
      </trkpt>
      <trkpt lat="42.91154" lon="0.69698">
        <ele>536.55</ele>
        <time>2017-08-05T08:54:20Z</time>
      </trkpt>
      <trkpt lat="42.91144" lon="0.69742">
        <ele>539.92</ele>
        <time>2017-08-05T08:54:34Z</time>
      </trkpt>
      <trkpt lat="42.91128" lon="0.69782">
        <ele>543.28</ele>
        <time>2017-08-05T08:54:48Z</time>
      </trkpt>
      <trkpt lat="42.91111" lon="0.69822">
        <ele>547.13</ele>
        <time>2017-08-05T08:55:04Z</time>
      </trkpt>
      <trkpt lat="42.91089" lon="0.69832">
        <ele>547.61</ele>
        <time>2017-08-05T08:55:13Z</time>
      </trkpt>
      <trkpt lat="42.91065" lon="0.69855">
        <ele>545.69</ele>
        <time>2017-08-05T08:55:19Z</time>
      </trkpt>
      <trkpt lat="42.91053" lon="0.69877">
        <ele>543.76</ele>
        <time>2017-08-05T08:55:22Z</time>
      </trkpt>
      <trkpt lat="42.91016" lon="0.69907">
        <ele>539.44</ele>
        <time>2017-08-05T08:55:27Z</time>
      </trkpt>
      <trkpt lat="42.91007" lon="0.69908">
        <ele>539.44</ele>
        <time>2017-08-05T08:55:28Z</time>
      </trkpt>
      <trkpt lat="42.90997" lon="0.69908">
        <ele>538.96</ele>
        <time>2017-08-05T08:55:29Z</time>
      </trkpt>
      <trkpt lat="42.90978" lon="0.69907">
        <ele>537.99</ele>
        <time>2017-08-05T08:55:31Z</time>
      </trkpt>
      <trkpt lat="42.90959" lon="0.69906">
        <ele>536.55</ele>
        <time>2017-08-05T08:55:33Z</time>
      </trkpt>
      <trkpt lat="42.9094" lon="0.69904">
        <ele>536.55</ele>
        <time>2017-08-05T08:55:35Z</time>
      </trkpt>
      <trkpt lat="42.90906" lon="0.69944">
        <ele>536.55</ele>
        <time>2017-08-05T08:55:41Z</time>
      </trkpt>
      <trkpt lat="42.90899" lon="0.69975">
        <ele>537.99</ele>
        <time>2017-08-05T08:55:45Z</time>
      </trkpt>
      <trkpt lat="42.90902" lon="0.70021">
        <ele>538.48</ele>
        <time>2017-08-05T08:55:54Z</time>
      </trkpt>
      <trkpt lat="42.909" lon="0.70069">
        <ele>540.4</ele>
        <time>2017-08-05T08:56:03Z</time>
      </trkpt>
      <trkpt lat="42.90891" lon="0.7007">
        <ele>540.88</ele>
        <time>2017-08-05T08:56:06Z</time>
      </trkpt>
      <trkpt lat="42.90882" lon="0.70071">
        <ele>540.88</ele>
        <time>2017-08-05T08:56:09Z</time>
      </trkpt>
      <trkpt lat="42.90866" lon="0.70083">
        <ele>540.88</ele>
        <time>2017-08-05T08:56:14Z</time>
      </trkpt>
      <trkpt lat="42.90847" lon="0.70088">
        <ele>540.88</ele>
        <time>2017-08-05T08:56:20Z</time>
      </trkpt>
      <trkpt lat="42.90842" lon="0.701">
        <ele>541.84</ele>
        <time>2017-08-05T08:56:24Z</time>
      </trkpt>
      <trkpt lat="42.90842" lon="0.70104">
        <ele>542.32</ele>
        <time>2017-08-05T08:56:26Z</time>
      </trkpt>
      <trkpt lat="42.90844" lon="0.70132">
        <ele>545.69</ele>
        <time>2017-08-05T08:56:41Z</time>
      </trkpt>
      <trkpt lat="42.90844" lon="0.70134">
        <ele>546.17</ele>
        <time>2017-08-05T08:56:42Z</time>
      </trkpt>
      <trkpt lat="42.90836" lon="0.70144">
        <ele>549.53</ele>
        <time>2017-08-05T08:56:55Z</time>
      </trkpt>
      <trkpt lat="42.90829" lon="0.70138">
        <ele>551.45</ele>
        <time>2017-08-05T08:57:07Z</time>
      </trkpt>
      <trkpt lat="42.90819" lon="0.70133">
        <ele>553.38</ele>
        <time>2017-08-05T08:57:21Z</time>
      </trkpt>
      <trkpt lat="42.90819" lon="0.70128">
        <ele>552.9</ele>
        <time>2017-08-05T08:57:43Z</time>
      </trkpt>
      <trkpt lat="42.90821" lon="0.70136">
        <ele>552.9</ele>
        <time>2017-08-05T08:58:06Z</time>
      </trkpt>
      <trkpt lat="42.9082" lon="0.70133">
        <ele>552.41</ele>
        <time>2017-08-05T08:58:31Z</time>
      </trkpt>
      <trkpt lat="42.90821" lon="0.70132">
        <ele>551.93</ele>
        <time>2017-08-05T08:58:42Z</time>
      </trkpt>
      <trkpt lat="42.90834" lon="0.7014">
        <ele>549.05</ele>
        <time>2017-08-05T08:58:49Z</time>
      </trkpt>
      <trkpt lat="42.90842" lon="0.7013">
        <ele>545.2</ele>
        <time>2017-08-05T08:58:56Z</time>
      </trkpt>
      <trkpt lat="42.90842" lon="0.70125">
        <ele>544.24</ele>
        <time>2017-08-05T08:58:58Z</time>
      </trkpt>
      <trkpt lat="42.90842" lon="0.70095">
        <ele>539.92</ele>
        <time>2017-08-05T08:59:09Z</time>
      </trkpt>
      <trkpt lat="42.90852" lon="0.70087">
        <ele>539.44</ele>
        <time>2017-08-05T08:59:14Z</time>
      </trkpt>
      <trkpt lat="42.90884" lon="0.70074">
        <ele>538.48</ele>
        <time>2017-08-05T08:59:25Z</time>
      </trkpt>
      <trkpt lat="42.90895" lon="0.70071">
        <ele>538.48</ele>
        <time>2017-08-05T08:59:30Z</time>
      </trkpt>
      <trkpt lat="42.90903" lon="0.7004">
        <ele>537.51</ele>
        <time>2017-08-05T08:59:36Z</time>
      </trkpt>
      <trkpt lat="42.90898" lon="0.69991">
        <ele>536.07</ele>
        <time>2017-08-05T08:59:42Z</time>
      </trkpt>
      <trkpt lat="42.90906" lon="0.69952">
        <ele>536.07</ele>
        <time>2017-08-05T08:59:47Z</time>
      </trkpt>
      <trkpt lat="42.90914" lon="0.69925">
        <ele>535.11</ele>
        <time>2017-08-05T08:59:51Z</time>
      </trkpt>
      <trkpt lat="42.90936" lon="0.6989">
        <ele>534.63</ele>
        <time>2017-08-05T08:59:58Z</time>
      </trkpt>
      <trkpt lat="42.9093" lon="0.69862">
        <ele>532.71</ele>
        <time>2017-08-05T09:00:02Z</time>
      </trkpt>
      <trkpt lat="42.90928" lon="0.69839">
        <ele>532.23</ele>
        <time>2017-08-05T09:00:05Z</time>
      </trkpt>
      <trkpt lat="42.90921" lon="0.69821">
        <ele>533.67</ele>
        <time>2017-08-05T09:00:10Z</time>
      </trkpt>
      <trkpt lat="42.90917" lon="0.69822">
        <ele>533.67</ele>
        <time>2017-08-05T09:00:12Z</time>
      </trkpt>
      <trkpt lat="42.90907" lon="0.69828">
        <ele>533.67</ele>
        <time>2017-08-05T09:00:15Z</time>
      </trkpt>
      <trkpt lat="42.90868" lon="0.6984">
        <ele>533.67</ele>
        <time>2017-08-05T09:00:23Z</time>
      </trkpt>
      <trkpt lat="42.90849" lon="0.69839">
        <ele>533.67</ele>
        <time>2017-08-05T09:00:27Z</time>
      </trkpt>
      <trkpt lat="42.90841" lon="0.69835">
        <ele>533.67</ele>
        <time>2017-08-05T09:00:29Z</time>
      </trkpt>
      <trkpt lat="42.90823" lon="0.69837">
        <ele>533.67</ele>
        <time>2017-08-05T09:00:33Z</time>
      </trkpt>
      <trkpt lat="42.90797" lon="0.69844">
        <ele>532.23</ele>
        <time>2017-08-05T09:00:40Z</time>
      </trkpt>
      <trkpt lat="42.90794" lon="0.69846">
        <ele>532.23</ele>
        <time>2017-08-05T09:00:41Z</time>
      </trkpt>
      <trkpt lat="42.90742" lon="0.69838">
        <ele>529.82</ele>
        <time>2017-08-05T09:00:51Z</time>
      </trkpt>
      <trkpt lat="42.90728" lon="0.69837">
        <ele>527.42</ele>
        <time>2017-08-05T09:00:53Z</time>
      </trkpt>
      <trkpt lat="42.90715" lon="0.69832">
        <ele>525.02</ele>
        <time>2017-08-05T09:00:55Z</time>
      </trkpt>
      <trkpt lat="42.90689" lon="0.69848">
        <ele>524.54</ele>
        <time>2017-08-05T09:01:00Z</time>
      </trkpt>
      <trkpt lat="42.90672" lon="0.69877">
        <ele>524.06</ele>
        <time>2017-08-05T09:01:04Z</time>
      </trkpt>
      <trkpt lat="42.90624" lon="0.69902">
        <ele>523.09</ele>
        <time>2017-08-05T09:01:11Z</time>
      </trkpt>
      <trkpt lat="42.90529" lon="0.69887">
        <ele>523.09</ele>
        <time>2017-08-05T09:01:24Z</time>
      </trkpt>
      <trkpt lat="42.90432" lon="0.69877">
        <ele>523.09</ele>
        <time>2017-08-05T09:01:37Z</time>
      </trkpt>
      <trkpt lat="42.90344" lon="0.69899">
        <ele>524.06</ele>
        <time>2017-08-05T09:01:50Z</time>
      </trkpt>
      <trkpt lat="42.90281" lon="0.69931">
        <ele>524.54</ele>
        <time>2017-08-05T09:02:01Z</time>
      </trkpt>
      <trkpt lat="42.90275" lon="0.69934">
        <ele>524.54</ele>
        <time>2017-08-05T09:02:02Z</time>
      </trkpt>
      <trkpt lat="42.90237" lon="0.69954">
        <ele>524.54</ele>
        <time>2017-08-05T09:02:09Z</time>
      </trkpt>
      <trkpt lat="42.9021" lon="0.6997">
        <ele>525.02</ele>
        <time>2017-08-05T09:02:14Z</time>
      </trkpt>
      <trkpt lat="42.90197" lon="0.69983">
        <ele>525.5</ele>
        <time>2017-08-05T09:02:17Z</time>
      </trkpt>
      <trkpt lat="42.9018" lon="0.70014">
        <ele>527.9</ele>
        <time>2017-08-05T09:02:26Z</time>
      </trkpt>
      <trkpt lat="42.90163" lon="0.70047">
        <ele>530.79</ele>
        <time>2017-08-05T09:02:37Z</time>
      </trkpt>
      <trkpt lat="42.90147" lon="0.70083">
        <ele>534.15</ele>
        <time>2017-08-05T09:02:49Z</time>
      </trkpt>
      <trkpt lat="42.90129" lon="0.70116">
        <ele>537.03</ele>
        <time>2017-08-05T09:03:02Z</time>
      </trkpt>
      <trkpt lat="42.90108" lon="0.70145">
        <ele>540.4</ele>
        <time>2017-08-05T09:03:15Z</time>
      </trkpt>
      <trkpt lat="42.90088" lon="0.70179">
        <ele>543.76</ele>
        <time>2017-08-05T09:03:29Z</time>
      </trkpt>
      <trkpt lat="42.9007" lon="0.70208">
        <ele>546.65</ele>
        <time>2017-08-05T09:03:42Z</time>
      </trkpt>
      <trkpt lat="42.90052" lon="0.70235">
        <ele>549.53</ele>
        <time>2017-08-05T09:03:54Z</time>
      </trkpt>
      <trkpt lat="42.90035" lon="0.70271">
        <ele>552.9</ele>
        <time>2017-08-05T09:04:09Z</time>
      </trkpt>
      <trkpt lat="42.90018" lon="0.70306">
        <ele>555.78</ele>
        <time>2017-08-05T09:04:24Z</time>
      </trkpt>
      <trkpt lat="42.90006" lon="0.70345">
        <ele>559.14</ele>
        <time>2017-08-05T09:04:38Z</time>
      </trkpt>
      <trkpt lat="42.89994" lon="0.7038">
        <ele>561.55</ele>
        <time>2017-08-05T09:04:52Z</time>
      </trkpt>
      <trkpt lat="42.89977" lon="0.70413">
        <ele>564.43</ele>
        <time>2017-08-05T09:05:07Z</time>
      </trkpt>
      <trkpt lat="42.89963" lon="0.7045">
        <ele>566.83</ele>
        <time>2017-08-05T09:05:21Z</time>
      </trkpt>
      <trkpt lat="42.8995" lon="0.70486">
        <ele>570.2</ele>
        <time>2017-08-05T09:05:35Z</time>
      </trkpt>
      <trkpt lat="42.89935" lon="0.70518">
        <ele>573.08</ele>
        <time>2017-08-05T09:05:48Z</time>
      </trkpt>
      <trkpt lat="42.89918" lon="0.70557">
        <ele>576.45</ele>
        <time>2017-08-05T09:06:04Z</time>
      </trkpt>
      <trkpt lat="42.89902" lon="0.70592">
        <ele>578.37</ele>
        <time>2017-08-05T09:06:18Z</time>
      </trkpt>
      <trkpt lat="42.89886" lon="0.70626">
        <ele>581.73</ele>
        <time>2017-08-05T09:06:32Z</time>
      </trkpt>
      <trkpt lat="42.89869" lon="0.70647">
        <ele>584.14</ele>
        <time>2017-08-05T09:06:44Z</time>
      </trkpt>
      <trkpt lat="42.89848" lon="0.70676">
        <ele>587.02</ele>
        <time>2017-08-05T09:06:58Z</time>
      </trkpt>
      <trkpt lat="42.8983" lon="0.70707">
        <ele>589.43</ele>
        <time>2017-08-05T09:07:12Z</time>
      </trkpt>
      <trkpt lat="42.89812" lon="0.70737">
        <ele>592.31</ele>
        <time>2017-08-05T09:07:26Z</time>
      </trkpt>
      <trkpt lat="42.89803" lon="0.70751">
        <ele>594.23</ele>
        <time>2017-08-05T09:07:34Z</time>
      </trkpt>
      <trkpt lat="42.89783" lon="0.70776">
        <ele>597.6</ele>
        <time>2017-08-05T09:07:48Z</time>
      </trkpt>
      <trkpt lat="42.89764" lon="0.70801">
        <ele>600</ele>
        <time>2017-08-05T09:08:02Z</time>
      </trkpt>
      <trkpt lat="42.89749" lon="0.70816">
        <ele>601.92</ele>
        <time>2017-08-05T09:08:12Z</time>
      </trkpt>
      <trkpt lat="42.89734" lon="0.70833">
        <ele>603.36</ele>
        <time>2017-08-05T09:08:20Z</time>
      </trkpt>
      <trkpt lat="42.89713" lon="0.70882">
        <ele>606.25</ele>
        <time>2017-08-05T09:08:35Z</time>
      </trkpt>
      <trkpt lat="42.89701" lon="0.70919">
        <ele>608.65</ele>
        <time>2017-08-05T09:08:48Z</time>
      </trkpt>
      <trkpt lat="42.89681" lon="0.70942">
        <ele>611.54</ele>
        <time>2017-08-05T09:09:01Z</time>
      </trkpt>
      <trkpt lat="42.8966" lon="0.70966">
        <ele>612.5</ele>
        <time>2017-08-05T09:09:13Z</time>
      </trkpt>
      <trkpt lat="42.89647" lon="0.70991">
        <ele>613.46</ele>
        <time>2017-08-05T09:09:21Z</time>
      </trkpt>
      <trkpt lat="42.89642" lon="0.70997">
        <ele>613.94</ele>
        <time>2017-08-05T09:09:24Z</time>
      </trkpt>
      <trkpt lat="42.89633" lon="0.71005">
        <ele>614.9</ele>
        <time>2017-08-05T09:09:28Z</time>
      </trkpt>
      <trkpt lat="42.89624" lon="0.71017">
        <ele>615.86</ele>
        <time>2017-08-05T09:09:34Z</time>
      </trkpt>
      <trkpt lat="42.89603" lon="0.71045">
        <ele>618.26</ele>
        <time>2017-08-05T09:09:46Z</time>
      </trkpt>
      <trkpt lat="42.89598" lon="0.71052">
        <ele>618.75</ele>
        <time>2017-08-05T09:09:48Z</time>
      </trkpt>
      <trkpt lat="42.89566" lon="0.71092">
        <ele>621.63</ele>
        <time>2017-08-05T09:10:05Z</time>
      </trkpt>
      <trkpt lat="42.89546" lon="0.71113">
        <ele>624.03</ele>
        <time>2017-08-05T09:10:16Z</time>
      </trkpt>
      <trkpt lat="42.89518" lon="0.71142">
        <ele>626.92</ele>
        <time>2017-08-05T09:10:30Z</time>
      </trkpt>
      <trkpt lat="42.89492" lon="0.71175">
        <ele>629.8</ele>
        <time>2017-08-05T09:10:44Z</time>
      </trkpt>
      <trkpt lat="42.89469" lon="0.71192">
        <ele>631.72</ele>
        <time>2017-08-05T09:10:56Z</time>
      </trkpt>
      <trkpt lat="42.89459" lon="0.71204">
        <ele>633.65</ele>
        <time>2017-08-05T09:11:06Z</time>
      </trkpt>
      <trkpt lat="42.89438" lon="0.71221">
        <ele>636.53</ele>
        <time>2017-08-05T09:11:17Z</time>
      </trkpt>
      <trkpt lat="42.89402" lon="0.71254">
        <ele>639.41</ele>
        <time>2017-08-05T09:11:33Z</time>
      </trkpt>
      <trkpt lat="42.89373" lon="0.71281">
        <ele>642.3</ele>
        <time>2017-08-05T09:11:47Z</time>
      </trkpt>
      <trkpt lat="42.89354" lon="0.71296">
        <ele>644.22</ele>
        <time>2017-08-05T09:11:58Z</time>
      </trkpt>
      <trkpt lat="42.89325" lon="0.71329">
        <ele>647.1</ele>
        <time>2017-08-05T09:12:14Z</time>
      </trkpt>
      <trkpt lat="42.89302" lon="0.71356">
        <ele>649.99</ele>
        <time>2017-08-05T09:12:28Z</time>
      </trkpt>
      <trkpt lat="42.89278" lon="0.71386">
        <ele>653.35</ele>
        <time>2017-08-05T09:12:43Z</time>
      </trkpt>
      <trkpt lat="42.89256" lon="0.71416">
        <ele>656.24</ele>
        <time>2017-08-05T09:12:57Z</time>
      </trkpt>
      <trkpt lat="42.89233" lon="0.71427">
        <ele>657.68</ele>
        <time>2017-08-05T09:13:09Z</time>
      </trkpt>
      <trkpt lat="42.89221" lon="0.71425">
        <ele>659.12</ele>
        <time>2017-08-05T09:13:15Z</time>
      </trkpt>
      <trkpt lat="42.89204" lon="0.71417">
        <ele>662.01</ele>
        <time>2017-08-05T09:13:25Z</time>
      </trkpt>
      <trkpt lat="42.89181" lon="0.71423">
        <ele>664.41</ele>
        <time>2017-08-05T09:13:38Z</time>
      </trkpt>
      <trkpt lat="42.89168" lon="0.71424">
        <ele>664.89</ele>
        <time>2017-08-05T09:13:43Z</time>
      </trkpt>
      <trkpt lat="42.8915" lon="0.71449">
        <ele>667.77</ele>
        <time>2017-08-05T09:13:55Z</time>
      </trkpt>
      <trkpt lat="42.89118" lon="0.71464">
        <ele>671.14</ele>
        <time>2017-08-05T09:14:09Z</time>
      </trkpt>
      <trkpt lat="42.89097" lon="0.71482">
        <ele>673.06</ele>
        <time>2017-08-05T09:14:21Z</time>
      </trkpt>
      <trkpt lat="42.89077" lon="0.71507">
        <ele>675.46</ele>
        <time>2017-08-05T09:14:33Z</time>
      </trkpt>
      <trkpt lat="42.89055" lon="0.71539">
        <ele>678.35</ele>
        <time>2017-08-05T09:14:47Z</time>
      </trkpt>
      <trkpt lat="42.89042" lon="0.71551">
        <ele>680.75</ele>
        <time>2017-08-05T09:14:57Z</time>
      </trkpt>
      <trkpt lat="42.89038" lon="0.71548">
        <ele>681.23</ele>
        <time>2017-08-05T09:15:00Z</time>
      </trkpt>
      <trkpt lat="42.88998" lon="0.71558">
        <ele>684.6</ele>
        <time>2017-08-05T09:15:15Z</time>
      </trkpt>
      <trkpt lat="42.8898" lon="0.71581">
        <ele>687</ele>
        <time>2017-08-05T09:15:28Z</time>
      </trkpt>
      <trkpt lat="42.88964" lon="0.71612">
        <ele>689.88</ele>
        <time>2017-08-05T09:15:42Z</time>
      </trkpt>
      <trkpt lat="42.88962" lon="0.71615">
        <ele>689.88</ele>
        <time>2017-08-05T09:15:44Z</time>
      </trkpt>
      <trkpt lat="42.88957" lon="0.71639">
        <ele>690.84</ele>
        <time>2017-08-05T09:15:52Z</time>
      </trkpt>
      <trkpt lat="42.88944" lon="0.71696">
        <ele>692.77</ele>
        <time>2017-08-05T09:16:08Z</time>
      </trkpt>
      <trkpt lat="42.88932" lon="0.71721">
        <ele>695.17</ele>
        <time>2017-08-05T09:16:19Z</time>
      </trkpt>
      <trkpt lat="42.88918" lon="0.71738">
        <ele>696.61</ele>
        <time>2017-08-05T09:16:28Z</time>
      </trkpt>
      <trkpt lat="42.88916" lon="0.7174">
        <ele>697.09</ele>
        <time>2017-08-05T09:16:30Z</time>
      </trkpt>
      <trkpt lat="42.88914" lon="0.71744">
        <ele>697.09</ele>
        <time>2017-08-05T09:16:31Z</time>
      </trkpt>
      <trkpt lat="42.88914" lon="0.71747">
        <ele>698.05</ele>
        <time>2017-08-05T09:16:32Z</time>
      </trkpt>
      <trkpt lat="42.88909" lon="0.71757">
        <ele>698.05</ele>
        <time>2017-08-05T09:16:35Z</time>
      </trkpt>
      <trkpt lat="42.88885" lon="0.71786">
        <ele>698.53</ele>
        <time>2017-08-05T09:16:47Z</time>
      </trkpt>
      <trkpt lat="42.88882" lon="0.71817">
        <ele>698.53</ele>
        <time>2017-08-05T09:16:59Z</time>
      </trkpt>
      <trkpt lat="42.88886" lon="0.71848">
        <ele>699.5</ele>
        <time>2017-08-05T09:17:11Z</time>
      </trkpt>
      <trkpt lat="42.88888" lon="0.71861">
        <ele>699.98</ele>
        <time>2017-08-05T09:17:16Z</time>
      </trkpt>
      <trkpt lat="42.8889" lon="0.7189">
        <ele>701.9</ele>
        <time>2017-08-05T09:17:30Z</time>
      </trkpt>
      <trkpt lat="42.88899" lon="0.7191">
        <ele>704.3</ele>
        <time>2017-08-05T09:17:42Z</time>
      </trkpt>
      <trkpt lat="42.88901" lon="0.7191">
        <ele>704.3</ele>
        <time>2017-08-05T09:17:46Z</time>
      </trkpt>
      <trkpt lat="42.88893" lon="0.71903">
        <ele>704.3</ele>
        <time>2017-08-05T09:17:51Z</time>
      </trkpt>
      <trkpt lat="42.88889" lon="0.71897">
        <ele>704.3</ele>
        <time>2017-08-05T09:17:54Z</time>
      </trkpt>
      <trkpt lat="42.88888" lon="0.71892">
        <ele>702.86</ele>
        <time>2017-08-05T09:17:56Z</time>
      </trkpt>
      <trkpt lat="42.88886" lon="0.71874">
        <ele>700.46</ele>
        <time>2017-08-05T09:18:00Z</time>
      </trkpt>
      <trkpt lat="42.88885" lon="0.71867">
        <ele>699.98</ele>
        <time>2017-08-05T09:18:01Z</time>
      </trkpt>
      <trkpt lat="42.88887" lon="0.71839">
        <ele>699.5</ele>
        <time>2017-08-05T09:18:05Z</time>
      </trkpt>
      <trkpt lat="42.88879" lon="0.71806">
        <ele>698.53</ele>
        <time>2017-08-05T09:18:12Z</time>
      </trkpt>
      <trkpt lat="42.88879" lon="0.71782">
        <ele>698.53</ele>
        <time>2017-08-05T09:18:21Z</time>
      </trkpt>
      <trkpt lat="42.88882" lon="0.71775">
        <ele>698.53</ele>
        <time>2017-08-05T09:18:25Z</time>
      </trkpt>
      <trkpt lat="42.88885" lon="0.71769">
        <ele>699.98</ele>
        <time>2017-08-05T09:18:28Z</time>
      </trkpt>
      <trkpt lat="42.88886" lon="0.71766">
        <ele>699.98</ele>
        <time>2017-08-05T09:18:30Z</time>
      </trkpt>
      <trkpt lat="42.88871" lon="0.71752">
        <ele>699.98</ele>
        <time>2017-08-05T09:18:42Z</time>
      </trkpt>
      <trkpt lat="42.8885" lon="0.71734">
        <ele>702.38</ele>
        <time>2017-08-05T09:18:52Z</time>
      </trkpt>
      <trkpt lat="42.8882" lon="0.71753">
        <ele>704.78</ele>
        <time>2017-08-05T09:19:07Z</time>
      </trkpt>
      <trkpt lat="42.88788" lon="0.7177">
        <ele>705.26</ele>
        <time>2017-08-05T09:19:20Z</time>
      </trkpt>
      <trkpt lat="42.88761" lon="0.71791">
        <ele>707.67</ele>
        <time>2017-08-05T09:19:32Z</time>
      </trkpt>
      <trkpt lat="42.88733" lon="0.71819">
        <ele>709.11</ele>
        <time>2017-08-05T09:19:46Z</time>
      </trkpt>
      <trkpt lat="42.88707" lon="0.71833">
        <ele>710.07</ele>
        <time>2017-08-05T09:19:56Z</time>
      </trkpt>
      <trkpt lat="42.88679" lon="0.71855">
        <ele>711.03</ele>
        <time>2017-08-05T09:20:08Z</time>
      </trkpt>
      <trkpt lat="42.88656" lon="0.7187">
        <ele>714.4</ele>
        <time>2017-08-05T09:20:20Z</time>
      </trkpt>
      <trkpt lat="42.88633" lon="0.71891">
        <ele>717.28</ele>
        <time>2017-08-05T09:20:34Z</time>
      </trkpt>
      <trkpt lat="42.88608" lon="0.71907">
        <ele>719.2</ele>
        <time>2017-08-05T09:20:47Z</time>
      </trkpt>
      <trkpt lat="42.88577" lon="0.71933">
        <ele>720.16</ele>
        <time>2017-08-05T09:21:01Z</time>
      </trkpt>
      <trkpt lat="42.88564" lon="0.7195">
        <ele>723.53</ele>
        <time>2017-08-05T09:21:11Z</time>
      </trkpt>
      <trkpt lat="42.8854" lon="0.71979">
        <ele>724.97</ele>
        <time>2017-08-05T09:21:25Z</time>
      </trkpt>
      <trkpt lat="42.8851" lon="0.72011">
        <ele>726.89</ele>
        <time>2017-08-05T09:21:40Z</time>
      </trkpt>
      <trkpt lat="42.88501" lon="0.72026">
        <ele>726.89</ele>
        <time>2017-08-05T09:21:52Z</time>
      </trkpt>
      <trkpt lat="42.88493" lon="0.72041">
        <ele>725.93</ele>
        <time>2017-08-05T09:22:05Z</time>
      </trkpt>
      <trkpt lat="42.88492" lon="0.72043">
        <ele>725.93</ele>
        <time>2017-08-05T09:22:06Z</time>
      </trkpt>
      <trkpt lat="42.88491" lon="0.72048">
        <ele>724.97</ele>
        <time>2017-08-05T09:22:18Z</time>
      </trkpt>
      <trkpt lat="42.8849" lon="0.72049">
        <ele>724.97</ele>
        <time>2017-08-05T09:22:45Z</time>
      </trkpt>
      <trkpt lat="42.88492" lon="0.72051">
        <ele>724.97</ele>
        <time>2017-08-05T09:23:08Z</time>
      </trkpt>
      <trkpt lat="42.88492" lon="0.72053">
        <ele>724.49</ele>
        <time>2017-08-05T09:23:24Z</time>
      </trkpt>
      <trkpt lat="42.88491" lon="0.72052">
        <ele>724.49</ele>
        <time>2017-08-05T09:23:52Z</time>
      </trkpt>
      <trkpt lat="42.88491" lon="0.72053">
        <ele>724.49</ele>
        <time>2017-08-05T09:24:24Z</time>
      </trkpt>
      <trkpt lat="42.88491" lon="0.72057">
        <ele>724.01</ele>
        <time>2017-08-05T09:24:37Z</time>
      </trkpt>
      <trkpt lat="42.88498" lon="0.72085">
        <ele>720.65</ele>
        <time>2017-08-05T09:24:43Z</time>
      </trkpt>
      <trkpt lat="42.88501" lon="0.72117">
        <ele>716.32</ele>
        <time>2017-08-05T09:24:47Z</time>
      </trkpt>
      <trkpt lat="42.88501" lon="0.72132">
        <ele>713.92</ele>
        <time>2017-08-05T09:24:49Z</time>
      </trkpt>
      <trkpt lat="42.88497" lon="0.72159">
        <ele>709.59</ele>
        <time>2017-08-05T09:24:53Z</time>
      </trkpt>
      <trkpt lat="42.88491" lon="0.72181">
        <ele>706.23</ele>
        <time>2017-08-05T09:24:57Z</time>
      </trkpt>
      <trkpt lat="42.88491" lon="0.72208">
        <ele>701.9</ele>
        <time>2017-08-05T09:25:02Z</time>
      </trkpt>
      <trkpt lat="42.88499" lon="0.72228">
        <ele>698.05</ele>
        <time>2017-08-05T09:25:05Z</time>
      </trkpt>
      <trkpt lat="42.88514" lon="0.7226">
        <ele>692.29</ele>
        <time>2017-08-05T09:25:09Z</time>
      </trkpt>
      <trkpt lat="42.88523" lon="0.72286">
        <ele>687.96</ele>
        <time>2017-08-05T09:25:12Z</time>
      </trkpt>
      <trkpt lat="42.88533" lon="0.72314">
        <ele>683.63</ele>
        <time>2017-08-05T09:25:16Z</time>
      </trkpt>
      <trkpt lat="42.88537" lon="0.72322">
        <ele>682.67</ele>
        <time>2017-08-05T09:25:17Z</time>
      </trkpt>
      <trkpt lat="42.88551" lon="0.72347">
        <ele>678.35</ele>
        <time>2017-08-05T09:25:21Z</time>
      </trkpt>
      <trkpt lat="42.88554" lon="0.72353">
        <ele>677.39</ele>
        <time>2017-08-05T09:25:22Z</time>
      </trkpt>
      <trkpt lat="42.8856" lon="0.72366">
        <ele>675.46</ele>
        <time>2017-08-05T09:25:24Z</time>
      </trkpt>
      <trkpt lat="42.88565" lon="0.72392">
        <ele>672.58</ele>
        <time>2017-08-05T09:25:28Z</time>
      </trkpt>
      <trkpt lat="42.88565" lon="0.72411">
        <ele>670.66</ele>
        <time>2017-08-05T09:25:31Z</time>
      </trkpt>
      <trkpt lat="42.88559" lon="0.72423">
        <ele>668.73</ele>
        <time>2017-08-05T09:25:35Z</time>
      </trkpt>
      <trkpt lat="42.88549" lon="0.72398">
        <ele>665.85</ele>
        <time>2017-08-05T09:25:43Z</time>
      </trkpt>
      <trkpt lat="42.88525" lon="0.72379">
        <ele>662.01</ele>
        <time>2017-08-05T09:25:47Z</time>
      </trkpt>
      <trkpt lat="42.88518" lon="0.72376">
        <ele>661.04</ele>
        <time>2017-08-05T09:25:48Z</time>
      </trkpt>
      <trkpt lat="42.88488" lon="0.72361">
        <ele>658.64</ele>
        <time>2017-08-05T09:25:52Z</time>
      </trkpt>
      <trkpt lat="42.88468" lon="0.7234">
        <ele>657.2</ele>
        <time>2017-08-05T09:25:56Z</time>
      </trkpt>
      <trkpt lat="42.88459" lon="0.72331">
        <ele>656.24</ele>
        <time>2017-08-05T09:25:58Z</time>
      </trkpt>
      <trkpt lat="42.88453" lon="0.72331">
        <ele>655.28</ele>
        <time>2017-08-05T09:25:59Z</time>
      </trkpt>
      <trkpt lat="42.88427" lon="0.72334">
        <ele>654.8</ele>
        <time>2017-08-05T09:26:03Z</time>
      </trkpt>
      <trkpt lat="42.88413" lon="0.72333">
        <ele>654.31</ele>
        <time>2017-08-05T09:26:06Z</time>
      </trkpt>
      <trkpt lat="42.88374" lon="0.7232">
        <ele>651.43</ele>
        <time>2017-08-05T09:26:14Z</time>
      </trkpt>
      <trkpt lat="42.88357" lon="0.72308">
        <ele>649.99</ele>
        <time>2017-08-05T09:26:17Z</time>
      </trkpt>
      <trkpt lat="42.88346" lon="0.723">
        <ele>649.51</ele>
        <time>2017-08-05T09:26:19Z</time>
      </trkpt>
      <trkpt lat="42.88341" lon="0.72298">
        <ele>649.03</ele>
        <time>2017-08-05T09:26:20Z</time>
      </trkpt>
      <trkpt lat="42.88316" lon="0.723">
        <ele>645.66</ele>
        <time>2017-08-05T09:26:24Z</time>
      </trkpt>
      <trkpt lat="42.88306" lon="0.72301">
        <ele>644.7</ele>
        <time>2017-08-05T09:26:26Z</time>
      </trkpt>
      <trkpt lat="42.88292" lon="0.72304">
        <ele>643.26</ele>
        <time>2017-08-05T09:26:35Z</time>
      </trkpt>
      <trkpt lat="42.88291" lon="0.72305">
        <ele>643.26</ele>
        <time>2017-08-05T09:27:01Z</time>
      </trkpt>
      <trkpt lat="42.88286" lon="0.72308">
        <ele>643.26</ele>
        <time>2017-08-05T09:27:30Z</time>
      </trkpt>
      <trkpt lat="42.88279" lon="0.72315">
        <ele>642.3</ele>
        <time>2017-08-05T09:27:32Z</time>
      </trkpt>
      <trkpt lat="42.88253" lon="0.72332">
        <ele>637.97</ele>
        <time>2017-08-05T09:27:36Z</time>
      </trkpt>
      <trkpt lat="42.88241" lon="0.72345">
        <ele>637.01</ele>
        <time>2017-08-05T09:27:38Z</time>
      </trkpt>
      <trkpt lat="42.88224" lon="0.72363">
        <ele>636.53</ele>
        <time>2017-08-05T09:27:41Z</time>
      </trkpt>
      <trkpt lat="42.88211" lon="0.72373">
        <ele>635.09</ele>
        <time>2017-08-05T09:27:43Z</time>
      </trkpt>
      <trkpt lat="42.88183" lon="0.72406">
        <ele>630.76</ele>
        <time>2017-08-05T09:27:47Z</time>
      </trkpt>
      <trkpt lat="42.88153" lon="0.72465">
        <ele>626.44</ele>
        <time>2017-08-05T09:27:53Z</time>
      </trkpt>
      <trkpt lat="42.88141" lon="0.72485">
        <ele>625.47</ele>
        <time>2017-08-05T09:27:55Z</time>
      </trkpt>
      <trkpt lat="42.88129" lon="0.72505">
        <ele>623.07</ele>
        <time>2017-08-05T09:27:57Z</time>
      </trkpt>
      <trkpt lat="42.88113" lon="0.72534">
        <ele>620.67</ele>
        <time>2017-08-05T09:28:00Z</time>
      </trkpt>
      <trkpt lat="42.88091" lon="0.72578">
        <ele>619.71</ele>
        <time>2017-08-05T09:28:05Z</time>
      </trkpt>
      <trkpt lat="42.88053" lon="0.72619">
        <ele>616.82</ele>
        <time>2017-08-05T09:28:12Z</time>
      </trkpt>
      <trkpt lat="42.88048" lon="0.72628">
        <ele>616.34</ele>
        <time>2017-08-05T09:28:13Z</time>
      </trkpt>
      <trkpt lat="42.88023" lon="0.7268">
        <ele>611.54</ele>
        <time>2017-08-05T09:28:18Z</time>
      </trkpt>
      <trkpt lat="42.88014" lon="0.72701">
        <ele>609.13</ele>
        <time>2017-08-05T09:28:20Z</time>
      </trkpt>
      <trkpt lat="42.87997" lon="0.72741">
        <ele>604.33</ele>
        <time>2017-08-05T09:28:24Z</time>
      </trkpt>
      <trkpt lat="42.87981" lon="0.72778">
        <ele>601.92</ele>
        <time>2017-08-05T09:28:27Z</time>
      </trkpt>
      <trkpt lat="42.87962" lon="0.72808">
        <ele>600.48</ele>
        <time>2017-08-05T09:28:31Z</time>
      </trkpt>
      <trkpt lat="42.87951" lon="0.7283">
        <ele>599.52</ele>
        <time>2017-08-05T09:28:33Z</time>
      </trkpt>
      <trkpt lat="42.87942" lon="0.72842">
        <ele>598.08</ele>
        <time>2017-08-05T09:28:35Z</time>
      </trkpt>
      <trkpt lat="42.87917" lon="0.72866">
        <ele>594.23</ele>
        <time>2017-08-05T09:28:39Z</time>
      </trkpt>
      <trkpt lat="42.87898" lon="0.72897">
        <ele>589.43</ele>
        <time>2017-08-05T09:28:43Z</time>
      </trkpt>
      <trkpt lat="42.87882" lon="0.7292">
        <ele>586.54</ele>
        <time>2017-08-05T09:28:46Z</time>
      </trkpt>
      <trkpt lat="42.87877" lon="0.72926">
        <ele>585.58</ele>
        <time>2017-08-05T09:28:47Z</time>
      </trkpt>
      <trkpt lat="42.87867" lon="0.72935">
        <ele>583.18</ele>
        <time>2017-08-05T09:28:49Z</time>
      </trkpt>
      <trkpt lat="42.87838" lon="0.72967">
        <ele>581.25</ele>
        <time>2017-08-05T09:28:53Z</time>
      </trkpt>
      <trkpt lat="42.87815" lon="0.72983">
        <ele>583.18</ele>
        <time>2017-08-05T09:28:58Z</time>
      </trkpt>
      <trkpt lat="42.8781" lon="0.72983">
        <ele>583.18</ele>
        <time>2017-08-05T09:28:59Z</time>
      </trkpt>
      <trkpt lat="42.87789" lon="0.72983">
        <ele>580.77</ele>
        <time>2017-08-05T09:29:02Z</time>
      </trkpt>
      <trkpt lat="42.87757" lon="0.73">
        <ele>578.37</ele>
        <time>2017-08-05T09:29:07Z</time>
      </trkpt>
      <trkpt lat="42.87745" lon="0.73026">
        <ele>577.89</ele>
        <time>2017-08-05T09:29:10Z</time>
      </trkpt>
      <trkpt lat="42.87741" lon="0.73041">
        <ele>577.89</ele>
        <time>2017-08-05T09:29:12Z</time>
      </trkpt>
      <trkpt lat="42.87728" lon="0.73065">
        <ele>579.81</ele>
        <time>2017-08-05T09:29:16Z</time>
      </trkpt>
      <trkpt lat="42.8772" lon="0.73075">
        <ele>579.81</ele>
        <time>2017-08-05T09:29:18Z</time>
      </trkpt>
      <trkpt lat="42.87712" lon="0.73084">
        <ele>579.81</ele>
        <time>2017-08-05T09:29:20Z</time>
      </trkpt>
      <trkpt lat="42.87668" lon="0.73083">
        <ele>576.93</ele>
        <time>2017-08-05T09:29:25Z</time>
      </trkpt>
      <trkpt lat="42.87655" lon="0.73078">
        <ele>577.41</ele>
        <time>2017-08-05T09:29:27Z</time>
      </trkpt>
      <trkpt lat="42.87647" lon="0.73075">
        <ele>575.97</ele>
        <time>2017-08-05T09:29:28Z</time>
      </trkpt>
      <trkpt lat="42.87632" lon="0.73059">
        <ele>574.04</ele>
        <time>2017-08-05T09:29:31Z</time>
      </trkpt>
      <trkpt lat="42.87626" lon="0.73042">
        <ele>573.08</ele>
        <time>2017-08-05T09:29:33Z</time>
      </trkpt>
      <trkpt lat="42.87619" lon="0.73028">
        <ele>573.08</ele>
        <time>2017-08-05T09:29:35Z</time>
      </trkpt>
      <trkpt lat="42.87582" lon="0.73017">
        <ele>571.64</ele>
        <time>2017-08-05T09:29:41Z</time>
      </trkpt>
      <trkpt lat="42.87576" lon="0.73022">
        <ele>570.68</ele>
        <time>2017-08-05T09:29:42Z</time>
      </trkpt>
      <trkpt lat="42.87561" lon="0.73059">
        <ele>569.72</ele>
        <time>2017-08-05T09:29:47Z</time>
      </trkpt>
      <trkpt lat="42.87555" lon="0.73094">
        <ele>571.64</ele>
        <time>2017-08-05T09:29:53Z</time>
      </trkpt>
      <trkpt lat="42.87541" lon="0.73153">
        <ele>572.12</ele>
        <time>2017-08-05T09:30:05Z</time>
      </trkpt>
      <trkpt lat="42.87526" lon="0.73199">
        <ele>572.12</ele>
        <time>2017-08-05T09:30:14Z</time>
      </trkpt>
      <trkpt lat="42.87518" lon="0.73214">
        <ele>571.16</ele>
        <time>2017-08-05T09:30:17Z</time>
      </trkpt>
      <trkpt lat="42.87514" lon="0.73218">
        <ele>571.16</ele>
        <time>2017-08-05T09:30:18Z</time>
      </trkpt>
      <trkpt lat="42.87502" lon="0.73244">
        <ele>570.68</ele>
        <time>2017-08-05T09:30:23Z</time>
      </trkpt>
      <trkpt lat="42.87494" lon="0.73268">
        <ele>570.2</ele>
        <time>2017-08-05T09:30:27Z</time>
      </trkpt>
      <trkpt lat="42.87477" lon="0.73326">
        <ele>571.64</ele>
        <time>2017-08-05T09:30:38Z</time>
      </trkpt>
      <trkpt lat="42.87464" lon="0.73361">
        <ele>571.64</ele>
        <time>2017-08-05T09:30:47Z</time>
      </trkpt>
      <trkpt lat="42.87452" lon="0.73393">
        <ele>569.24</ele>
        <time>2017-08-05T09:30:52Z</time>
      </trkpt>
      <trkpt lat="42.87441" lon="0.73427">
        <ele>569.24</ele>
        <time>2017-08-05T09:30:57Z</time>
      </trkpt>
      <trkpt lat="42.87433" lon="0.73447">
        <ele>570.68</ele>
        <time>2017-08-05T09:31:01Z</time>
      </trkpt>
      <trkpt lat="42.87422" lon="0.73489">
        <ele>573.56</ele>
        <time>2017-08-05T09:31:12Z</time>
      </trkpt>
      <trkpt lat="42.87414" lon="0.73524">
        <ele>569.72</ele>
        <time>2017-08-05T09:31:19Z</time>
      </trkpt>
      <trkpt lat="42.87416" lon="0.73536">
        <ele>569.24</ele>
        <time>2017-08-05T09:31:21Z</time>
      </trkpt>
      <trkpt lat="42.87415" lon="0.73578">
        <ele>568.28</ele>
        <time>2017-08-05T09:31:28Z</time>
      </trkpt>
      <trkpt lat="42.87396" lon="0.73621">
        <ele>566.35</ele>
        <time>2017-08-05T09:31:38Z</time>
      </trkpt>
      <trkpt lat="42.87392" lon="0.73624">
        <ele>565.87</ele>
        <time>2017-08-05T09:31:53Z</time>
      </trkpt>
      <trkpt lat="42.87391" lon="0.73626">
        <ele>565.87</ele>
        <time>2017-08-05T09:32:08Z</time>
      </trkpt>
      <trkpt lat="42.87392" lon="0.73626">
        <ele>565.87</ele>
        <time>2017-08-05T09:32:16Z</time>
      </trkpt>
      <trkpt lat="42.87393" lon="0.73628">
        <ele>565.87</ele>
        <time>2017-08-05T09:32:18Z</time>
      </trkpt>
      <trkpt lat="42.87399" lon="0.73631">
        <ele>565.87</ele>
        <time>2017-08-05T09:32:23Z</time>
      </trkpt>
      <trkpt lat="42.87401" lon="0.73642">
        <ele>565.87</ele>
        <time>2017-08-05T09:32:29Z</time>
      </trkpt>
      <trkpt lat="42.87404" lon="0.7365">
        <ele>566.83</ele>
        <time>2017-08-05T09:32:33Z</time>
      </trkpt>
      <trkpt lat="42.87409" lon="0.73653">
        <ele>566.83</ele>
        <time>2017-08-05T09:32:36Z</time>
      </trkpt>
      <trkpt lat="42.8742" lon="0.73656">
        <ele>567.8</ele>
        <time>2017-08-05T09:32:41Z</time>
      </trkpt>
      <trkpt lat="42.87444" lon="0.7369">
        <ele>568.76</ele>
        <time>2017-08-05T09:32:55Z</time>
      </trkpt>
      <trkpt lat="42.87455" lon="0.7372">
        <ele>571.64</ele>
        <time>2017-08-05T09:33:07Z</time>
      </trkpt>
      <trkpt lat="42.87453" lon="0.73764">
        <ele>573.08</ele>
        <time>2017-08-05T09:33:20Z</time>
      </trkpt>
      <trkpt lat="42.8744" lon="0.73799">
        <ele>574.53</ele>
        <time>2017-08-05T09:33:32Z</time>
      </trkpt>
      <trkpt lat="42.8743" lon="0.7382">
        <ele>573.08</ele>
        <time>2017-08-05T09:33:37Z</time>
      </trkpt>
      <trkpt lat="42.87401" lon="0.73862">
        <ele>573.08</ele>
        <time>2017-08-05T09:33:49Z</time>
      </trkpt>
      <trkpt lat="42.87386" lon="0.73897">
        <ele>576.45</ele>
        <time>2017-08-05T09:34:01Z</time>
      </trkpt>
      <trkpt lat="42.8738" lon="0.7391">
        <ele>577.89</ele>
        <time>2017-08-05T09:34:08Z</time>
      </trkpt>
      <trkpt lat="42.87377" lon="0.73927">
        <ele>579.33</ele>
        <time>2017-08-05T09:34:15Z</time>
      </trkpt>
      <trkpt lat="42.87377" lon="0.73933">
        <ele>580.29</ele>
        <time>2017-08-05T09:34:18Z</time>
      </trkpt>
      <trkpt lat="42.87374" lon="0.73965">
        <ele>582.22</ele>
        <time>2017-08-05T09:34:30Z</time>
      </trkpt>
      <trkpt lat="42.87372" lon="0.74012">
        <ele>583.18</ele>
        <time>2017-08-05T09:34:42Z</time>
      </trkpt>
      <trkpt lat="42.87353" lon="0.74052">
        <ele>580.77</ele>
        <time>2017-08-05T09:34:52Z</time>
      </trkpt>
      <trkpt lat="42.87326" lon="0.74081">
        <ele>578.37</ele>
        <time>2017-08-05T09:34:58Z</time>
      </trkpt>
      <trkpt lat="42.87298" lon="0.74103">
        <ele>578.37</ele>
        <time>2017-08-05T09:35:04Z</time>
      </trkpt>
      <trkpt lat="42.87287" lon="0.74124">
        <ele>578.37</ele>
        <time>2017-08-05T09:35:08Z</time>
      </trkpt>
      <trkpt lat="42.87276" lon="0.7414">
        <ele>576.45</ele>
        <time>2017-08-05T09:35:11Z</time>
      </trkpt>
      <trkpt lat="42.87257" lon="0.74154">
        <ele>573.56</ele>
        <time>2017-08-05T09:35:14Z</time>
      </trkpt>
      <trkpt lat="42.87242" lon="0.74193">
        <ele>571.16</ele>
        <time>2017-08-05T09:35:20Z</time>
      </trkpt>
      <trkpt lat="42.87239" lon="0.74205">
        <ele>571.16</ele>
        <time>2017-08-05T09:35:22Z</time>
      </trkpt>
      <trkpt lat="42.87221" lon="0.74255">
        <ele>571.16</ele>
        <time>2017-08-05T09:35:33Z</time>
      </trkpt>
      <trkpt lat="42.87215" lon="0.74297">
        <ele>572.12</ele>
        <time>2017-08-05T09:35:43Z</time>
      </trkpt>
      <trkpt lat="42.87215" lon="0.74301">
        <ele>572.12</ele>
        <time>2017-08-05T09:35:45Z</time>
      </trkpt>
      <trkpt lat="42.87214" lon="0.743">
        <ele>572.6</ele>
        <time>2017-08-05T09:35:53Z</time>
      </trkpt>
      <trkpt lat="42.87212" lon="0.74298">
        <ele>572.6</ele>
        <time>2017-08-05T09:35:54Z</time>
      </trkpt>
      <trkpt lat="42.87204" lon="0.74292">
        <ele>572.6</ele>
        <time>2017-08-05T09:35:58Z</time>
      </trkpt>
      <trkpt lat="42.87192" lon="0.74288">
        <ele>570.2</ele>
        <time>2017-08-05T09:36:01Z</time>
      </trkpt>
      <trkpt lat="42.87189" lon="0.7429">
        <ele>569.72</ele>
        <time>2017-08-05T09:36:02Z</time>
      </trkpt>
      <trkpt lat="42.87162" lon="0.74314">
        <ele>568.28</ele>
        <time>2017-08-05T09:36:10Z</time>
      </trkpt>
      <trkpt lat="42.87156" lon="0.74353">
        <ele>569.72</ele>
        <time>2017-08-05T09:36:20Z</time>
      </trkpt>
      <trkpt lat="42.87158" lon="0.74359">
        <ele>569.72</ele>
        <time>2017-08-05T09:36:21Z</time>
      </trkpt>
      <trkpt lat="42.87159" lon="0.74379">
        <ele>569.72</ele>
        <time>2017-08-05T09:36:24Z</time>
      </trkpt>
      <trkpt lat="42.87159" lon="0.74436">
        <ele>571.16</ele>
        <time>2017-08-05T09:36:36Z</time>
      </trkpt>
      <trkpt lat="42.87137" lon="0.74474">
        <ele>571.16</ele>
        <time>2017-08-05T09:36:46Z</time>
      </trkpt>
      <trkpt lat="42.87104" lon="0.74494">
        <ele>572.12</ele>
        <time>2017-08-05T09:36:58Z</time>
      </trkpt>
      <trkpt lat="42.87094" lon="0.74496">
        <ele>573.08</ele>
        <time>2017-08-05T09:37:02Z</time>
      </trkpt>
      <trkpt lat="42.87069" lon="0.74523">
        <ele>574.04</ele>
        <time>2017-08-05T09:37:14Z</time>
      </trkpt>
      <trkpt lat="42.87051" lon="0.74543">
        <ele>570.68</ele>
        <time>2017-08-05T09:37:18Z</time>
      </trkpt>
      <trkpt lat="42.87045" lon="0.7455">
        <ele>569.72</ele>
        <time>2017-08-05T09:37:19Z</time>
      </trkpt>
      <trkpt lat="42.8702" lon="0.74566">
        <ele>566.83</ele>
        <time>2017-08-05T09:37:22Z</time>
      </trkpt>
      <trkpt lat="42.8698" lon="0.74585">
        <ele>563.95</ele>
        <time>2017-08-05T09:37:26Z</time>
      </trkpt>
      <trkpt lat="42.86917" lon="0.74637">
        <ele>563.95</ele>
        <time>2017-08-05T09:37:36Z</time>
      </trkpt>
      <trkpt lat="42.86911" lon="0.74642">
        <ele>563.95</ele>
        <time>2017-08-05T09:37:37Z</time>
      </trkpt>
      <trkpt lat="42.86906" lon="0.74646">
        <ele>563.95</ele>
        <time>2017-08-05T09:37:38Z</time>
      </trkpt>
      <trkpt lat="42.86901" lon="0.74649">
        <ele>563.95</ele>
        <time>2017-08-05T09:37:39Z</time>
      </trkpt>
      <trkpt lat="42.86891" lon="0.74653">
        <ele>563.95</ele>
        <time>2017-08-05T09:37:41Z</time>
      </trkpt>
      <trkpt lat="42.86872" lon="0.74671">
        <ele>564.91</ele>
        <time>2017-08-05T09:37:46Z</time>
      </trkpt>
      <trkpt lat="42.86861" lon="0.74683">
        <ele>565.39</ele>
        <time>2017-08-05T09:37:49Z</time>
      </trkpt>
      <trkpt lat="42.86815" lon="0.74701">
        <ele>565.39</ele>
        <time>2017-08-05T09:37:58Z</time>
      </trkpt>
      <trkpt lat="42.86763" lon="0.74724">
        <ele>567.32</ele>
        <time>2017-08-05T09:38:11Z</time>
      </trkpt>
      <trkpt lat="42.86746" lon="0.74747">
        <ele>565.87</ele>
        <time>2017-08-05T09:38:17Z</time>
      </trkpt>
      <trkpt lat="42.86735" lon="0.74756">
        <ele>565.39</ele>
        <time>2017-08-05T09:38:26Z</time>
      </trkpt>
      <trkpt lat="42.86732" lon="0.74756">
        <ele>565.39</ele>
        <time>2017-08-05T09:38:41Z</time>
      </trkpt>
      <trkpt lat="42.86731" lon="0.74754">
        <ele>564.91</ele>
        <time>2017-08-05T09:39:15Z</time>
      </trkpt>
      <trkpt lat="42.86731" lon="0.74752">
        <ele>564.91</ele>
        <time>2017-08-05T09:39:48Z</time>
      </trkpt>
      <trkpt lat="42.86731" lon="0.74755">
        <ele>564.91</ele>
        <time>2017-08-05T09:40:22Z</time>
      </trkpt>
      <trkpt lat="42.86731" lon="0.74758">
        <ele>564.43</ele>
        <time>2017-08-05T09:40:54Z</time>
      </trkpt>
      <trkpt lat="42.8673" lon="0.74753">
        <ele>564.43</ele>
        <time>2017-08-05T09:41:22Z</time>
      </trkpt>
      <trkpt lat="42.8673" lon="0.74755">
        <ele>564.43</ele>
        <time>2017-08-05T09:41:41Z</time>
      </trkpt>
      <trkpt lat="42.86732" lon="0.74754">
        <ele>563.95</ele>
        <time>2017-08-05T09:42:08Z</time>
      </trkpt>
      <trkpt lat="42.8673" lon="0.74752">
        <ele>563.95</ele>
        <time>2017-08-05T09:42:28Z</time>
      </trkpt>
      <trkpt lat="42.86733" lon="0.74753">
        <ele>563.95</ele>
        <time>2017-08-05T09:42:57Z</time>
      </trkpt>
      <trkpt lat="42.8673" lon="0.74758">
        <ele>563.95</ele>
        <time>2017-08-05T09:43:12Z</time>
      </trkpt>
      <trkpt lat="42.86728" lon="0.74759">
        <ele>563.95</ele>
        <time>2017-08-05T09:43:42Z</time>
      </trkpt>
      <trkpt lat="42.8673" lon="0.74761">
        <ele>563.95</ele>
        <time>2017-08-05T09:44:04Z</time>
      </trkpt>
      <trkpt lat="42.86731" lon="0.7476">
        <ele>563.95</ele>
        <time>2017-08-05T09:44:34Z</time>
      </trkpt>
      <trkpt lat="42.86731" lon="0.74759">
        <ele>563.95</ele>
        <time>2017-08-05T09:44:57Z</time>
      </trkpt>
      <trkpt lat="42.86731" lon="0.7476">
        <ele>563.95</ele>
        <time>2017-08-05T09:45:09Z</time>
      </trkpt>
      <trkpt lat="42.86733" lon="0.74762">
        <ele>563.95</ele>
        <time>2017-08-05T09:45:13Z</time>
      </trkpt>
      <trkpt lat="42.86737" lon="0.74759">
        <ele>563.47</ele>
        <time>2017-08-05T09:45:26Z</time>
      </trkpt>
      <trkpt lat="42.86734" lon="0.74758">
        <ele>563.47</ele>
        <time>2017-08-05T09:45:48Z</time>
      </trkpt>
      <trkpt lat="42.86734" lon="0.74758">
        <ele>563.47</ele>
        <time>2017-08-05T09:46:01Z</time>
      </trkpt>
      <trkpt lat="42.86734" lon="0.74758">
        <ele>563.47</ele>
        <time>2017-08-05T09:46:20Z</time>
      </trkpt>
      <trkpt lat="42.86737" lon="0.74761">
        <ele>563.47</ele>
        <time>2017-08-05T09:46:45Z</time>
      </trkpt>
      <trkpt lat="42.86735" lon="0.7476">
        <ele>563.47</ele>
        <time>2017-08-05T09:47:15Z</time>
      </trkpt>
      <trkpt lat="42.86734" lon="0.74759">
        <ele>563.47</ele>
        <time>2017-08-05T09:47:44Z</time>
      </trkpt>
      <trkpt lat="42.86733" lon="0.74757">
        <ele>562.99</ele>
        <time>2017-08-05T09:48:15Z</time>
      </trkpt>
      <trkpt lat="42.86733" lon="0.74758">
        <ele>562.99</ele>
        <time>2017-08-05T09:48:39Z</time>
      </trkpt>
      <trkpt lat="42.8673" lon="0.74759">
        <ele>562.99</ele>
        <time>2017-08-05T09:48:45Z</time>
      </trkpt>
      <trkpt lat="42.86732" lon="0.74788">
        <ele>565.39</ele>
        <time>2017-08-05T09:49:00Z</time>
      </trkpt>
      <trkpt lat="42.86727" lon="0.74825">
        <ele>568.76</ele>
        <time>2017-08-05T09:49:15Z</time>
      </trkpt>
      <trkpt lat="42.86724" lon="0.74842">
        <ele>570.2</ele>
        <time>2017-08-05T09:49:22Z</time>
      </trkpt>
      <trkpt lat="42.86718" lon="0.74876">
        <ele>573.08</ele>
        <time>2017-08-05T09:49:35Z</time>
      </trkpt>
      <trkpt lat="42.86707" lon="0.74904">
        <ele>575.01</ele>
        <time>2017-08-05T09:49:47Z</time>
      </trkpt>
      <trkpt lat="42.86688" lon="0.74937">
        <ele>578.37</ele>
        <time>2017-08-05T09:50:03Z</time>
      </trkpt>
      <trkpt lat="42.86671" lon="0.74968">
        <ele>580.77</ele>
        <time>2017-08-05T09:50:17Z</time>
      </trkpt>
      <trkpt lat="42.86663" lon="0.74981">
        <ele>582.22</ele>
        <time>2017-08-05T09:50:24Z</time>
      </trkpt>
      <trkpt lat="42.86675" lon="0.74977">
        <ele>583.18</ele>
        <time>2017-08-05T09:50:32Z</time>
      </trkpt>
      <trkpt lat="42.86692" lon="0.7496">
        <ele>585.1</ele>
        <time>2017-08-05T09:50:42Z</time>
      </trkpt>
      <trkpt lat="42.86701" lon="0.74947">
        <ele>587.02</ele>
        <time>2017-08-05T09:50:49Z</time>
      </trkpt>
      <trkpt lat="42.86713" lon="0.74936">
        <ele>587.98</ele>
        <time>2017-08-05T09:50:56Z</time>
      </trkpt>
      <trkpt lat="42.86725" lon="0.74921">
        <ele>589.91</ele>
        <time>2017-08-05T09:51:05Z</time>
      </trkpt>
      <trkpt lat="42.86726" lon="0.74924">
        <ele>590.39</ele>
        <time>2017-08-05T09:51:08Z</time>
      </trkpt>
      <trkpt lat="42.86722" lon="0.74932">
        <ele>590.87</ele>
        <time>2017-08-05T09:51:12Z</time>
      </trkpt>
      <trkpt lat="42.86706" lon="0.74957">
        <ele>593.75</ele>
        <time>2017-08-05T09:51:24Z</time>
      </trkpt>
      <trkpt lat="42.86703" lon="0.7496">
        <ele>593.75</ele>
        <time>2017-08-05T09:51:26Z</time>
      </trkpt>
      <trkpt lat="42.86693" lon="0.74972">
        <ele>595.19</ele>
        <time>2017-08-05T09:51:33Z</time>
      </trkpt>
      <trkpt lat="42.86675" lon="0.75005">
        <ele>599.04</ele>
        <time>2017-08-05T09:51:48Z</time>
      </trkpt>
      <trkpt lat="42.86655" lon="0.75032">
        <ele>601.44</ele>
        <time>2017-08-05T09:52:02Z</time>
      </trkpt>
      <trkpt lat="42.86642" lon="0.75065">
        <ele>604.33</ele>
        <time>2017-08-05T09:52:17Z</time>
      </trkpt>
      <trkpt lat="42.86652" lon="0.75064">
        <ele>605.29</ele>
        <time>2017-08-05T09:52:22Z</time>
      </trkpt>
      <trkpt lat="42.86665" lon="0.75043">
        <ele>607.21</ele>
        <time>2017-08-05T09:52:32Z</time>
      </trkpt>
      <trkpt lat="42.86666" lon="0.75055">
        <ele>609.13</ele>
        <time>2017-08-05T09:52:40Z</time>
      </trkpt>
      <trkpt lat="42.86664" lon="0.75066">
        <ele>610.09</ele>
        <time>2017-08-05T09:52:45Z</time>
      </trkpt>
      <trkpt lat="42.86672" lon="0.75074">
        <ele>611.06</ele>
        <time>2017-08-05T09:52:50Z</time>
      </trkpt>
      <trkpt lat="42.86678" lon="0.75077">
        <ele>611.54</ele>
        <time>2017-08-05T09:52:53Z</time>
      </trkpt>
      <trkpt lat="42.86672" lon="0.75086">
        <ele>613.46</ele>
        <time>2017-08-05T09:53:00Z</time>
      </trkpt>
      <trkpt lat="42.86646" lon="0.75114">
        <ele>616.82</ele>
        <time>2017-08-05T09:53:16Z</time>
      </trkpt>
      <trkpt lat="42.86636" lon="0.75151">
        <ele>619.71</ele>
        <time>2017-08-05T09:53:30Z</time>
      </trkpt>
      <trkpt lat="42.86629" lon="0.75191">
        <ele>623.07</ele>
        <time>2017-08-05T09:53:45Z</time>
      </trkpt>
      <trkpt lat="42.86633" lon="0.75231">
        <ele>626.44</ele>
        <time>2017-08-05T09:54:00Z</time>
      </trkpt>
      <trkpt lat="42.86629" lon="0.75266">
        <ele>628.84</ele>
        <time>2017-08-05T09:54:14Z</time>
      </trkpt>
      <trkpt lat="42.86626" lon="0.75304">
        <ele>632.2</ele>
        <time>2017-08-05T09:54:28Z</time>
      </trkpt>
      <trkpt lat="42.86628" lon="0.75349">
        <ele>635.57</ele>
        <time>2017-08-05T09:54:44Z</time>
      </trkpt>
      <trkpt lat="42.86637" lon="0.75384">
        <ele>638.45</ele>
        <time>2017-08-05T09:54:57Z</time>
      </trkpt>
      <trkpt lat="42.86652" lon="0.75419">
        <ele>641.34</ele>
        <time>2017-08-05T09:55:13Z</time>
      </trkpt>
      <trkpt lat="42.86656" lon="0.75444">
        <ele>643.26</ele>
        <time>2017-08-05T09:55:24Z</time>
      </trkpt>
      <trkpt lat="42.86662" lon="0.7544">
        <ele>644.22</ele>
        <time>2017-08-05T09:55:28Z</time>
      </trkpt>
      <trkpt lat="42.86663" lon="0.75429">
        <ele>644.7</ele>
        <time>2017-08-05T09:55:32Z</time>
      </trkpt>
      <trkpt lat="42.86664" lon="0.7542">
        <ele>645.66</ele>
        <time>2017-08-05T09:55:36Z</time>
      </trkpt>
      <trkpt lat="42.8666" lon="0.75378">
        <ele>649.03</ele>
        <time>2017-08-05T09:55:52Z</time>
      </trkpt>
      <trkpt lat="42.86665" lon="0.75335">
        <ele>651.43</ele>
        <time>2017-08-05T09:56:07Z</time>
      </trkpt>
      <trkpt lat="42.8667" lon="0.75291">
        <ele>653.83</ele>
        <time>2017-08-05T09:56:22Z</time>
      </trkpt>
      <trkpt lat="42.8667" lon="0.75285">
        <ele>654.8</ele>
        <time>2017-08-05T09:56:24Z</time>
      </trkpt>
      <trkpt lat="42.86678" lon="0.75287">
        <ele>656.24</ele>
        <time>2017-08-05T09:56:31Z</time>
      </trkpt>
      <trkpt lat="42.86686" lon="0.75326">
        <ele>659.6</ele>
        <time>2017-08-05T09:56:46Z</time>
      </trkpt>
      <trkpt lat="42.86695" lon="0.75368">
        <ele>662.97</ele>
        <time>2017-08-05T09:57:02Z</time>
      </trkpt>
      <trkpt lat="42.86699" lon="0.75405">
        <ele>665.85</ele>
        <time>2017-08-05T09:57:16Z</time>
      </trkpt>
      <trkpt lat="42.867" lon="0.75443">
        <ele>668.73</ele>
        <time>2017-08-05T09:57:31Z</time>
      </trkpt>
      <trkpt lat="42.867" lon="0.75485">
        <ele>672.1</ele>
        <time>2017-08-05T09:57:47Z</time>
      </trkpt>
      <trkpt lat="42.86703" lon="0.75523">
        <ele>674.5</ele>
        <time>2017-08-05T09:58:01Z</time>
      </trkpt>
      <trkpt lat="42.86708" lon="0.75563">
        <ele>677.87</ele>
        <time>2017-08-05T09:58:15Z</time>
      </trkpt>
      <trkpt lat="42.86712" lon="0.75604">
        <ele>680.75</ele>
        <time>2017-08-05T09:58:30Z</time>
      </trkpt>
      <trkpt lat="42.86717" lon="0.75624">
        <ele>682.19</ele>
        <time>2017-08-05T09:58:38Z</time>
      </trkpt>
      <trkpt lat="42.86726" lon="0.75618">
        <ele>684.12</ele>
        <time>2017-08-05T09:58:47Z</time>
      </trkpt>
      <trkpt lat="42.8672" lon="0.75568">
        <ele>686.52</ele>
        <time>2017-08-05T09:59:03Z</time>
      </trkpt>
      <trkpt lat="42.86726" lon="0.7553">
        <ele>689.4</ele>
        <time>2017-08-05T09:59:16Z</time>
      </trkpt>
      <trkpt lat="42.86729" lon="0.7551">
        <ele>690.36</ele>
        <time>2017-08-05T09:59:23Z</time>
      </trkpt>
      <trkpt lat="42.86736" lon="0.75528">
        <ele>692.77</ele>
        <time>2017-08-05T09:59:33Z</time>
      </trkpt>
      <trkpt lat="42.86748" lon="0.75557">
        <ele>696.13</ele>
        <time>2017-08-05T09:59:46Z</time>
      </trkpt>
      <trkpt lat="42.86758" lon="0.75596">
        <ele>699.02</ele>
        <time>2017-08-05T10:00:01Z</time>
      </trkpt>
      <trkpt lat="42.86761" lon="0.75636">
        <ele>702.38</ele>
        <time>2017-08-05T10:00:16Z</time>
      </trkpt>
      <trkpt lat="42.86763" lon="0.75672">
        <ele>705.26</ele>
        <time>2017-08-05T10:00:29Z</time>
      </trkpt>
      <trkpt lat="42.86759" lon="0.75708">
        <ele>708.15</ele>
        <time>2017-08-05T10:00:44Z</time>
      </trkpt>
      <trkpt lat="42.86759" lon="0.75737">
        <ele>710.55</ele>
        <time>2017-08-05T10:00:55Z</time>
      </trkpt>
      <trkpt lat="42.86778" lon="0.75774">
        <ele>713.44</ele>
        <time>2017-08-05T10:01:10Z</time>
      </trkpt>
      <trkpt lat="42.86793" lon="0.75802">
        <ele>715.84</ele>
        <time>2017-08-05T10:01:23Z</time>
      </trkpt>
      <trkpt lat="42.86804" lon="0.75826">
        <ele>718.72</ele>
        <time>2017-08-05T10:01:36Z</time>
      </trkpt>
      <trkpt lat="42.86806" lon="0.7583">
        <ele>719.2</ele>
        <time>2017-08-05T10:01:39Z</time>
      </trkpt>
      <trkpt lat="42.86807" lon="0.75835">
        <ele>720.16</ele>
        <time>2017-08-05T10:01:50Z</time>
      </trkpt>
      <trkpt lat="42.8681" lon="0.75829">
        <ele>720.16</ele>
        <time>2017-08-05T10:02:03Z</time>
      </trkpt>
      <trkpt lat="42.86811" lon="0.75829">
        <ele>718.72</ele>
        <time>2017-08-05T10:02:14Z</time>
      </trkpt>
      <trkpt lat="42.86808" lon="0.75831">
        <ele>721.13</ele>
        <time>2017-08-05T11:23:08Z</time>
      </trkpt>
      <trkpt lat="42.8681" lon="0.75829">
        <ele>721.61</ele>
        <time>2017-08-05T11:23:40Z</time>
      </trkpt>
      <trkpt lat="42.8681" lon="0.75828">
        <ele>721.61</ele>
        <time>2017-08-05T11:24:17Z</time>
      </trkpt>
      <trkpt lat="42.8681" lon="0.75828">
        <ele>721.61</ele>
        <time>2017-08-05T11:24:43Z</time>
      </trkpt>
      <trkpt lat="42.86811" lon="0.75828">
        <ele>722.09</ele>
        <time>2017-08-05T11:25:11Z</time>
      </trkpt>
      <trkpt lat="42.86811" lon="0.75829">
        <ele>722.09</ele>
        <time>2017-08-05T11:25:36Z</time>
      </trkpt>
      <trkpt lat="42.8681" lon="0.75831">
        <ele>722.09</ele>
        <time>2017-08-05T11:25:50Z</time>
      </trkpt>
      <trkpt lat="42.86809" lon="0.75836">
        <ele>722.09</ele>
        <time>2017-08-05T11:25:55Z</time>
      </trkpt>
      <trkpt lat="42.86825" lon="0.7586">
        <ele>724.49</ele>
        <time>2017-08-05T11:26:09Z</time>
      </trkpt>
      <trkpt lat="42.8684" lon="0.7588">
        <ele>727.86</ele>
        <time>2017-08-05T11:26:22Z</time>
      </trkpt>
      <trkpt lat="42.86841" lon="0.75881">
        <ele>727.86</ele>
        <time>2017-08-05T11:26:23Z</time>
      </trkpt>
      <trkpt lat="42.86856" lon="0.75908">
        <ele>729.3</ele>
        <time>2017-08-05T11:26:36Z</time>
      </trkpt>
      <trkpt lat="42.86857" lon="0.75929">
        <ele>729.3</ele>
        <time>2017-08-05T11:26:41Z</time>
      </trkpt>
      <trkpt lat="42.86856" lon="0.75955">
        <ele>726.41</ele>
        <time>2017-08-05T11:26:45Z</time>
      </trkpt>
      <trkpt lat="42.86855" lon="0.75974">
        <ele>724.49</ele>
        <time>2017-08-05T11:26:47Z</time>
      </trkpt>
      <trkpt lat="42.86862" lon="0.76052">
        <ele>724.49</ele>
        <time>2017-08-05T11:26:55Z</time>
      </trkpt>
      <trkpt lat="42.86872" lon="0.76093">
        <ele>725.45</ele>
        <time>2017-08-05T11:27:02Z</time>
      </trkpt>
      <trkpt lat="42.86884" lon="0.76125">
        <ele>727.86</ele>
        <time>2017-08-05T11:27:12Z</time>
      </trkpt>
      <trkpt lat="42.86897" lon="0.762">
        <ele>729.78</ele>
        <time>2017-08-05T11:27:28Z</time>
      </trkpt>
      <trkpt lat="42.86909" lon="0.7626">
        <ele>732.18</ele>
        <time>2017-08-05T11:27:41Z</time>
      </trkpt>
      <trkpt lat="42.86922" lon="0.76328">
        <ele>734.58</ele>
        <time>2017-08-05T11:27:56Z</time>
      </trkpt>
      <trkpt lat="42.86933" lon="0.76391">
        <ele>736.99</ele>
        <time>2017-08-05T11:28:10Z</time>
      </trkpt>
      <trkpt lat="42.86946" lon="0.76463">
        <ele>738.91</ele>
        <time>2017-08-05T11:28:26Z</time>
      </trkpt>
      <trkpt lat="42.86954" lon="0.76521">
        <ele>741.31</ele>
        <time>2017-08-05T11:28:39Z</time>
      </trkpt>
      <trkpt lat="42.86958" lon="0.76539">
        <ele>741.31</ele>
        <time>2017-08-05T11:28:43Z</time>
      </trkpt>
      <trkpt lat="42.86967" lon="0.76534">
        <ele>743.24</ele>
        <time>2017-08-05T11:28:49Z</time>
      </trkpt>
      <trkpt lat="42.86961" lon="0.76478">
        <ele>744.68</ele>
        <time>2017-08-05T11:29:03Z</time>
      </trkpt>
      <trkpt lat="42.86962" lon="0.76432">
        <ele>747.56</ele>
        <time>2017-08-05T11:29:16Z</time>
      </trkpt>
      <trkpt lat="42.86957" lon="0.76394">
        <ele>749.97</ele>
        <time>2017-08-05T11:29:28Z</time>
      </trkpt>
      <trkpt lat="42.86959" lon="0.76348">
        <ele>753.33</ele>
        <time>2017-08-05T11:29:42Z</time>
      </trkpt>
      <trkpt lat="42.86961" lon="0.76322">
        <ele>755.25</ele>
        <time>2017-08-05T11:29:51Z</time>
      </trkpt>
      <trkpt lat="42.86965" lon="0.76313">
        <ele>756.69</ele>
        <time>2017-08-05T11:29:56Z</time>
      </trkpt>
      <trkpt lat="42.86964" lon="0.76299">
        <ele>757.18</ele>
        <time>2017-08-05T11:30:00Z</time>
      </trkpt>
      <trkpt lat="42.86965" lon="0.7629">
        <ele>758.14</ele>
        <time>2017-08-05T11:30:04Z</time>
      </trkpt>
      <trkpt lat="42.86959" lon="0.76263">
        <ele>759.58</ele>
        <time>2017-08-05T11:30:13Z</time>
      </trkpt>
      <trkpt lat="42.86955" lon="0.76226">
        <ele>762.46</ele>
        <time>2017-08-05T11:30:26Z</time>
      </trkpt>
      <trkpt lat="42.86954" lon="0.76182">
        <ele>765.83</ele>
        <time>2017-08-05T11:30:40Z</time>
      </trkpt>
      <trkpt lat="42.86953" lon="0.76135">
        <ele>769.19</ele>
        <time>2017-08-05T11:30:56Z</time>
      </trkpt>
      <trkpt lat="42.86953" lon="0.7609">
        <ele>772.08</ele>
        <time>2017-08-05T11:31:11Z</time>
      </trkpt>
      <trkpt lat="42.86954" lon="0.76049">
        <ele>775.44</ele>
        <time>2017-08-05T11:31:26Z</time>
      </trkpt>
      <trkpt lat="42.86953" lon="0.76001">
        <ele>778.81</ele>
        <time>2017-08-05T11:31:43Z</time>
      </trkpt>
      <trkpt lat="42.86947" lon="0.75975">
        <ele>780.25</ele>
        <time>2017-08-05T11:31:52Z</time>
      </trkpt>
      <trkpt lat="42.86957" lon="0.75979">
        <ele>781.21</ele>
        <time>2017-08-05T11:31:58Z</time>
      </trkpt>
      <trkpt lat="42.86968" lon="0.76029">
        <ele>785.05</ele>
        <time>2017-08-05T11:32:16Z</time>
      </trkpt>
      <trkpt lat="42.86976" lon="0.76066">
        <ele>788.42</ele>
        <time>2017-08-05T11:32:32Z</time>
      </trkpt>
      <trkpt lat="42.86984" lon="0.76102">
        <ele>791.3</ele>
        <time>2017-08-05T11:32:47Z</time>
      </trkpt>
      <trkpt lat="42.86993" lon="0.76137">
        <ele>794.67</ele>
        <time>2017-08-05T11:33:02Z</time>
      </trkpt>
      <trkpt lat="42.87005" lon="0.76169">
        <ele>798.03</ele>
        <time>2017-08-05T11:33:18Z</time>
      </trkpt>
      <trkpt lat="42.87016" lon="0.762">
        <ele>800.92</ele>
        <time>2017-08-05T11:33:33Z</time>
      </trkpt>
      <trkpt lat="42.87028" lon="0.76239">
        <ele>804.28</ele>
        <time>2017-08-05T11:33:51Z</time>
      </trkpt>
      <trkpt lat="42.87039" lon="0.76276">
        <ele>807.64</ele>
        <time>2017-08-05T11:34:07Z</time>
      </trkpt>
      <trkpt lat="42.87042" lon="0.76288">
        <ele>808.13</ele>
        <time>2017-08-05T11:34:12Z</time>
      </trkpt>
      <trkpt lat="42.87051" lon="0.76278">
        <ele>810.05</ele>
        <time>2017-08-05T11:34:22Z</time>
      </trkpt>
      <trkpt lat="42.87042" lon="0.76242">
        <ele>812.93</ele>
        <time>2017-08-05T11:34:37Z</time>
      </trkpt>
      <trkpt lat="42.8704" lon="0.76202">
        <ele>816.3</ele>
        <time>2017-08-05T11:34:54Z</time>
      </trkpt>
      <trkpt lat="42.87042" lon="0.76167">
        <ele>818.7</ele>
        <time>2017-08-05T11:35:09Z</time>
      </trkpt>
      <trkpt lat="42.87047" lon="0.76132">
        <ele>822.55</ele>
        <time>2017-08-05T11:35:25Z</time>
      </trkpt>
      <trkpt lat="42.87049" lon="0.76095">
        <ele>825.43</ele>
        <time>2017-08-05T11:35:41Z</time>
      </trkpt>
      <trkpt lat="42.87049" lon="0.76058">
        <ele>828.79</ele>
        <time>2017-08-05T11:35:57Z</time>
      </trkpt>
      <trkpt lat="42.87048" lon="0.76027">
        <ele>831.68</ele>
        <time>2017-08-05T11:36:11Z</time>
      </trkpt>
      <trkpt lat="42.87046" lon="0.75995">
        <ele>835.04</ele>
        <time>2017-08-05T11:36:25Z</time>
      </trkpt>
      <trkpt lat="42.87045" lon="0.75961">
        <ele>837.93</ele>
        <time>2017-08-05T11:36:40Z</time>
      </trkpt>
      <trkpt lat="42.8705" lon="0.75922">
        <ele>840.81</ele>
        <time>2017-08-05T11:36:57Z</time>
      </trkpt>
      <trkpt lat="42.87054" lon="0.75888">
        <ele>843.69</ele>
        <time>2017-08-05T11:37:12Z</time>
      </trkpt>
      <trkpt lat="42.87058" lon="0.75858">
        <ele>846.58</ele>
        <time>2017-08-05T11:37:25Z</time>
      </trkpt>
      <trkpt lat="42.87062" lon="0.75822">
        <ele>849.46</ele>
        <time>2017-08-05T11:37:40Z</time>
      </trkpt>
      <trkpt lat="42.87064" lon="0.75786">
        <ele>851.87</ele>
        <time>2017-08-05T11:37:54Z</time>
      </trkpt>
      <trkpt lat="42.87059" lon="0.75755">
        <ele>853.31</ele>
        <time>2017-08-05T11:38:06Z</time>
      </trkpt>
      <trkpt lat="42.87055" lon="0.75743">
        <ele>853.79</ele>
        <time>2017-08-05T11:38:11Z</time>
      </trkpt>
      <trkpt lat="42.87066" lon="0.75748">
        <ele>855.71</ele>
        <time>2017-08-05T11:38:21Z</time>
      </trkpt>
      <trkpt lat="42.8707" lon="0.7576">
        <ele>856.67</ele>
        <time>2017-08-05T11:38:26Z</time>
      </trkpt>
      <trkpt lat="42.87077" lon="0.75785">
        <ele>858.59</ele>
        <time>2017-08-05T11:38:36Z</time>
      </trkpt>
      <trkpt lat="42.87078" lon="0.75803">
        <ele>859.56</ele>
        <time>2017-08-05T11:38:43Z</time>
      </trkpt>
      <trkpt lat="42.87081" lon="0.75848">
        <ele>862.44</ele>
        <time>2017-08-05T11:39:00Z</time>
      </trkpt>
      <trkpt lat="42.87084" lon="0.75884">
        <ele>864.84</ele>
        <time>2017-08-05T11:39:14Z</time>
      </trkpt>
      <trkpt lat="42.87089" lon="0.75922">
        <ele>867.25</ele>
        <time>2017-08-05T11:39:28Z</time>
      </trkpt>
      <trkpt lat="42.87101" lon="0.75964">
        <ele>870.13</ele>
        <time>2017-08-05T11:39:44Z</time>
      </trkpt>
      <trkpt lat="42.87113" lon="0.76002">
        <ele>873.01</ele>
        <time>2017-08-05T11:40:00Z</time>
      </trkpt>
      <trkpt lat="42.87121" lon="0.76041">
        <ele>876.38</ele>
        <time>2017-08-05T11:40:16Z</time>
      </trkpt>
      <trkpt lat="42.87128" lon="0.76078">
        <ele>879.26</ele>
        <time>2017-08-05T11:40:32Z</time>
      </trkpt>
      <trkpt lat="42.87139" lon="0.76113">
        <ele>882.63</ele>
        <time>2017-08-05T11:40:48Z</time>
      </trkpt>
      <trkpt lat="42.8715" lon="0.76147">
        <ele>885.99</ele>
        <time>2017-08-05T11:41:04Z</time>
      </trkpt>
      <trkpt lat="42.8716" lon="0.76175">
        <ele>888.88</ele>
        <time>2017-08-05T11:41:18Z</time>
      </trkpt>
      <trkpt lat="42.87171" lon="0.76203">
        <ele>892.24</ele>
        <time>2017-08-05T11:41:33Z</time>
      </trkpt>
      <trkpt lat="42.87184" lon="0.76233">
        <ele>895.12</ele>
        <time>2017-08-05T11:41:50Z</time>
      </trkpt>
      <trkpt lat="42.87197" lon="0.76265">
        <ele>898.49</ele>
        <time>2017-08-05T11:42:08Z</time>
      </trkpt>
      <trkpt lat="42.87202" lon="0.76298">
        <ele>900.89</ele>
        <time>2017-08-05T11:42:23Z</time>
      </trkpt>
      <trkpt lat="42.87204" lon="0.76331">
        <ele>903.78</ele>
        <time>2017-08-05T11:42:37Z</time>
      </trkpt>
      <trkpt lat="42.87204" lon="0.76334">
        <ele>903.78</ele>
        <time>2017-08-05T11:42:38Z</time>
      </trkpt>
      <trkpt lat="42.87213" lon="0.76329">
        <ele>904.74</ele>
        <time>2017-08-05T11:42:47Z</time>
      </trkpt>
      <trkpt lat="42.87212" lon="0.76323">
        <ele>904.74</ele>
        <time>2017-08-05T11:42:49Z</time>
      </trkpt>
      <trkpt lat="42.87214" lon="0.76288">
        <ele>907.62</ele>
        <time>2017-08-05T11:43:03Z</time>
      </trkpt>
      <trkpt lat="42.87216" lon="0.76252">
        <ele>910.99</ele>
        <time>2017-08-05T11:43:18Z</time>
      </trkpt>
      <trkpt lat="42.87212" lon="0.76215">
        <ele>914.35</ele>
        <time>2017-08-05T11:43:34Z</time>
      </trkpt>
      <trkpt lat="42.87209" lon="0.76184">
        <ele>916.75</ele>
        <time>2017-08-05T11:43:47Z</time>
      </trkpt>
      <trkpt lat="42.87208" lon="0.76153">
        <ele>919.64</ele>
        <time>2017-08-05T11:44:01Z</time>
      </trkpt>
      <trkpt lat="42.87209" lon="0.76119">
        <ele>922.52</ele>
        <time>2017-08-05T11:44:16Z</time>
      </trkpt>
      <trkpt lat="42.87209" lon="0.76114">
        <ele>923</ele>
        <time>2017-08-05T11:44:18Z</time>
      </trkpt>
      <trkpt lat="42.87209" lon="0.76099">
        <ele>923.96</ele>
        <time>2017-08-05T11:44:24Z</time>
      </trkpt>
      <trkpt lat="42.87211" lon="0.76058">
        <ele>926.85</ele>
        <time>2017-08-05T11:44:40Z</time>
      </trkpt>
      <trkpt lat="42.87212" lon="0.76049">
        <ele>927.33</ele>
        <time>2017-08-05T11:44:43Z</time>
      </trkpt>
      <trkpt lat="42.87221" lon="0.76056">
        <ele>928.29</ele>
        <time>2017-08-05T11:44:51Z</time>
      </trkpt>
      <trkpt lat="42.87225" lon="0.76094">
        <ele>930.69</ele>
        <time>2017-08-05T11:45:06Z</time>
      </trkpt>
      <trkpt lat="42.87236" lon="0.76138">
        <ele>933.58</ele>
        <time>2017-08-05T11:45:23Z</time>
      </trkpt>
      <trkpt lat="42.8725" lon="0.7617">
        <ele>936.46</ele>
        <time>2017-08-05T11:45:38Z</time>
      </trkpt>
      <trkpt lat="42.87265" lon="0.762">
        <ele>939.83</ele>
        <time>2017-08-05T11:45:53Z</time>
      </trkpt>
      <trkpt lat="42.87279" lon="0.76233">
        <ele>942.71</ele>
        <time>2017-08-05T11:46:09Z</time>
      </trkpt>
      <trkpt lat="42.87289" lon="0.76264">
        <ele>945.11</ele>
        <time>2017-08-05T11:46:22Z</time>
      </trkpt>
      <trkpt lat="42.87309" lon="0.76288">
        <ele>947.52</ele>
        <time>2017-08-05T11:46:37Z</time>
      </trkpt>
      <trkpt lat="42.87323" lon="0.76306">
        <ele>949.44</ele>
        <time>2017-08-05T11:46:48Z</time>
      </trkpt>
      <trkpt lat="42.87341" lon="0.76327">
        <ele>951.84</ele>
        <time>2017-08-05T11:47:00Z</time>
      </trkpt>
      <trkpt lat="42.87363" lon="0.7635">
        <ele>954.73</ele>
        <time>2017-08-05T11:47:16Z</time>
      </trkpt>
      <trkpt lat="42.87379" lon="0.76384">
        <ele>957.13</ele>
        <time>2017-08-05T11:47:32Z</time>
      </trkpt>
      <trkpt lat="42.87384" lon="0.76413">
        <ele>959.53</ele>
        <time>2017-08-05T11:47:44Z</time>
      </trkpt>
      <trkpt lat="42.87395" lon="0.76453">
        <ele>961.94</ele>
        <time>2017-08-05T11:48:00Z</time>
      </trkpt>
      <trkpt lat="42.87396" lon="0.76484">
        <ele>963.86</ele>
        <time>2017-08-05T11:48:12Z</time>
      </trkpt>
      <trkpt lat="42.87397" lon="0.76529">
        <ele>966.74</ele>
        <time>2017-08-05T11:48:28Z</time>
      </trkpt>
      <trkpt lat="42.87396" lon="0.76573">
        <ele>969.63</ele>
        <time>2017-08-05T11:48:44Z</time>
      </trkpt>
      <trkpt lat="42.87396" lon="0.76605">
        <ele>972.99</ele>
        <time>2017-08-05T11:48:57Z</time>
      </trkpt>
      <trkpt lat="42.87399" lon="0.76638">
        <ele>975.39</ele>
        <time>2017-08-05T11:49:11Z</time>
      </trkpt>
      <trkpt lat="42.87404" lon="0.76676">
        <ele>978.76</ele>
        <time>2017-08-05T11:49:27Z</time>
      </trkpt>
      <trkpt lat="42.87413" lon="0.76718">
        <ele>982.6</ele>
        <time>2017-08-05T11:49:46Z</time>
      </trkpt>
      <trkpt lat="42.87422" lon="0.76751">
        <ele>985.49</ele>
        <time>2017-08-05T11:50:01Z</time>
      </trkpt>
      <trkpt lat="42.87428" lon="0.76774">
        <ele>987.41</ele>
        <time>2017-08-05T11:50:13Z</time>
      </trkpt>
      <trkpt lat="42.87433" lon="0.76799">
        <ele>989.33</ele>
        <time>2017-08-05T11:50:26Z</time>
      </trkpt>
      <trkpt lat="42.87436" lon="0.76836">
        <ele>992.7</ele>
        <time>2017-08-05T11:50:42Z</time>
      </trkpt>
      <trkpt lat="42.87437" lon="0.76867">
        <ele>995.1</ele>
        <time>2017-08-05T11:50:55Z</time>
      </trkpt>
      <trkpt lat="42.87438" lon="0.76904">
        <ele>997.99</ele>
        <time>2017-08-05T11:51:11Z</time>
      </trkpt>
      <trkpt lat="42.87446" lon="0.76937">
        <ele>1000.39</ele>
        <time>2017-08-05T11:51:26Z</time>
      </trkpt>
      <trkpt lat="42.87451" lon="0.76934">
        <ele>1001.35</ele>
        <time>2017-08-05T11:51:30Z</time>
      </trkpt>
      <trkpt lat="42.87459" lon="0.76897">
        <ele>1003.75</ele>
        <time>2017-08-05T11:51:46Z</time>
      </trkpt>
      <trkpt lat="42.87476" lon="0.7686">
        <ele>1007.12</ele>
        <time>2017-08-05T11:52:04Z</time>
      </trkpt>
      <trkpt lat="42.87483" lon="0.76826">
        <ele>1010.48</ele>
        <time>2017-08-05T11:52:19Z</time>
      </trkpt>
      <trkpt lat="42.87486" lon="0.76785">
        <ele>1013.85</ele>
        <time>2017-08-05T11:52:35Z</time>
      </trkpt>
      <trkpt lat="42.87484" lon="0.76748">
        <ele>1017.21</ele>
        <time>2017-08-05T11:52:50Z</time>
      </trkpt>
      <trkpt lat="42.8749" lon="0.76715">
        <ele>1019.13</ele>
        <time>2017-08-05T11:53:05Z</time>
      </trkpt>
      <trkpt lat="42.87491" lon="0.76713">
        <ele>1019.62</ele>
        <time>2017-08-05T11:53:06Z</time>
      </trkpt>
      <trkpt lat="42.87496" lon="0.76702">
        <ele>1020.58</ele>
        <time>2017-08-05T11:53:12Z</time>
      </trkpt>
      <trkpt lat="42.87497" lon="0.76684">
        <ele>1021.54</ele>
        <time>2017-08-05T11:53:18Z</time>
      </trkpt>
      <trkpt lat="42.875" lon="0.76637">
        <ele>1024.9</ele>
        <time>2017-08-05T11:53:36Z</time>
      </trkpt>
      <trkpt lat="42.875" lon="0.76605">
        <ele>1026.83</ele>
        <time>2017-08-05T11:53:49Z</time>
      </trkpt>
      <trkpt lat="42.87499" lon="0.76589">
        <ele>1027.79</ele>
        <time>2017-08-05T11:53:56Z</time>
      </trkpt>
      <trkpt lat="42.87509" lon="0.76587">
        <ele>1028.75</ele>
        <time>2017-08-05T11:54:04Z</time>
      </trkpt>
      <trkpt lat="42.87514" lon="0.76628">
        <ele>1031.63</ele>
        <time>2017-08-05T11:54:21Z</time>
      </trkpt>
      <trkpt lat="42.87521" lon="0.76671">
        <ele>1033.55</ele>
        <time>2017-08-05T11:54:38Z</time>
      </trkpt>
      <trkpt lat="42.8753" lon="0.76711">
        <ele>1036.44</ele>
        <time>2017-08-05T11:54:55Z</time>
      </trkpt>
      <trkpt lat="42.87544" lon="0.76736">
        <ele>1039.8</ele>
        <time>2017-08-05T11:55:09Z</time>
      </trkpt>
      <trkpt lat="42.87562" lon="0.76762">
        <ele>1042.21</ele>
        <time>2017-08-05T11:55:24Z</time>
      </trkpt>
      <trkpt lat="42.87578" lon="0.76793">
        <ele>1045.09</ele>
        <time>2017-08-05T11:55:39Z</time>
      </trkpt>
      <trkpt lat="42.87589" lon="0.76829">
        <ele>1048.45</ele>
        <time>2017-08-05T11:55:55Z</time>
      </trkpt>
      <trkpt lat="42.87596" lon="0.76849">
        <ele>1049.9</ele>
        <time>2017-08-05T11:56:09Z</time>
      </trkpt>
      <trkpt lat="42.876" lon="0.76849">
        <ele>1049.9</ele>
        <time>2017-08-05T11:56:39Z</time>
      </trkpt>
      <trkpt lat="42.87599" lon="0.76851">
        <ele>1050.38</ele>
        <time>2017-08-05T11:57:10Z</time>
      </trkpt>
      <trkpt lat="42.87596" lon="0.76849">
        <ele>1050.38</ele>
        <time>2017-08-05T11:57:39Z</time>
      </trkpt>
      <trkpt lat="42.87598" lon="0.7686">
        <ele>1050.86</ele>
        <time>2017-08-05T11:57:58Z</time>
      </trkpt>
      <trkpt lat="42.87607" lon="0.7689">
        <ele>1052.78</ele>
        <time>2017-08-05T11:58:13Z</time>
      </trkpt>
      <trkpt lat="42.87616" lon="0.76919">
        <ele>1054.22</ele>
        <time>2017-08-05T11:58:28Z</time>
      </trkpt>
      <trkpt lat="42.87614" lon="0.76936">
        <ele>1055.18</ele>
        <time>2017-08-05T11:58:36Z</time>
      </trkpt>
      <trkpt lat="42.87603" lon="0.7697">
        <ele>1057.59</ele>
        <time>2017-08-05T11:58:52Z</time>
      </trkpt>
      <trkpt lat="42.87599" lon="0.76982">
        <ele>1059.03</ele>
        <time>2017-08-05T11:58:59Z</time>
      </trkpt>
      <trkpt lat="42.87607" lon="0.77016">
        <ele>1060.47</ele>
        <time>2017-08-05T11:59:13Z</time>
      </trkpt>
      <trkpt lat="42.87613" lon="0.77023">
        <ele>1061.43</ele>
        <time>2017-08-05T11:59:17Z</time>
      </trkpt>
      <trkpt lat="42.87619" lon="0.77017">
        <ele>1061.91</ele>
        <time>2017-08-05T11:59:23Z</time>
      </trkpt>
      <trkpt lat="42.87623" lon="0.76981">
        <ele>1063.84</ele>
        <time>2017-08-05T11:59:37Z</time>
      </trkpt>
      <trkpt lat="42.87645" lon="0.76938">
        <ele>1066.24</ele>
        <time>2017-08-05T11:59:53Z</time>
      </trkpt>
      <trkpt lat="42.87646" lon="0.76888">
        <ele>1068.64</ele>
        <time>2017-08-05T12:00:10Z</time>
      </trkpt>
      <trkpt lat="42.87639" lon="0.76856">
        <ele>1070.57</ele>
        <time>2017-08-05T12:00:22Z</time>
      </trkpt>
      <trkpt lat="42.87635" lon="0.76825">
        <ele>1072.97</ele>
        <time>2017-08-05T12:00:33Z</time>
      </trkpt>
      <trkpt lat="42.87631" lon="0.76792">
        <ele>1074.41</ele>
        <time>2017-08-05T12:00:45Z</time>
      </trkpt>
      <trkpt lat="42.87623" lon="0.76748">
        <ele>1077.29</ele>
        <time>2017-08-05T12:01:00Z</time>
      </trkpt>
      <trkpt lat="42.87616" lon="0.76709">
        <ele>1080.18</ele>
        <time>2017-08-05T12:01:14Z</time>
      </trkpt>
      <trkpt lat="42.87613" lon="0.76669">
        <ele>1082.58</ele>
        <time>2017-08-05T12:01:28Z</time>
      </trkpt>
      <trkpt lat="42.87617" lon="0.76627">
        <ele>1086.43</ele>
        <time>2017-08-05T12:01:45Z</time>
      </trkpt>
      <trkpt lat="42.87623" lon="0.76587">
        <ele>1088.83</ele>
        <time>2017-08-05T12:02:02Z</time>
      </trkpt>
      <trkpt lat="42.87627" lon="0.76544">
        <ele>1092.2</ele>
        <time>2017-08-05T12:02:19Z</time>
      </trkpt>
      <trkpt lat="42.87628" lon="0.76503">
        <ele>1095.08</ele>
        <time>2017-08-05T12:02:35Z</time>
      </trkpt>
      <trkpt lat="42.87623" lon="0.76453">
        <ele>1097.96</ele>
        <time>2017-08-05T12:02:54Z</time>
      </trkpt>
      <trkpt lat="42.8762" lon="0.76417">
        <ele>1100.37</ele>
        <time>2017-08-05T12:03:08Z</time>
      </trkpt>
      <trkpt lat="42.87607" lon="0.76383">
        <ele>1102.29</ele>
        <time>2017-08-05T12:03:22Z</time>
      </trkpt>
      <trkpt lat="42.87596" lon="0.76343">
        <ele>1104.69</ele>
        <time>2017-08-05T12:03:38Z</time>
      </trkpt>
      <trkpt lat="42.87589" lon="0.76305">
        <ele>1107.1</ele>
        <time>2017-08-05T12:03:53Z</time>
      </trkpt>
      <trkpt lat="42.87587" lon="0.76295">
        <ele>1108.06</ele>
        <time>2017-08-05T12:03:57Z</time>
      </trkpt>
      <trkpt lat="42.87583" lon="0.76283">
        <ele>1109.02</ele>
        <time>2017-08-05T12:04:03Z</time>
      </trkpt>
      <trkpt lat="42.87569" lon="0.76242">
        <ele>1111.9</ele>
        <time>2017-08-05T12:04:21Z</time>
      </trkpt>
      <trkpt lat="42.87556" lon="0.76208">
        <ele>1114.31</ele>
        <time>2017-08-05T12:04:36Z</time>
      </trkpt>
      <trkpt lat="42.87546" lon="0.76174">
        <ele>1116.71</ele>
        <time>2017-08-05T12:04:51Z</time>
      </trkpt>
      <trkpt lat="42.87537" lon="0.7614">
        <ele>1119.59</ele>
        <time>2017-08-05T12:05:06Z</time>
      </trkpt>
      <trkpt lat="42.87537" lon="0.761">
        <ele>1121.03</ele>
        <time>2017-08-05T12:05:20Z</time>
      </trkpt>
      <trkpt lat="42.87547" lon="0.76082">
        <ele>1121.52</ele>
        <time>2017-08-05T12:05:27Z</time>
      </trkpt>
      <trkpt lat="42.87551" lon="0.76097">
        <ele>1122.96</ele>
        <time>2017-08-05T12:05:35Z</time>
      </trkpt>
      <trkpt lat="42.87544" lon="0.76118">
        <ele>1125.84</ele>
        <time>2017-08-05T12:05:45Z</time>
      </trkpt>
      <trkpt lat="42.87558" lon="0.76155">
        <ele>1128.24</ele>
        <time>2017-08-05T12:06:02Z</time>
      </trkpt>
      <trkpt lat="42.87577" lon="0.7619">
        <ele>1131.13</ele>
        <time>2017-08-05T12:06:18Z</time>
      </trkpt>
      <trkpt lat="42.87594" lon="0.76218">
        <ele>1134.01</ele>
        <time>2017-08-05T12:06:33Z</time>
      </trkpt>
      <trkpt lat="42.87612" lon="0.76247">
        <ele>1136.9</ele>
        <time>2017-08-05T12:06:49Z</time>
      </trkpt>
      <trkpt lat="42.87629" lon="0.76274">
        <ele>1139.78</ele>
        <time>2017-08-05T12:07:04Z</time>
      </trkpt>
      <trkpt lat="42.87644" lon="0.76312">
        <ele>1142.66</ele>
        <time>2017-08-05T12:07:22Z</time>
      </trkpt>
      <trkpt lat="42.87658" lon="0.76343">
        <ele>1145.55</ele>
        <time>2017-08-05T12:07:37Z</time>
      </trkpt>
      <trkpt lat="42.87678" lon="0.76373">
        <ele>1148.91</ele>
        <time>2017-08-05T12:07:55Z</time>
      </trkpt>
      <trkpt lat="42.87701" lon="0.76399">
        <ele>1152.76</ele>
        <time>2017-08-05T12:08:13Z</time>
      </trkpt>
      <trkpt lat="42.87727" lon="0.76424">
        <ele>1156.12</ele>
        <time>2017-08-05T12:08:32Z</time>
      </trkpt>
      <trkpt lat="42.87748" lon="0.76443">
        <ele>1159.01</ele>
        <time>2017-08-05T12:08:48Z</time>
      </trkpt>
      <trkpt lat="42.87762" lon="0.76471">
        <ele>1161.41</ele>
        <time>2017-08-05T12:09:03Z</time>
      </trkpt>
      <trkpt lat="42.87774" lon="0.76495">
        <ele>1164.29</ele>
        <time>2017-08-05T12:09:16Z</time>
      </trkpt>
      <trkpt lat="42.87779" lon="0.76506">
        <ele>1164.77</ele>
        <time>2017-08-05T12:09:22Z</time>
      </trkpt>
      <trkpt lat="42.87784" lon="0.76533">
        <ele>1166.7</ele>
        <time>2017-08-05T12:09:35Z</time>
      </trkpt>
      <trkpt lat="42.87782" lon="0.76562">
        <ele>1169.1</ele>
        <time>2017-08-05T12:09:48Z</time>
      </trkpt>
      <trkpt lat="42.87802" lon="0.76614">
        <ele>1170.54</ele>
        <time>2017-08-05T12:10:00Z</time>
      </trkpt>
      <trkpt lat="42.87808" lon="0.76605">
        <ele>1171.98</ele>
        <time>2017-08-05T12:10:08Z</time>
      </trkpt>
      <trkpt lat="42.87803" lon="0.76591">
        <ele>1173.43</ele>
        <time>2017-08-05T12:10:14Z</time>
      </trkpt>
      <trkpt lat="42.87804" lon="0.76559">
        <ele>1175.83</ele>
        <time>2017-08-05T12:10:27Z</time>
      </trkpt>
      <trkpt lat="42.87808" lon="0.76528">
        <ele>1178.23</ele>
        <time>2017-08-05T12:10:40Z</time>
      </trkpt>
      <trkpt lat="42.87804" lon="0.76506">
        <ele>1180.16</ele>
        <time>2017-08-05T12:10:50Z</time>
      </trkpt>
      <trkpt lat="42.87798" lon="0.76488">
        <ele>1182.08</ele>
        <time>2017-08-05T12:10:59Z</time>
      </trkpt>
      <trkpt lat="42.87783" lon="0.76456">
        <ele>1184.48</ele>
        <time>2017-08-05T12:11:14Z</time>
      </trkpt>
      <trkpt lat="42.87774" lon="0.76425">
        <ele>1187.37</ele>
        <time>2017-08-05T12:11:28Z</time>
      </trkpt>
      <trkpt lat="42.87774" lon="0.76416">
        <ele>1187.85</ele>
        <time>2017-08-05T12:11:32Z</time>
      </trkpt>
      <trkpt lat="42.87758" lon="0.76385">
        <ele>1191.21</ele>
        <time>2017-08-05T12:11:48Z</time>
      </trkpt>
      <trkpt lat="42.87741" lon="0.76361">
        <ele>1194.58</ele>
        <time>2017-08-05T12:12:03Z</time>
      </trkpt>
      <trkpt lat="42.87739" lon="0.76357">
        <ele>1194.58</ele>
        <time>2017-08-05T12:12:05Z</time>
      </trkpt>
      <trkpt lat="42.87734" lon="0.76349">
        <ele>1195.54</ele>
        <time>2017-08-05T12:12:10Z</time>
      </trkpt>
      <trkpt lat="42.87719" lon="0.76309">
        <ele>1199.38</ele>
        <time>2017-08-05T12:12:28Z</time>
      </trkpt>
      <trkpt lat="42.87716" lon="0.7629">
        <ele>1200.34</ele>
        <time>2017-08-05T12:12:36Z</time>
      </trkpt>
      <trkpt lat="42.8771" lon="0.76255">
        <ele>1201.79</ele>
        <time>2017-08-05T12:12:50Z</time>
      </trkpt>
      <trkpt lat="42.87701" lon="0.76221">
        <ele>1203.71</ele>
        <time>2017-08-05T12:13:03Z</time>
      </trkpt>
      <trkpt lat="42.87695" lon="0.76191">
        <ele>1205.15</ele>
        <time>2017-08-05T12:13:13Z</time>
      </trkpt>
      <trkpt lat="42.87704" lon="0.76197">
        <ele>1205.63</ele>
        <time>2017-08-05T12:13:19Z</time>
      </trkpt>
      <trkpt lat="42.87712" lon="0.76229">
        <ele>1208.51</ele>
        <time>2017-08-05T12:13:34Z</time>
      </trkpt>
      <trkpt lat="42.87727" lon="0.76268">
        <ele>1211.4</ele>
        <time>2017-08-05T12:13:51Z</time>
      </trkpt>
      <trkpt lat="42.8774" lon="0.76301">
        <ele>1213.32</ele>
        <time>2017-08-05T12:14:05Z</time>
      </trkpt>
      <trkpt lat="42.87761" lon="0.76331">
        <ele>1216.21</ele>
        <time>2017-08-05T12:14:20Z</time>
      </trkpt>
      <trkpt lat="42.87784" lon="0.76359">
        <ele>1218.13</ele>
        <time>2017-08-05T12:14:35Z</time>
      </trkpt>
      <trkpt lat="42.87806" lon="0.7637">
        <ele>1219.57</ele>
        <time>2017-08-05T12:14:47Z</time>
      </trkpt>
      <trkpt lat="42.87836" lon="0.76376">
        <ele>1221.97</ele>
        <time>2017-08-05T12:15:01Z</time>
      </trkpt>
      <trkpt lat="42.87854" lon="0.76374">
        <ele>1223.9</ele>
        <time>2017-08-05T12:15:13Z</time>
      </trkpt>
      <trkpt lat="42.87872" lon="0.76383">
        <ele>1227.26</ele>
        <time>2017-08-05T12:15:26Z</time>
      </trkpt>
      <trkpt lat="42.87879" lon="0.76388">
        <ele>1228.7</ele>
        <time>2017-08-05T12:15:34Z</time>
      </trkpt>
      <trkpt lat="42.87893" lon="0.76399">
        <ele>1231.59</ele>
        <time>2017-08-05T12:15:48Z</time>
      </trkpt>
      <trkpt lat="42.87909" lon="0.76404">
        <ele>1233.99</ele>
        <time>2017-08-05T12:16:00Z</time>
      </trkpt>
      <trkpt lat="42.8792" lon="0.76407">
        <ele>1235.91</ele>
        <time>2017-08-05T12:16:10Z</time>
      </trkpt>
      <trkpt lat="42.87936" lon="0.76417">
        <ele>1238.8</ele>
        <time>2017-08-05T12:16:22Z</time>
      </trkpt>
      <trkpt lat="42.87941" lon="0.76427">
        <ele>1239.76</ele>
        <time>2017-08-05T12:16:28Z</time>
      </trkpt>
      <trkpt lat="42.87944" lon="0.76434">
        <ele>1240.24</ele>
        <time>2017-08-05T12:16:32Z</time>
      </trkpt>
      <trkpt lat="42.87951" lon="0.76445">
        <ele>1241.2</ele>
        <time>2017-08-05T12:16:36Z</time>
      </trkpt>
      <trkpt lat="42.87965" lon="0.76474">
        <ele>1244.56</ele>
        <time>2017-08-05T12:16:52Z</time>
      </trkpt>
      <trkpt lat="42.87972" lon="0.76482">
        <ele>1246.49</ele>
        <time>2017-08-05T12:17:05Z</time>
      </trkpt>
      <trkpt lat="42.87982" lon="0.76488">
        <ele>1248.41</ele>
        <time>2017-08-05T12:17:16Z</time>
      </trkpt>
      <trkpt lat="42.8799" lon="0.76492">
        <ele>1250.33</ele>
        <time>2017-08-05T12:17:26Z</time>
      </trkpt>
      <trkpt lat="42.87995" lon="0.7649">
        <ele>1251.77</ele>
        <time>2017-08-05T12:17:35Z</time>
      </trkpt>
      <trkpt lat="42.88008" lon="0.76497">
        <ele>1253.22</ele>
        <time>2017-08-05T12:17:45Z</time>
      </trkpt>
      <trkpt lat="42.88032" lon="0.76518">
        <ele>1255.14</ele>
        <time>2017-08-05T12:17:57Z</time>
      </trkpt>
      <trkpt lat="42.88048" lon="0.76529">
        <ele>1256.58</ele>
        <time>2017-08-05T12:18:06Z</time>
      </trkpt>
      <trkpt lat="42.88073" lon="0.7653">
        <ele>1259.46</ele>
        <time>2017-08-05T12:18:22Z</time>
      </trkpt>
      <trkpt lat="42.88087" lon="0.76535">
        <ele>1260.43</ele>
        <time>2017-08-05T12:18:29Z</time>
      </trkpt>
      <trkpt lat="42.88095" lon="0.76544">
        <ele>1261.39</ele>
        <time>2017-08-05T12:18:33Z</time>
      </trkpt>
      <trkpt lat="42.88106" lon="0.76553">
        <ele>1262.83</ele>
        <time>2017-08-05T12:18:42Z</time>
      </trkpt>
      <trkpt lat="42.88123" lon="0.76563">
        <ele>1265.71</ele>
        <time>2017-08-05T12:18:56Z</time>
      </trkpt>
      <trkpt lat="42.88135" lon="0.76565">
        <ele>1268.12</ele>
        <time>2017-08-05T12:19:08Z</time>
      </trkpt>
      <trkpt lat="42.88137" lon="0.76566">
        <ele>1268.6</ele>
        <time>2017-08-05T12:19:09Z</time>
      </trkpt>
      <trkpt lat="42.88144" lon="0.76566">
        <ele>1269.56</ele>
        <time>2017-08-05T12:19:14Z</time>
      </trkpt>
      <trkpt lat="42.88154" lon="0.76568">
        <ele>1270.52</ele>
        <time>2017-08-05T12:19:19Z</time>
      </trkpt>
      <trkpt lat="42.88176" lon="0.76572">
        <ele>1272.92</ele>
        <time>2017-08-05T12:19:32Z</time>
      </trkpt>
      <trkpt lat="42.8819" lon="0.76553">
        <ele>1275.33</ele>
        <time>2017-08-05T12:19:44Z</time>
      </trkpt>
      <trkpt lat="42.88212" lon="0.7654">
        <ele>1277.25</ele>
        <time>2017-08-05T12:19:56Z</time>
      </trkpt>
      <trkpt lat="42.8824" lon="0.76542">
        <ele>1279.17</ele>
        <time>2017-08-05T12:20:10Z</time>
      </trkpt>
      <trkpt lat="42.88258" lon="0.76569">
        <ele>1281.57</ele>
        <time>2017-08-05T12:20:23Z</time>
      </trkpt>
      <trkpt lat="42.88259" lon="0.76573">
        <ele>1282.06</ele>
        <time>2017-08-05T12:20:25Z</time>
      </trkpt>
      <trkpt lat="42.8827" lon="0.76595">
        <ele>1283.98</ele>
        <time>2017-08-05T12:20:37Z</time>
      </trkpt>
      <trkpt lat="42.88272" lon="0.76599">
        <ele>1284.46</ele>
        <time>2017-08-05T12:20:39Z</time>
      </trkpt>
      <trkpt lat="42.88279" lon="0.76629">
        <ele>1286.86</ele>
        <time>2017-08-05T12:20:53Z</time>
      </trkpt>
      <trkpt lat="42.88289" lon="0.76661">
        <ele>1289.27</ele>
        <time>2017-08-05T12:21:07Z</time>
      </trkpt>
      <trkpt lat="42.88289" lon="0.76666">
        <ele>1289.75</ele>
        <time>2017-08-05T12:21:10Z</time>
      </trkpt>
      <trkpt lat="42.88291" lon="0.76678">
        <ele>1290.71</ele>
        <time>2017-08-05T12:21:15Z</time>
      </trkpt>
      <trkpt lat="42.88302" lon="0.76719">
        <ele>1293.59</ele>
        <time>2017-08-05T12:21:32Z</time>
      </trkpt>
      <trkpt lat="42.88314" lon="0.76754">
        <ele>1296.48</ele>
        <time>2017-08-05T12:21:47Z</time>
      </trkpt>
      <trkpt lat="42.88323" lon="0.76773">
        <ele>1298.88</ele>
        <time>2017-08-05T12:22:01Z</time>
      </trkpt>
      <trkpt lat="42.88337" lon="0.76779">
        <ele>1301.28</ele>
        <time>2017-08-05T12:22:14Z</time>
      </trkpt>
      <trkpt lat="42.88349" lon="0.76779">
        <ele>1303.2</ele>
        <time>2017-08-05T12:22:26Z</time>
      </trkpt>
      <trkpt lat="42.88369" lon="0.76783">
        <ele>1305.61</ele>
        <time>2017-08-05T12:22:40Z</time>
      </trkpt>
      <trkpt lat="42.88391" lon="0.7679">
        <ele>1307.53</ele>
        <time>2017-08-05T12:22:51Z</time>
      </trkpt>
      <trkpt lat="42.88406" lon="0.76798">
        <ele>1309.93</ele>
        <time>2017-08-05T12:23:03Z</time>
      </trkpt>
      <trkpt lat="42.88407" lon="0.76799">
        <ele>1309.93</ele>
        <time>2017-08-05T12:23:04Z</time>
      </trkpt>
      <trkpt lat="42.88408" lon="0.768">
        <ele>1310.41</ele>
        <time>2017-08-05T12:23:06Z</time>
      </trkpt>
      <trkpt lat="42.8841" lon="0.76801">
        <ele>1310.9</ele>
        <time>2017-08-05T12:23:08Z</time>
      </trkpt>
      <trkpt lat="42.88417" lon="0.76812">
        <ele>1313.3</ele>
        <time>2017-08-05T12:23:20Z</time>
      </trkpt>
      <trkpt lat="42.88425" lon="0.7682">
        <ele>1314.74</ele>
        <time>2017-08-05T12:23:33Z</time>
      </trkpt>
      <trkpt lat="42.88427" lon="0.76822">
        <ele>1315.22</ele>
        <time>2017-08-05T12:23:35Z</time>
      </trkpt>
      <trkpt lat="42.8844" lon="0.76838">
        <ele>1317.62</ele>
        <time>2017-08-05T12:23:49Z</time>
      </trkpt>
      <trkpt lat="42.8845" lon="0.76854">
        <ele>1320.03</ele>
        <time>2017-08-05T12:24:02Z</time>
      </trkpt>
      <trkpt lat="42.88451" lon="0.76856">
        <ele>1320.51</ele>
        <time>2017-08-05T12:24:04Z</time>
      </trkpt>
      <trkpt lat="42.88457" lon="0.76877">
        <ele>1323.39</ele>
        <time>2017-08-05T12:24:17Z</time>
      </trkpt>
      <trkpt lat="42.88462" lon="0.7689">
        <ele>1325.31</ele>
        <time>2017-08-05T12:24:27Z</time>
      </trkpt>
      <trkpt lat="42.88474" lon="0.7692">
        <ele>1326.76</ele>
        <time>2017-08-05T12:24:37Z</time>
      </trkpt>
      <trkpt lat="42.88478" lon="0.76946">
        <ele>1328.68</ele>
        <time>2017-08-05T12:24:48Z</time>
      </trkpt>
      <trkpt lat="42.88483" lon="0.76972">
        <ele>1331.08</ele>
        <time>2017-08-05T12:25:00Z</time>
      </trkpt>
      <trkpt lat="42.88487" lon="0.76989">
        <ele>1333.01</ele>
        <time>2017-08-05T12:25:10Z</time>
      </trkpt>
      <trkpt lat="42.88489" lon="0.76997">
        <ele>1333.49</ele>
        <time>2017-08-05T12:25:15Z</time>
      </trkpt>
      <trkpt lat="42.88487" lon="0.77006">
        <ele>1334.93</ele>
        <time>2017-08-05T12:25:21Z</time>
      </trkpt>
      <trkpt lat="42.88499" lon="0.7704">
        <ele>1337.33</ele>
        <time>2017-08-05T12:25:34Z</time>
      </trkpt>
      <trkpt lat="42.88502" lon="0.77045">
        <ele>1337.33</ele>
        <time>2017-08-05T12:25:36Z</time>
      </trkpt>
      <trkpt lat="42.88514" lon="0.77088">
        <ele>1340.22</ele>
        <time>2017-08-05T12:25:50Z</time>
      </trkpt>
      <trkpt lat="42.88515" lon="0.77108">
        <ele>1342.14</ele>
        <time>2017-08-05T12:26:00Z</time>
      </trkpt>
      <trkpt lat="42.88516" lon="0.7712">
        <ele>1343.58</ele>
        <time>2017-08-05T12:26:07Z</time>
      </trkpt>
      <trkpt lat="42.88538" lon="0.7719">
        <ele>1346.94</ele>
        <time>2017-08-05T12:26:21Z</time>
      </trkpt>
      <trkpt lat="42.88541" lon="0.77195">
        <ele>1346.94</ele>
        <time>2017-08-05T12:26:23Z</time>
      </trkpt>
      <trkpt lat="42.88546" lon="0.77222">
        <ele>1349.83</ele>
        <time>2017-08-05T12:26:39Z</time>
      </trkpt>
      <trkpt lat="42.88548" lon="0.77242">
        <ele>1352.23</ele>
        <time>2017-08-05T12:26:50Z</time>
      </trkpt>
      <trkpt lat="42.88547" lon="0.77254">
        <ele>1354.63</ele>
        <time>2017-08-05T12:27:00Z</time>
      </trkpt>
      <trkpt lat="42.88551" lon="0.77287">
        <ele>1356.56</ele>
        <time>2017-08-05T12:27:11Z</time>
      </trkpt>
      <trkpt lat="42.88552" lon="0.77305">
        <ele>1358</ele>
        <time>2017-08-05T12:27:20Z</time>
      </trkpt>
      <trkpt lat="42.88553" lon="0.77309">
        <ele>1358.48</ele>
        <time>2017-08-05T12:27:22Z</time>
      </trkpt>
      <trkpt lat="42.88557" lon="0.7734">
        <ele>1361.36</ele>
        <time>2017-08-05T12:27:35Z</time>
      </trkpt>
      <trkpt lat="42.8856" lon="0.77368">
        <ele>1363.29</ele>
        <time>2017-08-05T12:27:45Z</time>
      </trkpt>
      <trkpt lat="42.88563" lon="0.77397">
        <ele>1365.69</ele>
        <time>2017-08-05T12:27:57Z</time>
      </trkpt>
      <trkpt lat="42.88567" lon="0.77423">
        <ele>1367.61</ele>
        <time>2017-08-05T12:28:08Z</time>
      </trkpt>
      <trkpt lat="42.88569" lon="0.77446">
        <ele>1369.54</ele>
        <time>2017-08-05T12:28:20Z</time>
      </trkpt>
      <trkpt lat="42.88574" lon="0.77478">
        <ele>1371.94</ele>
        <time>2017-08-05T12:28:32Z</time>
      </trkpt>
      <trkpt lat="42.8858" lon="0.775">
        <ele>1374.34</ele>
        <time>2017-08-05T12:28:44Z</time>
      </trkpt>
      <trkpt lat="42.88585" lon="0.77514">
        <ele>1376.26</ele>
        <time>2017-08-05T12:28:54Z</time>
      </trkpt>
      <trkpt lat="42.88591" lon="0.77533">
        <ele>1377.71</ele>
        <time>2017-08-05T12:29:04Z</time>
      </trkpt>
      <trkpt lat="42.88613" lon="0.77579">
        <ele>1380.11</ele>
        <time>2017-08-05T12:29:16Z</time>
      </trkpt>
      <trkpt lat="42.88615" lon="0.77589">
        <ele>1381.07</ele>
        <time>2017-08-05T12:29:21Z</time>
      </trkpt>
      <trkpt lat="42.88619" lon="0.77597">
        <ele>1381.55</ele>
        <time>2017-08-05T12:29:26Z</time>
      </trkpt>
      <trkpt lat="42.88628" lon="0.77624">
        <ele>1383.96</ele>
        <time>2017-08-05T12:29:38Z</time>
      </trkpt>
      <trkpt lat="42.88647" lon="0.77678">
        <ele>1385.4</ele>
        <time>2017-08-05T12:29:49Z</time>
      </trkpt>
      <trkpt lat="42.88664" lon="0.77718">
        <ele>1385.88</ele>
        <time>2017-08-05T12:30:02Z</time>
      </trkpt>
      <trkpt lat="42.88687" lon="0.77769">
        <ele>1385.88</ele>
        <time>2017-08-05T12:30:16Z</time>
      </trkpt>
      <trkpt lat="42.88717" lon="0.77796">
        <ele>1384.44</ele>
        <time>2017-08-05T12:30:27Z</time>
      </trkpt>
      <trkpt lat="42.88742" lon="0.77791">
        <ele>1383.96</ele>
        <time>2017-08-05T12:30:33Z</time>
      </trkpt>
      <trkpt lat="42.88777" lon="0.7779">
        <ele>1383.47</ele>
        <time>2017-08-05T12:30:41Z</time>
      </trkpt>
      <trkpt lat="42.88795" lon="0.77806">
        <ele>1383.47</ele>
        <time>2017-08-05T12:30:45Z</time>
      </trkpt>
      <trkpt lat="42.88847" lon="0.77907">
        <ele>1380.11</ele>
        <time>2017-08-05T12:31:01Z</time>
      </trkpt>
      <trkpt lat="42.88858" lon="0.77921">
        <ele>1380.11</ele>
        <time>2017-08-05T12:31:04Z</time>
      </trkpt>
      <trkpt lat="42.88883" lon="0.77959">
        <ele>1379.63</ele>
        <time>2017-08-05T12:31:12Z</time>
      </trkpt>
      <trkpt lat="42.88932" lon="0.78068">
        <ele>1377.23</ele>
        <time>2017-08-05T12:31:28Z</time>
      </trkpt>
      <trkpt lat="42.88936" lon="0.78074">
        <ele>1376.75</ele>
        <time>2017-08-05T12:31:29Z</time>
      </trkpt>
      <trkpt lat="42.88945" lon="0.78108">
        <ele>1376.75</ele>
        <time>2017-08-05T12:31:34Z</time>
      </trkpt>
      <trkpt lat="42.88945" lon="0.78124">
        <ele>1376.75</ele>
        <time>2017-08-05T12:31:36Z</time>
      </trkpt>
      <trkpt lat="42.88944" lon="0.78142">
        <ele>1376.26</ele>
        <time>2017-08-05T12:31:38Z</time>
      </trkpt>
      <trkpt lat="42.88946" lon="0.78164">
        <ele>1376.26</ele>
        <time>2017-08-05T12:31:41Z</time>
      </trkpt>
      <trkpt lat="42.8895" lon="0.78186">
        <ele>1376.26</ele>
        <time>2017-08-05T12:31:44Z</time>
      </trkpt>
      <trkpt lat="42.88963" lon="0.78218">
        <ele>1376.26</ele>
        <time>2017-08-05T12:31:49Z</time>
      </trkpt>
      <trkpt lat="42.88968" lon="0.78256">
        <ele>1376.26</ele>
        <time>2017-08-05T12:31:54Z</time>
      </trkpt>
      <trkpt lat="42.88977" lon="0.7833">
        <ele>1375.78</ele>
        <time>2017-08-05T12:32:04Z</time>
      </trkpt>
      <trkpt lat="42.8899" lon="0.78399">
        <ele>1372.42</ele>
        <time>2017-08-05T12:32:13Z</time>
      </trkpt>
      <trkpt lat="42.88992" lon="0.78408">
        <ele>1371.94</ele>
        <time>2017-08-05T12:32:14Z</time>
      </trkpt>
      <trkpt lat="42.88988" lon="0.78494">
        <ele>1368.57</ele>
        <time>2017-08-05T12:32:23Z</time>
      </trkpt>
      <trkpt lat="42.88982" lon="0.78549">
        <ele>1365.21</ele>
        <time>2017-08-05T12:32:29Z</time>
      </trkpt>
      <trkpt lat="42.88973" lon="0.78586">
        <ele>1362.33</ele>
        <time>2017-08-05T12:32:33Z</time>
      </trkpt>
      <trkpt lat="42.88953" lon="0.78635">
        <ele>1358.96</ele>
        <time>2017-08-05T12:32:40Z</time>
      </trkpt>
      <trkpt lat="42.8893" lon="0.78667">
        <ele>1356.08</ele>
        <time>2017-08-05T12:32:48Z</time>
      </trkpt>
      <trkpt lat="42.88897" lon="0.78715">
        <ele>1352.71</ele>
        <time>2017-08-05T12:32:57Z</time>
      </trkpt>
      <trkpt lat="42.88892" lon="0.78726">
        <ele>1352.23</ele>
        <time>2017-08-05T12:32:59Z</time>
      </trkpt>
      <trkpt lat="42.88887" lon="0.78755">
        <ele>1351.75</ele>
        <time>2017-08-05T12:33:04Z</time>
      </trkpt>
      <trkpt lat="42.88892" lon="0.78777">
        <ele>1351.27</ele>
        <time>2017-08-05T12:33:09Z</time>
      </trkpt>
      <trkpt lat="42.88908" lon="0.788">
        <ele>1352.23</ele>
        <time>2017-08-05T12:33:21Z</time>
      </trkpt>
      <trkpt lat="42.88911" lon="0.78803">
        <ele>1353.19</ele>
        <time>2017-08-05T12:33:34Z</time>
      </trkpt>
      <trkpt lat="42.88909" lon="0.78799">
        <ele>1353.19</ele>
        <time>2017-08-05T12:34:10Z</time>
      </trkpt>
      <trkpt lat="42.88908" lon="0.78801">
        <ele>1353.19</ele>
        <time>2017-08-05T12:34:39Z</time>
      </trkpt>
      <trkpt lat="42.88908" lon="0.78801">
        <ele>1353.19</ele>
        <time>2017-08-05T12:35:05Z</time>
      </trkpt>
      <trkpt lat="42.88907" lon="0.78799">
        <ele>1352.71</ele>
        <time>2017-08-05T12:35:29Z</time>
      </trkpt>
      <trkpt lat="42.88907" lon="0.78798">
        <ele>1352.71</ele>
        <time>2017-08-05T12:35:52Z</time>
      </trkpt>
      <trkpt lat="42.88907" lon="0.78797">
        <ele>1352.71</ele>
        <time>2017-08-05T12:35:54Z</time>
      </trkpt>
      <trkpt lat="42.88891" lon="0.78782">
        <ele>1351.75</ele>
        <time>2017-08-05T12:36:04Z</time>
      </trkpt>
      <trkpt lat="42.88883" lon="0.78774">
        <ele>1351.27</ele>
        <time>2017-08-05T12:36:08Z</time>
      </trkpt>
      <trkpt lat="42.88875" lon="0.78782">
        <ele>1349.83</ele>
        <time>2017-08-05T12:36:12Z</time>
      </trkpt>
      <trkpt lat="42.8887" lon="0.78798">
        <ele>1350.79</ele>
        <time>2017-08-05T12:36:18Z</time>
      </trkpt>
      <trkpt lat="42.88868" lon="0.78801">
        <ele>1350.79</ele>
        <time>2017-08-05T12:36:20Z</time>
      </trkpt>
      <trkpt lat="42.88858" lon="0.78808">
        <ele>1350.79</ele>
        <time>2017-08-05T12:36:33Z</time>
      </trkpt>
      <trkpt lat="42.88859" lon="0.78811">
        <ele>1350.79</ele>
        <time>2017-08-05T12:37:04Z</time>
      </trkpt>
      <trkpt lat="42.88859" lon="0.78814">
        <ele>1350.79</ele>
        <time>2017-08-05T12:37:36Z</time>
      </trkpt>
      <trkpt lat="42.88863" lon="0.78809">
        <ele>1350.79</ele>
        <time>2017-08-05T12:37:48Z</time>
      </trkpt>
      <trkpt lat="42.88874" lon="0.78779">
        <ele>1350.79</ele>
        <time>2017-08-05T12:38:00Z</time>
      </trkpt>
      <trkpt lat="42.88875" lon="0.78772">
        <ele>1350.79</ele>
        <time>2017-08-05T12:38:02Z</time>
      </trkpt>
      <trkpt lat="42.88889" lon="0.78773">
        <ele>1350.79</ele>
        <time>2017-08-05T12:38:08Z</time>
      </trkpt>
      <trkpt lat="42.8892" lon="0.78807">
        <ele>1352.23</ele>
        <time>2017-08-05T12:38:23Z</time>
      </trkpt>
      <trkpt lat="42.88926" lon="0.78811">
        <ele>1352.23</ele>
        <time>2017-08-05T12:38:25Z</time>
      </trkpt>
      <trkpt lat="42.88967" lon="0.78844">
        <ele>1352.23</ele>
        <time>2017-08-05T12:38:36Z</time>
      </trkpt>
      <trkpt lat="42.89019" lon="0.78893">
        <ele>1350.31</ele>
        <time>2017-08-05T12:38:50Z</time>
      </trkpt>
      <trkpt lat="42.89045" lon="0.7892">
        <ele>1347.43</ele>
        <time>2017-08-05T12:38:56Z</time>
      </trkpt>
      <trkpt lat="42.89058" lon="0.78933">
        <ele>1346.46</ele>
        <time>2017-08-05T12:38:59Z</time>
      </trkpt>
      <trkpt lat="42.89077" lon="0.78942">
        <ele>1344.06</ele>
        <time>2017-08-05T12:39:03Z</time>
      </trkpt>
      <trkpt lat="42.89109" lon="0.78959">
        <ele>1341.18</ele>
        <time>2017-08-05T12:39:09Z</time>
      </trkpt>
      <trkpt lat="42.8913" lon="0.7898">
        <ele>1339.73</ele>
        <time>2017-08-05T12:39:13Z</time>
      </trkpt>
      <trkpt lat="42.8915" lon="0.79007">
        <ele>1338.29</ele>
        <time>2017-08-05T12:39:17Z</time>
      </trkpt>
      <trkpt lat="42.89162" lon="0.79029">
        <ele>1337.33</ele>
        <time>2017-08-05T12:39:20Z</time>
      </trkpt>
      <trkpt lat="42.89168" lon="0.79043">
        <ele>1337.33</ele>
        <time>2017-08-05T12:39:22Z</time>
      </trkpt>
      <trkpt lat="42.89184" lon="0.79069">
        <ele>1334.93</ele>
        <time>2017-08-05T12:39:26Z</time>
      </trkpt>
      <trkpt lat="42.89234" lon="0.79134">
        <ele>1331.56</ele>
        <time>2017-08-05T12:39:36Z</time>
      </trkpt>
      <trkpt lat="42.8924" lon="0.79139">
        <ele>1331.56</ele>
        <time>2017-08-05T12:39:37Z</time>
      </trkpt>
      <trkpt lat="42.89273" lon="0.79181">
        <ele>1330.6</ele>
        <time>2017-08-05T12:39:44Z</time>
      </trkpt>
      <trkpt lat="42.89321" lon="0.79214">
        <ele>1327.72</ele>
        <time>2017-08-05T12:39:53Z</time>
      </trkpt>
      <trkpt lat="42.89345" lon="0.7923">
        <ele>1327.72</ele>
        <time>2017-08-05T12:39:58Z</time>
      </trkpt>
      <trkpt lat="42.89357" lon="0.79242">
        <ele>1327.72</ele>
        <time>2017-08-05T12:40:01Z</time>
      </trkpt>
      <trkpt lat="42.89379" lon="0.79258">
        <ele>1327.72</ele>
        <time>2017-08-05T12:40:06Z</time>
      </trkpt>
      <trkpt lat="42.8942" lon="0.79284">
        <ele>1327.72</ele>
        <time>2017-08-05T12:40:16Z</time>
      </trkpt>
      <trkpt lat="42.89422" lon="0.7929">
        <ele>1327.72</ele>
        <time>2017-08-05T12:40:17Z</time>
      </trkpt>
      <trkpt lat="42.89432" lon="0.79305">
        <ele>1327.72</ele>
        <time>2017-08-05T12:40:20Z</time>
      </trkpt>
      <trkpt lat="42.89442" lon="0.79325">
        <ele>1327.72</ele>
        <time>2017-08-05T12:40:24Z</time>
      </trkpt>
      <trkpt lat="42.89457" lon="0.79347">
        <ele>1327.72</ele>
        <time>2017-08-05T12:40:29Z</time>
      </trkpt>
      <trkpt lat="42.89468" lon="0.79353">
        <ele>1328.68</ele>
        <time>2017-08-05T12:40:32Z</time>
      </trkpt>
      <trkpt lat="42.89486" lon="0.79362">
        <ele>1327.24</ele>
        <time>2017-08-05T12:40:38Z</time>
      </trkpt>
      <trkpt lat="42.89492" lon="0.79373">
        <ele>1326.76</ele>
        <time>2017-08-05T12:40:48Z</time>
      </trkpt>
      <trkpt lat="42.89492" lon="0.79373">
        <ele>1326.28</ele>
        <time>2017-08-05T12:41:13Z</time>
      </trkpt>
      <trkpt lat="42.89492" lon="0.79374">
        <ele>1326.28</ele>
        <time>2017-08-05T12:41:19Z</time>
      </trkpt>
      <trkpt lat="42.89472" lon="0.79376">
        <ele>1324.35</ele>
        <time>2017-08-05T12:41:26Z</time>
      </trkpt>
      <trkpt lat="42.89463" lon="0.7937">
        <ele>1323.87</ele>
        <time>2017-08-05T12:41:28Z</time>
      </trkpt>
      <trkpt lat="42.89451" lon="0.79357">
        <ele>1322.91</ele>
        <time>2017-08-05T12:41:31Z</time>
      </trkpt>
      <trkpt lat="42.89445" lon="0.79349">
        <ele>1322.91</ele>
        <time>2017-08-05T12:41:33Z</time>
      </trkpt>
      <trkpt lat="42.89407" lon="0.79288">
        <ele>1321.47</ele>
        <time>2017-08-05T12:41:45Z</time>
      </trkpt>
      <trkpt lat="42.89385" lon="0.79274">
        <ele>1320.03</ele>
        <time>2017-08-05T12:41:49Z</time>
      </trkpt>
      <trkpt lat="42.89367" lon="0.79266">
        <ele>1320.03</ele>
        <time>2017-08-05T12:41:52Z</time>
      </trkpt>
      <trkpt lat="42.89333" lon="0.79239">
        <ele>1317.62</ele>
        <time>2017-08-05T12:41:58Z</time>
      </trkpt>
      <trkpt lat="42.89285" lon="0.79216">
        <ele>1315.22</ele>
        <time>2017-08-05T12:42:05Z</time>
      </trkpt>
      <trkpt lat="42.89271" lon="0.79213">
        <ele>1314.26</ele>
        <time>2017-08-05T12:42:07Z</time>
      </trkpt>
      <trkpt lat="42.89242" lon="0.79188">
        <ele>1313.3</ele>
        <time>2017-08-05T12:42:12Z</time>
      </trkpt>
      <trkpt lat="42.89222" lon="0.79167">
        <ele>1312.82</ele>
        <time>2017-08-05T12:42:16Z</time>
      </trkpt>
      <trkpt lat="42.89207" lon="0.79145">
        <ele>1312.82</ele>
        <time>2017-08-05T12:42:20Z</time>
      </trkpt>
      <trkpt lat="42.8918" lon="0.79116">
        <ele>1312.82</ele>
        <time>2017-08-05T12:42:29Z</time>
      </trkpt>
      <trkpt lat="42.89168" lon="0.79107">
        <ele>1312.82</ele>
        <time>2017-08-05T12:42:32Z</time>
      </trkpt>
      <trkpt lat="42.89138" lon="0.79085">
        <ele>1311.86</ele>
        <time>2017-08-05T12:42:38Z</time>
      </trkpt>
      <trkpt lat="42.89093" lon="0.79086">
        <ele>1309.93</ele>
        <time>2017-08-05T12:42:45Z</time>
      </trkpt>
      <trkpt lat="42.89064" lon="0.79116">
        <ele>1308.49</ele>
        <time>2017-08-05T12:42:50Z</time>
      </trkpt>
      <trkpt lat="42.89022" lon="0.7911">
        <ele>1304.65</ele>
        <time>2017-08-05T12:42:57Z</time>
      </trkpt>
      <trkpt lat="42.88998" lon="0.79077">
        <ele>1300.32</ele>
        <time>2017-08-05T12:43:02Z</time>
      </trkpt>
      <trkpt lat="42.88984" lon="0.79059">
        <ele>1298.4</ele>
        <time>2017-08-05T12:43:05Z</time>
      </trkpt>
      <trkpt lat="42.88966" lon="0.79052">
        <ele>1295.99</ele>
        <time>2017-08-05T12:43:09Z</time>
      </trkpt>
      <trkpt lat="42.88941" lon="0.7908">
        <ele>1290.71</ele>
        <time>2017-08-05T12:43:15Z</time>
      </trkpt>
      <trkpt lat="42.88931" lon="0.79084">
        <ele>1289.75</ele>
        <time>2017-08-05T12:43:17Z</time>
      </trkpt>
      <trkpt lat="42.88918" lon="0.79079">
        <ele>1287.82</ele>
        <time>2017-08-05T12:43:20Z</time>
      </trkpt>
      <trkpt lat="42.88899" lon="0.79063">
        <ele>1284.46</ele>
        <time>2017-08-05T12:43:24Z</time>
      </trkpt>
      <trkpt lat="42.88884" lon="0.79062">
        <ele>1282.54</ele>
        <time>2017-08-05T12:43:27Z</time>
      </trkpt>
      <trkpt lat="42.88888" lon="0.79086">
        <ele>1280.13</ele>
        <time>2017-08-05T12:43:32Z</time>
      </trkpt>
      <trkpt lat="42.88899" lon="0.79094">
        <ele>1279.17</ele>
        <time>2017-08-05T12:43:34Z</time>
      </trkpt>
      <trkpt lat="42.88905" lon="0.79098">
        <ele>1277.73</ele>
        <time>2017-08-05T12:43:35Z</time>
      </trkpt>
      <trkpt lat="42.88938" lon="0.79134">
        <ele>1274.36</ele>
        <time>2017-08-05T12:43:41Z</time>
      </trkpt>
      <trkpt lat="42.88953" lon="0.79155">
        <ele>1271</ele>
        <time>2017-08-05T12:43:44Z</time>
      </trkpt>
      <trkpt lat="42.88958" lon="0.79163">
        <ele>1270.52</ele>
        <time>2017-08-05T12:43:45Z</time>
      </trkpt>
      <trkpt lat="42.88986" lon="0.79225">
        <ele>1266.19</ele>
        <time>2017-08-05T12:43:52Z</time>
      </trkpt>
      <trkpt lat="42.8899" lon="0.79232">
        <ele>1265.71</ele>
        <time>2017-08-05T12:43:53Z</time>
      </trkpt>
      <trkpt lat="42.89021" lon="0.79268">
        <ele>1261.87</ele>
        <time>2017-08-05T12:43:59Z</time>
      </trkpt>
      <trkpt lat="42.89042" lon="0.79291">
        <ele>1258.98</ele>
        <time>2017-08-05T12:44:03Z</time>
      </trkpt>
      <trkpt lat="42.89066" lon="0.79315">
        <ele>1255.62</ele>
        <time>2017-08-05T12:44:07Z</time>
      </trkpt>
      <trkpt lat="42.89092" lon="0.7934">
        <ele>1254.18</ele>
        <time>2017-08-05T12:44:11Z</time>
      </trkpt>
      <trkpt lat="42.89112" lon="0.79349">
        <ele>1253.7</ele>
        <time>2017-08-05T12:44:14Z</time>
      </trkpt>
      <trkpt lat="42.89136" lon="0.79362">
        <ele>1251.29</ele>
        <time>2017-08-05T12:44:24Z</time>
      </trkpt>
      <trkpt lat="42.89124" lon="0.79365">
        <ele>1249.37</ele>
        <time>2017-08-05T12:44:27Z</time>
      </trkpt>
      <trkpt lat="42.89095" lon="0.79357">
        <ele>1246.01</ele>
        <time>2017-08-05T12:44:32Z</time>
      </trkpt>
      <trkpt lat="42.89082" lon="0.79352">
        <ele>1244.08</ele>
        <time>2017-08-05T12:44:34Z</time>
      </trkpt>
      <trkpt lat="42.89043" lon="0.79344">
        <ele>1239.76</ele>
        <time>2017-08-05T12:44:39Z</time>
      </trkpt>
      <trkpt lat="42.89029" lon="0.79341">
        <ele>1238.32</ele>
        <time>2017-08-05T12:44:41Z</time>
      </trkpt>
      <trkpt lat="42.88992" lon="0.79364">
        <ele>1235.43</ele>
        <time>2017-08-05T12:44:48Z</time>
      </trkpt>
      <trkpt lat="42.88992" lon="0.79397">
        <ele>1233.99</ele>
        <time>2017-08-05T12:44:52Z</time>
      </trkpt>
      <trkpt lat="42.89005" lon="0.79443">
        <ele>1230.62</ele>
        <time>2017-08-05T12:44:57Z</time>
      </trkpt>
      <trkpt lat="42.89014" lon="0.7949">
        <ele>1227.26</ele>
        <time>2017-08-05T12:45:02Z</time>
      </trkpt>
      <trkpt lat="42.89024" lon="0.79538">
        <ele>1223.9</ele>
        <time>2017-08-05T12:45:07Z</time>
      </trkpt>
      <trkpt lat="42.89045" lon="0.7959">
        <ele>1219.57</ele>
        <time>2017-08-05T12:45:13Z</time>
      </trkpt>
      <trkpt lat="42.89068" lon="0.79633">
        <ele>1216.69</ele>
        <time>2017-08-05T12:45:18Z</time>
      </trkpt>
      <trkpt lat="42.89082" lon="0.7967">
        <ele>1213.32</ele>
        <time>2017-08-05T12:45:22Z</time>
      </trkpt>
      <trkpt lat="42.89096" lon="0.79704">
        <ele>1210.92</ele>
        <time>2017-08-05T12:45:26Z</time>
      </trkpt>
      <trkpt lat="42.89102" lon="0.79717">
        <ele>1209</ele>
        <time>2017-08-05T12:45:28Z</time>
      </trkpt>
      <trkpt lat="42.89124" lon="0.7975">
        <ele>1206.59</ele>
        <time>2017-08-05T12:45:33Z</time>
      </trkpt>
      <trkpt lat="42.89144" lon="0.79773">
        <ele>1203.23</ele>
        <time>2017-08-05T12:45:37Z</time>
      </trkpt>
      <trkpt lat="42.89154" lon="0.79784">
        <ele>1201.79</ele>
        <time>2017-08-05T12:45:39Z</time>
      </trkpt>
      <trkpt lat="42.89167" lon="0.79822">
        <ele>1197.46</ele>
        <time>2017-08-05T12:45:44Z</time>
      </trkpt>
      <trkpt lat="42.89168" lon="0.79831">
        <ele>1196.98</ele>
        <time>2017-08-05T12:45:45Z</time>
      </trkpt>
      <trkpt lat="42.89172" lon="0.79867">
        <ele>1194.09</ele>
        <time>2017-08-05T12:45:49Z</time>
      </trkpt>
      <trkpt lat="42.89179" lon="0.79894">
        <ele>1191.69</ele>
        <time>2017-08-05T12:45:52Z</time>
      </trkpt>
      <trkpt lat="42.89181" lon="0.79911">
        <ele>1191.21</ele>
        <time>2017-08-05T12:45:54Z</time>
      </trkpt>
      <trkpt lat="42.89185" lon="0.79942">
        <ele>1188.81</ele>
        <time>2017-08-05T12:45:59Z</time>
      </trkpt>
      <trkpt lat="42.89196" lon="0.79935">
        <ele>1187.37</ele>
        <time>2017-08-05T12:46:05Z</time>
      </trkpt>
      <trkpt lat="42.89196" lon="0.79931">
        <ele>1186.88</ele>
        <time>2017-08-05T12:46:07Z</time>
      </trkpt>
      <trkpt lat="42.89192" lon="0.79874">
        <ele>1183.52</ele>
        <time>2017-08-05T12:46:18Z</time>
      </trkpt>
      <trkpt lat="42.89186" lon="0.79786">
        <ele>1182.08</ele>
        <time>2017-08-05T12:46:28Z</time>
      </trkpt>
      <trkpt lat="42.89162" lon="0.79738">
        <ele>1182.08</ele>
        <time>2017-08-05T12:46:35Z</time>
      </trkpt>
      <trkpt lat="42.89149" lon="0.79692">
        <ele>1180.64</ele>
        <time>2017-08-05T12:46:44Z</time>
      </trkpt>
      <trkpt lat="42.89158" lon="0.79702">
        <ele>1179.19</ele>
        <time>2017-08-05T12:46:47Z</time>
      </trkpt>
      <trkpt lat="42.89164" lon="0.79715">
        <ele>1178.71</ele>
        <time>2017-08-05T12:46:49Z</time>
      </trkpt>
      <trkpt lat="42.89185" lon="0.79747">
        <ele>1176.79</ele>
        <time>2017-08-05T12:46:54Z</time>
      </trkpt>
      <trkpt lat="42.89198" lon="0.7978">
        <ele>1175.35</ele>
        <time>2017-08-05T12:46:58Z</time>
      </trkpt>
      <trkpt lat="42.89213" lon="0.79852">
        <ele>1171.5</ele>
        <time>2017-08-05T12:47:05Z</time>
      </trkpt>
      <trkpt lat="42.89226" lon="0.79905">
        <ele>1168.14</ele>
        <time>2017-08-05T12:47:10Z</time>
      </trkpt>
      <trkpt lat="42.89242" lon="0.79952">
        <ele>1165.74</ele>
        <time>2017-08-05T12:47:15Z</time>
      </trkpt>
      <trkpt lat="42.89245" lon="0.79958">
        <ele>1165.74</ele>
        <time>2017-08-05T12:47:16Z</time>
      </trkpt>
      <trkpt lat="42.89243" lon="0.79988">
        <ele>1163.81</ele>
        <time>2017-08-05T12:47:20Z</time>
      </trkpt>
      <trkpt lat="42.89225" lon="0.8002">
        <ele>1160.93</ele>
        <time>2017-08-05T12:47:24Z</time>
      </trkpt>
      <trkpt lat="42.89229" lon="0.80083">
        <ele>1156.6</ele>
        <time>2017-08-05T12:47:31Z</time>
      </trkpt>
      <trkpt lat="42.89239" lon="0.801">
        <ele>1155.16</ele>
        <time>2017-08-05T12:47:33Z</time>
      </trkpt>
      <trkpt lat="42.89284" lon="0.80171">
        <ele>1151.32</ele>
        <time>2017-08-05T12:47:42Z</time>
      </trkpt>
      <trkpt lat="42.89294" lon="0.8015">
        <ele>1149.87</ele>
        <time>2017-08-05T12:47:50Z</time>
      </trkpt>
      <trkpt lat="42.89282" lon="0.80132">
        <ele>1148.91</ele>
        <time>2017-08-05T12:47:53Z</time>
      </trkpt>
      <trkpt lat="42.89268" lon="0.80108">
        <ele>1147.95</ele>
        <time>2017-08-05T12:47:57Z</time>
      </trkpt>
      <trkpt lat="42.89265" lon="0.80057">
        <ele>1145.07</ele>
        <time>2017-08-05T12:48:03Z</time>
      </trkpt>
      <trkpt lat="42.89279" lon="0.8002">
        <ele>1142.66</ele>
        <time>2017-08-05T12:48:07Z</time>
      </trkpt>
      <trkpt lat="42.89303" lon="0.80003">
        <ele>1139.3</ele>
        <time>2017-08-05T12:48:13Z</time>
      </trkpt>
      <trkpt lat="42.89307" lon="0.80039">
        <ele>1135.94</ele>
        <time>2017-08-05T12:48:17Z</time>
      </trkpt>
      <trkpt lat="42.89309" lon="0.80049">
        <ele>1134.97</ele>
        <time>2017-08-05T12:48:18Z</time>
      </trkpt>
      <trkpt lat="42.89328" lon="0.80101">
        <ele>1131.13</ele>
        <time>2017-08-05T12:48:23Z</time>
      </trkpt>
      <trkpt lat="42.89346" lon="0.80138">
        <ele>1128.24</ele>
        <time>2017-08-05T12:48:27Z</time>
      </trkpt>
      <trkpt lat="42.89359" lon="0.8017">
        <ele>1124.88</ele>
        <time>2017-08-05T12:48:30Z</time>
      </trkpt>
      <trkpt lat="42.89377" lon="0.80218">
        <ele>1121.03</ele>
        <time>2017-08-05T12:48:34Z</time>
      </trkpt>
      <trkpt lat="42.89383" lon="0.80232">
        <ele>1120.07</ele>
        <time>2017-08-05T12:48:35Z</time>
      </trkpt>
      <trkpt lat="42.89397" lon="0.80264">
        <ele>1118.15</ele>
        <time>2017-08-05T12:48:38Z</time>
      </trkpt>
      <trkpt lat="42.89419" lon="0.80301">
        <ele>1114.79</ele>
        <time>2017-08-05T12:48:42Z</time>
      </trkpt>
      <trkpt lat="42.89427" lon="0.80321">
        <ele>1113.34</ele>
        <time>2017-08-05T12:48:44Z</time>
      </trkpt>
      <trkpt lat="42.89434" lon="0.80362">
        <ele>1109.98</ele>
        <time>2017-08-05T12:48:48Z</time>
      </trkpt>
      <trkpt lat="42.89437" lon="0.80404">
        <ele>1105.65</ele>
        <time>2017-08-05T12:48:52Z</time>
      </trkpt>
      <trkpt lat="42.89441" lon="0.80425">
        <ele>1103.73</ele>
        <time>2017-08-05T12:48:54Z</time>
      </trkpt>
      <trkpt lat="42.89451" lon="0.80451">
        <ele>1102.29</ele>
        <time>2017-08-05T12:48:57Z</time>
      </trkpt>
      <trkpt lat="42.89461" lon="0.80464">
        <ele>1100.37</ele>
        <time>2017-08-05T12:48:59Z</time>
      </trkpt>
      <trkpt lat="42.89492" lon="0.80491">
        <ele>1096.52</ele>
        <time>2017-08-05T12:49:04Z</time>
      </trkpt>
      <trkpt lat="42.89498" lon="0.80496">
        <ele>1096.04</ele>
        <time>2017-08-05T12:49:05Z</time>
      </trkpt>
      <trkpt lat="42.89539" lon="0.80517">
        <ele>1092.2</ele>
        <time>2017-08-05T12:49:11Z</time>
      </trkpt>
      <trkpt lat="42.89565" lon="0.80535">
        <ele>1089.31</ele>
        <time>2017-08-05T12:49:15Z</time>
      </trkpt>
      <trkpt lat="42.89583" lon="0.80553">
        <ele>1085.95</ele>
        <time>2017-08-05T12:49:18Z</time>
      </trkpt>
      <trkpt lat="42.89614" lon="0.8059">
        <ele>1082.58</ele>
        <time>2017-08-05T12:49:22Z</time>
      </trkpt>
      <trkpt lat="42.89643" lon="0.80632">
        <ele>1079.7</ele>
        <time>2017-08-05T12:49:30Z</time>
      </trkpt>
      <trkpt lat="42.89649" lon="0.80643">
        <ele>1078.74</ele>
        <time>2017-08-05T12:49:39Z</time>
      </trkpt>
      <trkpt lat="42.89661" lon="0.80679">
        <ele>1075.85</ele>
        <time>2017-08-05T12:49:49Z</time>
      </trkpt>
      <trkpt lat="42.89662" lon="0.80696">
        <ele>1073.93</ele>
        <time>2017-08-05T12:49:52Z</time>
      </trkpt>
      <trkpt lat="42.89666" lon="0.80714">
        <ele>1072.97</ele>
        <time>2017-08-05T12:49:55Z</time>
      </trkpt>
      <trkpt lat="42.89668" lon="0.80739">
        <ele>1071.53</ele>
        <time>2017-08-05T12:49:59Z</time>
      </trkpt>
      <trkpt lat="42.89657" lon="0.80789">
        <ele>1067.2</ele>
        <time>2017-08-05T12:50:07Z</time>
      </trkpt>
      <trkpt lat="42.89646" lon="0.80801">
        <ele>1065.76</ele>
        <time>2017-08-05T12:50:10Z</time>
      </trkpt>
      <trkpt lat="42.89637" lon="0.8081">
        <ele>1063.84</ele>
        <time>2017-08-05T12:50:12Z</time>
      </trkpt>
      <trkpt lat="42.89627" lon="0.80834">
        <ele>1061.91</ele>
        <time>2017-08-05T12:50:16Z</time>
      </trkpt>
      <trkpt lat="42.89621" lon="0.80865">
        <ele>1059.51</ele>
        <time>2017-08-05T12:50:20Z</time>
      </trkpt>
      <trkpt lat="42.89616" lon="0.80879">
        <ele>1059.03</ele>
        <time>2017-08-05T12:50:22Z</time>
      </trkpt>
      <trkpt lat="42.89612" lon="0.80894">
        <ele>1057.59</ele>
        <time>2017-08-05T12:50:25Z</time>
      </trkpt>
      <trkpt lat="42.89624" lon="0.80903">
        <ele>1056.15</ele>
        <time>2017-08-05T12:50:30Z</time>
      </trkpt>
      <trkpt lat="42.89636" lon="0.8087">
        <ele>1053.26</ele>
        <time>2017-08-05T12:50:38Z</time>
      </trkpt>
      <trkpt lat="42.89646" lon="0.80846">
        <ele>1051.34</ele>
        <time>2017-08-05T12:50:42Z</time>
      </trkpt>
      <trkpt lat="42.89657" lon="0.8083">
        <ele>1049.9</ele>
        <time>2017-08-05T12:50:45Z</time>
      </trkpt>
      <trkpt lat="42.89671" lon="0.8082">
        <ele>1048.94</ele>
        <time>2017-08-05T12:50:48Z</time>
      </trkpt>
      <trkpt lat="42.89689" lon="0.808">
        <ele>1046.53</ele>
        <time>2017-08-05T12:50:52Z</time>
      </trkpt>
      <trkpt lat="42.89704" lon="0.80762">
        <ele>1043.17</ele>
        <time>2017-08-05T12:50:57Z</time>
      </trkpt>
      <trkpt lat="42.89729" lon="0.80737">
        <ele>1039.32</ele>
        <time>2017-08-05T12:51:03Z</time>
      </trkpt>
      <trkpt lat="42.89735" lon="0.80739">
        <ele>1038.36</ele>
        <time>2017-08-05T12:51:04Z</time>
      </trkpt>
      <trkpt lat="42.8976" lon="0.80747">
        <ele>1035.48</ele>
        <time>2017-08-05T12:51:08Z</time>
      </trkpt>
      <trkpt lat="42.89769" lon="0.80774">
        <ele>1032.11</ele>
        <time>2017-08-05T12:51:15Z</time>
      </trkpt>
      <trkpt lat="42.89757" lon="0.80771">
        <ele>1031.63</ele>
        <time>2017-08-05T12:51:18Z</time>
      </trkpt>
      <trkpt lat="42.89749" lon="0.80765">
        <ele>1031.15</ele>
        <time>2017-08-05T12:51:20Z</time>
      </trkpt>
      <trkpt lat="42.89721" lon="0.8078">
        <ele>1028.27</ele>
        <time>2017-08-05T12:51:26Z</time>
      </trkpt>
      <trkpt lat="42.89713" lon="0.80814">
        <ele>1025.86</ele>
        <time>2017-08-05T12:51:30Z</time>
      </trkpt>
      <trkpt lat="42.89698" lon="0.80859">
        <ele>1022.02</ele>
        <time>2017-08-05T12:51:35Z</time>
      </trkpt>
      <trkpt lat="42.89691" lon="0.80914">
        <ele>1017.69</ele>
        <time>2017-08-05T12:51:41Z</time>
      </trkpt>
      <trkpt lat="42.89689" lon="0.80961">
        <ele>1013.85</ele>
        <time>2017-08-05T12:51:46Z</time>
      </trkpt>
      <trkpt lat="42.89681" lon="0.81008">
        <ele>1010.48</ele>
        <time>2017-08-05T12:51:51Z</time>
      </trkpt>
      <trkpt lat="42.89669" lon="0.81034">
        <ele>1007.6</ele>
        <time>2017-08-05T12:51:55Z</time>
      </trkpt>
      <trkpt lat="42.89673" lon="0.81053">
        <ele>1006.16</ele>
        <time>2017-08-05T12:51:59Z</time>
      </trkpt>
      <trkpt lat="42.89692" lon="0.81038">
        <ele>1003.27</ele>
        <time>2017-08-05T12:52:04Z</time>
      </trkpt>
      <trkpt lat="42.89694" lon="0.81032">
        <ele>1002.31</ele>
        <time>2017-08-05T12:52:05Z</time>
      </trkpt>
      <trkpt lat="42.89699" lon="0.81016">
        <ele>1000.87</ele>
        <time>2017-08-05T12:52:07Z</time>
      </trkpt>
      <trkpt lat="42.89715" lon="0.80969">
        <ele>997.51</ele>
        <time>2017-08-05T12:52:12Z</time>
      </trkpt>
      <trkpt lat="42.8972" lon="0.80947">
        <ele>996.06</ele>
        <time>2017-08-05T12:52:14Z</time>
      </trkpt>
      <trkpt lat="42.89734" lon="0.80907">
        <ele>993.66</ele>
        <time>2017-08-05T12:52:18Z</time>
      </trkpt>
      <trkpt lat="42.89738" lon="0.80899">
        <ele>992.22</ele>
        <time>2017-08-05T12:52:19Z</time>
      </trkpt>
      <trkpt lat="42.89761" lon="0.80886">
        <ele>989.81</ele>
        <time>2017-08-05T12:52:24Z</time>
      </trkpt>
      <trkpt lat="42.89766" lon="0.8089">
        <ele>989.33</ele>
        <time>2017-08-05T12:52:25Z</time>
      </trkpt>
      <trkpt lat="42.8979" lon="0.80908">
        <ele>986.93</ele>
        <time>2017-08-05T12:52:29Z</time>
      </trkpt>
      <trkpt lat="42.89831" lon="0.80912">
        <ele>983.57</ele>
        <time>2017-08-05T12:52:37Z</time>
      </trkpt>
      <trkpt lat="42.89824" lon="0.80931">
        <ele>981.64</ele>
        <time>2017-08-05T12:52:43Z</time>
      </trkpt>
      <trkpt lat="42.89819" lon="0.80932">
        <ele>980.68</ele>
        <time>2017-08-05T12:52:44Z</time>
      </trkpt>
      <trkpt lat="42.89809" lon="0.80933">
        <ele>980.2</ele>
        <time>2017-08-05T12:52:46Z</time>
      </trkpt>
      <trkpt lat="42.89802" lon="0.80934">
        <ele>979.24</ele>
        <time>2017-08-05T12:52:47Z</time>
      </trkpt>
      <trkpt lat="42.89782" lon="0.8093">
        <ele>977.32</ele>
        <time>2017-08-05T12:52:50Z</time>
      </trkpt>
      <trkpt lat="42.89759" lon="0.80932">
        <ele>974.91</ele>
        <time>2017-08-05T12:52:54Z</time>
      </trkpt>
      <trkpt lat="42.89757" lon="0.80937">
        <ele>973.95</ele>
        <time>2017-08-05T12:52:55Z</time>
      </trkpt>
      <trkpt lat="42.89753" lon="0.80992">
        <ele>970.11</ele>
        <time>2017-08-05T12:53:01Z</time>
      </trkpt>
      <trkpt lat="42.89744" lon="0.81053">
        <ele>965.78</ele>
        <time>2017-08-05T12:53:06Z</time>
      </trkpt>
      <trkpt lat="42.89746" lon="0.81104">
        <ele>961.94</ele>
        <time>2017-08-05T12:53:10Z</time>
      </trkpt>
      <trkpt lat="42.89752" lon="0.81131">
        <ele>959.53</ele>
        <time>2017-08-05T12:53:12Z</time>
      </trkpt>
      <trkpt lat="42.89745" lon="0.81178">
        <ele>956.65</ele>
        <time>2017-08-05T12:53:16Z</time>
      </trkpt>
      <trkpt lat="42.89712" lon="0.81231">
        <ele>952.8</ele>
        <time>2017-08-05T12:53:21Z</time>
      </trkpt>
      <trkpt lat="42.89698" lon="0.81267">
        <ele>950.88</ele>
        <time>2017-08-05T12:53:27Z</time>
      </trkpt>
      <trkpt lat="42.8972" lon="0.81259">
        <ele>948.48</ele>
        <time>2017-08-05T12:53:31Z</time>
      </trkpt>
      <trkpt lat="42.89744" lon="0.81223">
        <ele>942.71</ele>
        <time>2017-08-05T12:53:35Z</time>
      </trkpt>
      <trkpt lat="42.89752" lon="0.81213">
        <ele>941.75</ele>
        <time>2017-08-05T12:53:36Z</time>
      </trkpt>
      <trkpt lat="42.89796" lon="0.81181">
        <ele>938.38</ele>
        <time>2017-08-05T12:53:41Z</time>
      </trkpt>
      <trkpt lat="42.8982" lon="0.81142">
        <ele>934.54</ele>
        <time>2017-08-05T12:53:45Z</time>
      </trkpt>
      <trkpt lat="42.89825" lon="0.81099">
        <ele>930.69</ele>
        <time>2017-08-05T12:53:48Z</time>
      </trkpt>
      <trkpt lat="42.89845" lon="0.81043">
        <ele>927.33</ele>
        <time>2017-08-05T12:53:53Z</time>
      </trkpt>
      <trkpt lat="42.89909" lon="0.81037">
        <ele>926.85</ele>
        <time>2017-08-05T12:54:01Z</time>
      </trkpt>
      <trkpt lat="42.89915" lon="0.81033">
        <ele>926.37</ele>
        <time>2017-08-05T12:54:02Z</time>
      </trkpt>
      <trkpt lat="42.89928" lon="0.81021">
        <ele>926.37</ele>
        <time>2017-08-05T12:54:04Z</time>
      </trkpt>
      <trkpt lat="42.89957" lon="0.80975">
        <ele>928.29</ele>
        <time>2017-08-05T12:54:11Z</time>
      </trkpt>
      <trkpt lat="42.89988" lon="0.80961">
        <ele>929.25</ele>
        <time>2017-08-05T12:54:17Z</time>
      </trkpt>
      <trkpt lat="42.90005" lon="0.80949">
        <ele>927.81</ele>
        <time>2017-08-05T12:54:20Z</time>
      </trkpt>
      <trkpt lat="42.90036" lon="0.80935">
        <ele>923.96</ele>
        <time>2017-08-05T12:54:24Z</time>
      </trkpt>
      <trkpt lat="42.90064" lon="0.80925">
        <ele>921.08</ele>
        <time>2017-08-05T12:54:27Z</time>
      </trkpt>
      <trkpt lat="42.90094" lon="0.8092">
        <ele>919.64</ele>
        <time>2017-08-05T12:54:30Z</time>
      </trkpt>
      <trkpt lat="42.90125" lon="0.80935">
        <ele>919.16</ele>
        <time>2017-08-05T12:54:34Z</time>
      </trkpt>
      <trkpt lat="42.90142" lon="0.80939">
        <ele>919.16</ele>
        <time>2017-08-05T12:54:36Z</time>
      </trkpt>
      <trkpt lat="42.9017" lon="0.80938">
        <ele>919.16</ele>
        <time>2017-08-05T12:54:40Z</time>
      </trkpt>
      <trkpt lat="42.90182" lon="0.80918">
        <ele>918.2</ele>
        <time>2017-08-05T12:54:43Z</time>
      </trkpt>
      <trkpt lat="42.90203" lon="0.80898">
        <ele>917.72</ele>
        <time>2017-08-05T12:54:47Z</time>
      </trkpt>
      <trkpt lat="42.90261" lon="0.80898">
        <ele>917.72</ele>
        <time>2017-08-05T12:54:56Z</time>
      </trkpt>
      <trkpt lat="42.90274" lon="0.809">
        <ele>917.72</ele>
        <time>2017-08-05T12:54:58Z</time>
      </trkpt>
      <trkpt lat="42.90321" lon="0.8089">
        <ele>917.72</ele>
        <time>2017-08-05T12:55:05Z</time>
      </trkpt>
      <trkpt lat="42.90387" lon="0.80828">
        <ele>917.72</ele>
        <time>2017-08-05T12:55:17Z</time>
      </trkpt>
      <trkpt lat="42.90425" lon="0.80802">
        <ele>916.75</ele>
        <time>2017-08-05T12:55:24Z</time>
      </trkpt>
      <trkpt lat="42.9047" lon="0.80806">
        <ele>913.87</ele>
        <time>2017-08-05T12:55:30Z</time>
      </trkpt>
      <trkpt lat="42.90505" lon="0.80804">
        <ele>910.51</ele>
        <time>2017-08-05T12:55:34Z</time>
      </trkpt>
      <trkpt lat="42.90535" lon="0.80801">
        <ele>907.14</ele>
        <time>2017-08-05T12:55:37Z</time>
      </trkpt>
      <trkpt lat="42.90574" lon="0.80797">
        <ele>903.78</ele>
        <time>2017-08-05T12:55:41Z</time>
      </trkpt>
      <trkpt lat="42.9061" lon="0.80792">
        <ele>900.41</ele>
        <time>2017-08-05T12:55:45Z</time>
      </trkpt>
      <trkpt lat="42.90641" lon="0.80795">
        <ele>898.01</ele>
        <time>2017-08-05T12:55:49Z</time>
      </trkpt>
      <trkpt lat="42.90669" lon="0.80793">
        <ele>895.12</ele>
        <time>2017-08-05T12:55:56Z</time>
      </trkpt>
      <trkpt lat="42.90672" lon="0.80792">
        <ele>894.64</ele>
        <time>2017-08-05T12:56:11Z</time>
      </trkpt>
      <trkpt lat="42.9067" lon="0.8079">
        <ele>894.64</ele>
        <time>2017-08-05T12:56:26Z</time>
      </trkpt>
      <trkpt lat="42.90664" lon="0.80793">
        <ele>894.64</ele>
        <time>2017-08-05T12:56:31Z</time>
      </trkpt>
      <trkpt lat="42.90659" lon="0.80794">
        <ele>895.61</ele>
        <time>2017-08-05T12:56:35Z</time>
      </trkpt>
      <trkpt lat="42.90647" lon="0.80796">
        <ele>896.57</ele>
        <time>2017-08-05T12:56:45Z</time>
      </trkpt>
      <trkpt lat="42.90646" lon="0.80798">
        <ele>896.57</ele>
        <time>2017-08-05T12:56:47Z</time>
      </trkpt>
      <trkpt lat="42.90652" lon="0.808">
        <ele>896.57</ele>
        <time>2017-08-05T12:56:51Z</time>
      </trkpt>
      <trkpt lat="42.90681" lon="0.80799">
        <ele>897.53</ele>
        <time>2017-08-05T12:57:05Z</time>
      </trkpt>
      <trkpt lat="42.90712" lon="0.80808">
        <ele>898.49</ele>
        <time>2017-08-05T12:57:17Z</time>
      </trkpt>
      <trkpt lat="42.90731" lon="0.80813">
        <ele>896.57</ele>
        <time>2017-08-05T12:57:22Z</time>
      </trkpt>
      <trkpt lat="42.90759" lon="0.80831">
        <ele>893.68</ele>
        <time>2017-08-05T12:57:30Z</time>
      </trkpt>
      <trkpt lat="42.90771" lon="0.80822">
        <ele>890.8</ele>
        <time>2017-08-05T12:57:35Z</time>
      </trkpt>
      <trkpt lat="42.90777" lon="0.80826">
        <ele>890.32</ele>
        <time>2017-08-05T12:57:40Z</time>
      </trkpt>
      <trkpt lat="42.90776" lon="0.80829">
        <ele>890.32</ele>
        <time>2017-08-05T12:57:42Z</time>
      </trkpt>
      <trkpt lat="42.90776" lon="0.80836">
        <ele>891.76</ele>
        <time>2017-08-05T12:57:46Z</time>
      </trkpt>
      <trkpt lat="42.90774" lon="0.80845">
        <ele>893.68</ele>
        <time>2017-08-05T12:57:52Z</time>
      </trkpt>
      <trkpt lat="42.90774" lon="0.80861">
        <ele>895.61</ele>
        <time>2017-08-05T12:58:03Z</time>
      </trkpt>
      <trkpt lat="42.90775" lon="0.80869">
        <ele>897.05</ele>
        <time>2017-08-05T12:58:14Z</time>
      </trkpt>
      <trkpt lat="42.90778" lon="0.8087">
        <ele>897.05</ele>
        <time>2017-08-05T12:58:33Z</time>
      </trkpt>
      <trkpt lat="42.90776" lon="0.80873">
        <ele>896.57</ele>
        <time>2017-08-05T12:58:57Z</time>
      </trkpt>
      <trkpt lat="42.90778" lon="0.80874">
        <ele>896.57</ele>
        <time>2017-08-05T12:59:19Z</time>
      </trkpt>
      <trkpt lat="42.90776" lon="0.80872">
        <ele>896.57</ele>
        <time>2017-08-05T12:59:33Z</time>
      </trkpt>
      <trkpt lat="42.90775" lon="0.80873">
        <ele>896.57</ele>
        <time>2017-08-05T12:59:35Z</time>
      </trkpt>
      <trkpt lat="42.90775" lon="0.8088">
        <ele>897.05</ele>
        <time>2017-08-05T12:59:39Z</time>
      </trkpt>
      <trkpt lat="42.90772" lon="0.80903">
        <ele>900.89</ele>
        <time>2017-08-05T12:59:53Z</time>
      </trkpt>
      <trkpt lat="42.90772" lon="0.80927">
        <ele>904.26</ele>
        <time>2017-08-05T13:00:08Z</time>
      </trkpt>
      <trkpt lat="42.90775" lon="0.80947">
        <ele>906.66</ele>
        <time>2017-08-05T13:00:18Z</time>
      </trkpt>
      <trkpt lat="42.90775" lon="0.80964">
        <ele>909.54</ele>
        <time>2017-08-05T13:00:31Z</time>
      </trkpt>
      <trkpt lat="42.90773" lon="0.80988">
        <ele>912.43</ele>
        <time>2017-08-05T13:00:49Z</time>
      </trkpt>
      <trkpt lat="42.9077" lon="0.81003">
        <ele>914.35</ele>
        <time>2017-08-05T13:01:02Z</time>
      </trkpt>
      <trkpt lat="42.90766" lon="0.81018">
        <ele>916.27</ele>
        <time>2017-08-05T13:01:15Z</time>
      </trkpt>
      <trkpt lat="42.90766" lon="0.81014">
        <ele>926.85</ele>
        <time>2017-08-05T13:04:26Z</time>
      </trkpt>
      <trkpt lat="42.90729" lon="0.81236">
        <ele>926.85</ele>
        <time>2017-08-05T13:04:28Z</time>
      </trkpt>
      <trkpt lat="42.90733" lon="0.81244">
        <ele>927.33</ele>
        <time>2017-08-05T13:04:46Z</time>
      </trkpt>
      <trkpt lat="42.9073" lon="0.8124">
        <ele>930.69</ele>
        <time>2017-08-05T13:05:00Z</time>
      </trkpt>
      <trkpt lat="42.90728" lon="0.81241">
        <ele>933.58</ele>
        <time>2017-08-05T13:05:03Z</time>
      </trkpt>
      <trkpt lat="42.90728" lon="0.81242">
        <ele>936.94</ele>
        <time>2017-08-05T13:05:07Z</time>
      </trkpt>
      <trkpt lat="42.90729" lon="0.81242">
        <ele>939.35</ele>
        <time>2017-08-05T13:05:10Z</time>
      </trkpt>
      <trkpt lat="42.90728" lon="0.81243">
        <ele>942.23</ele>
        <time>2017-08-05T13:05:15Z</time>
      </trkpt>
      <trkpt lat="42.90728" lon="0.81241">
        <ele>945.59</ele>
        <time>2017-08-05T13:05:25Z</time>
      </trkpt>
      <trkpt lat="42.90726" lon="0.81245">
        <ele>948</ele>
        <time>2017-08-05T13:05:39Z</time>
      </trkpt>
      <trkpt lat="42.90725" lon="0.81262">
        <ele>950.4</ele>
        <time>2017-08-05T13:05:56Z</time>
      </trkpt>
      <trkpt lat="42.90724" lon="0.8127">
        <ele>951.84</ele>
        <time>2017-08-05T13:06:10Z</time>
      </trkpt>
      <trkpt lat="42.90724" lon="0.81273">
        <ele>947.04</ele>
        <time>2017-08-05T13:06:19Z</time>
      </trkpt>
      <trkpt lat="42.90725" lon="0.81274">
        <ele>956.65</ele>
        <time>2017-08-05T13:06:20Z</time>
      </trkpt>
      <trkpt lat="42.90724" lon="0.81274">
        <ele>951.36</ele>
        <time>2017-08-05T13:06:21Z</time>
      </trkpt>
      <trkpt lat="42.90728" lon="0.81278">
        <ele>951.84</ele>
        <time>2017-08-05T13:06:55Z</time>
      </trkpt>
      <trkpt lat="42.90728" lon="0.81282">
        <ele>952.32</ele>
        <time>2017-08-05T13:07:11Z</time>
      </trkpt>
      <trkpt lat="42.90724" lon="0.81291">
        <ele>954.25</ele>
        <time>2017-08-05T13:07:24Z</time>
      </trkpt>
      <trkpt lat="42.90721" lon="0.81302">
        <ele>956.65</ele>
        <time>2017-08-05T13:07:38Z</time>
      </trkpt>
      <trkpt lat="42.90718" lon="0.81313">
        <ele>959.05</ele>
        <time>2017-08-05T13:07:54Z</time>
      </trkpt>
      <trkpt lat="42.90714" lon="0.81325">
        <ele>961.46</ele>
        <time>2017-08-05T13:08:07Z</time>
      </trkpt>
      <trkpt lat="42.90711" lon="0.81333">
        <ele>962.42</ele>
        <time>2017-08-05T13:08:18Z</time>
      </trkpt>
      <trkpt lat="42.9071" lon="0.81344">
        <ele>964.34</ele>
        <time>2017-08-05T13:08:32Z</time>
      </trkpt>
      <trkpt lat="42.90708" lon="0.81355">
        <ele>966.26</ele>
        <time>2017-08-05T13:08:44Z</time>
      </trkpt>
      <trkpt lat="42.90705" lon="0.81373">
        <ele>968.67</ele>
        <time>2017-08-05T13:08:58Z</time>
      </trkpt>
      <trkpt lat="42.90703" lon="0.81382">
        <ele>970.11</ele>
        <time>2017-08-05T13:09:09Z</time>
      </trkpt>
      <trkpt lat="42.90705" lon="0.81394">
        <ele>972.51</ele>
        <time>2017-08-05T13:09:24Z</time>
      </trkpt>
      <trkpt lat="42.90707" lon="0.81408">
        <ele>974.43</ele>
        <time>2017-08-05T13:09:37Z</time>
      </trkpt>
      <trkpt lat="42.90705" lon="0.81413">
        <ele>976.36</ele>
        <time>2017-08-05T13:09:49Z</time>
      </trkpt>
      <trkpt lat="42.90705" lon="0.81422">
        <ele>978.28</ele>
        <time>2017-08-05T13:10:04Z</time>
      </trkpt>
      <trkpt lat="42.90704" lon="0.81435">
        <ele>980.68</ele>
        <time>2017-08-05T13:10:19Z</time>
      </trkpt>
      <trkpt lat="42.90703" lon="0.81437">
        <ele>981.16</ele>
        <time>2017-08-05T13:10:22Z</time>
      </trkpt>
      <trkpt lat="42.907" lon="0.81444">
        <ele>983.09</ele>
        <time>2017-08-05T13:10:35Z</time>
      </trkpt>
      <trkpt lat="42.90698" lon="0.81456">
        <ele>985.01</ele>
        <time>2017-08-05T13:10:47Z</time>
      </trkpt>
      <trkpt lat="42.90697" lon="0.81468">
        <ele>987.89</ele>
        <time>2017-08-05T13:11:02Z</time>
      </trkpt>
      <trkpt lat="42.90692" lon="0.81467">
        <ele>989.33</ele>
        <time>2017-08-05T13:11:17Z</time>
      </trkpt>
      <trkpt lat="42.90689" lon="0.81472">
        <ele>990.78</ele>
        <time>2017-08-05T13:11:31Z</time>
      </trkpt>
      <trkpt lat="42.90693" lon="0.81483">
        <ele>993.18</ele>
        <time>2017-08-05T13:11:45Z</time>
      </trkpt>
      <trkpt lat="42.90697" lon="0.81495">
        <ele>995.1</ele>
        <time>2017-08-05T13:11:57Z</time>
      </trkpt>
      <trkpt lat="42.90688" lon="0.81499">
        <ele>997.02</ele>
        <time>2017-08-05T13:12:09Z</time>
      </trkpt>
      <trkpt lat="42.90687" lon="0.81507">
        <ele>998.47</ele>
        <time>2017-08-05T13:12:23Z</time>
      </trkpt>
      <trkpt lat="42.90685" lon="0.8151">
        <ele>999.91</ele>
        <time>2017-08-05T13:12:39Z</time>
      </trkpt>
      <trkpt lat="42.90684" lon="0.81519">
        <ele>1001.83</ele>
        <time>2017-08-05T13:12:53Z</time>
      </trkpt>
      <trkpt lat="42.90684" lon="0.81527">
        <ele>1003.75</ele>
        <time>2017-08-05T13:13:04Z</time>
      </trkpt>
      <trkpt lat="42.90684" lon="0.8154">
        <ele>1006.64</ele>
        <time>2017-08-05T13:13:20Z</time>
      </trkpt>
      <trkpt lat="42.90683" lon="0.81549">
        <ele>1008.56</ele>
        <time>2017-08-05T13:13:33Z</time>
      </trkpt>
      <trkpt lat="42.90683" lon="0.81561">
        <ele>1010.48</ele>
        <time>2017-08-05T13:13:47Z</time>
      </trkpt>
      <trkpt lat="42.9068" lon="0.81575">
        <ele>1012.89</ele>
        <time>2017-08-05T13:14:04Z</time>
      </trkpt>
      <trkpt lat="42.90676" lon="0.81582">
        <ele>1015.29</ele>
        <time>2017-08-05T13:14:18Z</time>
      </trkpt>
      <trkpt lat="42.90675" lon="0.81589">
        <ele>1017.69</ele>
        <time>2017-08-05T13:14:32Z</time>
      </trkpt>
      <trkpt lat="42.90674" lon="0.81601">
        <ele>1020.1</ele>
        <time>2017-08-05T13:14:48Z</time>
      </trkpt>
      <trkpt lat="42.90673" lon="0.81612">
        <ele>1022.5</ele>
        <time>2017-08-05T13:15:04Z</time>
      </trkpt>
      <trkpt lat="42.90674" lon="0.81621">
        <ele>1024.42</ele>
        <time>2017-08-05T13:15:17Z</time>
      </trkpt>
      <trkpt lat="42.90675" lon="0.8163">
        <ele>1026.34</ele>
        <time>2017-08-05T13:15:31Z</time>
      </trkpt>
      <trkpt lat="42.90674" lon="0.81641">
        <ele>1028.27</ele>
        <time>2017-08-05T13:15:45Z</time>
      </trkpt>
      <trkpt lat="42.90666" lon="0.81653">
        <ele>1031.63</ele>
        <time>2017-08-05T13:16:06Z</time>
      </trkpt>
      <trkpt lat="42.90664" lon="0.81661">
        <ele>1033.55</ele>
        <time>2017-08-05T13:16:21Z</time>
      </trkpt>
      <trkpt lat="42.90665" lon="0.81669">
        <ele>1035.48</ele>
        <time>2017-08-05T13:16:30Z</time>
      </trkpt>
      <trkpt lat="42.90664" lon="0.81671">
        <ele>1035.48</ele>
        <time>2017-08-05T13:16:31Z</time>
      </trkpt>
      <trkpt lat="42.9066" lon="0.81678">
        <ele>1036.92</ele>
        <time>2017-08-05T13:16:43Z</time>
      </trkpt>
      <trkpt lat="42.90657" lon="0.81689">
        <ele>1039.32</ele>
        <time>2017-08-05T13:16:57Z</time>
      </trkpt>
      <trkpt lat="42.90654" lon="0.81698">
        <ele>1041.73</ele>
        <time>2017-08-05T13:17:13Z</time>
      </trkpt>
      <trkpt lat="42.90653" lon="0.81705">
        <ele>1042.21</ele>
        <time>2017-08-05T13:17:33Z</time>
      </trkpt>
      <trkpt lat="42.90653" lon="0.81706">
        <ele>1042.21</ele>
        <time>2017-08-05T13:17:34Z</time>
      </trkpt>
      <trkpt lat="42.90658" lon="0.81713">
        <ele>1044.13</ele>
        <time>2017-08-05T13:17:45Z</time>
      </trkpt>
      <trkpt lat="42.9066" lon="0.81722">
        <ele>1045.57</ele>
        <time>2017-08-05T13:17:57Z</time>
      </trkpt>
      <trkpt lat="42.90658" lon="0.8173">
        <ele>1047.01</ele>
        <time>2017-08-05T13:18:11Z</time>
      </trkpt>
      <trkpt lat="42.90655" lon="0.81739">
        <ele>1049.42</ele>
        <time>2017-08-05T13:18:27Z</time>
      </trkpt>
      <trkpt lat="42.90649" lon="0.81749">
        <ele>1051.82</ele>
        <time>2017-08-05T13:18:44Z</time>
      </trkpt>
      <trkpt lat="42.90647" lon="0.81759">
        <ele>1054.22</ele>
        <time>2017-08-05T13:19:01Z</time>
      </trkpt>
      <trkpt lat="42.90647" lon="0.81762">
        <ele>1055.67</ele>
        <time>2017-08-05T13:19:11Z</time>
      </trkpt>
      <trkpt lat="42.90645" lon="0.8176">
        <ele>1055.67</ele>
        <time>2017-08-05T13:19:37Z</time>
      </trkpt>
      <trkpt lat="42.90648" lon="0.81764">
        <ele>1055.67</ele>
        <time>2017-08-05T13:20:08Z</time>
      </trkpt>
      <trkpt lat="42.9065" lon="0.81767">
        <ele>1056.15</ele>
        <time>2017-08-05T13:20:32Z</time>
      </trkpt>
      <trkpt lat="42.90645" lon="0.81774">
        <ele>1057.59</ele>
        <time>2017-08-05T13:20:47Z</time>
      </trkpt>
      <trkpt lat="42.90647" lon="0.81781">
        <ele>1059.03</ele>
        <time>2017-08-05T13:21:00Z</time>
      </trkpt>
      <trkpt lat="42.90647" lon="0.81794">
        <ele>1061.43</ele>
        <time>2017-08-05T13:21:14Z</time>
      </trkpt>
      <trkpt lat="42.90645" lon="0.81807">
        <ele>1064.32</ele>
        <time>2017-08-05T13:21:32Z</time>
      </trkpt>
      <trkpt lat="42.90642" lon="0.81819">
        <ele>1066.72</ele>
        <time>2017-08-05T13:21:51Z</time>
      </trkpt>
      <trkpt lat="42.90639" lon="0.8182">
        <ele>1067.2</ele>
        <time>2017-08-05T13:22:18Z</time>
      </trkpt>
      <trkpt lat="42.90633" lon="0.81821">
        <ele>1069.12</ele>
        <time>2017-08-05T13:22:35Z</time>
      </trkpt>
      <trkpt lat="42.90628" lon="0.81819">
        <ele>1071.53</ele>
        <time>2017-08-05T13:22:49Z</time>
      </trkpt>
      <trkpt lat="42.90622" lon="0.81822">
        <ele>1073.45</ele>
        <time>2017-08-05T13:23:05Z</time>
      </trkpt>
      <trkpt lat="42.90617" lon="0.81831">
        <ele>1076.33</ele>
        <time>2017-08-05T13:23:23Z</time>
      </trkpt>
      <trkpt lat="42.90615" lon="0.81838">
        <ele>1077.78</ele>
        <time>2017-08-05T13:23:36Z</time>
      </trkpt>
      <trkpt lat="42.90614" lon="0.81849">
        <ele>1079.7</ele>
        <time>2017-08-05T13:23:49Z</time>
      </trkpt>
      <trkpt lat="42.90615" lon="0.81861">
        <ele>1081.14</ele>
        <time>2017-08-05T13:24:05Z</time>
      </trkpt>
      <trkpt lat="42.90613" lon="0.81875">
        <ele>1083.06</ele>
        <time>2017-08-05T13:24:21Z</time>
      </trkpt>
      <trkpt lat="42.90616" lon="0.81879">
        <ele>1083.54</ele>
        <time>2017-08-05T13:24:39Z</time>
      </trkpt>
      <trkpt lat="42.90618" lon="0.81887">
        <ele>1084.5</ele>
        <time>2017-08-05T13:24:53Z</time>
      </trkpt>
      <trkpt lat="42.9062" lon="0.81903">
        <ele>1086.91</ele>
        <time>2017-08-05T13:25:07Z</time>
      </trkpt>
      <trkpt lat="42.90623" lon="0.81917">
        <ele>1088.83</ele>
        <time>2017-08-05T13:25:17Z</time>
      </trkpt>
      <trkpt lat="42.90624" lon="0.81933">
        <ele>1091.71</ele>
        <time>2017-08-05T13:25:31Z</time>
      </trkpt>
      <trkpt lat="42.90627" lon="0.81951">
        <ele>1094.6</ele>
        <time>2017-08-05T13:25:44Z</time>
      </trkpt>
      <trkpt lat="42.90629" lon="0.8197">
        <ele>1097</ele>
        <time>2017-08-05T13:25:57Z</time>
      </trkpt>
      <trkpt lat="42.90631" lon="0.81993">
        <ele>1100.37</ele>
        <time>2017-08-05T13:26:11Z</time>
      </trkpt>
      <trkpt lat="42.90633" lon="0.82014">
        <ele>1103.25</ele>
        <time>2017-08-05T13:26:27Z</time>
      </trkpt>
      <trkpt lat="42.90636" lon="0.82033">
        <ele>1106.13</ele>
        <time>2017-08-05T13:26:41Z</time>
      </trkpt>
      <trkpt lat="42.90638" lon="0.82047">
        <ele>1108.54</ele>
        <time>2017-08-05T13:26:55Z</time>
      </trkpt>
      <trkpt lat="42.90635" lon="0.82048">
        <ele>1108.54</ele>
        <time>2017-08-05T13:27:18Z</time>
      </trkpt>
      <trkpt lat="42.90636" lon="0.82053">
        <ele>1109.02</ele>
        <time>2017-08-05T13:27:30Z</time>
      </trkpt>
      <trkpt lat="42.90638" lon="0.82064">
        <ele>1110.46</ele>
        <time>2017-08-05T13:27:41Z</time>
      </trkpt>
      <trkpt lat="42.90639" lon="0.82078">
        <ele>1111.9</ele>
        <time>2017-08-05T13:27:54Z</time>
      </trkpt>
      <trkpt lat="42.9064" lon="0.82094">
        <ele>1114.31</ele>
        <time>2017-08-05T13:28:10Z</time>
      </trkpt>
      <trkpt lat="42.9064" lon="0.82108">
        <ele>1116.71</ele>
        <time>2017-08-05T13:28:26Z</time>
      </trkpt>
      <trkpt lat="42.90641" lon="0.82124">
        <ele>1119.59</ele>
        <time>2017-08-05T13:28:44Z</time>
      </trkpt>
      <trkpt lat="42.90641" lon="0.82137">
        <ele>1122</ele>
        <time>2017-08-05T13:29:00Z</time>
      </trkpt>
      <trkpt lat="42.90641" lon="0.8215">
        <ele>1124.4</ele>
        <time>2017-08-05T13:29:15Z</time>
      </trkpt>
      <trkpt lat="42.9064" lon="0.82161">
        <ele>1126.8</ele>
        <time>2017-08-05T13:29:32Z</time>
      </trkpt>
      <trkpt lat="42.90638" lon="0.82172">
        <ele>1128.73</ele>
        <time>2017-08-05T13:29:49Z</time>
      </trkpt>
      <trkpt lat="42.90639" lon="0.82185">
        <ele>1131.61</ele>
        <time>2017-08-05T13:30:09Z</time>
      </trkpt>
      <trkpt lat="42.90643" lon="0.82199">
        <ele>1134.49</ele>
        <time>2017-08-05T13:30:27Z</time>
      </trkpt>
      <trkpt lat="42.90646" lon="0.82211">
        <ele>1137.38</ele>
        <time>2017-08-05T13:30:46Z</time>
      </trkpt>
      <trkpt lat="42.90648" lon="0.82223">
        <ele>1139.78</ele>
        <time>2017-08-05T13:31:04Z</time>
      </trkpt>
      <trkpt lat="42.9065" lon="0.82229">
        <ele>1142.18</ele>
        <time>2017-08-05T13:31:22Z</time>
      </trkpt>
      <trkpt lat="42.90651" lon="0.82232">
        <ele>1142.66</ele>
        <time>2017-08-05T13:31:48Z</time>
      </trkpt>
      <trkpt lat="42.90654" lon="0.82239">
        <ele>1144.59</ele>
        <time>2017-08-05T13:32:13Z</time>
      </trkpt>
      <trkpt lat="42.90655" lon="0.82255">
        <ele>1147.95</ele>
        <time>2017-08-05T13:32:33Z</time>
      </trkpt>
      <trkpt lat="42.90659" lon="0.82267">
        <ele>1150.84</ele>
        <time>2017-08-05T13:32:52Z</time>
      </trkpt>
      <trkpt lat="42.90664" lon="0.82276">
        <ele>1153.24</ele>
        <time>2017-08-05T13:33:13Z</time>
      </trkpt>
      <trkpt lat="42.90666" lon="0.82287">
        <ele>1155.64</ele>
        <time>2017-08-05T13:33:32Z</time>
      </trkpt>
      <trkpt lat="42.90667" lon="0.82299">
        <ele>1158.05</ele>
        <time>2017-08-05T13:33:52Z</time>
      </trkpt>
      <trkpt lat="42.90665" lon="0.82313">
        <ele>1160.45</ele>
        <time>2017-08-05T13:34:11Z</time>
      </trkpt>
      <trkpt lat="42.90665" lon="0.82324">
        <ele>1162.85</ele>
        <time>2017-08-05T13:34:26Z</time>
      </trkpt>
      <trkpt lat="42.90663" lon="0.82336">
        <ele>1164.29</ele>
        <time>2017-08-05T13:34:39Z</time>
      </trkpt>
      <trkpt lat="42.90667" lon="0.8235">
        <ele>1166.7</ele>
        <time>2017-08-05T13:34:55Z</time>
      </trkpt>
      <trkpt lat="42.90668" lon="0.8236">
        <ele>1168.62</ele>
        <time>2017-08-05T13:35:12Z</time>
      </trkpt>
      <trkpt lat="42.90668" lon="0.82369">
        <ele>1171.98</ele>
        <time>2017-08-05T13:35:30Z</time>
      </trkpt>
      <trkpt lat="42.90665" lon="0.82382">
        <ele>1174.39</ele>
        <time>2017-08-05T13:35:51Z</time>
      </trkpt>
      <trkpt lat="42.90665" lon="0.82396">
        <ele>1176.79</ele>
        <time>2017-08-05T13:36:10Z</time>
      </trkpt>
      <trkpt lat="42.90663" lon="0.8241">
        <ele>1179.67</ele>
        <time>2017-08-05T13:36:31Z</time>
      </trkpt>
      <trkpt lat="42.90665" lon="0.82423">
        <ele>1183.04</ele>
        <time>2017-08-05T13:36:53Z</time>
      </trkpt>
      <trkpt lat="42.90668" lon="0.82437">
        <ele>1185.44</ele>
        <time>2017-08-05T13:37:14Z</time>
      </trkpt>
      <trkpt lat="42.90671" lon="0.82448">
        <ele>1187.85</ele>
        <time>2017-08-05T13:37:32Z</time>
      </trkpt>
      <trkpt lat="42.90674" lon="0.8246">
        <ele>1190.25</ele>
        <time>2017-08-05T13:37:50Z</time>
      </trkpt>
      <trkpt lat="42.90676" lon="0.82474">
        <ele>1192.65</ele>
        <time>2017-08-05T13:38:08Z</time>
      </trkpt>
      <trkpt lat="42.90681" lon="0.82488">
        <ele>1195.06</ele>
        <time>2017-08-05T13:38:27Z</time>
      </trkpt>
      <trkpt lat="42.90687" lon="0.82492">
        <ele>1197.46</ele>
        <time>2017-08-05T13:38:44Z</time>
      </trkpt>
      <trkpt lat="42.90692" lon="0.82498">
        <ele>1200.34</ele>
        <time>2017-08-05T13:39:00Z</time>
      </trkpt>
      <trkpt lat="42.90696" lon="0.82509">
        <ele>1202.75</ele>
        <time>2017-08-05T13:39:18Z</time>
      </trkpt>
      <trkpt lat="42.90699" lon="0.8252">
        <ele>1205.15</ele>
        <time>2017-08-05T13:39:33Z</time>
      </trkpt>
      <trkpt lat="42.90702" lon="0.82531">
        <ele>1206.59</ele>
        <time>2017-08-05T13:39:47Z</time>
      </trkpt>
      <trkpt lat="42.907" lon="0.82545">
        <ele>1208.03</ele>
        <time>2017-08-05T13:40:02Z</time>
      </trkpt>
      <trkpt lat="42.90699" lon="0.82548">
        <ele>1208.03</ele>
        <time>2017-08-05T13:40:24Z</time>
      </trkpt>
      <trkpt lat="42.90702" lon="0.82545">
        <ele>1208.03</ele>
        <time>2017-08-05T13:40:53Z</time>
      </trkpt>
      <trkpt lat="42.90701" lon="0.82545">
        <ele>1208.03</ele>
        <time>2017-08-05T13:41:20Z</time>
      </trkpt>
      <trkpt lat="42.90701" lon="0.82542">
        <ele>1208.51</ele>
        <time>2017-08-05T13:41:51Z</time>
      </trkpt>
      <trkpt lat="42.90702" lon="0.82552">
        <ele>1208.51</ele>
        <time>2017-08-05T13:42:08Z</time>
      </trkpt>
      <trkpt lat="42.90705" lon="0.82558">
        <ele>1209</ele>
        <time>2017-08-05T13:42:26Z</time>
      </trkpt>
      <trkpt lat="42.9071" lon="0.82574">
        <ele>1210.92</ele>
        <time>2017-08-05T13:42:43Z</time>
      </trkpt>
      <trkpt lat="42.90713" lon="0.82586">
        <ele>1212.84</ele>
        <time>2017-08-05T13:42:57Z</time>
      </trkpt>
      <trkpt lat="42.90714" lon="0.82599">
        <ele>1214.76</ele>
        <time>2017-08-05T13:43:14Z</time>
      </trkpt>
      <trkpt lat="42.90719" lon="0.82614">
        <ele>1218.13</ele>
        <time>2017-08-05T13:43:34Z</time>
      </trkpt>
      <trkpt lat="42.90724" lon="0.82629">
        <ele>1221.01</ele>
        <time>2017-08-05T13:43:54Z</time>
      </trkpt>
      <trkpt lat="42.90726" lon="0.82643">
        <ele>1223.9</ele>
        <time>2017-08-05T13:44:12Z</time>
      </trkpt>
      <trkpt lat="42.90732" lon="0.82661">
        <ele>1225.82</ele>
        <time>2017-08-05T13:44:31Z</time>
      </trkpt>
      <trkpt lat="42.90732" lon="0.82667">
        <ele>1226.78</ele>
        <time>2017-08-05T13:44:51Z</time>
      </trkpt>
      <trkpt lat="42.90735" lon="0.82675">
        <ele>1229.18</ele>
        <time>2017-08-05T13:45:11Z</time>
      </trkpt>
      <trkpt lat="42.90734" lon="0.82687">
        <ele>1231.11</ele>
        <time>2017-08-05T13:45:27Z</time>
      </trkpt>
      <trkpt lat="42.90741" lon="0.82701">
        <ele>1233.51</ele>
        <time>2017-08-05T13:45:46Z</time>
      </trkpt>
      <trkpt lat="42.90748" lon="0.82713">
        <ele>1235.43</ele>
        <time>2017-08-05T13:46:04Z</time>
      </trkpt>
      <trkpt lat="42.9075" lon="0.82728">
        <ele>1237.35</ele>
        <time>2017-08-05T13:46:21Z</time>
      </trkpt>
      <trkpt lat="42.90749" lon="0.82739">
        <ele>1238.8</ele>
        <time>2017-08-05T13:46:38Z</time>
      </trkpt>
      <trkpt lat="42.90752" lon="0.82751">
        <ele>1241.2</ele>
        <time>2017-08-05T13:46:55Z</time>
      </trkpt>
      <trkpt lat="42.90753" lon="0.82766">
        <ele>1243.6</ele>
        <time>2017-08-05T13:47:12Z</time>
      </trkpt>
      <trkpt lat="42.90754" lon="0.82779">
        <ele>1246.01</ele>
        <time>2017-08-05T13:47:29Z</time>
      </trkpt>
      <trkpt lat="42.90757" lon="0.82785">
        <ele>1246.97</ele>
        <time>2017-08-05T13:47:50Z</time>
      </trkpt>
      <trkpt lat="42.90756" lon="0.82794">
        <ele>1248.89</ele>
        <time>2017-08-05T13:48:05Z</time>
      </trkpt>
      <trkpt lat="42.90751" lon="0.82806">
        <ele>1251.29</ele>
        <time>2017-08-05T13:48:22Z</time>
      </trkpt>
      <trkpt lat="42.90746" lon="0.82816">
        <ele>1253.22</ele>
        <time>2017-08-05T13:48:37Z</time>
      </trkpt>
      <trkpt lat="42.90742" lon="0.82824">
        <ele>1255.14</ele>
        <time>2017-08-05T13:48:52Z</time>
      </trkpt>
      <trkpt lat="42.90738" lon="0.8283">
        <ele>1257.06</ele>
        <time>2017-08-05T13:49:05Z</time>
      </trkpt>
      <trkpt lat="42.90734" lon="0.82837">
        <ele>1258.98</ele>
        <time>2017-08-05T13:49:18Z</time>
      </trkpt>
      <trkpt lat="42.9073" lon="0.82843">
        <ele>1261.39</ele>
        <time>2017-08-05T13:49:34Z</time>
      </trkpt>
      <trkpt lat="42.90723" lon="0.82849">
        <ele>1263.79</ele>
        <time>2017-08-05T13:49:55Z</time>
      </trkpt>
      <trkpt lat="42.90719" lon="0.82858">
        <ele>1266.19</ele>
        <time>2017-08-05T13:50:10Z</time>
      </trkpt>
      <trkpt lat="42.90719" lon="0.82864">
        <ele>1267.16</ele>
        <time>2017-08-05T13:50:25Z</time>
      </trkpt>
      <trkpt lat="42.9072" lon="0.8287">
        <ele>1268.6</ele>
        <time>2017-08-05T13:50:42Z</time>
      </trkpt>
      <trkpt lat="42.90714" lon="0.82873">
        <ele>1270.52</ele>
        <time>2017-08-05T13:50:56Z</time>
      </trkpt>
      <trkpt lat="42.90712" lon="0.82873">
        <ele>1271.48</ele>
        <time>2017-08-05T13:51:00Z</time>
      </trkpt>
      <trkpt lat="42.90703" lon="0.82864">
        <ele>1273.4</ele>
        <time>2017-08-05T13:51:15Z</time>
      </trkpt>
      <trkpt lat="42.90695" lon="0.82853">
        <ele>1274.36</ele>
        <time>2017-08-05T13:51:30Z</time>
      </trkpt>
      <trkpt lat="42.90681" lon="0.82837">
        <ele>1274.36</ele>
        <time>2017-08-05T13:51:48Z</time>
      </trkpt>
      <trkpt lat="42.9068" lon="0.82835">
        <ele>1274.36</ele>
        <time>2017-08-05T13:52:00Z</time>
      </trkpt>
      <trkpt lat="42.9068" lon="0.82833">
        <ele>1274.36</ele>
        <time>2017-08-05T13:52:16Z</time>
      </trkpt>
      <trkpt lat="42.90678" lon="0.82835">
        <ele>1274.36</ele>
        <time>2017-08-05T13:52:35Z</time>
      </trkpt>
      <trkpt lat="42.90682" lon="0.82839">
        <ele>1274.36</ele>
        <time>2017-08-05T13:52:55Z</time>
      </trkpt>
      <trkpt lat="42.90697" lon="0.82857">
        <ele>1274.36</ele>
        <time>2017-08-05T13:53:16Z</time>
      </trkpt>
      <trkpt lat="42.90699" lon="0.82861">
        <ele>1274.36</ele>
        <time>2017-08-05T13:53:32Z</time>
      </trkpt>
      <trkpt lat="42.9071" lon="0.82873">
        <ele>1271.48</ele>
        <time>2017-08-05T13:53:48Z</time>
      </trkpt>
      <trkpt lat="42.90716" lon="0.82873">
        <ele>1270.04</ele>
        <time>2017-08-05T13:53:56Z</time>
      </trkpt>
      <trkpt lat="42.9073" lon="0.82876">
        <ele>1271</ele>
        <time>2017-08-05T13:54:08Z</time>
      </trkpt>
      <trkpt lat="42.9074" lon="0.82888">
        <ele>1273.88</ele>
        <time>2017-08-05T13:54:23Z</time>
      </trkpt>
      <trkpt lat="42.90744" lon="0.82896">
        <ele>1274.85</ele>
        <time>2017-08-05T13:54:30Z</time>
      </trkpt>
      <trkpt lat="42.90753" lon="0.82913">
        <ele>1277.73</ele>
        <time>2017-08-05T13:54:47Z</time>
      </trkpt>
      <trkpt lat="42.9076" lon="0.82922">
        <ele>1280.13</ele>
        <time>2017-08-05T13:55:01Z</time>
      </trkpt>
      <trkpt lat="42.90764" lon="0.82926">
        <ele>1281.09</ele>
        <time>2017-08-05T13:55:18Z</time>
      </trkpt>
      <trkpt lat="42.90774" lon="0.82934">
        <ele>1283.98</ele>
        <time>2017-08-05T13:55:34Z</time>
      </trkpt>
      <trkpt lat="42.90785" lon="0.82942">
        <ele>1286.38</ele>
        <time>2017-08-05T13:55:51Z</time>
      </trkpt>
      <trkpt lat="42.90793" lon="0.82951">
        <ele>1289.27</ele>
        <time>2017-08-05T13:56:07Z</time>
      </trkpt>
      <trkpt lat="42.90799" lon="0.82961">
        <ele>1292.15</ele>
        <time>2017-08-05T13:56:24Z</time>
      </trkpt>
      <trkpt lat="42.90798" lon="0.8297">
        <ele>1293.59</ele>
        <time>2017-08-05T13:56:35Z</time>
      </trkpt>
      <trkpt lat="42.90794" lon="0.82979">
        <ele>1295.51</ele>
        <time>2017-08-05T13:56:48Z</time>
      </trkpt>
      <trkpt lat="42.90787" lon="0.82981">
        <ele>1297.44</ele>
        <time>2017-08-05T13:57:04Z</time>
      </trkpt>
      <trkpt lat="42.90778" lon="0.8298">
        <ele>1299.84</ele>
        <time>2017-08-05T13:57:19Z</time>
      </trkpt>
      <trkpt lat="42.90771" lon="0.82978">
        <ele>1300.8</ele>
        <time>2017-08-05T13:57:29Z</time>
      </trkpt>
      <trkpt lat="42.90756" lon="0.82978">
        <ele>1302.24</ele>
        <time>2017-08-05T13:57:45Z</time>
      </trkpt>
      <trkpt lat="42.90744" lon="0.82981">
        <ele>1303.2</ele>
        <time>2017-08-05T13:57:58Z</time>
      </trkpt>
      <trkpt lat="42.90731" lon="0.82987">
        <ele>1304.17</ele>
        <time>2017-08-05T13:58:12Z</time>
      </trkpt>
      <trkpt lat="42.9072" lon="0.82989">
        <ele>1305.61</ele>
        <time>2017-08-05T13:58:25Z</time>
      </trkpt>
      <trkpt lat="42.90706" lon="0.82985">
        <ele>1307.53</ele>
        <time>2017-08-05T13:58:41Z</time>
      </trkpt>
      <trkpt lat="42.90701" lon="0.82982">
        <ele>1308.49</ele>
        <time>2017-08-05T13:58:53Z</time>
      </trkpt>
      <trkpt lat="42.90696" lon="0.82977">
        <ele>1310.41</ele>
        <time>2017-08-05T13:59:07Z</time>
      </trkpt>
      <trkpt lat="42.9069" lon="0.82972">
        <ele>1313.3</ele>
        <time>2017-08-05T13:59:23Z</time>
      </trkpt>
      <trkpt lat="42.90685" lon="0.82966">
        <ele>1314.74</ele>
        <time>2017-08-05T13:59:38Z</time>
      </trkpt>
      <trkpt lat="42.90679" lon="0.82968">
        <ele>1314.74</ele>
        <time>2017-08-05T14:00:01Z</time>
      </trkpt>
      <trkpt lat="42.90673" lon="0.82966">
        <ele>1314.74</ele>
        <time>2017-08-05T14:00:22Z</time>
      </trkpt>
      <trkpt lat="42.90677" lon="0.82962">
        <ele>1314.74</ele>
        <time>2017-08-05T14:00:41Z</time>
      </trkpt>
      <trkpt lat="42.9068" lon="0.82959">
        <ele>1315.7</ele>
        <time>2017-08-05T14:01:10Z</time>
      </trkpt>
      <trkpt lat="42.90675" lon="0.82959">
        <ele>1316.18</ele>
        <time>2017-08-05T14:01:38Z</time>
      </trkpt>
      <trkpt lat="42.90666" lon="0.82963">
        <ele>1318.59</ele>
        <time>2017-08-05T14:01:55Z</time>
      </trkpt>
      <trkpt lat="42.90657" lon="0.82963">
        <ele>1320.99</ele>
        <time>2017-08-05T14:02:11Z</time>
      </trkpt>
      <trkpt lat="42.9065" lon="0.82962">
        <ele>1323.39</ele>
        <time>2017-08-05T14:02:27Z</time>
      </trkpt>
      <trkpt lat="42.90644" lon="0.82961">
        <ele>1326.28</ele>
        <time>2017-08-05T14:02:45Z</time>
      </trkpt>
      <trkpt lat="42.90637" lon="0.82961">
        <ele>1327.24</ele>
        <time>2017-08-05T14:03:04Z</time>
      </trkpt>
      <trkpt lat="42.90634" lon="0.82962">
        <ele>1329.16</ele>
        <time>2017-08-05T14:03:18Z</time>
      </trkpt>
      <trkpt lat="42.90627" lon="0.82962">
        <ele>1332.04</ele>
        <time>2017-08-05T14:03:35Z</time>
      </trkpt>
      <trkpt lat="42.90617" lon="0.82964">
        <ele>1335.41</ele>
        <time>2017-08-05T14:03:53Z</time>
      </trkpt>
      <trkpt lat="42.90612" lon="0.8297">
        <ele>1337.81</ele>
        <time>2017-08-05T14:04:09Z</time>
      </trkpt>
      <trkpt lat="42.90614" lon="0.82974">
        <ele>1340.22</ele>
        <time>2017-08-05T14:04:26Z</time>
      </trkpt>
      <trkpt lat="42.90616" lon="0.82978">
        <ele>1342.14</ele>
        <time>2017-08-05T14:04:40Z</time>
      </trkpt>
      <trkpt lat="42.9062" lon="0.82984">
        <ele>1344.06</ele>
        <time>2017-08-05T14:04:54Z</time>
      </trkpt>
      <trkpt lat="42.90618" lon="0.82996">
        <ele>1346.46</ele>
        <time>2017-08-05T14:05:12Z</time>
      </trkpt>
      <trkpt lat="42.90617" lon="0.83002">
        <ele>1347.43</ele>
        <time>2017-08-05T14:05:24Z</time>
      </trkpt>
      <trkpt lat="42.90622" lon="0.83007">
        <ele>1349.83</ele>
        <time>2017-08-05T14:05:40Z</time>
      </trkpt>
      <trkpt lat="42.90619" lon="0.83014">
        <ele>1351.75</ele>
        <time>2017-08-05T14:05:59Z</time>
      </trkpt>
      <trkpt lat="42.90622" lon="0.83017">
        <ele>1353.67</ele>
        <time>2017-08-05T14:06:16Z</time>
      </trkpt>
      <trkpt lat="42.90629" lon="0.83022">
        <ele>1356.56</ele>
        <time>2017-08-05T14:06:31Z</time>
      </trkpt>
      <trkpt lat="42.90632" lon="0.83032">
        <ele>1358.48</ele>
        <time>2017-08-05T14:06:47Z</time>
      </trkpt>
      <trkpt lat="42.90627" lon="0.83038">
        <ele>1358.96</ele>
        <time>2017-08-05T14:07:03Z</time>
      </trkpt>
      <trkpt lat="42.9063" lon="0.83045">
        <ele>1361.84</ele>
        <time>2017-08-05T14:07:20Z</time>
      </trkpt>
      <trkpt lat="42.90627" lon="0.83047">
        <ele>1363.29</ele>
        <time>2017-08-05T14:07:35Z</time>
      </trkpt>
      <trkpt lat="42.9063" lon="0.83055">
        <ele>1365.21</ele>
        <time>2017-08-05T14:07:50Z</time>
      </trkpt>
      <trkpt lat="42.90631" lon="0.8306">
        <ele>1367.13</ele>
        <time>2017-08-05T14:08:04Z</time>
      </trkpt>
      <trkpt lat="42.90626" lon="0.83066">
        <ele>1369.54</ele>
        <time>2017-08-05T14:08:16Z</time>
      </trkpt>
      <trkpt lat="42.90623" lon="0.8307">
        <ele>1371.46</ele>
        <time>2017-08-05T14:08:32Z</time>
      </trkpt>
      <trkpt lat="42.90626" lon="0.83076">
        <ele>1374.34</ele>
        <time>2017-08-05T14:08:48Z</time>
      </trkpt>
      <trkpt lat="42.90621" lon="0.83076">
        <ele>1374.34</ele>
        <time>2017-08-05T14:09:12Z</time>
      </trkpt>
      <trkpt lat="42.90627" lon="0.83086">
        <ele>1375.78</ele>
        <time>2017-08-05T14:09:36Z</time>
      </trkpt>
      <trkpt lat="42.90633" lon="0.83099">
        <ele>1378.67</ele>
        <time>2017-08-05T14:09:50Z</time>
      </trkpt>
      <trkpt lat="42.90641" lon="0.83107">
        <ele>1380.59</ele>
        <time>2017-08-05T14:10:03Z</time>
      </trkpt>
      <trkpt lat="42.90647" lon="0.83114">
        <ele>1383.47</ele>
        <time>2017-08-05T14:10:17Z</time>
      </trkpt>
      <trkpt lat="42.90653" lon="0.83115">
        <ele>1384.44</ele>
        <time>2017-08-05T14:10:34Z</time>
      </trkpt>
      <trkpt lat="42.9065" lon="0.83124">
        <ele>1386.84</ele>
        <time>2017-08-05T14:10:49Z</time>
      </trkpt>
      <trkpt lat="42.90647" lon="0.83129">
        <ele>1390.2</ele>
        <time>2017-08-05T14:11:05Z</time>
      </trkpt>
      <trkpt lat="42.90645" lon="0.83141">
        <ele>1392.13</ele>
        <time>2017-08-05T14:11:19Z</time>
      </trkpt>
      <trkpt lat="42.90647" lon="0.83152">
        <ele>1394.05</ele>
        <time>2017-08-05T14:11:34Z</time>
      </trkpt>
      <trkpt lat="42.90648" lon="0.83165">
        <ele>1396.45</ele>
        <time>2017-08-05T14:11:53Z</time>
      </trkpt>
      <trkpt lat="42.90657" lon="0.83175">
        <ele>1398.86</ele>
        <time>2017-08-05T14:12:10Z</time>
      </trkpt>
      <trkpt lat="42.90664" lon="0.83181">
        <ele>1399.82</ele>
        <time>2017-08-05T14:12:30Z</time>
      </trkpt>
      <trkpt lat="42.90666" lon="0.83183">
        <ele>1400.3</ele>
        <time>2017-08-05T14:12:43Z</time>
      </trkpt>
      <trkpt lat="42.90668" lon="0.83188">
        <ele>1401.26</ele>
        <time>2017-08-05T14:13:02Z</time>
      </trkpt>
      <trkpt lat="42.90676" lon="0.83191">
        <ele>1403.66</ele>
        <time>2017-08-05T14:13:17Z</time>
      </trkpt>
      <trkpt lat="42.90682" lon="0.832">
        <ele>1406.07</ele>
        <time>2017-08-05T14:13:32Z</time>
      </trkpt>
      <trkpt lat="42.90685" lon="0.83206">
        <ele>1408.47</ele>
        <time>2017-08-05T14:13:49Z</time>
      </trkpt>
      <trkpt lat="42.90686" lon="0.83215">
        <ele>1411.35</ele>
        <time>2017-08-05T14:14:05Z</time>
      </trkpt>
      <trkpt lat="42.90696" lon="0.8322">
        <ele>1414.24</ele>
        <time>2017-08-05T14:14:20Z</time>
      </trkpt>
      <trkpt lat="42.90705" lon="0.83225">
        <ele>1417.12</ele>
        <time>2017-08-05T14:14:38Z</time>
      </trkpt>
      <trkpt lat="42.90709" lon="0.83231">
        <ele>1419.52</ele>
        <time>2017-08-05T14:14:55Z</time>
      </trkpt>
      <trkpt lat="42.90713" lon="0.83237">
        <ele>1422.41</ele>
        <time>2017-08-05T14:15:11Z</time>
      </trkpt>
      <trkpt lat="42.9072" lon="0.83245">
        <ele>1425.29</ele>
        <time>2017-08-05T14:15:29Z</time>
      </trkpt>
      <trkpt lat="42.90726" lon="0.83256">
        <ele>1428.18</ele>
        <time>2017-08-05T14:15:47Z</time>
      </trkpt>
      <trkpt lat="42.90732" lon="0.83274">
        <ele>1429.62</ele>
        <time>2017-08-05T14:16:03Z</time>
      </trkpt>
      <trkpt lat="42.90736" lon="0.83283">
        <ele>1430.58</ele>
        <time>2017-08-05T14:16:17Z</time>
      </trkpt>
      <trkpt lat="42.90743" lon="0.83291">
        <ele>1431.54</ele>
        <time>2017-08-05T14:16:33Z</time>
      </trkpt>
      <trkpt lat="42.90744" lon="0.83291">
        <ele>1432.5</ele>
        <time>2017-08-05T14:16:53Z</time>
      </trkpt>
      <trkpt lat="42.90742" lon="0.83295">
        <ele>1432.5</ele>
        <time>2017-08-05T14:17:17Z</time>
      </trkpt>
      <trkpt lat="42.90745" lon="0.83292">
        <ele>1432.98</ele>
        <time>2017-08-05T14:17:40Z</time>
      </trkpt>
      <trkpt lat="42.90749" lon="0.8329">
        <ele>1432.98</ele>
        <time>2017-08-05T14:17:54Z</time>
      </trkpt>
      <trkpt lat="42.90755" lon="0.83288">
        <ele>1433.46</ele>
        <time>2017-08-05T14:18:07Z</time>
      </trkpt>
      <trkpt lat="42.90764" lon="0.83282">
        <ele>1432.5</ele>
        <time>2017-08-05T14:18:26Z</time>
      </trkpt>
      <trkpt lat="42.90773" lon="0.83281">
        <ele>1432.5</ele>
        <time>2017-08-05T14:18:34Z</time>
      </trkpt>
      <trkpt lat="42.90779" lon="0.83276">
        <ele>1432.5</ele>
        <time>2017-08-05T14:18:49Z</time>
      </trkpt>
      <trkpt lat="42.90791" lon="0.83275">
        <ele>1432.02</ele>
        <time>2017-08-05T14:19:04Z</time>
      </trkpt>
      <trkpt lat="42.90798" lon="0.83269">
        <ele>1432.5</ele>
        <time>2017-08-05T14:19:19Z</time>
      </trkpt>
      <trkpt lat="42.90801" lon="0.8327">
        <ele>1433.46</ele>
        <time>2017-08-05T14:19:29Z</time>
      </trkpt>
      <trkpt lat="42.90811" lon="0.8327">
        <ele>1433.94</ele>
        <time>2017-08-05T14:19:42Z</time>
      </trkpt>
      <trkpt lat="42.90818" lon="0.83271">
        <ele>1435.87</ele>
        <time>2017-08-05T14:19:59Z</time>
      </trkpt>
      <trkpt lat="42.90822" lon="0.8327">
        <ele>1436.35</ele>
        <time>2017-08-05T14:20:14Z</time>
      </trkpt>
      <trkpt lat="42.90831" lon="0.8327">
        <ele>1437.79</ele>
        <time>2017-08-05T14:20:29Z</time>
      </trkpt>
      <trkpt lat="42.90841" lon="0.83265">
        <ele>1439.71</ele>
        <time>2017-08-05T14:20:44Z</time>
      </trkpt>
      <trkpt lat="42.9085" lon="0.8327">
        <ele>1442.11</ele>
        <time>2017-08-05T14:20:58Z</time>
      </trkpt>
      <trkpt lat="42.9086" lon="0.83272">
        <ele>1444.52</ele>
        <time>2017-08-05T14:21:14Z</time>
      </trkpt>
      <trkpt lat="42.90869" lon="0.83272">
        <ele>1446.44</ele>
        <time>2017-08-05T14:21:28Z</time>
      </trkpt>
      <trkpt lat="42.90877" lon="0.83268">
        <ele>1446.92</ele>
        <time>2017-08-05T14:21:43Z</time>
      </trkpt>
      <trkpt lat="42.90889" lon="0.83264">
        <ele>1447.4</ele>
        <time>2017-08-05T14:21:56Z</time>
      </trkpt>
      <trkpt lat="42.9089" lon="0.83264">
        <ele>1447.4</ele>
        <time>2017-08-05T14:21:57Z</time>
      </trkpt>
      <trkpt lat="42.90901" lon="0.83263">
        <ele>1449.81</ele>
        <time>2017-08-05T14:22:11Z</time>
      </trkpt>
      <trkpt lat="42.90911" lon="0.83259">
        <ele>1450.29</ele>
        <time>2017-08-05T14:22:25Z</time>
      </trkpt>
      <trkpt lat="42.9092" lon="0.83255">
        <ele>1450.77</ele>
        <time>2017-08-05T14:22:38Z</time>
      </trkpt>
      <trkpt lat="42.90926" lon="0.83255">
        <ele>1452.69</ele>
        <time>2017-08-05T14:22:49Z</time>
      </trkpt>
      <trkpt lat="42.9094" lon="0.83253">
        <ele>1455.57</ele>
        <time>2017-08-05T14:23:04Z</time>
      </trkpt>
      <trkpt lat="42.90949" lon="0.8325">
        <ele>1456.53</ele>
        <time>2017-08-05T14:23:17Z</time>
      </trkpt>
      <trkpt lat="42.90954" lon="0.8325">
        <ele>1457.5</ele>
        <time>2017-08-05T14:23:32Z</time>
      </trkpt>
      <trkpt lat="42.90958" lon="0.83256">
        <ele>1459.9</ele>
        <time>2017-08-05T14:23:46Z</time>
      </trkpt>
      <trkpt lat="42.90965" lon="0.83261">
        <ele>1462.78</ele>
        <time>2017-08-05T14:24:00Z</time>
      </trkpt>
      <trkpt lat="42.90968" lon="0.83262">
        <ele>1462.78</ele>
        <time>2017-08-05T14:24:17Z</time>
      </trkpt>
      <trkpt lat="42.90969" lon="0.83263">
        <ele>1458.94</ele>
        <time>2017-08-05T14:24:42Z</time>
      </trkpt>
      <trkpt lat="42.90969" lon="0.83263">
        <ele>1469.03</ele>
        <time>2017-08-05T14:24:43Z</time>
      </trkpt>
      <trkpt lat="42.90969" lon="0.83263">
        <ele>1464.23</ele>
        <time>2017-08-05T14:24:44Z</time>
      </trkpt>
      <trkpt lat="42.90969" lon="0.83262">
        <ele>1463.26</ele>
        <time>2017-08-05T14:24:46Z</time>
      </trkpt>
      <trkpt lat="42.90971" lon="0.83263">
        <ele>1463.26</ele>
        <time>2017-08-05T14:25:12Z</time>
      </trkpt>
      <trkpt lat="42.9097" lon="0.83266">
        <ele>1463.26</ele>
        <time>2017-08-05T14:25:28Z</time>
      </trkpt>
      <trkpt lat="42.90972" lon="0.83267">
        <ele>1463.26</ele>
        <time>2017-08-05T14:25:54Z</time>
      </trkpt>
      <trkpt lat="42.90969" lon="0.83269">
        <ele>1463.26</ele>
        <time>2017-08-05T14:26:09Z</time>
      </trkpt>
      <trkpt lat="42.90969" lon="0.83268">
        <ele>1463.26</ele>
        <time>2017-08-05T14:26:32Z</time>
      </trkpt>
      <trkpt lat="42.90968" lon="0.83267">
        <ele>1463.26</ele>
        <time>2017-08-05T14:26:48Z</time>
      </trkpt>
      <trkpt lat="42.90969" lon="0.83267">
        <ele>1463.26</ele>
        <time>2017-08-05T14:27:20Z</time>
      </trkpt>
      <trkpt lat="42.90969" lon="0.8327">
        <ele>1463.26</ele>
        <time>2017-08-05T14:27:37Z</time>
      </trkpt>
      <trkpt lat="42.90971" lon="0.83276">
        <ele>1463.26</ele>
        <time>2017-08-05T14:27:53Z</time>
      </trkpt>
      <trkpt lat="42.90979" lon="0.83277">
        <ele>1461.34</ele>
        <time>2017-08-05T14:27:59Z</time>
      </trkpt>
      <trkpt lat="42.90995" lon="0.8327">
        <ele>1457.98</ele>
        <time>2017-08-05T14:28:09Z</time>
      </trkpt>
      <trkpt lat="42.91008" lon="0.83268">
        <ele>1454.61</ele>
        <time>2017-08-05T14:28:16Z</time>
      </trkpt>
      <trkpt lat="42.91021" lon="0.83267">
        <ele>1451.25</ele>
        <time>2017-08-05T14:28:24Z</time>
      </trkpt>
      <trkpt lat="42.91023" lon="0.83266">
        <ele>1451.25</ele>
        <time>2017-08-05T14:28:38Z</time>
      </trkpt>
      <trkpt lat="42.91038" lon="0.83269">
        <ele>1447.88</ele>
        <time>2017-08-05T14:28:47Z</time>
      </trkpt>
      <trkpt lat="42.91047" lon="0.83268">
        <ele>1447.4</ele>
        <time>2017-08-05T14:28:55Z</time>
      </trkpt>
      <trkpt lat="42.91051" lon="0.83267">
        <ele>1447.4</ele>
        <time>2017-08-05T14:29:01Z</time>
      </trkpt>
      <trkpt lat="42.91055" lon="0.83268">
        <ele>1448.84</ele>
        <time>2017-08-05T14:29:14Z</time>
      </trkpt>
      <trkpt lat="42.91055" lon="0.8327">
        <ele>1448.84</ele>
        <time>2017-08-05T14:29:22Z</time>
      </trkpt>
      <trkpt lat="42.91069" lon="0.83279">
        <ele>1448.84</ele>
        <time>2017-08-05T14:29:35Z</time>
      </trkpt>
      <trkpt lat="42.91077" lon="0.83281">
        <ele>1448.84</ele>
        <time>2017-08-05T14:29:48Z</time>
      </trkpt>
      <trkpt lat="42.91085" lon="0.8328">
        <ele>1447.4</ele>
        <time>2017-08-05T14:29:59Z</time>
      </trkpt>
      <trkpt lat="42.91088" lon="0.83276">
        <ele>1447.88</ele>
        <time>2017-08-05T14:30:17Z</time>
      </trkpt>
      <trkpt lat="42.9109" lon="0.83274">
        <ele>1447.4</ele>
        <time>2017-08-05T14:30:36Z</time>
      </trkpt>
      <trkpt lat="42.91099" lon="0.83274">
        <ele>1446.92</ele>
        <time>2017-08-05T14:30:42Z</time>
      </trkpt>
      <trkpt lat="42.91108" lon="0.83274">
        <ele>1446.92</ele>
        <time>2017-08-05T14:30:47Z</time>
      </trkpt>
      <trkpt lat="42.91142" lon="0.83267">
        <ele>1446.44</ele>
        <time>2017-08-05T14:31:01Z</time>
      </trkpt>
      <trkpt lat="42.91175" lon="0.83252">
        <ele>1445.48</ele>
        <time>2017-08-05T14:31:12Z</time>
      </trkpt>
      <trkpt lat="42.91206" lon="0.83241">
        <ele>1445.48</ele>
        <time>2017-08-05T14:31:24Z</time>
      </trkpt>
      <trkpt lat="42.91244" lon="0.83241">
        <ele>1445</ele>
        <time>2017-08-05T14:31:36Z</time>
      </trkpt>
      <trkpt lat="42.91278" lon="0.83261">
        <ele>1444.04</ele>
        <time>2017-08-05T14:31:47Z</time>
      </trkpt>
      <trkpt lat="42.9129" lon="0.83282">
        <ele>1442.6</ele>
        <time>2017-08-05T14:31:57Z</time>
      </trkpt>
      <trkpt lat="42.913" lon="0.83299">
        <ele>1442.11</ele>
        <time>2017-08-05T14:32:11Z</time>
      </trkpt>
      <trkpt lat="42.91305" lon="0.83307">
        <ele>1441.63</ele>
        <time>2017-08-05T14:32:13Z</time>
      </trkpt>
      <trkpt lat="42.91342" lon="0.83357">
        <ele>1441.63</ele>
        <time>2017-08-05T14:32:26Z</time>
      </trkpt>
      <trkpt lat="42.91347" lon="0.83366">
        <ele>1441.15</ele>
        <time>2017-08-05T14:32:28Z</time>
      </trkpt>
      <trkpt lat="42.91371" lon="0.83412">
        <ele>1437.31</ele>
        <time>2017-08-05T14:32:36Z</time>
      </trkpt>
      <trkpt lat="42.91386" lon="0.83454">
        <ele>1433.94</ele>
        <time>2017-08-05T14:32:42Z</time>
      </trkpt>
      <trkpt lat="42.91394" lon="0.83492">
        <ele>1430.58</ele>
        <time>2017-08-05T14:32:47Z</time>
      </trkpt>
      <trkpt lat="42.91396" lon="0.83507">
        <ele>1429.14</ele>
        <time>2017-08-05T14:32:49Z</time>
      </trkpt>
      <trkpt lat="42.91402" lon="0.83551">
        <ele>1425.29</ele>
        <time>2017-08-05T14:32:55Z</time>
      </trkpt>
      <trkpt lat="42.91407" lon="0.83583">
        <ele>1421.93</ele>
        <time>2017-08-05T14:32:59Z</time>
      </trkpt>
      <trkpt lat="42.91416" lon="0.83622">
        <ele>1418.08</ele>
        <time>2017-08-05T14:33:04Z</time>
      </trkpt>
      <trkpt lat="42.9142" lon="0.83637">
        <ele>1417.6</ele>
        <time>2017-08-05T14:33:06Z</time>
      </trkpt>
      <trkpt lat="42.91422" lon="0.83643">
        <ele>1416.64</ele>
        <time>2017-08-05T14:33:07Z</time>
      </trkpt>
      <trkpt lat="42.91437" lon="0.8367">
        <ele>1413.76</ele>
        <time>2017-08-05T14:33:12Z</time>
      </trkpt>
      <trkpt lat="42.91446" lon="0.83678">
        <ele>1412.31</ele>
        <time>2017-08-05T14:33:14Z</time>
      </trkpt>
      <trkpt lat="42.91468" lon="0.83726">
        <ele>1408.95</ele>
        <time>2017-08-05T14:33:23Z</time>
      </trkpt>
      <trkpt lat="42.91476" lon="0.8375">
        <ele>1409.43</ele>
        <time>2017-08-05T14:33:32Z</time>
      </trkpt>
      <trkpt lat="42.91486" lon="0.83769">
        <ele>1407.99</ele>
        <time>2017-08-05T14:33:43Z</time>
      </trkpt>
      <trkpt lat="42.91488" lon="0.83768">
        <ele>1407.51</ele>
        <time>2017-08-05T14:34:04Z</time>
      </trkpt>
      <trkpt lat="42.91489" lon="0.83768">
        <ele>1407.51</ele>
        <time>2017-08-05T14:34:35Z</time>
      </trkpt>
      <trkpt lat="42.91489" lon="0.8377">
        <ele>1407.51</ele>
        <time>2017-08-05T14:35:01Z</time>
      </trkpt>
      <trkpt lat="42.91489" lon="0.83774">
        <ele>1407.51</ele>
        <time>2017-08-05T14:35:26Z</time>
      </trkpt>
      <trkpt lat="42.91502" lon="0.83781">
        <ele>1405.58</ele>
        <time>2017-08-05T14:35:35Z</time>
      </trkpt>
      <trkpt lat="42.9151" lon="0.83781">
        <ele>1402.22</ele>
        <time>2017-08-05T14:35:38Z</time>
      </trkpt>
      <trkpt lat="42.91521" lon="0.83781">
        <ele>1399.34</ele>
        <time>2017-08-05T14:35:41Z</time>
      </trkpt>
      <trkpt lat="42.9155" lon="0.83786">
        <ele>1394.53</ele>
        <time>2017-08-05T14:35:47Z</time>
      </trkpt>
      <trkpt lat="42.91568" lon="0.83807">
        <ele>1390.68</ele>
        <time>2017-08-05T14:35:52Z</time>
      </trkpt>
      <trkpt lat="42.91575" lon="0.83827">
        <ele>1386.84</ele>
        <time>2017-08-05T14:35:56Z</time>
      </trkpt>
      <trkpt lat="42.91577" lon="0.83836">
        <ele>1385.88</ele>
        <time>2017-08-05T14:35:58Z</time>
      </trkpt>
      <trkpt lat="42.91592" lon="0.83872">
        <ele>1383.47</ele>
        <time>2017-08-05T14:36:08Z</time>
      </trkpt>
      <trkpt lat="42.91619" lon="0.83914">
        <ele>1379.63</ele>
        <time>2017-08-05T14:36:17Z</time>
      </trkpt>
      <trkpt lat="42.91626" lon="0.83924">
        <ele>1378.67</ele>
        <time>2017-08-05T14:36:19Z</time>
      </trkpt>
      <trkpt lat="42.91636" lon="0.83943">
        <ele>1377.23</ele>
        <time>2017-08-05T14:36:22Z</time>
      </trkpt>
      <trkpt lat="42.91656" lon="0.83993">
        <ele>1374.82</ele>
        <time>2017-08-05T14:36:29Z</time>
      </trkpt>
      <trkpt lat="42.91681" lon="0.8404">
        <ele>1373.38</ele>
        <time>2017-08-05T14:36:36Z</time>
      </trkpt>
      <trkpt lat="42.9169" lon="0.84056">
        <ele>1373.38</ele>
        <time>2017-08-05T14:36:39Z</time>
      </trkpt>
      <trkpt lat="42.91703" lon="0.8409">
        <ele>1372.9</ele>
        <time>2017-08-05T14:36:44Z</time>
      </trkpt>
      <trkpt lat="42.91723" lon="0.84124">
        <ele>1369.54</ele>
        <time>2017-08-05T14:36:50Z</time>
      </trkpt>
      <trkpt lat="42.91728" lon="0.84126">
        <ele>1368.57</ele>
        <time>2017-08-05T14:36:51Z</time>
      </trkpt>
      <trkpt lat="42.91738" lon="0.84131">
        <ele>1367.61</ele>
        <time>2017-08-05T14:36:53Z</time>
      </trkpt>
      <trkpt lat="42.91758" lon="0.84145">
        <ele>1365.69</ele>
        <time>2017-08-05T14:36:57Z</time>
      </trkpt>
      <trkpt lat="42.91767" lon="0.84154">
        <ele>1364.73</ele>
        <time>2017-08-05T14:36:59Z</time>
      </trkpt>
      <trkpt lat="42.91784" lon="0.84181">
        <ele>1361.84</ele>
        <time>2017-08-05T14:37:03Z</time>
      </trkpt>
      <trkpt lat="42.918" lon="0.84231">
        <ele>1358.48</ele>
        <time>2017-08-05T14:37:09Z</time>
      </trkpt>
      <trkpt lat="42.91804" lon="0.84247">
        <ele>1357.04</ele>
        <time>2017-08-05T14:37:11Z</time>
      </trkpt>
      <trkpt lat="42.91818" lon="0.8427">
        <ele>1355.12</ele>
        <time>2017-08-05T14:37:15Z</time>
      </trkpt>
      <trkpt lat="42.91844" lon="0.84295">
        <ele>1351.75</ele>
        <time>2017-08-05T14:37:21Z</time>
      </trkpt>
      <trkpt lat="42.91863" lon="0.84313">
        <ele>1349.83</ele>
        <time>2017-08-05T14:37:25Z</time>
      </trkpt>
      <trkpt lat="42.9188" lon="0.84335">
        <ele>1347.43</ele>
        <time>2017-08-05T14:37:30Z</time>
      </trkpt>
      <trkpt lat="42.91886" lon="0.84344">
        <ele>1345.98</ele>
        <time>2017-08-05T14:37:32Z</time>
      </trkpt>
      <trkpt lat="42.91892" lon="0.84357">
        <ele>1345.02</ele>
        <time>2017-08-05T14:37:34Z</time>
      </trkpt>
      <trkpt lat="42.91896" lon="0.84374">
        <ele>1343.58</ele>
        <time>2017-08-05T14:37:36Z</time>
      </trkpt>
      <trkpt lat="42.91898" lon="0.84381">
        <ele>1343.1</ele>
        <time>2017-08-05T14:37:37Z</time>
      </trkpt>
      <trkpt lat="42.91897" lon="0.84434">
        <ele>1339.25</ele>
        <time>2017-08-05T14:37:43Z</time>
      </trkpt>
      <trkpt lat="42.91896" lon="0.84467">
        <ele>1337.33</ele>
        <time>2017-08-05T14:37:47Z</time>
      </trkpt>
      <trkpt lat="42.91897" lon="0.84499">
        <ele>1333.97</ele>
        <time>2017-08-05T14:37:51Z</time>
      </trkpt>
      <trkpt lat="42.91902" lon="0.84527">
        <ele>1332.52</ele>
        <time>2017-08-05T14:37:55Z</time>
      </trkpt>
      <trkpt lat="42.91926" lon="0.84557">
        <ele>1329.16</ele>
        <time>2017-08-05T14:38:02Z</time>
      </trkpt>
      <trkpt lat="42.91956" lon="0.8457">
        <ele>1325.8</ele>
        <time>2017-08-05T14:38:08Z</time>
      </trkpt>
      <trkpt lat="42.91962" lon="0.84573">
        <ele>1325.8</ele>
        <time>2017-08-05T14:38:09Z</time>
      </trkpt>
      <trkpt lat="42.91978" lon="0.84578">
        <ele>1323.87</ele>
        <time>2017-08-05T14:38:12Z</time>
      </trkpt>
      <trkpt lat="42.92008" lon="0.84579">
        <ele>1321.47</ele>
        <time>2017-08-05T14:38:17Z</time>
      </trkpt>
      <trkpt lat="42.92029" lon="0.84591">
        <ele>1318.59</ele>
        <time>2017-08-05T14:38:21Z</time>
      </trkpt>
      <trkpt lat="42.92068" lon="0.84593">
        <ele>1315.22</ele>
        <time>2017-08-05T14:38:28Z</time>
      </trkpt>
      <trkpt lat="42.92073" lon="0.8459">
        <ele>1314.74</ele>
        <time>2017-08-05T14:38:29Z</time>
      </trkpt>
      <trkpt lat="42.92096" lon="0.84582">
        <ele>1312.82</ele>
        <time>2017-08-05T14:38:33Z</time>
      </trkpt>
      <trkpt lat="42.92103" lon="0.84582">
        <ele>1311.86</ele>
        <time>2017-08-05T14:38:34Z</time>
      </trkpt>
      <trkpt lat="42.92144" lon="0.84599">
        <ele>1310.41</ele>
        <time>2017-08-05T14:38:40Z</time>
      </trkpt>
      <trkpt lat="42.92161" lon="0.84616">
        <ele>1308.97</ele>
        <time>2017-08-05T14:38:43Z</time>
      </trkpt>
      <trkpt lat="42.92166" lon="0.84623">
        <ele>1308.49</ele>
        <time>2017-08-05T14:38:44Z</time>
      </trkpt>
      <trkpt lat="42.92188" lon="0.84668">
        <ele>1307.53</ele>
        <time>2017-08-05T14:38:52Z</time>
      </trkpt>
      <trkpt lat="42.92199" lon="0.8468">
        <ele>1307.53</ele>
        <time>2017-08-05T14:39:06Z</time>
      </trkpt>
      <trkpt lat="42.92196" lon="0.84679">
        <ele>1307.53</ele>
        <time>2017-08-05T14:39:22Z</time>
      </trkpt>
      <trkpt lat="42.9219" lon="0.84673">
        <ele>1307.53</ele>
        <time>2017-08-05T14:39:29Z</time>
      </trkpt>
      <trkpt lat="42.9218" lon="0.84652">
        <ele>1307.53</ele>
        <time>2017-08-05T14:39:39Z</time>
      </trkpt>
      <trkpt lat="42.92166" lon="0.84638">
        <ele>1304.17</ele>
        <time>2017-08-05T14:39:50Z</time>
      </trkpt>
      <trkpt lat="42.92155" lon="0.84636">
        <ele>1300.8</ele>
        <time>2017-08-05T14:39:54Z</time>
      </trkpt>
      <trkpt lat="42.92145" lon="0.84636">
        <ele>1297.44</ele>
        <time>2017-08-05T14:39:59Z</time>
      </trkpt>
      <trkpt lat="42.92138" lon="0.84637">
        <ele>1295.51</ele>
        <time>2017-08-05T14:40:03Z</time>
      </trkpt>
      <trkpt lat="42.92127" lon="0.84643">
        <ele>1293.59</ele>
        <time>2017-08-05T14:40:14Z</time>
      </trkpt>
      <trkpt lat="42.92116" lon="0.84647">
        <ele>1290.23</ele>
        <time>2017-08-05T14:40:23Z</time>
      </trkpt>
      <trkpt lat="42.92103" lon="0.84649">
        <ele>1286.86</ele>
        <time>2017-08-05T14:40:29Z</time>
      </trkpt>
      <trkpt lat="42.92097" lon="0.84651">
        <ele>1285.9</ele>
        <time>2017-08-05T14:40:31Z</time>
      </trkpt>
      <trkpt lat="42.92084" lon="0.84657">
        <ele>1282.54</ele>
        <time>2017-08-05T14:40:36Z</time>
      </trkpt>
      <trkpt lat="42.92081" lon="0.84658">
        <ele>1282.54</ele>
        <time>2017-08-05T14:40:37Z</time>
      </trkpt>
      <trkpt lat="42.92071" lon="0.84662">
        <ele>1281.09</ele>
        <time>2017-08-05T14:40:40Z</time>
      </trkpt>
      <trkpt lat="42.92051" lon="0.84682">
        <ele>1277.73</ele>
        <time>2017-08-05T14:40:47Z</time>
      </trkpt>
      <trkpt lat="42.92039" lon="0.847">
        <ele>1275.81</ele>
        <time>2017-08-05T14:40:53Z</time>
      </trkpt>
      <trkpt lat="42.92032" lon="0.84711">
        <ele>1272.92</ele>
        <time>2017-08-05T14:41:00Z</time>
      </trkpt>
      <trkpt lat="42.92039" lon="0.84732">
        <ele>1268.6</ele>
        <time>2017-08-05T14:41:08Z</time>
      </trkpt>
      <trkpt lat="42.92042" lon="0.84734">
        <ele>1268.12</ele>
        <time>2017-08-05T14:41:09Z</time>
      </trkpt>
      <trkpt lat="42.92059" lon="0.84746">
        <ele>1265.23</ele>
        <time>2017-08-05T14:41:18Z</time>
      </trkpt>
      <trkpt lat="42.9207" lon="0.84756">
        <ele>1261.87</ele>
        <time>2017-08-05T14:41:22Z</time>
      </trkpt>
      <trkpt lat="42.92083" lon="0.84775">
        <ele>1258.98</ele>
        <time>2017-08-05T14:41:29Z</time>
      </trkpt>
      <trkpt lat="42.92085" lon="0.84779">
        <ele>1258.98</ele>
        <time>2017-08-05T14:41:30Z</time>
      </trkpt>
      <trkpt lat="42.92097" lon="0.84798">
        <ele>1256.1</ele>
        <time>2017-08-05T14:41:34Z</time>
      </trkpt>
      <trkpt lat="42.92119" lon="0.84821">
        <ele>1255.62</ele>
        <time>2017-08-05T14:41:39Z</time>
      </trkpt>
      <trkpt lat="42.92143" lon="0.84844">
        <ele>1251.77</ele>
        <time>2017-08-05T14:41:46Z</time>
      </trkpt>
      <trkpt lat="42.92146" lon="0.84869">
        <ele>1247.93</ele>
        <time>2017-08-05T14:41:52Z</time>
      </trkpt>
      <trkpt lat="42.92147" lon="0.84886">
        <ele>1244.56</ele>
        <time>2017-08-05T14:41:57Z</time>
      </trkpt>
      <trkpt lat="42.92148" lon="0.84896">
        <ele>1244.56</ele>
        <time>2017-08-05T14:42:15Z</time>
      </trkpt>
      <trkpt lat="42.92149" lon="0.84901">
        <ele>1244.56</ele>
        <time>2017-08-05T14:42:41Z</time>
      </trkpt>
      <trkpt lat="42.92154" lon="0.84908">
        <ele>1245.04</ele>
        <time>2017-08-05T14:43:09Z</time>
      </trkpt>
      <trkpt lat="42.92159" lon="0.84912">
        <ele>1245.04</ele>
        <time>2017-08-05T14:43:42Z</time>
      </trkpt>
      <trkpt lat="42.9215" lon="0.84931">
        <ele>1240.72</ele>
        <time>2017-08-05T14:43:50Z</time>
      </trkpt>
      <trkpt lat="42.92148" lon="0.84939">
        <ele>1239.28</ele>
        <time>2017-08-05T14:43:53Z</time>
      </trkpt>
      <trkpt lat="42.9215" lon="0.84972">
        <ele>1237.83</ele>
        <time>2017-08-05T14:44:03Z</time>
      </trkpt>
      <trkpt lat="42.92152" lon="0.84988">
        <ele>1236.39</ele>
        <time>2017-08-05T14:44:06Z</time>
      </trkpt>
      <trkpt lat="42.92155" lon="0.85042">
        <ele>1235.43</ele>
        <time>2017-08-05T14:44:17Z</time>
      </trkpt>
      <trkpt lat="42.92157" lon="0.85068">
        <ele>1233.51</ele>
        <time>2017-08-05T14:44:21Z</time>
      </trkpt>
      <trkpt lat="42.92158" lon="0.85109">
        <ele>1233.99</ele>
        <time>2017-08-05T14:44:31Z</time>
      </trkpt>
      <trkpt lat="42.92158" lon="0.85136">
        <ele>1233.51</ele>
        <time>2017-08-05T14:44:43Z</time>
      </trkpt>
      <trkpt lat="42.92159" lon="0.85151">
        <ele>1232.07</ele>
        <time>2017-08-05T14:44:48Z</time>
      </trkpt>
      <trkpt lat="42.92163" lon="0.85162">
        <ele>1231.59</ele>
        <time>2017-08-05T14:45:01Z</time>
      </trkpt>
      <trkpt lat="42.92166" lon="0.85164">
        <ele>1231.59</ele>
        <time>2017-08-05T14:45:33Z</time>
      </trkpt>
      <trkpt lat="42.92169" lon="0.85168">
        <ele>1231.59</ele>
        <time>2017-08-05T14:45:38Z</time>
      </trkpt>
      <trkpt lat="42.92181" lon="0.85179">
        <ele>1229.18</ele>
        <time>2017-08-05T14:45:48Z</time>
      </trkpt>
      <trkpt lat="42.9219" lon="0.85197">
        <ele>1228.7</ele>
        <time>2017-08-05T14:46:00Z</time>
      </trkpt>
      <trkpt lat="42.92192" lon="0.85202">
        <ele>1228.7</ele>
        <time>2017-08-05T14:46:03Z</time>
      </trkpt>
      <trkpt lat="42.92193" lon="0.85209">
        <ele>1228.7</ele>
        <time>2017-08-05T14:46:07Z</time>
      </trkpt>
      <trkpt lat="42.92192" lon="0.85222">
        <ele>1227.26</ele>
        <time>2017-08-05T14:46:17Z</time>
      </trkpt>
      <trkpt lat="42.9219" lon="0.85239">
        <ele>1225.34</ele>
        <time>2017-08-05T14:46:29Z</time>
      </trkpt>
      <trkpt lat="42.9219" lon="0.85246">
        <ele>1224.86</ele>
        <time>2017-08-05T14:46:42Z</time>
      </trkpt>
      <trkpt lat="42.92183" lon="0.8528">
        <ele>1222.45</ele>
        <time>2017-08-05T14:46:53Z</time>
      </trkpt>
      <trkpt lat="42.92174" lon="0.85314">
        <ele>1219.09</ele>
        <time>2017-08-05T14:47:01Z</time>
      </trkpt>
      <trkpt lat="42.92167" lon="0.8533">
        <ele>1216.21</ele>
        <time>2017-08-05T14:47:05Z</time>
      </trkpt>
      <trkpt lat="42.9216" lon="0.85351">
        <ele>1213.8</ele>
        <time>2017-08-05T14:47:09Z</time>
      </trkpt>
      <trkpt lat="42.92159" lon="0.85356">
        <ele>1212.84</ele>
        <time>2017-08-05T14:47:10Z</time>
      </trkpt>
      <trkpt lat="42.92152" lon="0.85416">
        <ele>1210.92</ele>
        <time>2017-08-05T14:47:22Z</time>
      </trkpt>
      <trkpt lat="42.92154" lon="0.85475">
        <ele>1210.44</ele>
        <time>2017-08-05T14:47:34Z</time>
      </trkpt>
      <trkpt lat="42.9217" lon="0.85509">
        <ele>1209</ele>
        <time>2017-08-05T14:47:45Z</time>
      </trkpt>
      <trkpt lat="42.92176" lon="0.85516">
        <ele>1209.48</ele>
        <time>2017-08-05T14:47:57Z</time>
      </trkpt>
      <trkpt lat="42.92177" lon="0.85522">
        <ele>1209</ele>
        <time>2017-08-05T14:48:02Z</time>
      </trkpt>
      <trkpt lat="42.92183" lon="0.85558">
        <ele>1208.03</ele>
        <time>2017-08-05T14:48:13Z</time>
      </trkpt>
      <trkpt lat="42.92185" lon="0.85578">
        <ele>1209.48</ele>
        <time>2017-08-05T14:48:19Z</time>
      </trkpt>
      <trkpt lat="42.92183" lon="0.85614">
        <ele>1209.48</ele>
        <time>2017-08-05T14:48:30Z</time>
      </trkpt>
      <trkpt lat="42.92179" lon="0.85656">
        <ele>1209.48</ele>
        <time>2017-08-05T14:48:41Z</time>
      </trkpt>
      <trkpt lat="42.92178" lon="0.85681">
        <ele>1209.48</ele>
        <time>2017-08-05T14:48:47Z</time>
      </trkpt>
      <trkpt lat="42.92176" lon="0.85724">
        <ele>1209.48</ele>
        <time>2017-08-05T14:48:59Z</time>
      </trkpt>
      <trkpt lat="42.92174" lon="0.85761">
        <ele>1210.44</ele>
        <time>2017-08-05T14:49:10Z</time>
      </trkpt>
      <trkpt lat="42.92174" lon="0.85783">
        <ele>1210.44</ele>
        <time>2017-08-05T14:49:21Z</time>
      </trkpt>
      <trkpt lat="42.92174" lon="0.85787">
        <ele>1210.44</ele>
        <time>2017-08-05T14:49:31Z</time>
      </trkpt>
      <trkpt lat="42.92173" lon="0.85797">
        <ele>1209</ele>
        <time>2017-08-05T14:49:35Z</time>
      </trkpt>
      <trkpt lat="42.92172" lon="0.85809">
        <ele>1207.55</ele>
        <time>2017-08-05T14:49:38Z</time>
      </trkpt>
      <trkpt lat="42.92179" lon="0.85841">
        <ele>1205.63</ele>
        <time>2017-08-05T14:49:43Z</time>
      </trkpt>
      <trkpt lat="42.92197" lon="0.85876">
        <ele>1205.15</ele>
        <time>2017-08-05T14:49:50Z</time>
      </trkpt>
      <trkpt lat="42.92207" lon="0.859">
        <ele>1203.71</ele>
        <time>2017-08-05T14:49:54Z</time>
      </trkpt>
      <trkpt lat="42.92219" lon="0.85919">
        <ele>1200.82</ele>
        <time>2017-08-05T14:49:57Z</time>
      </trkpt>
      <trkpt lat="42.92248" lon="0.85976">
        <ele>1197.94</ele>
        <time>2017-08-05T14:50:07Z</time>
      </trkpt>
      <trkpt lat="42.92255" lon="0.86006">
        <ele>1197.94</ele>
        <time>2017-08-05T14:50:13Z</time>
      </trkpt>
      <trkpt lat="42.92251" lon="0.86034">
        <ele>1197.46</ele>
        <time>2017-08-05T14:50:17Z</time>
      </trkpt>
      <trkpt lat="42.92247" lon="0.86052">
        <ele>1197.46</ele>
        <time>2017-08-05T14:50:20Z</time>
      </trkpt>
      <trkpt lat="42.92241" lon="0.86069">
        <ele>1197.46</ele>
        <time>2017-08-05T14:50:23Z</time>
      </trkpt>
      <trkpt lat="42.92228" lon="0.86092">
        <ele>1202.27</ele>
        <time>2017-08-05T14:50:28Z</time>
      </trkpt>
      <trkpt lat="42.92214" lon="0.86126">
        <ele>1198.9</ele>
        <time>2017-08-05T14:50:35Z</time>
      </trkpt>
      <trkpt lat="42.92212" lon="0.86141">
        <ele>1195.54</ele>
        <time>2017-08-05T14:50:38Z</time>
      </trkpt>
      <trkpt lat="42.92212" lon="0.86159">
        <ele>1191.69</ele>
        <time>2017-08-05T14:50:41Z</time>
      </trkpt>
      <trkpt lat="42.92211" lon="0.86178">
        <ele>1188.33</ele>
        <time>2017-08-05T14:50:45Z</time>
      </trkpt>
      <trkpt lat="42.92213" lon="0.86194">
        <ele>1184.96</ele>
        <time>2017-08-05T14:50:49Z</time>
      </trkpt>
      <trkpt lat="42.92218" lon="0.86205">
        <ele>1182.08</ele>
        <time>2017-08-05T14:50:52Z</time>
      </trkpt>
      <trkpt lat="42.92226" lon="0.86213">
        <ele>1177.27</ele>
        <time>2017-08-05T14:50:56Z</time>
      </trkpt>
      <trkpt lat="42.92229" lon="0.86219">
        <ele>1175.35</ele>
        <time>2017-08-05T14:50:58Z</time>
      </trkpt>
      <trkpt lat="42.92241" lon="0.86232">
        <ele>1171.02</ele>
        <time>2017-08-05T14:51:02Z</time>
      </trkpt>
      <trkpt lat="42.92253" lon="0.86246">
        <ele>1167.18</ele>
        <time>2017-08-05T14:51:06Z</time>
      </trkpt>
      <trkpt lat="42.92262" lon="0.86257">
        <ele>1163.81</ele>
        <time>2017-08-05T14:51:09Z</time>
      </trkpt>
      <trkpt lat="42.92273" lon="0.86271">
        <ele>1160.45</ele>
        <time>2017-08-05T14:51:12Z</time>
      </trkpt>
      <trkpt lat="42.92287" lon="0.86285">
        <ele>1157.08</ele>
        <time>2017-08-05T14:51:16Z</time>
      </trkpt>
      <trkpt lat="42.92299" lon="0.86291">
        <ele>1154.2</ele>
        <time>2017-08-05T14:51:19Z</time>
      </trkpt>
      <trkpt lat="42.92312" lon="0.86289">
        <ele>1151.32</ele>
        <time>2017-08-05T14:51:22Z</time>
      </trkpt>
      <trkpt lat="42.9234" lon="0.86293">
        <ele>1147.47</ele>
        <time>2017-08-05T14:51:27Z</time>
      </trkpt>
      <trkpt lat="42.92348" lon="0.86293">
        <ele>1146.99</ele>
        <time>2017-08-05T14:51:29Z</time>
      </trkpt>
      <trkpt lat="42.9236" lon="0.86293">
        <ele>1146.51</ele>
        <time>2017-08-05T14:51:44Z</time>
      </trkpt>
      <trkpt lat="42.92366" lon="0.86294">
        <ele>1145.55</ele>
        <time>2017-08-05T14:51:48Z</time>
      </trkpt>
      <trkpt lat="42.92371" lon="0.86293">
        <ele>1145.07</ele>
        <time>2017-08-05T14:51:50Z</time>
      </trkpt>
      <trkpt lat="42.92377" lon="0.86295">
        <ele>1143.63</ele>
        <time>2017-08-05T14:51:52Z</time>
      </trkpt>
      <trkpt lat="42.92406" lon="0.86293">
        <ele>1139.78</ele>
        <time>2017-08-05T14:51:58Z</time>
      </trkpt>
      <trkpt lat="42.92424" lon="0.86307">
        <ele>1137.38</ele>
        <time>2017-08-05T14:52:02Z</time>
      </trkpt>
      <trkpt lat="42.92428" lon="0.8632">
        <ele>1137.86</ele>
        <time>2017-08-05T14:52:04Z</time>
      </trkpt>
      <trkpt lat="42.92432" lon="0.86332">
        <ele>1137.86</ele>
        <time>2017-08-05T14:52:06Z</time>
      </trkpt>
      <trkpt lat="42.9245" lon="0.86385">
        <ele>1135.94</ele>
        <time>2017-08-05T14:52:18Z</time>
      </trkpt>
      <trkpt lat="42.92457" lon="0.86404">
        <ele>1132.57</ele>
        <time>2017-08-05T14:52:25Z</time>
      </trkpt>
      <trkpt lat="42.92461" lon="0.86408">
        <ele>1133.05</ele>
        <time>2017-08-05T14:52:28Z</time>
      </trkpt>
      <trkpt lat="42.92478" lon="0.86421">
        <ele>1131.13</ele>
        <time>2017-08-05T14:52:39Z</time>
      </trkpt>
      <trkpt lat="42.92495" lon="0.86425">
        <ele>1129.21</ele>
        <time>2017-08-05T14:52:49Z</time>
      </trkpt>
      <trkpt lat="42.92501" lon="0.86428">
        <ele>1129.21</ele>
        <time>2017-08-05T14:52:59Z</time>
      </trkpt>
      <trkpt lat="42.92511" lon="0.86438">
        <ele>1129.21</ele>
        <time>2017-08-05T14:53:08Z</time>
      </trkpt>
      <trkpt lat="42.92525" lon="0.86468">
        <ele>1128.24</ele>
        <time>2017-08-05T14:53:17Z</time>
      </trkpt>
      <trkpt lat="42.92535" lon="0.86488">
        <ele>1125.36</ele>
        <time>2017-08-05T14:53:23Z</time>
      </trkpt>
      <trkpt lat="42.92537" lon="0.8649">
        <ele>1125.36</ele>
        <time>2017-08-05T14:53:24Z</time>
      </trkpt>
      <trkpt lat="42.92556" lon="0.86511">
        <ele>1124.4</ele>
        <time>2017-08-05T14:53:31Z</time>
      </trkpt>
      <trkpt lat="42.92572" lon="0.86523">
        <ele>1121.03</ele>
        <time>2017-08-05T14:53:38Z</time>
      </trkpt>
      <trkpt lat="42.92581" lon="0.86541">
        <ele>1117.19</ele>
        <time>2017-08-05T14:53:42Z</time>
      </trkpt>
      <trkpt lat="42.92589" lon="0.86578">
        <ele>1114.31</ele>
        <time>2017-08-05T14:53:50Z</time>
      </trkpt>
      <trkpt lat="42.92595" lon="0.86606">
        <ele>1110.46</ele>
        <time>2017-08-05T14:53:57Z</time>
      </trkpt>
      <trkpt lat="42.92596" lon="0.86638">
        <ele>1107.1</ele>
        <time>2017-08-05T14:54:05Z</time>
      </trkpt>
      <trkpt lat="42.92595" lon="0.86657">
        <ele>1103.25</ele>
        <time>2017-08-05T14:54:10Z</time>
      </trkpt>
      <trkpt lat="42.92595" lon="0.86665">
        <ele>1101.33</ele>
        <time>2017-08-05T14:54:14Z</time>
      </trkpt>
      <trkpt lat="42.926" lon="0.86678">
        <ele>1098.44</ele>
        <time>2017-08-05T14:54:20Z</time>
      </trkpt>
      <trkpt lat="42.92599" lon="0.86682">
        <ele>1097</ele>
        <time>2017-08-05T14:54:23Z</time>
      </trkpt>
      <trkpt lat="42.92589" lon="0.86683">
        <ele>1093.64</ele>
        <time>2017-08-05T14:54:29Z</time>
      </trkpt>
      <trkpt lat="42.92587" lon="0.86682">
        <ele>1093.64</ele>
        <time>2017-08-05T14:54:30Z</time>
      </trkpt>
      <trkpt lat="42.9258" lon="0.86679">
        <ele>1090.75</ele>
        <time>2017-08-05T14:54:34Z</time>
      </trkpt>
      <trkpt lat="42.92574" lon="0.86674">
        <ele>1088.83</ele>
        <time>2017-08-05T14:54:37Z</time>
      </trkpt>
      <trkpt lat="42.92571" lon="0.86664">
        <ele>1085.95</ele>
        <time>2017-08-05T14:54:50Z</time>
      </trkpt>
      <trkpt lat="42.9257" lon="0.86666">
        <ele>1084.99</ele>
        <time>2017-08-05T14:55:00Z</time>
      </trkpt>
      <trkpt lat="42.92566" lon="0.86674">
        <ele>1082.1</ele>
        <time>2017-08-05T14:55:11Z</time>
      </trkpt>
      <trkpt lat="42.92563" lon="0.8668">
        <ele>1079.22</ele>
        <time>2017-08-05T14:55:24Z</time>
      </trkpt>
      <trkpt lat="42.92561" lon="0.86683">
        <ele>1078.74</ele>
        <time>2017-08-05T14:55:32Z</time>
      </trkpt>
      <trkpt lat="42.92556" lon="0.86697">
        <ele>1074.89</ele>
        <time>2017-08-05T14:55:38Z</time>
      </trkpt>
      <trkpt lat="42.92551" lon="0.86701">
        <ele>1074.41</ele>
        <time>2017-08-05T14:55:46Z</time>
      </trkpt>
      <trkpt lat="42.92545" lon="0.86711">
        <ele>1073.93</ele>
        <time>2017-08-05T14:56:02Z</time>
      </trkpt>
      <trkpt lat="42.92545" lon="0.86713">
        <ele>1073.93</ele>
        <time>2017-08-05T14:56:04Z</time>
      </trkpt>
      <trkpt lat="42.9254" lon="0.86725">
        <ele>1069.6</ele>
        <time>2017-08-05T14:56:11Z</time>
      </trkpt>
      <trkpt lat="42.92533" lon="0.86735">
        <ele>1065.76</ele>
        <time>2017-08-05T14:56:17Z</time>
      </trkpt>
      <trkpt lat="42.92524" lon="0.8674">
        <ele>1062.39</ele>
        <time>2017-08-05T14:56:23Z</time>
      </trkpt>
      <trkpt lat="42.92512" lon="0.86738">
        <ele>1059.03</ele>
        <time>2017-08-05T14:56:29Z</time>
      </trkpt>
      <trkpt lat="42.92501" lon="0.86733">
        <ele>1055.67</ele>
        <time>2017-08-05T14:56:34Z</time>
      </trkpt>
      <trkpt lat="42.92497" lon="0.8673">
        <ele>1054.7</ele>
        <time>2017-08-05T14:56:36Z</time>
      </trkpt>
      <trkpt lat="42.92487" lon="0.86727">
        <ele>1053.26</ele>
        <time>2017-08-05T14:56:39Z</time>
      </trkpt>
      <trkpt lat="42.92475" lon="0.86733">
        <ele>1050.38</ele>
        <time>2017-08-05T14:56:43Z</time>
      </trkpt>
      <trkpt lat="42.92467" lon="0.86738">
        <ele>1048.45</ele>
        <time>2017-08-05T14:56:46Z</time>
      </trkpt>
      <trkpt lat="42.92463" lon="0.86743">
        <ele>1047.49</ele>
        <time>2017-08-05T14:56:48Z</time>
      </trkpt>
      <trkpt lat="42.92461" lon="0.86745">
        <ele>1046.53</ele>
        <time>2017-08-05T14:56:49Z</time>
      </trkpt>
      <trkpt lat="42.92453" lon="0.8675">
        <ele>1044.61</ele>
        <time>2017-08-05T14:56:53Z</time>
      </trkpt>
      <trkpt lat="42.92446" lon="0.86759">
        <ele>1042.69</ele>
        <time>2017-08-05T14:56:56Z</time>
      </trkpt>
      <trkpt lat="42.9244" lon="0.86764">
        <ele>1041.73</ele>
        <time>2017-08-05T14:56:58Z</time>
      </trkpt>
      <trkpt lat="42.9241" lon="0.86766">
        <ele>1038.36</ele>
        <time>2017-08-05T14:57:07Z</time>
      </trkpt>
      <trkpt lat="42.92384" lon="0.86775">
        <ele>1035</ele>
        <time>2017-08-05T14:57:15Z</time>
      </trkpt>
      <trkpt lat="42.92358" lon="0.86792">
        <ele>1034.04</ele>
        <time>2017-08-05T14:57:23Z</time>
      </trkpt>
      <trkpt lat="42.92333" lon="0.86816">
        <ele>1033.07</ele>
        <time>2017-08-05T14:57:31Z</time>
      </trkpt>
      <trkpt lat="42.92315" lon="0.86839">
        <ele>1032.59</ele>
        <time>2017-08-05T14:57:43Z</time>
      </trkpt>
      <trkpt lat="42.92313" lon="0.86843">
        <ele>1032.59</ele>
        <time>2017-08-05T14:58:03Z</time>
      </trkpt>
      <trkpt lat="42.92311" lon="0.86842">
        <ele>1032.59</ele>
        <time>2017-08-05T14:58:36Z</time>
      </trkpt>
      <trkpt lat="42.92311" lon="0.86841">
        <ele>1032.59</ele>
        <time>2017-08-05T14:58:55Z</time>
      </trkpt>
      <trkpt lat="42.92309" lon="0.86849">
        <ele>1032.59</ele>
        <time>2017-08-05T14:58:59Z</time>
      </trkpt>
      <trkpt lat="42.92299" lon="0.86867">
        <ele>1029.71</ele>
        <time>2017-08-05T14:59:04Z</time>
      </trkpt>
      <trkpt lat="42.92274" lon="0.86919">
        <ele>1027.31</ele>
        <time>2017-08-05T14:59:16Z</time>
      </trkpt>
      <trkpt lat="42.92253" lon="0.86965">
        <ele>1025.86</ele>
        <time>2017-08-05T14:59:26Z</time>
      </trkpt>
      <trkpt lat="42.92242" lon="0.87012">
        <ele>1025.86</ele>
        <time>2017-08-05T14:59:36Z</time>
      </trkpt>
      <trkpt lat="42.92236" lon="0.87056">
        <ele>1022.98</ele>
        <time>2017-08-05T14:59:45Z</time>
      </trkpt>
      <trkpt lat="42.92243" lon="0.87092">
        <ele>1019.62</ele>
        <time>2017-08-05T14:59:53Z</time>
      </trkpt>
      <trkpt lat="42.92271" lon="0.87122">
        <ele>1016.73</ele>
        <time>2017-08-05T15:00:03Z</time>
      </trkpt>
      <trkpt lat="42.9229" lon="0.87147">
        <ele>1015.29</ele>
        <time>2017-08-05T15:00:10Z</time>
      </trkpt>
      <trkpt lat="42.92311" lon="0.87167">
        <ele>1011.93</ele>
        <time>2017-08-05T15:00:16Z</time>
      </trkpt>
      <trkpt lat="42.9233" lon="0.87187">
        <ele>1008.56</ele>
        <time>2017-08-05T15:00:22Z</time>
      </trkpt>
      <trkpt lat="42.92344" lon="0.87198">
        <ele>1004.72</ele>
        <time>2017-08-05T15:00:27Z</time>
      </trkpt>
      <trkpt lat="42.92353" lon="0.87206">
        <ele>1002.79</ele>
        <time>2017-08-05T15:00:30Z</time>
      </trkpt>
      <trkpt lat="42.92354" lon="0.8723">
        <ele>998.95</ele>
        <time>2017-08-05T15:00:36Z</time>
      </trkpt>
      <trkpt lat="42.92332" lon="0.87265">
        <ele>995.1</ele>
        <time>2017-08-05T15:00:45Z</time>
      </trkpt>
      <trkpt lat="42.92322" lon="0.87277">
        <ele>993.66</ele>
        <time>2017-08-05T15:00:48Z</time>
      </trkpt>
      <trkpt lat="42.92289" lon="0.87325">
        <ele>992.7</ele>
        <time>2017-08-05T15:01:00Z</time>
      </trkpt>
      <trkpt lat="42.92286" lon="0.8733">
        <ele>992.7</ele>
        <time>2017-08-05T15:01:01Z</time>
      </trkpt>
      <trkpt lat="42.92279" lon="0.87338">
        <ele>992.22</ele>
        <time>2017-08-05T15:01:03Z</time>
      </trkpt>
      <trkpt lat="42.92255" lon="0.87376">
        <ele>990.78</ele>
        <time>2017-08-05T15:01:12Z</time>
      </trkpt>
      <trkpt lat="42.92242" lon="0.87397">
        <ele>987.41</ele>
        <time>2017-08-05T15:01:18Z</time>
      </trkpt>
      <trkpt lat="42.9222" lon="0.8743">
        <ele>984.05</ele>
        <time>2017-08-05T15:01:27Z</time>
      </trkpt>
      <trkpt lat="42.92216" lon="0.87437">
        <ele>983.57</ele>
        <time>2017-08-05T15:01:29Z</time>
      </trkpt>
      <trkpt lat="42.92191" lon="0.87469">
        <ele>979.24</ele>
        <time>2017-08-05T15:01:38Z</time>
      </trkpt>
      <trkpt lat="42.92172" lon="0.87493">
        <ele>975.88</ele>
        <time>2017-08-05T15:01:44Z</time>
      </trkpt>
      <trkpt lat="42.92159" lon="0.87506">
        <ele>972.51</ele>
        <time>2017-08-05T15:01:50Z</time>
      </trkpt>
      <trkpt lat="42.92152" lon="0.87518">
        <ele>971.07</ele>
        <time>2017-08-05T15:01:54Z</time>
      </trkpt>
      <trkpt lat="42.92156" lon="0.87568">
        <ele>968.67</ele>
        <time>2017-08-05T15:02:05Z</time>
      </trkpt>
      <trkpt lat="42.92165" lon="0.87599">
        <ele>966.74</ele>
        <time>2017-08-05T15:02:10Z</time>
      </trkpt>
      <trkpt lat="42.92187" lon="0.87638">
        <ele>963.86</ele>
        <time>2017-08-05T15:02:20Z</time>
      </trkpt>
      <trkpt lat="42.92206" lon="0.87657">
        <ele>960.49</ele>
        <time>2017-08-05T15:02:26Z</time>
      </trkpt>
      <trkpt lat="42.92218" lon="0.87695">
        <ele>959.53</ele>
        <time>2017-08-05T15:02:33Z</time>
      </trkpt>
      <trkpt lat="42.92226" lon="0.87726">
        <ele>959.53</ele>
        <time>2017-08-05T15:02:39Z</time>
      </trkpt>
      <trkpt lat="42.92234" lon="0.87741">
        <ele>957.13</ele>
        <time>2017-08-05T15:02:43Z</time>
      </trkpt>
      <trkpt lat="42.92234" lon="0.87755">
        <ele>953.28</ele>
        <time>2017-08-05T15:02:47Z</time>
      </trkpt>
      <trkpt lat="42.92234" lon="0.87766">
        <ele>951.36</ele>
        <time>2017-08-05T15:02:51Z</time>
      </trkpt>
      <trkpt lat="42.92238" lon="0.87777">
        <ele>949.44</ele>
        <time>2017-08-05T15:02:54Z</time>
      </trkpt>
      <trkpt lat="42.92257" lon="0.87808">
        <ele>946.56</ele>
        <time>2017-08-05T15:03:03Z</time>
      </trkpt>
      <trkpt lat="42.92266" lon="0.87856">
        <ele>945.59</ele>
        <time>2017-08-05T15:03:14Z</time>
      </trkpt>
      <trkpt lat="42.92271" lon="0.87893">
        <ele>944.15</ele>
        <time>2017-08-05T15:03:24Z</time>
      </trkpt>
      <trkpt lat="42.92271" lon="0.87912">
        <ele>941.27</ele>
        <time>2017-08-05T15:03:31Z</time>
      </trkpt>
      <trkpt lat="42.92271" lon="0.87914">
        <ele>940.31</ele>
        <time>2017-08-05T15:03:32Z</time>
      </trkpt>
      <trkpt lat="42.92264" lon="0.87918">
        <ele>936.94</ele>
        <time>2017-08-05T15:03:38Z</time>
      </trkpt>
      <trkpt lat="42.92256" lon="0.87921">
        <ele>933.58</ele>
        <time>2017-08-05T15:03:43Z</time>
      </trkpt>
      <trkpt lat="42.92253" lon="0.87923">
        <ele>932.14</ele>
        <time>2017-08-05T15:03:45Z</time>
      </trkpt>
      <trkpt lat="42.92249" lon="0.87913">
        <ele>928.77</ele>
        <time>2017-08-05T15:03:53Z</time>
      </trkpt>
      <trkpt lat="42.92247" lon="0.8791">
        <ele>927.33</ele>
        <time>2017-08-05T15:03:55Z</time>
      </trkpt>
      <trkpt lat="42.92237" lon="0.87907">
        <ele>923.48</ele>
        <time>2017-08-05T15:04:00Z</time>
      </trkpt>
      <trkpt lat="42.92229" lon="0.87906">
        <ele>921.56</ele>
        <time>2017-08-05T15:04:03Z</time>
      </trkpt>
      <trkpt lat="42.92221" lon="0.87889">
        <ele>918.2</ele>
        <time>2017-08-05T15:04:09Z</time>
      </trkpt>
      <trkpt lat="42.92218" lon="0.87885">
        <ele>917.24</ele>
        <time>2017-08-05T15:04:11Z</time>
      </trkpt>
      <trkpt lat="42.92206" lon="0.87876">
        <ele>913.87</ele>
        <time>2017-08-05T15:04:17Z</time>
      </trkpt>
      <trkpt lat="42.92199" lon="0.87873">
        <ele>912.91</ele>
        <time>2017-08-05T15:04:28Z</time>
      </trkpt>
      <trkpt lat="42.92198" lon="0.8787">
        <ele>912.43</ele>
        <time>2017-08-05T15:04:49Z</time>
      </trkpt>
      <trkpt lat="42.92197" lon="0.87869">
        <ele>911.95</ele>
        <time>2017-08-05T15:04:52Z</time>
      </trkpt>
      <trkpt lat="42.92192" lon="0.87866">
        <ele>910.51</ele>
        <time>2017-08-05T15:05:04Z</time>
      </trkpt>
      <trkpt lat="42.9219" lon="0.87863">
        <ele>910.03</ele>
        <time>2017-08-05T15:05:25Z</time>
      </trkpt>
      <trkpt lat="42.92189" lon="0.87862">
        <ele>909.54</ele>
        <time>2017-08-05T15:05:48Z</time>
      </trkpt>
      <trkpt lat="42.92189" lon="0.87865">
        <ele>909.54</ele>
        <time>2017-08-05T15:06:07Z</time>
      </trkpt>
      <trkpt lat="42.92189" lon="0.87864">
        <ele>909.06</ele>
        <time>2017-08-05T15:06:30Z</time>
      </trkpt>
      <trkpt lat="42.9219" lon="0.87864">
        <ele>909.06</ele>
        <time>2017-08-05T15:06:51Z</time>
      </trkpt>
      <trkpt lat="42.9219" lon="0.87864">
        <ele>908.58</ele>
        <time>2017-08-05T15:07:17Z</time>
      </trkpt>
      <trkpt lat="42.92189" lon="0.87864">
        <ele>908.58</ele>
        <time>2017-08-05T15:07:41Z</time>
      </trkpt>
      <trkpt lat="42.92189" lon="0.87863">
        <ele>908.1</ele>
        <time>2017-08-05T15:07:58Z</time>
      </trkpt>
      <trkpt lat="42.92188" lon="0.87864">
        <ele>908.1</ele>
        <time>2017-08-05T15:08:21Z</time>
      </trkpt>
      <trkpt lat="42.92188" lon="0.87864">
        <ele>907.62</ele>
        <time>2017-08-05T15:08:41Z</time>
      </trkpt>
      <trkpt lat="42.92189" lon="0.87863">
        <ele>907.62</ele>
        <time>2017-08-05T15:08:59Z</time>
      </trkpt>
      <trkpt lat="42.9219" lon="0.87862">
        <ele>907.14</ele>
        <time>2017-08-05T15:09:26Z</time>
      </trkpt>
      <trkpt lat="42.9219" lon="0.87865">
        <ele>907.14</ele>
        <time>2017-08-05T15:09:54Z</time>
      </trkpt>
      <trkpt lat="42.92193" lon="0.87871">
        <ele>908.1</ele>
        <time>2017-08-05T15:10:10Z</time>
      </trkpt>
      <trkpt lat="42.92192" lon="0.87871">
        <ele>907.62</ele>
        <time>2017-08-05T15:10:38Z</time>
      </trkpt>
      <trkpt lat="42.92195" lon="0.8787">
        <ele>907.62</ele>
        <time>2017-08-05T15:11:17Z</time>
      </trkpt>
      <trkpt lat="42.92193" lon="0.87869">
        <ele>907.14</ele>
        <time>2017-08-05T15:11:43Z</time>
      </trkpt>
      <trkpt lat="42.92195" lon="0.87868">
        <ele>907.14</ele>
        <time>2017-08-05T15:12:14Z</time>
      </trkpt>
      <trkpt lat="42.92196" lon="0.87871">
        <ele>906.66</ele>
        <time>2017-08-05T15:12:55Z</time>
      </trkpt>
      <trkpt lat="42.92197" lon="0.8787">
        <ele>906.18</ele>
        <time>2017-08-05T15:13:25Z</time>
      </trkpt>
      <trkpt lat="42.92195" lon="0.87868">
        <ele>905.7</ele>
        <time>2017-08-05T15:13:57Z</time>
      </trkpt>
      <trkpt lat="42.92193" lon="0.87871">
        <ele>905.7</ele>
        <time>2017-08-05T15:14:36Z</time>
      </trkpt>
      <trkpt lat="42.92194" lon="0.8787">
        <ele>905.22</ele>
        <time>2017-08-05T15:15:13Z</time>
      </trkpt>
      <trkpt lat="42.92193" lon="0.8787">
        <ele>904.74</ele>
        <time>2017-08-05T15:15:53Z</time>
      </trkpt>
      <trkpt lat="42.92193" lon="0.87874">
        <ele>904.74</ele>
        <time>2017-08-05T15:16:21Z</time>
      </trkpt>
      <trkpt lat="42.92192" lon="0.87875">
        <ele>904.26</ele>
        <time>2017-08-05T15:16:39Z</time>
      </trkpt>
      <trkpt lat="42.9219" lon="0.8787">
        <ele>904.26</ele>
        <time>2017-08-05T15:16:54Z</time>
      </trkpt>
      <trkpt lat="42.9219" lon="0.87868">
        <ele>904.26</ele>
        <time>2017-08-05T15:17:27Z</time>
      </trkpt>
      <trkpt lat="42.9219" lon="0.87869">
        <ele>903.78</ele>
        <time>2017-08-05T15:17:59Z</time>
      </trkpt>
      <trkpt lat="42.92191" lon="0.87867">
        <ele>903.78</ele>
        <time>2017-08-05T15:18:27Z</time>
      </trkpt>
      <trkpt lat="42.92189" lon="0.87865">
        <ele>903.78</ele>
        <time>2017-08-05T15:18:42Z</time>
      </trkpt>
      <trkpt lat="42.92179" lon="0.87885">
        <ele>899.93</ele>
        <time>2017-08-05T15:18:50Z</time>
      </trkpt>
      <trkpt lat="42.92172" lon="0.87895">
        <ele>898.49</ele>
        <time>2017-08-05T15:18:52Z</time>
      </trkpt>
      <trkpt lat="42.92161" lon="0.87923">
        <ele>896.57</ele>
        <time>2017-08-05T15:18:57Z</time>
      </trkpt>
      <trkpt lat="42.92159" lon="0.87942">
        <ele>894.64</ele>
        <time>2017-08-05T15:19:01Z</time>
      </trkpt>
      <trkpt lat="42.92147" lon="0.87961">
        <ele>891.28</ele>
        <time>2017-08-05T15:19:06Z</time>
      </trkpt>
      <trkpt lat="42.92127" lon="0.87985">
        <ele>886.95</ele>
        <time>2017-08-05T15:19:13Z</time>
      </trkpt>
      <trkpt lat="42.92121" lon="0.8799">
        <ele>886.47</ele>
        <time>2017-08-05T15:19:16Z</time>
      </trkpt>
      <trkpt lat="42.9212" lon="0.87994">
        <ele>885.99</ele>
        <time>2017-08-05T15:19:23Z</time>
      </trkpt>
      <trkpt lat="42.92122" lon="0.88023">
        <ele>885.51</ele>
        <time>2017-08-05T15:19:33Z</time>
      </trkpt>
      <trkpt lat="42.92134" lon="0.88051">
        <ele>885.03</ele>
        <time>2017-08-05T15:19:41Z</time>
      </trkpt>
      <trkpt lat="42.92165" lon="0.88111">
        <ele>884.07</ele>
        <time>2017-08-05T15:19:55Z</time>
      </trkpt>
      <trkpt lat="42.92182" lon="0.88149">
        <ele>883.11</ele>
        <time>2017-08-05T15:20:04Z</time>
      </trkpt>
      <trkpt lat="42.92202" lon="0.88185">
        <ele>883.11</ele>
        <time>2017-08-05T15:20:15Z</time>
      </trkpt>
      <trkpt lat="42.9222" lon="0.88205">
        <ele>883.11</ele>
        <time>2017-08-05T15:20:24Z</time>
      </trkpt>
      <trkpt lat="42.92236" lon="0.8823">
        <ele>883.11</ele>
        <time>2017-08-05T15:20:31Z</time>
      </trkpt>
      <trkpt lat="42.92259" lon="0.88276">
        <ele>879.74</ele>
        <time>2017-08-05T15:20:41Z</time>
      </trkpt>
      <trkpt lat="42.92263" lon="0.88276">
        <ele>879.74</ele>
        <time>2017-08-05T15:20:42Z</time>
      </trkpt>
      <trkpt lat="42.92282" lon="0.88272">
        <ele>877.34</ele>
        <time>2017-08-05T15:20:48Z</time>
      </trkpt>
      <trkpt lat="42.92297" lon="0.88271">
        <ele>873.98</ele>
        <time>2017-08-05T15:20:54Z</time>
      </trkpt>
      <trkpt lat="42.92312" lon="0.88278">
        <ele>870.61</ele>
        <time>2017-08-05T15:21:00Z</time>
      </trkpt>
      <trkpt lat="42.92326" lon="0.88289">
        <ele>867.25</ele>
        <time>2017-08-05T15:21:05Z</time>
      </trkpt>
      <trkpt lat="42.92328" lon="0.88291">
        <ele>867.25</ele>
        <time>2017-08-05T15:21:06Z</time>
      </trkpt>
      <trkpt lat="42.92333" lon="0.88303">
        <ele>863.88</ele>
        <time>2017-08-05T15:21:10Z</time>
      </trkpt>
      <trkpt lat="42.92341" lon="0.88318">
        <ele>860.52</ele>
        <time>2017-08-05T15:21:14Z</time>
      </trkpt>
      <trkpt lat="42.92355" lon="0.88333">
        <ele>857.15</ele>
        <time>2017-08-05T15:21:19Z</time>
      </trkpt>
      <trkpt lat="42.9236" lon="0.88339">
        <ele>854.75</ele>
        <time>2017-08-05T15:21:22Z</time>
      </trkpt>
      <trkpt lat="42.92375" lon="0.88349">
        <ele>851.38</ele>
        <time>2017-08-05T15:21:27Z</time>
      </trkpt>
      <trkpt lat="42.92388" lon="0.88354">
        <ele>847.54</ele>
        <time>2017-08-05T15:21:32Z</time>
      </trkpt>
      <trkpt lat="42.92393" lon="0.88355">
        <ele>847.06</ele>
        <time>2017-08-05T15:21:33Z</time>
      </trkpt>
      <trkpt lat="42.92417" lon="0.88365">
        <ele>843.69</ele>
        <time>2017-08-05T15:21:38Z</time>
      </trkpt>
      <trkpt lat="42.92445" lon="0.88385">
        <ele>840.33</ele>
        <time>2017-08-05T15:21:49Z</time>
      </trkpt>
      <trkpt lat="42.92445" lon="0.88385">
        <ele>840.33</ele>
        <time>2017-08-05T15:21:51Z</time>
      </trkpt>
      <trkpt lat="42.92464" lon="0.88406">
        <ele>836.48</ele>
        <time>2017-08-05T15:22:00Z</time>
      </trkpt>
      <trkpt lat="42.92473" lon="0.88418">
        <ele>834.56</ele>
        <time>2017-08-05T15:22:04Z</time>
      </trkpt>
      <trkpt lat="42.92479" lon="0.88426">
        <ele>833.12</ele>
        <time>2017-08-05T15:22:06Z</time>
      </trkpt>
      <trkpt lat="42.92483" lon="0.88432">
        <ele>832.64</ele>
        <time>2017-08-05T15:22:07Z</time>
      </trkpt>
      <trkpt lat="42.925" lon="0.88447">
        <ele>831.2</ele>
        <time>2017-08-05T15:22:12Z</time>
      </trkpt>
      <trkpt lat="42.92506" lon="0.8845">
        <ele>830.24</ele>
        <time>2017-08-05T15:22:14Z</time>
      </trkpt>
      <trkpt lat="42.92531" lon="0.88481">
        <ele>826.87</ele>
        <time>2017-08-05T15:22:21Z</time>
      </trkpt>
      <trkpt lat="42.92534" lon="0.88484">
        <ele>825.91</ele>
        <time>2017-08-05T15:22:22Z</time>
      </trkpt>
      <trkpt lat="42.92539" lon="0.88494">
        <ele>822.06</ele>
        <time>2017-08-05T15:22:28Z</time>
      </trkpt>
      <trkpt lat="42.92537" lon="0.88498">
        <ele>820.62</ele>
        <time>2017-08-05T15:22:30Z</time>
      </trkpt>
      <trkpt lat="42.92535" lon="0.88503">
        <ele>819.66</ele>
        <time>2017-08-05T15:22:32Z</time>
      </trkpt>
      <trkpt lat="42.92534" lon="0.88506">
        <ele>819.18</ele>
        <time>2017-08-05T15:22:34Z</time>
      </trkpt>
      <trkpt lat="42.92541" lon="0.88506">
        <ele>817.74</ele>
        <time>2017-08-05T15:22:37Z</time>
      </trkpt>
      <trkpt lat="42.92547" lon="0.88505">
        <ele>815.82</ele>
        <time>2017-08-05T15:22:39Z</time>
      </trkpt>
      <trkpt lat="42.92566" lon="0.88504">
        <ele>814.37</ele>
        <time>2017-08-05T15:22:44Z</time>
      </trkpt>
      <trkpt lat="42.92574" lon="0.88517">
        <ele>813.89</ele>
        <time>2017-08-05T15:22:48Z</time>
      </trkpt>
      <trkpt lat="42.92586" lon="0.88552">
        <ele>814.37</ele>
        <time>2017-08-05T15:22:57Z</time>
      </trkpt>
      <trkpt lat="42.92595" lon="0.88579">
        <ele>814.37</ele>
        <time>2017-08-05T15:23:03Z</time>
      </trkpt>
      <trkpt lat="42.92616" lon="0.88654">
        <ele>814.37</ele>
        <time>2017-08-05T15:23:17Z</time>
      </trkpt>
      <trkpt lat="42.92634" lon="0.88696">
        <ele>813.89</ele>
        <time>2017-08-05T15:23:28Z</time>
      </trkpt>
      <trkpt lat="42.92642" lon="0.88714">
        <ele>812.45</ele>
        <time>2017-08-05T15:23:34Z</time>
      </trkpt>
      <trkpt lat="42.92658" lon="0.88721">
        <ele>808.13</ele>
        <time>2017-08-05T15:23:40Z</time>
      </trkpt>
      <trkpt lat="42.92669" lon="0.88727">
        <ele>805.72</ele>
        <time>2017-08-05T15:23:43Z</time>
      </trkpt>
      <trkpt lat="42.92681" lon="0.88733">
        <ele>803.32</ele>
        <time>2017-08-05T15:23:46Z</time>
      </trkpt>
      <trkpt lat="42.92706" lon="0.88755">
        <ele>800.92</ele>
        <time>2017-08-05T15:23:55Z</time>
      </trkpt>
      <trkpt lat="42.92712" lon="0.88764">
        <ele>800.92</ele>
        <time>2017-08-05T15:24:04Z</time>
      </trkpt>
      <trkpt lat="42.92713" lon="0.88769">
        <ele>800.92</ele>
        <time>2017-08-05T15:24:13Z</time>
      </trkpt>
      <trkpt lat="42.92712" lon="0.8879">
        <ele>800.92</ele>
        <time>2017-08-05T15:24:21Z</time>
      </trkpt>
      <trkpt lat="42.92708" lon="0.88841">
        <ele>800.44</ele>
        <time>2017-08-05T15:24:33Z</time>
      </trkpt>
      <trkpt lat="42.92715" lon="0.88878">
        <ele>797.55</ele>
        <time>2017-08-05T15:24:42Z</time>
      </trkpt>
      <trkpt lat="42.92737" lon="0.88918">
        <ele>797.55</ele>
        <time>2017-08-05T15:24:52Z</time>
      </trkpt>
      <trkpt lat="42.92743" lon="0.88937">
        <ele>794.19</ele>
        <time>2017-08-05T15:24:56Z</time>
      </trkpt>
      <trkpt lat="42.92748" lon="0.88958">
        <ele>790.82</ele>
        <time>2017-08-05T15:25:00Z</time>
      </trkpt>
      <trkpt lat="42.92751" lon="0.88971">
        <ele>788.9</ele>
        <time>2017-08-05T15:25:03Z</time>
      </trkpt>
      <trkpt lat="42.92762" lon="0.88998">
        <ele>784.09</ele>
        <time>2017-08-05T15:25:09Z</time>
      </trkpt>
      <trkpt lat="42.92765" lon="0.89012">
        <ele>781.21</ele>
        <time>2017-08-05T15:25:12Z</time>
      </trkpt>
      <trkpt lat="42.92768" lon="0.89026">
        <ele>777.84</ele>
        <time>2017-08-05T15:25:15Z</time>
      </trkpt>
      <trkpt lat="42.92771" lon="0.89036">
        <ele>775.44</ele>
        <time>2017-08-05T15:25:17Z</time>
      </trkpt>
      <trkpt lat="42.92777" lon="0.89051">
        <ele>772.56</ele>
        <time>2017-08-05T15:25:21Z</time>
      </trkpt>
      <trkpt lat="42.92788" lon="0.89067">
        <ele>768.71</ele>
        <time>2017-08-05T15:25:26Z</time>
      </trkpt>
      <trkpt lat="42.92791" lon="0.89069">
        <ele>767.75</ele>
        <time>2017-08-05T15:25:27Z</time>
      </trkpt>
      <trkpt lat="42.92805" lon="0.89079">
        <ele>763.9</ele>
        <time>2017-08-05T15:25:32Z</time>
      </trkpt>
      <trkpt lat="42.92824" lon="0.89092">
        <ele>760.06</ele>
        <time>2017-08-05T15:25:38Z</time>
      </trkpt>
      <trkpt lat="42.92829" lon="0.89095">
        <ele>759.1</ele>
        <time>2017-08-05T15:25:40Z</time>
      </trkpt>
      <trkpt lat="42.92838" lon="0.89102">
        <ele>757.66</ele>
        <time>2017-08-05T15:25:44Z</time>
      </trkpt>
      <trkpt lat="42.92848" lon="0.8911">
        <ele>753.81</ele>
        <time>2017-08-05T15:25:49Z</time>
      </trkpt>
      <trkpt lat="42.92854" lon="0.89116">
        <ele>750.93</ele>
        <time>2017-08-05T15:25:52Z</time>
      </trkpt>
      <trkpt lat="42.92857" lon="0.89122">
        <ele>749.49</ele>
        <time>2017-08-05T15:25:54Z</time>
      </trkpt>
      <trkpt lat="42.92856" lon="0.89132">
        <ele>747.56</ele>
        <time>2017-08-05T15:25:56Z</time>
      </trkpt>
      <trkpt lat="42.92854" lon="0.89146">
        <ele>744.2</ele>
        <time>2017-08-05T15:25:59Z</time>
      </trkpt>
      <trkpt lat="42.92852" lon="0.89161">
        <ele>740.83</ele>
        <time>2017-08-05T15:26:03Z</time>
      </trkpt>
      <trkpt lat="42.92865" lon="0.89159">
        <ele>736.99</ele>
        <time>2017-08-05T15:26:09Z</time>
      </trkpt>
      <trkpt lat="42.92878" lon="0.89173">
        <ele>733.62</ele>
        <time>2017-08-05T15:26:15Z</time>
      </trkpt>
      <trkpt lat="42.9288" lon="0.89208">
        <ele>729.78</ele>
        <time>2017-08-05T15:26:25Z</time>
      </trkpt>
      <trkpt lat="42.92878" lon="0.89221">
        <ele>727.86</ele>
        <time>2017-08-05T15:26:30Z</time>
      </trkpt>
      <trkpt lat="42.92882" lon="0.89238">
        <ele>726.41</ele>
        <time>2017-08-05T15:26:35Z</time>
      </trkpt>
      <trkpt lat="42.92882" lon="0.89261">
        <ele>724.97</ele>
        <time>2017-08-05T15:26:39Z</time>
      </trkpt>
      <trkpt lat="42.92881" lon="0.89281">
        <ele>722.09</ele>
        <time>2017-08-05T15:26:42Z</time>
      </trkpt>
      <trkpt lat="42.9288" lon="0.89303">
        <ele>720.16</ele>
        <time>2017-08-05T15:26:45Z</time>
      </trkpt>
      <trkpt lat="42.92879" lon="0.89329">
        <ele>716.32</ele>
        <time>2017-08-05T15:26:50Z</time>
      </trkpt>
      <trkpt lat="42.92884" lon="0.89365">
        <ele>711.51</ele>
        <time>2017-08-05T15:26:56Z</time>
      </trkpt>
      <trkpt lat="42.92885" lon="0.89372">
        <ele>710.55</ele>
        <time>2017-08-05T15:26:57Z</time>
      </trkpt>
      <trkpt lat="42.9289" lon="0.89395">
        <ele>707.67</ele>
        <time>2017-08-05T15:27:00Z</time>
      </trkpt>
      <trkpt lat="42.92896" lon="0.89427">
        <ele>703.82</ele>
        <time>2017-08-05T15:27:04Z</time>
      </trkpt>
      <trkpt lat="42.92901" lon="0.89453">
        <ele>701.42</ele>
        <time>2017-08-05T15:27:07Z</time>
      </trkpt>
      <trkpt lat="42.9291" lon="0.89484">
        <ele>700.46</ele>
        <time>2017-08-05T15:27:13Z</time>
      </trkpt>
      <trkpt lat="42.9291" lon="0.8949">
        <ele>700.46</ele>
        <time>2017-08-05T15:27:18Z</time>
      </trkpt>
      <trkpt lat="42.92905" lon="0.89501">
        <ele>700.94</ele>
        <time>2017-08-05T15:27:25Z</time>
      </trkpt>
      <trkpt lat="42.92887" lon="0.89524">
        <ele>698.53</ele>
        <time>2017-08-05T15:27:38Z</time>
      </trkpt>
      <trkpt lat="42.92882" lon="0.89542">
        <ele>698.05</ele>
        <time>2017-08-05T15:27:44Z</time>
      </trkpt>
      <trkpt lat="42.92867" lon="0.89596">
        <ele>697.09</ele>
        <time>2017-08-05T15:27:58Z</time>
      </trkpt>
      <trkpt lat="42.92857" lon="0.89646">
        <ele>696.61</ele>
        <time>2017-08-05T15:28:09Z</time>
      </trkpt>
      <trkpt lat="42.92866" lon="0.89687">
        <ele>695.65</ele>
        <time>2017-08-05T15:28:16Z</time>
      </trkpt>
      <trkpt lat="42.92881" lon="0.89731">
        <ele>695.17</ele>
        <time>2017-08-05T15:28:23Z</time>
      </trkpt>
      <trkpt lat="42.92898" lon="0.89761">
        <ele>694.69</ele>
        <time>2017-08-05T15:28:28Z</time>
      </trkpt>
      <trkpt lat="42.92914" lon="0.8978">
        <ele>694.21</ele>
        <time>2017-08-05T15:28:32Z</time>
      </trkpt>
      <trkpt lat="42.92926" lon="0.89804">
        <ele>694.21</ele>
        <time>2017-08-05T15:28:36Z</time>
      </trkpt>
      <trkpt lat="42.92936" lon="0.89838">
        <ele>694.21</ele>
        <time>2017-08-05T15:28:41Z</time>
      </trkpt>
      <trkpt lat="42.92939" lon="0.89865">
        <ele>694.21</ele>
        <time>2017-08-05T15:28:45Z</time>
      </trkpt>
      <trkpt lat="42.92944" lon="0.89906">
        <ele>695.17</ele>
        <time>2017-08-05T15:28:52Z</time>
      </trkpt>
      <trkpt lat="42.92946" lon="0.89974">
        <ele>697.57</ele>
        <time>2017-08-05T15:29:05Z</time>
      </trkpt>
      <trkpt lat="42.9294" lon="0.90045">
        <ele>700.46</ele>
        <time>2017-08-05T15:29:19Z</time>
      </trkpt>
      <trkpt lat="42.9294" lon="0.90101">
        <ele>702.38</ele>
        <time>2017-08-05T15:29:30Z</time>
      </trkpt>
      <trkpt lat="42.9294" lon="0.90157">
        <ele>700.94</ele>
        <time>2017-08-05T15:29:43Z</time>
      </trkpt>
      <trkpt lat="42.92939" lon="0.90159">
        <ele>700.94</ele>
        <time>2017-08-05T15:30:01Z</time>
      </trkpt>
      <trkpt lat="42.92939" lon="0.90159">
        <ele>700.46</ele>
        <time>2017-08-05T15:30:19Z</time>
      </trkpt>
      <trkpt lat="42.92941" lon="0.90159">
        <ele>699.98</ele>
        <time>2017-08-05T15:30:42Z</time>
      </trkpt>
      <trkpt lat="42.9294" lon="0.90156">
        <ele>699.98</ele>
        <time>2017-08-05T15:30:55Z</time>
      </trkpt>
      <trkpt lat="42.92934" lon="0.90165">
        <ele>699.5</ele>
        <time>2017-08-05T15:30:59Z</time>
      </trkpt>
      <trkpt lat="42.92921" lon="0.9019">
        <ele>698.53</ele>
        <time>2017-08-05T15:31:04Z</time>
      </trkpt>
      <trkpt lat="42.92908" lon="0.90216">
        <ele>696.61</ele>
        <time>2017-08-05T15:31:08Z</time>
      </trkpt>
      <trkpt lat="42.92892" lon="0.90261">
        <ele>693.25</ele>
        <time>2017-08-05T15:31:13Z</time>
      </trkpt>
      <trkpt lat="42.92885" lon="0.90307">
        <ele>691.33</ele>
        <time>2017-08-05T15:31:17Z</time>
      </trkpt>
      <trkpt lat="42.92886" lon="0.90343">
        <ele>690.36</ele>
        <time>2017-08-05T15:31:20Z</time>
      </trkpt>
      <trkpt lat="42.92901" lon="0.90387">
        <ele>688.44</ele>
        <time>2017-08-05T15:31:24Z</time>
      </trkpt>
      <trkpt lat="42.92972" lon="0.90457">
        <ele>685.08</ele>
        <time>2017-08-05T15:31:35Z</time>
      </trkpt>
      <trkpt lat="42.93001" lon="0.90491">
        <ele>684.6</ele>
        <time>2017-08-05T15:31:41Z</time>
      </trkpt>
      <trkpt lat="42.93008" lon="0.90534">
        <ele>684.12</ele>
        <time>2017-08-05T15:31:48Z</time>
      </trkpt>
      <trkpt lat="42.92982" lon="0.90582">
        <ele>683.63</ele>
        <time>2017-08-05T15:32:02Z</time>
      </trkpt>
      <trkpt lat="42.92958" lon="0.90619">
        <ele>685.56</ele>
        <time>2017-08-05T15:32:16Z</time>
      </trkpt>
      <trkpt lat="42.92938" lon="0.90669">
        <ele>687.48</ele>
        <time>2017-08-05T15:32:31Z</time>
      </trkpt>
      <trkpt lat="42.92941" lon="0.90733">
        <ele>689.4</ele>
        <time>2017-08-05T15:32:46Z</time>
      </trkpt>
      <trkpt lat="42.92946" lon="0.90747">
        <ele>689.4</ele>
        <time>2017-08-05T15:32:49Z</time>
      </trkpt>
      <trkpt lat="42.9296" lon="0.90769">
        <ele>689.4</ele>
        <time>2017-08-05T15:32:54Z</time>
      </trkpt>
      <trkpt lat="42.92969" lon="0.90824">
        <ele>688.92</ele>
        <time>2017-08-05T15:33:02Z</time>
      </trkpt>
      <trkpt lat="42.92966" lon="0.90838">
        <ele>688.92</ele>
        <time>2017-08-05T15:33:04Z</time>
      </trkpt>
      <trkpt lat="42.9296" lon="0.90859">
        <ele>687.48</ele>
        <time>2017-08-05T15:33:07Z</time>
      </trkpt>
      <trkpt lat="42.92945" lon="0.90905">
        <ele>687.48</ele>
        <time>2017-08-05T15:33:18Z</time>
      </trkpt>
      <trkpt lat="42.92944" lon="0.90907">
        <ele>687.48</ele>
        <time>2017-08-05T15:33:29Z</time>
      </trkpt>
      <trkpt lat="42.92937" lon="0.90923">
        <ele>687.48</ele>
        <time>2017-08-05T15:33:36Z</time>
      </trkpt>
      <trkpt lat="42.92902" lon="0.90994">
        <ele>687.48</ele>
        <time>2017-08-05T15:33:52Z</time>
      </trkpt>
      <trkpt lat="42.92888" lon="0.9102">
        <ele>688.44</ele>
        <time>2017-08-05T15:33:58Z</time>
      </trkpt>
      <trkpt lat="42.92886" lon="0.91025">
        <ele>688.44</ele>
        <time>2017-08-05T15:33:59Z</time>
      </trkpt>
      <trkpt lat="42.92881" lon="0.91061">
        <ele>688.44</ele>
        <time>2017-08-05T15:34:05Z</time>
      </trkpt>
      <trkpt lat="42.9289" lon="0.91116">
        <ele>684.6</ele>
        <time>2017-08-05T15:34:12Z</time>
      </trkpt>
      <trkpt lat="42.92897" lon="0.91191">
        <ele>681.23</ele>
        <time>2017-08-05T15:34:19Z</time>
      </trkpt>
      <trkpt lat="42.92899" lon="0.91226">
        <ele>680.27</ele>
        <time>2017-08-05T15:34:22Z</time>
      </trkpt>
      <trkpt lat="42.9291" lon="0.91269">
        <ele>677.87</ele>
        <time>2017-08-05T15:34:26Z</time>
      </trkpt>
      <trkpt lat="42.92921" lon="0.91305">
        <ele>674.98</ele>
        <time>2017-08-05T15:34:29Z</time>
      </trkpt>
      <trkpt lat="42.92925" lon="0.91374">
        <ele>671.14</ele>
        <time>2017-08-05T15:34:34Z</time>
      </trkpt>
      <trkpt lat="42.92924" lon="0.9143">
        <ele>667.77</ele>
        <time>2017-08-05T15:34:38Z</time>
      </trkpt>
      <trkpt lat="42.92925" lon="0.91444">
        <ele>667.29</ele>
        <time>2017-08-05T15:34:39Z</time>
      </trkpt>
      <trkpt lat="42.92945" lon="0.91492">
        <ele>662.49</ele>
        <time>2017-08-05T15:34:43Z</time>
      </trkpt>
      <trkpt lat="42.92979" lon="0.91541">
        <ele>657.68</ele>
        <time>2017-08-05T15:34:48Z</time>
      </trkpt>
      <trkpt lat="42.92994" lon="0.9156">
        <ele>657.68</ele>
        <time>2017-08-05T15:34:51Z</time>
      </trkpt>
      <trkpt lat="42.93" lon="0.91609">
        <ele>657.2</ele>
        <time>2017-08-05T15:34:59Z</time>
      </trkpt>
      <trkpt lat="42.93011" lon="0.91614">
        <ele>656.72</ele>
        <time>2017-08-05T15:35:03Z</time>
      </trkpt>
      <trkpt lat="42.93016" lon="0.91614">
        <ele>656.24</ele>
        <time>2017-08-05T15:35:20Z</time>
      </trkpt>
      <trkpt lat="42.93017" lon="0.91616">
        <ele>655.28</ele>
        <time>2017-08-05T15:35:48Z</time>
      </trkpt>
      <trkpt lat="42.93016" lon="0.91614">
        <ele>655.28</ele>
        <time>2017-08-05T15:36:02Z</time>
      </trkpt>
      <trkpt lat="42.93016" lon="0.91613">
        <ele>654.8</ele>
        <time>2017-08-05T15:36:24Z</time>
      </trkpt>
      <trkpt lat="42.93016" lon="0.91608">
        <ele>654.8</ele>
        <time>2017-08-05T15:36:53Z</time>
      </trkpt>
      <trkpt lat="42.93038" lon="0.91608">
        <ele>654.31</ele>
        <time>2017-08-05T15:37:04Z</time>
      </trkpt>
      <trkpt lat="42.93045" lon="0.91608">
        <ele>653.83</ele>
        <time>2017-08-05T15:37:06Z</time>
      </trkpt>
      <trkpt lat="42.93062" lon="0.91618">
        <ele>653.35</ele>
        <time>2017-08-05T15:37:10Z</time>
      </trkpt>
      <trkpt lat="42.93086" lon="0.91654">
        <ele>652.87</ele>
        <time>2017-08-05T15:37:17Z</time>
      </trkpt>
      <trkpt lat="42.9311" lon="0.91697">
        <ele>651.91</ele>
        <time>2017-08-05T15:37:28Z</time>
      </trkpt>
      <trkpt lat="42.93139" lon="0.91738">
        <ele>650.95</ele>
        <time>2017-08-05T15:37:40Z</time>
      </trkpt>
      <trkpt lat="42.93145" lon="0.91747">
        <ele>650.47</ele>
        <time>2017-08-05T15:37:42Z</time>
      </trkpt>
      <trkpt lat="42.93163" lon="0.91774">
        <ele>649.51</ele>
        <time>2017-08-05T15:37:49Z</time>
      </trkpt>
      <trkpt lat="42.9317" lon="0.91801">
        <ele>649.03</ele>
        <time>2017-08-05T15:37:53Z</time>
      </trkpt>
      <trkpt lat="42.93168" lon="0.91831">
        <ele>648.55</ele>
        <time>2017-08-05T15:37:57Z</time>
      </trkpt>
      <trkpt lat="42.93158" lon="0.91863">
        <ele>648.07</ele>
        <time>2017-08-05T15:38:02Z</time>
      </trkpt>
      <trkpt lat="42.93152" lon="0.91889">
        <ele>648.07</ele>
        <time>2017-08-05T15:38:06Z</time>
      </trkpt>
      <trkpt lat="42.93152" lon="0.91914">
        <ele>648.07</ele>
        <time>2017-08-05T15:38:10Z</time>
      </trkpt>
      <trkpt lat="42.93184" lon="0.9193">
        <ele>648.07</ele>
        <time>2017-08-05T15:38:19Z</time>
      </trkpt>
      <trkpt lat="42.93239" lon="0.91946">
        <ele>649.03</ele>
        <time>2017-08-05T15:38:32Z</time>
      </trkpt>
      <trkpt lat="42.93247" lon="0.91964">
        <ele>649.03</ele>
        <time>2017-08-05T15:38:36Z</time>
      </trkpt>
      <trkpt lat="42.93264" lon="0.92023">
        <ele>650.47</ele>
        <time>2017-08-05T15:38:48Z</time>
      </trkpt>
      <trkpt lat="42.93266" lon="0.92069">
        <ele>649.99</ele>
        <time>2017-08-05T15:39:01Z</time>
      </trkpt>
      <trkpt lat="42.93266" lon="0.9209">
        <ele>649.03</ele>
        <time>2017-08-05T15:39:04Z</time>
      </trkpt>
      <trkpt lat="42.9326" lon="0.922">
        <ele>647.1</ele>
        <time>2017-08-05T15:39:17Z</time>
      </trkpt>
      <trkpt lat="42.93233" lon="0.92333">
        <ele>644.7</ele>
        <time>2017-08-05T15:39:33Z</time>
      </trkpt>
      <trkpt lat="42.93206" lon="0.92479">
        <ele>644.22</ele>
        <time>2017-08-05T15:39:50Z</time>
      </trkpt>
      <trkpt lat="42.93193" lon="0.92604">
        <ele>645.66</ele>
        <time>2017-08-05T15:40:05Z</time>
      </trkpt>
      <trkpt lat="42.93184" lon="0.92678">
        <ele>648.07</ele>
        <time>2017-08-05T15:40:16Z</time>
      </trkpt>
      <trkpt lat="42.93186" lon="0.92697">
        <ele>648.55</ele>
        <time>2017-08-05T15:40:19Z</time>
      </trkpt>
      <trkpt lat="42.93195" lon="0.9272">
        <ele>648.55</ele>
        <time>2017-08-05T15:40:23Z</time>
      </trkpt>
      <trkpt lat="42.93195" lon="0.9277">
        <ele>649.03</ele>
        <time>2017-08-05T15:40:31Z</time>
      </trkpt>
      <trkpt lat="42.93149" lon="0.92821">
        <ele>651.91</ele>
        <time>2017-08-05T15:40:45Z</time>
      </trkpt>
      <trkpt lat="42.93124" lon="0.92846">
        <ele>653.35</ele>
        <time>2017-08-05T15:40:53Z</time>
      </trkpt>
      <trkpt lat="42.93066" lon="0.92863">
        <ele>656.24</ele>
        <time>2017-08-05T15:41:09Z</time>
      </trkpt>
      <trkpt lat="42.93012" lon="0.92889">
        <ele>659.12</ele>
        <time>2017-08-05T15:41:24Z</time>
      </trkpt>
      <trkpt lat="42.92992" lon="0.92906">
        <ele>659.6</ele>
        <time>2017-08-05T15:41:30Z</time>
      </trkpt>
      <trkpt lat="42.92981" lon="0.92928">
        <ele>660.08</ele>
        <time>2017-08-05T15:41:35Z</time>
      </trkpt>
      <trkpt lat="42.92982" lon="0.93">
        <ele>662.49</ele>
        <time>2017-08-05T15:41:49Z</time>
      </trkpt>
      <trkpt lat="42.93011" lon="0.93058">
        <ele>663.45</ele>
        <time>2017-08-05T15:42:02Z</time>
      </trkpt>
      <trkpt lat="42.93021" lon="0.93073">
        <ele>663.93</ele>
        <time>2017-08-05T15:42:06Z</time>
      </trkpt>
      <trkpt lat="42.93031" lon="0.93089">
        <ele>664.41</ele>
        <time>2017-08-05T15:42:10Z</time>
      </trkpt>
      <trkpt lat="42.93043" lon="0.93108">
        <ele>664.89</ele>
        <time>2017-08-05T15:42:14Z</time>
      </trkpt>
      <trkpt lat="42.93069" lon="0.93154">
        <ele>665.37</ele>
        <time>2017-08-05T15:42:23Z</time>
      </trkpt>
      <trkpt lat="42.93074" lon="0.93165">
        <ele>665.37</ele>
        <time>2017-08-05T15:42:25Z</time>
      </trkpt>
      <trkpt lat="42.93149" lon="0.93262">
        <ele>664.89</ele>
        <time>2017-08-05T15:42:44Z</time>
      </trkpt>
      <trkpt lat="42.93165" lon="0.93278">
        <ele>663.45</ele>
        <time>2017-08-05T15:42:47Z</time>
      </trkpt>
      <trkpt lat="42.93225" lon="0.9334">
        <ele>662.49</ele>
        <time>2017-08-05T15:42:59Z</time>
      </trkpt>
      <trkpt lat="42.93269" lon="0.93428">
        <ele>663.45</ele>
        <time>2017-08-05T15:43:12Z</time>
      </trkpt>
      <trkpt lat="42.93325" lon="0.93536">
        <ele>664.41</ele>
        <time>2017-08-05T15:43:29Z</time>
      </trkpt>
      <trkpt lat="42.93386" lon="0.93654">
        <ele>665.85</ele>
        <time>2017-08-05T15:43:47Z</time>
      </trkpt>
      <trkpt lat="42.93406" lon="0.93692">
        <ele>666.81</ele>
        <time>2017-08-05T15:43:53Z</time>
      </trkpt>
      <trkpt lat="42.93418" lon="0.93809">
        <ele>663.93</ele>
        <time>2017-08-05T15:44:07Z</time>
      </trkpt>
      <trkpt lat="42.93423" lon="0.93891">
        <ele>660.56</ele>
        <time>2017-08-05T15:44:15Z</time>
      </trkpt>
      <trkpt lat="42.93425" lon="0.93925">
        <ele>659.12</ele>
        <time>2017-08-05T15:44:18Z</time>
      </trkpt>
      <trkpt lat="42.93431" lon="0.93983">
        <ele>657.2</ele>
        <time>2017-08-05T15:44:23Z</time>
      </trkpt>
      <trkpt lat="42.93449" lon="0.94041">
        <ele>653.83</ele>
        <time>2017-08-05T15:44:28Z</time>
      </trkpt>
      <trkpt lat="42.93473" lon="0.941">
        <ele>650.95</ele>
        <time>2017-08-05T15:44:33Z</time>
      </trkpt>
      <trkpt lat="42.9348" lon="0.94111">
        <ele>650.95</ele>
        <time>2017-08-05T15:44:34Z</time>
      </trkpt>
      <trkpt lat="42.93513" lon="0.94134">
        <ele>648.55</ele>
        <time>2017-08-05T15:44:38Z</time>
      </trkpt>
      <trkpt lat="42.93556" lon="0.94137">
        <ele>645.66</ele>
        <time>2017-08-05T15:44:42Z</time>
      </trkpt>
      <trkpt lat="42.93612" lon="0.94149">
        <ele>642.3</ele>
        <time>2017-08-05T15:44:48Z</time>
      </trkpt>
      <trkpt lat="42.93608" lon="0.94194">
        <ele>641.34</ele>
        <time>2017-08-05T15:44:52Z</time>
      </trkpt>
      <trkpt lat="42.93552" lon="0.94317">
        <ele>637.97</ele>
        <time>2017-08-05T15:45:03Z</time>
      </trkpt>
      <trkpt lat="42.93522" lon="0.94408">
        <ele>636.05</ele>
        <time>2017-08-05T15:45:11Z</time>
      </trkpt>
      <trkpt lat="42.93523" lon="0.94458">
        <ele>634.13</ele>
        <time>2017-08-05T15:45:15Z</time>
      </trkpt>
      <trkpt lat="42.93534" lon="0.94558">
        <ele>630.76</ele>
        <time>2017-08-05T15:45:22Z</time>
      </trkpt>
      <trkpt lat="42.93538" lon="0.94587">
        <ele>630.28</ele>
        <time>2017-08-05T15:45:24Z</time>
      </trkpt>
      <trkpt lat="42.93551" lon="0.94627">
        <ele>628.36</ele>
        <time>2017-08-05T15:45:27Z</time>
      </trkpt>
      <trkpt lat="42.93604" lon="0.94701">
        <ele>624.51</ele>
        <time>2017-08-05T15:45:34Z</time>
      </trkpt>
      <trkpt lat="42.93653" lon="0.94738">
        <ele>621.15</ele>
        <time>2017-08-05T15:45:39Z</time>
      </trkpt>
      <trkpt lat="42.93684" lon="0.94763">
        <ele>618.75</ele>
        <time>2017-08-05T15:45:42Z</time>
      </trkpt>
      <trkpt lat="42.93718" lon="0.94829">
        <ele>614.9</ele>
        <time>2017-08-05T15:45:47Z</time>
      </trkpt>
      <trkpt lat="42.93731" lon="0.94914">
        <ele>610.57</ele>
        <time>2017-08-05T15:45:52Z</time>
      </trkpt>
      <trkpt lat="42.93741" lon="0.94983">
        <ele>606.73</ele>
        <time>2017-08-05T15:45:56Z</time>
      </trkpt>
      <trkpt lat="42.93743" lon="0.95001">
        <ele>605.77</ele>
        <time>2017-08-05T15:45:57Z</time>
      </trkpt>
      <trkpt lat="42.93742" lon="0.95073">
        <ele>602.4</ele>
        <time>2017-08-05T15:46:01Z</time>
      </trkpt>
      <trkpt lat="42.93769" lon="0.95164">
        <ele>598.56</ele>
        <time>2017-08-05T15:46:07Z</time>
      </trkpt>
      <trkpt lat="42.93782" lon="0.95191">
        <ele>597.6</ele>
        <time>2017-08-05T15:46:09Z</time>
      </trkpt>
      <trkpt lat="42.93792" lon="0.95237">
        <ele>596.15</ele>
        <time>2017-08-05T15:46:12Z</time>
      </trkpt>
      <trkpt lat="42.93774" lon="0.95338">
        <ele>593.75</ele>
        <time>2017-08-05T15:46:19Z</time>
      </trkpt>
      <trkpt lat="42.93767" lon="0.95348">
        <ele>594.23</ele>
        <time>2017-08-05T15:46:20Z</time>
      </trkpt>
      <trkpt lat="42.93673" lon="0.95512">
        <ele>593.75</ele>
        <time>2017-08-05T15:46:35Z</time>
      </trkpt>
      <trkpt lat="42.93669" lon="0.95619">
        <ele>593.75</ele>
        <time>2017-08-05T15:46:43Z</time>
      </trkpt>
      <trkpt lat="42.93699" lon="0.95679">
        <ele>593.27</ele>
        <time>2017-08-05T15:46:48Z</time>
      </trkpt>
      <trkpt lat="42.93718" lon="0.95727">
        <ele>592.79</ele>
        <time>2017-08-05T15:46:52Z</time>
      </trkpt>
      <trkpt lat="42.93726" lon="0.95779">
        <ele>591.35</ele>
        <time>2017-08-05T15:46:56Z</time>
      </trkpt>
      <trkpt lat="42.93719" lon="0.95898">
        <ele>587.5</ele>
        <time>2017-08-05T15:47:05Z</time>
      </trkpt>
      <trkpt lat="42.93718" lon="0.95973">
        <ele>586.06</ele>
        <time>2017-08-05T15:47:10Z</time>
      </trkpt>
      <trkpt lat="42.93717" lon="0.96097">
        <ele>582.7</ele>
        <time>2017-08-05T15:47:19Z</time>
      </trkpt>
      <trkpt lat="42.93716" lon="0.96159">
        <ele>581.73</ele>
        <time>2017-08-05T15:47:24Z</time>
      </trkpt>
      <trkpt lat="42.93701" lon="0.96211">
        <ele>581.25</ele>
        <time>2017-08-05T15:47:29Z</time>
      </trkpt>
      <trkpt lat="42.93672" lon="0.96249">
        <ele>580.29</ele>
        <time>2017-08-05T15:47:34Z</time>
      </trkpt>
      <trkpt lat="42.93628" lon="0.96278">
        <ele>580.29</ele>
        <time>2017-08-05T15:47:40Z</time>
      </trkpt>
      <trkpt lat="42.93627" lon="0.96319">
        <ele>580.29</ele>
        <time>2017-08-05T15:47:46Z</time>
      </trkpt>
      <trkpt lat="42.93639" lon="0.96331">
        <ele>579.81</ele>
        <time>2017-08-05T15:47:48Z</time>
      </trkpt>
      <trkpt lat="42.93657" lon="0.96362">
        <ele>579.81</ele>
        <time>2017-08-05T15:47:52Z</time>
      </trkpt>
      <trkpt lat="42.93691" lon="0.96514">
        <ele>578.85</ele>
        <time>2017-08-05T15:48:07Z</time>
      </trkpt>
      <trkpt lat="42.93695" lon="0.96578">
        <ele>578.37</ele>
        <time>2017-08-05T15:48:13Z</time>
      </trkpt>
      <trkpt lat="42.93694" lon="0.96599">
        <ele>578.37</ele>
        <time>2017-08-05T15:48:15Z</time>
      </trkpt>
      <trkpt lat="42.93703" lon="0.96734">
        <ele>575.97</ele>
        <time>2017-08-05T15:48:28Z</time>
      </trkpt>
      <trkpt lat="42.93682" lon="0.96849">
        <ele>572.12</ele>
        <time>2017-08-05T15:48:37Z</time>
      </trkpt>
      <trkpt lat="42.93648" lon="0.97019">
        <ele>569.24</ele>
        <time>2017-08-05T15:48:51Z</time>
      </trkpt>
      <trkpt lat="42.9361" lon="0.97212">
        <ele>566.83</ele>
        <time>2017-08-05T15:49:07Z</time>
      </trkpt>
      <trkpt lat="42.93571" lon="0.97404">
        <ele>565.87</ele>
        <time>2017-08-05T15:49:23Z</time>
      </trkpt>
      <trkpt lat="42.93565" lon="0.97438">
        <ele>565.87</ele>
        <time>2017-08-05T15:49:26Z</time>
      </trkpt>
      <trkpt lat="42.93523" lon="0.9759">
        <ele>564.91</ele>
        <time>2017-08-05T15:49:41Z</time>
      </trkpt>
      <trkpt lat="42.93521" lon="0.97598">
        <ele>564.91</ele>
        <time>2017-08-05T15:49:42Z</time>
      </trkpt>
      <trkpt lat="42.93506" lon="0.97627">
        <ele>566.83</ele>
        <time>2017-08-05T15:49:49Z</time>
      </trkpt>
      <trkpt lat="42.93483" lon="0.97653">
        <ele>566.35</ele>
        <time>2017-08-05T15:50:02Z</time>
      </trkpt>
      <trkpt lat="42.93472" lon="0.97663">
        <ele>566.35</ele>
        <time>2017-08-05T15:50:05Z</time>
      </trkpt>
      <trkpt lat="42.9342" lon="0.97729">
        <ele>566.35</ele>
        <time>2017-08-05T15:50:19Z</time>
      </trkpt>
      <trkpt lat="42.93374" lon="0.97809">
        <ele>566.35</ele>
        <time>2017-08-05T15:50:31Z</time>
      </trkpt>
      <trkpt lat="42.93345" lon="0.97861">
        <ele>565.87</ele>
        <time>2017-08-05T15:50:38Z</time>
      </trkpt>
      <trkpt lat="42.93312" lon="0.98013">
        <ele>566.35</ele>
        <time>2017-08-05T15:50:55Z</time>
      </trkpt>
      <trkpt lat="42.93289" lon="0.98151">
        <ele>567.32</ele>
        <time>2017-08-05T15:51:11Z</time>
      </trkpt>
      <trkpt lat="42.93271" lon="0.98223">
        <ele>565.87</ele>
        <time>2017-08-05T15:51:19Z</time>
      </trkpt>
      <trkpt lat="42.93226" lon="0.98355">
        <ele>562.51</ele>
        <time>2017-08-05T15:51:33Z</time>
      </trkpt>
      <trkpt lat="42.93204" lon="0.98499">
        <ele>561.55</ele>
        <time>2017-08-05T15:51:48Z</time>
      </trkpt>
      <trkpt lat="42.93209" lon="0.98624">
        <ele>560.59</ele>
        <time>2017-08-05T15:52:01Z</time>
      </trkpt>
      <trkpt lat="42.93209" lon="0.98787">
        <ele>559.14</ele>
        <time>2017-08-05T15:52:17Z</time>
      </trkpt>
      <trkpt lat="42.93206" lon="0.98833">
        <ele>560.11</ele>
        <time>2017-08-05T15:52:22Z</time>
      </trkpt>
      <trkpt lat="42.93221" lon="0.98962">
        <ele>559.14</ele>
        <time>2017-08-05T15:52:36Z</time>
      </trkpt>
      <trkpt lat="42.9323" lon="0.99022">
        <ele>558.66</ele>
        <time>2017-08-05T15:52:42Z</time>
      </trkpt>
      <trkpt lat="42.93227" lon="0.99065">
        <ele>557.7</ele>
        <time>2017-08-05T15:52:46Z</time>
      </trkpt>
      <trkpt lat="42.93214" lon="0.99166">
        <ele>554.34</ele>
        <time>2017-08-05T15:52:55Z</time>
      </trkpt>
      <trkpt lat="42.93172" lon="0.99226">
        <ele>550.49</ele>
        <time>2017-08-05T15:53:02Z</time>
      </trkpt>
      <trkpt lat="42.93137" lon="0.99238">
        <ele>549.05</ele>
        <time>2017-08-05T15:53:06Z</time>
      </trkpt>
      <trkpt lat="42.93085" lon="0.99296">
        <ele>547.61</ele>
        <time>2017-08-05T15:53:14Z</time>
      </trkpt>
      <trkpt lat="42.93048" lon="0.99336">
        <ele>546.65</ele>
        <time>2017-08-05T15:53:20Z</time>
      </trkpt>
      <trkpt lat="42.93028" lon="0.99391">
        <ele>546.17</ele>
        <time>2017-08-05T15:53:26Z</time>
      </trkpt>
      <trkpt lat="42.93009" lon="0.99492">
        <ele>545.69</ele>
        <time>2017-08-05T15:53:37Z</time>
      </trkpt>
      <trkpt lat="42.93003" lon="0.9951">
        <ele>545.69</ele>
        <time>2017-08-05T15:53:39Z</time>
      </trkpt>
      <trkpt lat="42.92935" lon="0.99612">
        <ele>545.2</ele>
        <time>2017-08-05T15:53:52Z</time>
      </trkpt>
      <trkpt lat="42.92865" lon="0.99706">
        <ele>544.72</ele>
        <time>2017-08-05T15:54:06Z</time>
      </trkpt>
      <trkpt lat="42.92806" lon="0.99806">
        <ele>544.24</ele>
        <time>2017-08-05T15:54:20Z</time>
      </trkpt>
      <trkpt lat="42.92744" lon="0.9993">
        <ele>543.28</ele>
        <time>2017-08-05T15:54:36Z</time>
      </trkpt>
      <trkpt lat="42.9268" lon="1.0003">
        <ele>542.8</ele>
        <time>2017-08-05T15:54:50Z</time>
      </trkpt>
      <trkpt lat="42.92615" lon="1.00137">
        <ele>541.36</ele>
        <time>2017-08-05T15:55:04Z</time>
      </trkpt>
      <trkpt lat="42.92579" lon="1.00257">
        <ele>540.88</ele>
        <time>2017-08-05T15:55:18Z</time>
      </trkpt>
      <trkpt lat="42.92547" lon="1.00437">
        <ele>538.48</ele>
        <time>2017-08-05T15:55:36Z</time>
      </trkpt>
      <trkpt lat="42.92539" lon="1.00592">
        <ele>537.03</ele>
        <time>2017-08-05T15:55:51Z</time>
      </trkpt>
      <trkpt lat="42.92547" lon="1.00745">
        <ele>535.11</ele>
        <time>2017-08-05T15:56:06Z</time>
      </trkpt>
      <trkpt lat="42.9256" lon="1.00929">
        <ele>534.15</ele>
        <time>2017-08-05T15:56:24Z</time>
      </trkpt>
      <trkpt lat="42.92578" lon="1.01098">
        <ele>532.71</ele>
        <time>2017-08-05T15:56:40Z</time>
      </trkpt>
      <trkpt lat="42.92622" lon="1.01276">
        <ele>530.79</ele>
        <time>2017-08-05T15:56:57Z</time>
      </trkpt>
      <trkpt lat="42.92682" lon="1.01438">
        <ele>529.34</ele>
        <time>2017-08-05T15:57:13Z</time>
      </trkpt>
      <trkpt lat="42.92738" lon="1.01539">
        <ele>528.38</ele>
        <time>2017-08-05T15:57:24Z</time>
      </trkpt>
      <trkpt lat="42.92742" lon="1.0155">
        <ele>528.38</ele>
        <time>2017-08-05T15:57:25Z</time>
      </trkpt>
      <trkpt lat="42.92739" lon="1.01635">
        <ele>528.38</ele>
        <time>2017-08-05T15:57:33Z</time>
      </trkpt>
      <trkpt lat="42.92699" lon="1.01709">
        <ele>527.9</ele>
        <time>2017-08-05T15:57:42Z</time>
      </trkpt>
      <trkpt lat="42.92661" lon="1.0184">
        <ele>526.94</ele>
        <time>2017-08-05T15:57:55Z</time>
      </trkpt>
      <trkpt lat="42.9266" lon="1.01851">
        <ele>526.94</ele>
        <time>2017-08-05T15:57:56Z</time>
      </trkpt>
      <trkpt lat="42.92671" lon="1.02027">
        <ele>525.5</ele>
        <time>2017-08-05T15:58:12Z</time>
      </trkpt>
      <trkpt lat="42.92673" lon="1.02037">
        <ele>525.5</ele>
        <time>2017-08-05T15:58:13Z</time>
      </trkpt>
      <trkpt lat="42.92685" lon="1.02076">
        <ele>525.5</ele>
        <time>2017-08-05T15:58:17Z</time>
      </trkpt>
      <trkpt lat="42.92715" lon="1.02134">
        <ele>526.94</ele>
        <time>2017-08-05T15:58:24Z</time>
      </trkpt>
      <trkpt lat="42.92776" lon="1.02238">
        <ele>526.94</ele>
        <time>2017-08-05T15:58:37Z</time>
      </trkpt>
      <trkpt lat="42.92796" lon="1.02281">
        <ele>526.94</ele>
        <time>2017-08-05T15:58:42Z</time>
      </trkpt>
      <trkpt lat="42.92805" lon="1.02321">
        <ele>526.94</ele>
        <time>2017-08-05T15:58:46Z</time>
      </trkpt>
      <trkpt lat="42.92801" lon="1.02374">
        <ele>525.5</ele>
        <time>2017-08-05T15:58:51Z</time>
      </trkpt>
      <trkpt lat="42.92796" lon="1.02394">
        <ele>525.5</ele>
        <time>2017-08-05T15:58:53Z</time>
      </trkpt>
      <trkpt lat="42.92781" lon="1.02437">
        <ele>524.06</ele>
        <time>2017-08-05T15:58:58Z</time>
      </trkpt>
      <trkpt lat="42.92778" lon="1.02468">
        <ele>523.09</ele>
        <time>2017-08-05T15:59:02Z</time>
      </trkpt>
      <trkpt lat="42.92783" lon="1.02556">
        <ele>523.09</ele>
        <time>2017-08-05T15:59:14Z</time>
      </trkpt>
      <trkpt lat="42.92785" lon="1.02574">
        <ele>523.09</ele>
        <time>2017-08-05T15:59:17Z</time>
      </trkpt>
      <trkpt lat="42.92774" lon="1.02588">
        <ele>522.61</ele>
        <time>2017-08-05T15:59:21Z</time>
      </trkpt>
      <trkpt lat="42.92728" lon="1.02589">
        <ele>522.61</ele>
        <time>2017-08-05T15:59:30Z</time>
      </trkpt>
      <trkpt lat="42.92707" lon="1.02602">
        <ele>521.65</ele>
        <time>2017-08-05T15:59:34Z</time>
      </trkpt>
      <trkpt lat="42.92615" lon="1.02683">
        <ele>521.17</ele>
        <time>2017-08-05T15:59:51Z</time>
      </trkpt>
      <trkpt lat="42.92563" lon="1.02751">
        <ele>522.13</ele>
        <time>2017-08-05T16:00:03Z</time>
      </trkpt>
      <trkpt lat="42.9251" lon="1.02816">
        <ele>523.09</ele>
        <time>2017-08-05T16:00:15Z</time>
      </trkpt>
      <trkpt lat="42.92429" lon="1.0284">
        <ele>524.06</ele>
        <time>2017-08-05T16:00:29Z</time>
      </trkpt>
      <trkpt lat="42.92374" lon="1.02853">
        <ele>524.54</ele>
        <time>2017-08-05T16:00:42Z</time>
      </trkpt>
      <trkpt lat="42.92373" lon="1.02856">
        <ele>524.54</ele>
        <time>2017-08-05T16:00:43Z</time>
      </trkpt>
      <trkpt lat="42.92374" lon="1.02879">
        <ele>525.02</ele>
        <time>2017-08-05T16:00:55Z</time>
      </trkpt>
      <trkpt lat="42.92376" lon="1.0288">
        <ele>525.02</ele>
        <time>2017-08-05T16:01:23Z</time>
      </trkpt>
      <trkpt lat="42.92375" lon="1.02874">
        <ele>524.54</ele>
        <time>2017-08-05T16:01:32Z</time>
      </trkpt>
      <trkpt lat="42.92374" lon="1.02872">
        <ele>524.54</ele>
        <time>2017-08-05T16:01:34Z</time>
      </trkpt>
      <trkpt lat="42.92362" lon="1.02858">
        <ele>524.54</ele>
        <time>2017-08-05T16:01:44Z</time>
      </trkpt>
      <trkpt lat="42.92355" lon="1.02863">
        <ele>525.02</ele>
        <time>2017-08-05T16:01:47Z</time>
      </trkpt>
      <trkpt lat="42.92315" lon="1.02901">
        <ele>526.46</ele>
        <time>2017-08-05T16:02:02Z</time>
      </trkpt>
      <trkpt lat="42.92271" lon="1.02913">
        <ele>528.86</ele>
        <time>2017-08-05T16:02:17Z</time>
      </trkpt>
      <trkpt lat="42.92239" lon="1.02919">
        <ele>531.75</ele>
        <time>2017-08-05T16:02:31Z</time>
      </trkpt>
      <trkpt lat="42.92214" lon="1.02938">
        <ele>535.11</ele>
        <time>2017-08-05T16:02:45Z</time>
      </trkpt>
      <trkpt lat="42.92196" lon="1.02963">
        <ele>538.48</ele>
        <time>2017-08-05T16:02:58Z</time>
      </trkpt>
      <trkpt lat="42.92172" lon="1.02993">
        <ele>540.88</ele>
        <time>2017-08-05T16:03:14Z</time>
      </trkpt>
      <trkpt lat="42.9217" lon="1.02994">
        <ele>541.36</ele>
        <time>2017-08-05T16:03:17Z</time>
      </trkpt>
      <trkpt lat="42.92171" lon="1.0298">
        <ele>541.36</ele>
        <time>2017-08-05T16:03:24Z</time>
      </trkpt>
      <trkpt lat="42.92171" lon="1.02967">
        <ele>539.92</ele>
        <time>2017-08-05T16:03:27Z</time>
      </trkpt>
      <trkpt lat="42.92171" lon="1.02957">
        <ele>539.44</ele>
        <time>2017-08-05T16:03:29Z</time>
      </trkpt>
      <trkpt lat="42.92153" lon="1.02936">
        <ele>537.99</ele>
        <time>2017-08-05T16:03:35Z</time>
      </trkpt>
      <trkpt lat="42.92074" lon="1.02928">
        <ele>535.59</ele>
        <time>2017-08-05T16:03:50Z</time>
      </trkpt>
      <trkpt lat="42.92047" lon="1.02928">
        <ele>535.59</ele>
        <time>2017-08-05T16:04:01Z</time>
      </trkpt>
      <trkpt lat="42.92047" lon="1.02929">
        <ele>535.59</ele>
        <time>2017-08-05T16:04:02Z</time>
      </trkpt>
      <trkpt lat="42.92039" lon="1.02931">
        <ele>535.59</ele>
        <time>2017-08-05T16:04:08Z</time>
      </trkpt>
      <trkpt lat="42.92002" lon="1.02925">
        <ele>537.03</ele>
        <time>2017-08-05T16:04:23Z</time>
      </trkpt>
      <trkpt lat="42.91955" lon="1.02914">
        <ele>538.48</ele>
        <time>2017-08-05T16:04:40Z</time>
      </trkpt>
      <trkpt lat="42.91951" lon="1.02913">
        <ele>538.48</ele>
        <time>2017-08-05T16:04:42Z</time>
      </trkpt>
      <trkpt lat="42.91936" lon="1.02887">
        <ele>537.51</ele>
        <time>2017-08-05T16:04:55Z</time>
      </trkpt>
      <trkpt lat="42.91933" lon="1.02866">
        <ele>536.07</ele>
        <time>2017-08-05T16:05:06Z</time>
      </trkpt>
      <trkpt lat="42.92033" lon="1.0282">
        <ele>531.75</ele>
        <time>2017-08-05T19:06:54Z</time>
      </trkpt>
    </trkseg>
  </trk>
</gpx>